Wetterdaten: Samstag, 15.07.2017
Datum Zeit Temp. A. Temp. A. max Feuchte A. Luftdruck Regen Wind Richtung Richtung Sonnenschein ET UV Solar Taupunkt Windchill Windböen
15.07.2017 00:00 12,9 °C 12,9 °C 88 % 1016,7 hPa 0,0 mm 4,0 km/h (1 Bft) W-SW 244 ° 0 min 0,000 mm 0,0 UV-I 0 W/m² 11,0 °C 12,9 °C 8,0 km/h (2 Bft)
15.07.2017 00:01 12,9 °C 12,9 °C 88 % 1016,7 hPa 0,0 mm 4,8 km/h (1 Bft) W-SW 244 ° 0 min 0,000 mm 0,0 UV-I 0 W/m² 11,0 °C 12,9 °C 4,8 km/h (1 Bft)
15.07.2017 00:02 12,9 °C 12,9 °C 88 % 1016,7 hPa 0,0 mm 4,8 km/h (1 Bft) W-SW 244 ° 0 min 0,000 mm 0,0 UV-I 0 W/m² 11,0 °C 12,9 °C 4,8 km/h (1 Bft)
15.07.2017 00:03 12,8 °C 12,9 °C 88 % 1016,7 hPa 0,0 mm 4,2 km/h (1 Bft) S-SW 196 ° 0 min 0,000 mm 0,0 UV-I 0 W/m² 10,9 °C 12,8 °C 6,4 km/h (2 Bft)
15.07.2017 00:04 12,8 °C 12,8 °C 89 % 1016,7 hPa 0,0 mm 4,6 km/h (1 Bft) W-SW 258 ° 0 min 0,000 mm 0,0 UV-I 0 W/m² 11,0 °C 12,8 °C 9,7 km/h (2 Bft)
15.07.2017 00:05 12,7 °C 12,8 °C 88 % 1016,7 hPa 0,0 mm 3,8 km/h (1 Bft) S-SW 213 ° 0 min 0,000 mm 0,0 UV-I 0 W/m² 10,8 °C 12,7 °C 6,4 km/h (2 Bft)
15.07.2017 00:06 12,8 °C 12,8 °C 88 % 1016,7 hPa 0,0 mm 6,8 km/h (2 Bft) S 189 ° 0 min 0,000 mm 0,0 UV-I 0 W/m² 10,9 °C 12,8 °C 11,3 km/h (2 Bft)
15.07.2017 00:07 12,7 °C 12,8 °C 88 % 1016,7 hPa 0,0 mm 6,0 km/h (2 Bft) W-SW 256 ° 0 min 0,000 mm 0,0 UV-I 0 W/m² 10,8 °C 12,7 °C 11,3 km/h (2 Bft)
15.07.2017 00:08 12,8 °C 12,8 °C 88 % 1016,8 hPa 0,0 mm 3,1 km/h (1 Bft) S-SW 209 ° 0 min 0,000 mm 0,0 UV-I 0 W/m² 10,9 °C 12,8 °C 4,8 km/h (1 Bft)
15.07.2017 00:09 12,8 °C 12,8 °C 88 % 1016,8 hPa 0,0 mm 3,0 km/h (1 Bft) W-SW 240 ° 0 min 0,000 mm 0,0 UV-I 0 W/m² 10,9 °C 12,8 °C 6,4 km/h (2 Bft)
15.07.2017 00:10 12,8 °C 12,8 °C 88 % 1016,8 hPa 0,0 mm 2,5 km/h (1 Bft) SW 222 ° 0 min 0,000 mm 0,0 UV-I 0 W/m² 10,9 °C 12,8 °C 6,4 km/h (2 Bft)
15.07.2017 00:11 12,8 °C 12,8 °C 88 % 1016,8 hPa 0,0 mm 4,1 km/h (1 Bft) W-SW 246 ° 0 min 0,000 mm 0,0 UV-I 0 W/m² 10,9 °C 12,8 °C 11,3 km/h (2 Bft)
15.07.2017 00:12 12,8 °C 12,8 °C 88 % 1016,8 hPa 0,0 mm 4,4 km/h (1 Bft) SW 223 ° 0 min 0,000 mm 0,0 UV-I 0 W/m² 10,9 °C 12,8 °C 11,3 km/h (2 Bft)
15.07.2017 00:13 12,8 °C 12,8 °C 88 % 1016,8 hPa 0,0 mm 6,3 km/h (2 Bft) W-SW 253 ° 0 min 0,000 mm 0,0 UV-I 0 W/m² 10,9 °C 12,8 °C 11,3 km/h (2 Bft)
15.07.2017 00:14 12,8 °C 12,8 °C 88 % 1016,8 hPa 0,0 mm 3,1 km/h (1 Bft) W-SW 253 ° 0 min 0,000 mm 0,0 UV-I 0 W/m² 10,9 °C 12,8 °C 4,8 km/h (1 Bft)
15.07.2017 00:15 12,8 °C 12,8 °C 88 % 1016,8 hPa 0,0 mm 2,6 km/h (1 Bft) W-SW 242 ° 0 min 0,000 mm 0,0 UV-I 0 W/m² 10,9 °C 12,8 °C 4,8 km/h (1 Bft)
15.07.2017 00:16 12,8 °C 12,8 °C 88 % 1016,8 hPa 0,0 mm 2,0 km/h (1 Bft) SW 227 ° 0 min 0,000 mm 0,0 UV-I 0 W/m² 10,9 °C 12,8 °C 4,8 km/h (1 Bft)
15.07.2017 00:17 12,8 °C 12,8 °C 87 % 1016,8 hPa 0,0 mm 3,7 km/h (1 Bft) S-SW 192 ° 0 min 0,000 mm 0,0 UV-I 0 W/m² 10,7 °C 12,8 °C 8,0 km/h (2 Bft)
15.07.2017 00:18 12,8 °C 12,8 °C 87 % 1016,8 hPa 0,0 mm 5,2 km/h (1 Bft) SW 218 ° 0 min 0,000 mm 0,0 UV-I 0 W/m² 10,7 °C 12,8 °C 11,3 km/h (2 Bft)
15.07.2017 00:19 12,8 °C 12,8 °C 87 % 1016,8 hPa 0,0 mm 4,0 km/h (1 Bft) S 181 ° 0 min 0,000 mm 0,0 UV-I 0 W/m² 10,7 °C 12,8 °C 9,7 km/h (2 Bft)
15.07.2017 00:20 12,8 °C 12,8 °C 87 % 1016,8 hPa 0,0 mm 2,1 km/h (1 Bft) W-SW 242 ° 0 min 0,000 mm 0,0 UV-I 0 W/m² 10,7 °C 12,8 °C 4,8 km/h (1 Bft)
15.07.2017 00:21 12,8 °C 12,8 °C 87 % 1016,8 hPa 0,0 mm 4,2 km/h (1 Bft) S-SW 200 ° 0 min 0,000 mm 0,0 UV-I 0 W/m² 10,7 °C 12,8 °C 6,4 km/h (2 Bft)
15.07.2017 00:22 12,8 °C 12,9 °C 87 % 1016,8 hPa 0,0 mm 4,6 km/h (1 Bft) S-SW 195 ° 0 min 0,000 mm 0,0 UV-I 0 W/m² 10,7 °C 12,8 °C 11,3 km/h (2 Bft)
15.07.2017 00:23 12,9 °C 12,9 °C 87 % 1016,8 hPa 0,0 mm 1,9 km/h (1 Bft) S-SW 200 ° 0 min 0,000 mm 0,0 UV-I 0 W/m² 10,8 °C 12,9 °C 4,8 km/h (1 Bft)
15.07.2017 00:24 12,9 °C 12,9 °C 87 % 1016,7 hPa 0,0 mm 5,9 km/h (2 Bft) S 181 ° 0 min 0,000 mm 0,0 UV-I 0 W/m² 10,8 °C 12,9 °C 8,0 km/h (2 Bft)
15.07.2017 00:25 12,9 °C 12,9 °C 87 % 1016,7 hPa 0,0 mm 7,1 km/h (2 Bft) S-SW 192 ° 0 min 0,000 mm 0,0 UV-I 0 W/m² 10,8 °C 12,9 °C 9,7 km/h (2 Bft)
15.07.2017 00:26 12,9 °C 12,9 °C 87 % 1016,8 hPa 0,0 mm 6,4 km/h (2 Bft) S-SW 192 ° 0 min 0,000 mm 0,0 UV-I 0 W/m² 10,8 °C 12,9 °C 11,3 km/h (2 Bft)
15.07.2017 00:27 12,9 °C 12,9 °C 87 % 1016,8 hPa 0,0 mm 3,2 km/h (1 Bft) W-SW 250 ° 0 min 0,000 mm 0,0 UV-I 0 W/m² 10,8 °C 12,9 °C 6,4 km/h (2 Bft)
15.07.2017 00:28 12,8 °C 12,9 °C 87 % 1016,8 hPa 0,0 mm 3,8 km/h (1 Bft) SW 219 ° 0 min 0,000 mm 0,0 UV-I 0 W/m² 10,7 °C 12,8 °C 6,4 km/h (2 Bft)
15.07.2017 00:29 12,9 °C 12,9 °C 86 % 1016,8 hPa 0,0 mm 5,8 km/h (2 Bft) S 176 ° 0 min 0,000 mm 0,0 UV-I 0 W/m² 10,6 °C 12,9 °C 12,9 km/h (3 Bft)
15.07.2017 00:30 12,9 °C 12,9 °C 86 % 1016,9 hPa 0,0 mm 3,7 km/h (1 Bft) SW 222 ° 0 min 0,000 mm 0,0 UV-I 0 W/m² 10,6 °C 12,9 °C 8,0 km/h (2 Bft)
15.07.2017 00:31 12,9 °C 12,9 °C 86 % 1016,8 hPa 0,0 mm 5,6 km/h (1 Bft) S 190 ° 0 min 0,000 mm 0,0 UV-I 0 W/m² 10,6 °C 12,9 °C 12,9 km/h (3 Bft)
15.07.2017 00:32 13,0 °C 13,0 °C 86 % 1016,9 hPa 0,0 mm 6,1 km/h (2 Bft) W 263 ° 0 min 0,000 mm 0,0 UV-I 0 W/m² 10,7 °C 13,0 °C 12,9 km/h (3 Bft)
15.07.2017 00:33 13,0 °C 13,1 °C 86 % 1016,9 hPa 0,0 mm 5,4 km/h (1 Bft) S-SW 206 ° 0 min 0,000 mm 0,0 UV-I 0 W/m² 10,7 °C 13,0 °C 9,7 km/h (2 Bft)
15.07.2017 00:34 13,0 °C 13,1 °C 86 % 1016,9 hPa 0,0 mm 4,6 km/h (1 Bft) S 190 ° 0 min 0,000 mm 0,0 UV-I 0 W/m² 10,7 °C 13,0 °C 11,3 km/h (2 Bft)
15.07.2017 00:35 13,0 °C 13,0 °C 86 % 1016,9 hPa 0,0 mm 4,5 km/h (1 Bft) S 190 ° 0 min 0,000 mm 0,0 UV-I 0 W/m² 10,7 °C 13,0 °C 8,0 km/h (2 Bft)
15.07.2017 00:36 13,0 °C 13,0 °C 86 % 1016,9 hPa 0,0 mm 7,0 km/h (2 Bft) SW 215 ° 0 min 0,000 mm 0,0 UV-I 0 W/m² 10,7 °C 13,0 °C 14,5 km/h (3 Bft)
15.07.2017 00:37 13,1 °C 13,1 °C 86 % 1017,0 hPa 0,0 mm 7,2 km/h (2 Bft) S-SW 200 ° 0 min 0,000 mm 0,0 UV-I 0 W/m² 10,8 °C 13,1 °C 16,1 km/h (3 Bft)
15.07.2017 00:38 13,0 °C 13,1 °C 86 % 1017,0 hPa 0,0 mm 3,8 km/h (1 Bft) S 180 ° 0 min 0,000 mm 0,0 UV-I 0 W/m² 10,7 °C 13,0 °C 4,8 km/h (1 Bft)
15.07.2017 00:39 12,9 °C 13,0 °C 86 % 1016,9 hPa 0,0 mm 5,5 km/h (1 Bft) S 186 ° 0 min 0,000 mm 0,0 UV-I 0 W/m² 10,6 °C 12,9 °C 9,7 km/h (2 Bft)
15.07.2017 00:40 12,9 °C 12,9 °C 86 % 1017,0 hPa 0,0 mm 6,8 km/h (2 Bft) S-SW 196 ° 0 min 0,000 mm 0,0 UV-I 0 W/m² 10,6 °C 12,9 °C 11,3 km/h (2 Bft)
15.07.2017 00:41 12,9 °C 12,9 °C 86 % 1017,0 hPa 0,0 mm 9,1 km/h (2 Bft) S-SW 209 ° 0 min 0,000 mm 0,0 UV-I 0 W/m² 10,6 °C 12,9 °C 14,5 km/h (3 Bft)
15.07.2017 00:42 13,0 °C 13,0 °C 86 % 1017,0 hPa 0,0 mm 11,0 km/h (2 Bft) SW 222 ° 0 min 0,000 mm 0,0 UV-I 0 W/m² 10,7 °C 13,0 °C 17,7 km/h (3 Bft)
15.07.2017 00:43 12,9 °C 13,0 °C 86 % 1016,9 hPa 0,0 mm 8,0 km/h (2 Bft) S-SW 207 ° 0 min 0,000 mm 0,0 UV-I 0 W/m² 10,6 °C 12,9 °C 16,1 km/h (3 Bft)
15.07.2017 00:44 12,9 °C 13,0 °C 86 % 1016,9 hPa 0,0 mm 9,6 km/h (2 Bft) S 190 ° 0 min 0,000 mm 0,0 UV-I 0 W/m² 10,6 °C 12,9 °C 12,9 km/h (3 Bft)
15.07.2017 00:45 12,9 °C 12,9 °C 86 % 1017,0 hPa 0,0 mm 10,8 km/h (2 Bft) S 186 ° 0 min 0,000 mm 0,0 UV-I 0 W/m² 10,6 °C 12,9 °C 17,7 km/h (3 Bft)
15.07.2017 00:46 13,0 °C 13,0 °C 86 % 1017,0 hPa 0,0 mm 9,7 km/h (2 Bft) S-SO 155 ° 0 min 0,000 mm 0,0 UV-I 0 W/m² 10,7 °C 13,0 °C 17,7 km/h (3 Bft)
15.07.2017 00:47 13,0 °C 13,0 °C 86 % 1017,0 hPa 0,0 mm 11,1 km/h (2 Bft) S-SO 164 ° 0 min 0,000 mm 0,0 UV-I 0 W/m² 10,7 °C 13,0 °C 16,1 km/h (3 Bft)
15.07.2017 00:48 13,0 °C 13,0 °C 86 % 1017,0 hPa 0,0 mm 14,2 km/h (3 Bft) S 187 ° 0 min 0,000 mm 0,0 UV-I 0 W/m² 10,7 °C 13,0 °C 19,3 km/h (3 Bft)
15.07.2017 00:49 13,0 °C 13,0 °C 86 % 1017,0 hPa 0,0 mm 7,5 km/h (2 Bft) S 181 ° 0 min 0,000 mm 0,0 UV-I 0 W/m² 10,7 °C 13,0 °C 11,3 km/h (2 Bft)
15.07.2017 00:50 13,0 °C 13,1 °C 85 % 1017,1 hPa 0,0 mm 8,2 km/h (2 Bft) S-SW 195 ° 0 min 0,000 mm 0,0 UV-I 0 W/m² 10,5 °C 13,0 °C 14,5 km/h (3 Bft)
15.07.2017 00:51 13,1 °C 13,1 °C 85 % 1017,1 hPa 0,0 mm 8,7 km/h (2 Bft) S-SW 205 ° 0 min 0,000 mm 0,0 UV-I 0 W/m² 10,6 °C 13,1 °C 11,3 km/h (2 Bft)
15.07.2017 00:52 13,1 °C 13,1 °C 85 % 1017,1 hPa 0,0 mm 10,2 km/h (2 Bft) S-SW 198 ° 0 min 0,000 mm 0,0 UV-I 0 W/m² 10,6 °C 13,1 °C 16,1 km/h (3 Bft)
15.07.2017 00:53 13,1 °C 13,1 °C 85 % 1017,1 hPa 0,0 mm 9,4 km/h (2 Bft) S-SW 200 ° 0 min 0,000 mm 0,0 UV-I 0 W/m² 10,6 °C 13,1 °C 16,1 km/h (3 Bft)
15.07.2017 00:54 13,1 °C 13,1 °C 85 % 1017,1 hPa 0,0 mm 7,2 km/h (2 Bft) W-SW 252 ° 0 min 0,000 mm 0,0 UV-I 0 W/m² 10,6 °C 13,1 °C 12,9 km/h (3 Bft)
15.07.2017 00:55 13,1 °C 13,1 °C 85 % 1017,1 hPa 0,0 mm 4,8 km/h (1 Bft) S-SW 203 ° 0 min 0,000 mm 0,0 UV-I 0 W/m² 10,6 °C 13,1 °C 12,9 km/h (3 Bft)
15.07.2017 00:56 13,1 °C 13,1 °C 85 % 1017,0 hPa 0,0 mm 6,8 km/h (2 Bft) S-SW 209 ° 0 min 0,000 mm 0,0 UV-I 0 W/m² 10,6 °C 13,1 °C 11,3 km/h (2 Bft)
15.07.2017 00:57 13,0 °C 13,1 °C 85 % 1017,0 hPa 0,0 mm 4,0 km/h (1 Bft) S 191 ° 0 min 0,000 mm 0,0 UV-I 0 W/m² 10,5 °C 13,0 °C 6,4 km/h (2 Bft)
15.07.2017 00:58 13,0 °C 13,1 °C 85 % 1017,0 hPa 0,0 mm 7,6 km/h (2 Bft) S 186 ° 0 min 0,000 mm 0,0 UV-I 0 W/m² 10,5 °C 13,0 °C 11,3 km/h (2 Bft)
15.07.2017 00:59 13,0 °C 13,1 °C 85 % 1017,0 hPa 0,0 mm 5,8 km/h (2 Bft) SW 224 ° 0 min 0,000 mm 0,0 UV-I 0 W/m² 10,5 °C 13,0 °C 9,7 km/h (2 Bft)
15.07.2017 01:00 13,0 °C 13,1 °C 85 % 1017,0 hPa 0,0 mm 7,2 km/h (2 Bft) W 271 ° 0 min 0,025 mm 0,0 UV-I 0 W/m² 10,5 °C 13,0 °C 16,1 km/h (3 Bft)
15.07.2017 01:01 13,1 °C 13,1 °C 85 % 1017,0 hPa 0,0 mm 6,7 km/h (2 Bft) W-SW 244 ° 0 min 0,000 mm 0,0 UV-I 0 W/m² 10,6 °C 13,1 °C 12,9 km/h (3 Bft)
15.07.2017 01:02 13,0 °C 13,1 °C 85 % 1017,0 hPa 0,0 mm 4,3 km/h (1 Bft) W-SW 254 ° 0 min 0,000 mm 0,0 UV-I 0 W/m² 10,5 °C 13,0 °C 8,0 km/h (2 Bft)
15.07.2017 01:03 12,9 °C 13,0 °C 85 % 1017,0 hPa 0,0 mm 4,8 km/h (1 Bft) W-SW 254 ° 0 min 0,000 mm 0,0 UV-I 0 W/m² 10,4 °C 12,9 °C 8,0 km/h (2 Bft)
15.07.2017 01:04 13,0 °C 13,0 °C 85 % 1017,0 hPa 0,0 mm 2,7 km/h (1 Bft) W-SW 250 ° 0 min 0,000 mm 0,0 UV-I 0 W/m² 10,5 °C 13,0 °C 4,8 km/h (1 Bft)
15.07.2017 01:05 13,0 °C 13,0 °C 84 % 1017,0 hPa 0,0 mm 3,2 km/h (1 Bft) W 271 ° 0 min 0,000 mm 0,0 UV-I 0 W/m² 10,4 °C 13,0 °C 9,7 km/h (2 Bft)
15.07.2017 01:06 12,9 °C 13,0 °C 85 % 1017,0 hPa 0,0 mm 7,0 km/h (2 Bft) W 259 ° 0 min 0,000 mm 0,0 UV-I 0 W/m² 10,4 °C 12,9 °C 11,3 km/h (2 Bft)
15.07.2017 01:07 12,9 °C 12,9 °C 86 % 1017,0 hPa 0,0 mm 3,6 km/h (1 Bft) S 188 ° 0 min 0,000 mm 0,0 UV-I 0 W/m² 10,6 °C 12,9 °C 6,4 km/h (2 Bft)
15.07.2017 01:08 12,9 °C 12,9 °C 85 % 1017,0 hPa 0,0 mm 5,7 km/h (1 Bft) W-SW 254 ° 0 min 0,000 mm 0,0 UV-I 0 W/m² 10,4 °C 12,9 °C 11,3 km/h (2 Bft)
15.07.2017 01:09 12,9 °C 12,9 °C 85 % 1016,9 hPa 0,0 mm 4,9 km/h (1 Bft) SW 232 ° 0 min 0,000 mm 0,0 UV-I 0 W/m² 10,4 °C 12,9 °C 11,3 km/h (2 Bft)
15.07.2017 01:10 12,9 °C 12,9 °C 85 % 1017,0 hPa 0,0 mm 4,2 km/h (1 Bft) S-SW 202 ° 0 min 0,000 mm 0,0 UV-I 0 W/m² 10,4 °C 12,9 °C 9,7 km/h (2 Bft)
15.07.2017 01:11 12,9 °C 12,9 °C 85 % 1017,0 hPa 0,0 mm 2,6 km/h (1 Bft) SW 227 ° 0 min 0,000 mm 0,0 UV-I 0 W/m² 10,4 °C 12,9 °C 4,8 km/h (1 Bft)
15.07.2017 01:12 12,9 °C 12,9 °C 85 % 1017,0 hPa 0,0 mm 3,2 km/h (1 Bft) SW 234 ° 0 min 0,000 mm 0,0 UV-I 0 W/m² 10,4 °C 12,9 °C 11,3 km/h (2 Bft)
15.07.2017 01:13 12,9 °C 12,9 °C 85 % 1017,0 hPa 0,0 mm 3,4 km/h (1 Bft) SW 227 ° 0 min 0,000 mm 0,0 UV-I 0 W/m² 10,4 °C 12,9 °C 6,4 km/h (2 Bft)
15.07.2017 01:14 12,8 °C 12,9 °C 85 % 1017,0 hPa 0,0 mm 3,1 km/h (1 Bft) SW 214 ° 0 min 0,000 mm 0,0 UV-I 0 W/m² 10,3 °C 12,8 °C 6,4 km/h (2 Bft)
15.07.2017 01:15 12,8 °C 12,9 °C 85 % 1017,0 hPa 0,0 mm 3,0 km/h (1 Bft) S 187 ° 0 min 0,000 mm 0,0 UV-I 0 W/m² 10,3 °C 12,8 °C 6,4 km/h (2 Bft)
15.07.2017 01:16 12,8 °C 12,8 °C 85 % 1017,0 hPa 0,0 mm 5,7 km/h (1 Bft) S-SW 206 ° 0 min 0,000 mm 0,0 UV-I 0 W/m² 10,3 °C 12,8 °C 9,7 km/h (2 Bft)
15.07.2017 01:17 12,8 °C 12,9 °C 85 % 1017,1 hPa 0,0 mm 3,4 km/h (1 Bft) SW 232 ° 0 min 0,000 mm 0,0 UV-I 0 W/m² 10,3 °C 12,8 °C 4,8 km/h (1 Bft)
15.07.2017 01:18 12,9 °C 12,9 °C 85 % 1017,1 hPa 0,0 mm 6,3 km/h (2 Bft) W-NW 290 ° 0 min 0,000 mm 0,0 UV-I 0 W/m² 10,4 °C 12,9 °C 11,3 km/h (2 Bft)
15.07.2017 01:19 12,8 °C 12,9 °C 85 % 1017,1 hPa 0,0 mm 3,6 km/h (1 Bft) W 259 ° 0 min 0,000 mm 0,0 UV-I 0 W/m² 10,3 °C 12,8 °C 6,4 km/h (2 Bft)
15.07.2017 01:20 12,8 °C 12,8 °C 85 % 1017,1 hPa 0,0 mm 3,2 km/h (1 Bft) W-SW 249 ° 0 min 0,000 mm 0,0 UV-I 0 W/m² 10,3 °C 12,8 °C 4,8 km/h (1 Bft)
15.07.2017 01:21 12,8 °C 12,8 °C 85 % 1017,1 hPa 0,0 mm 4,6 km/h (1 Bft) W-SW 242 ° 0 min 0,000 mm 0,0 UV-I 0 W/m² 10,3 °C 12,8 °C 11,3 km/h (2 Bft)
15.07.2017 01:22 12,8 °C 12,8 °C 85 % 1017,1 hPa 0,0 mm 4,0 km/h (1 Bft) S-SW 196 ° 0 min 0,000 mm 0,0 UV-I 0 W/m² 10,3 °C 12,8 °C 8,0 km/h (2 Bft)
15.07.2017 01:23 12,8 °C 12,8 °C 85 % 1017,1 hPa 0,0 mm 4,5 km/h (1 Bft) W 263 ° 0 min 0,000 mm 0,0 UV-I 0 W/m² 10,3 °C 12,8 °C 6,4 km/h (2 Bft)
15.07.2017 01:24 12,8 °C 12,8 °C 85 % 1017,1 hPa 0,0 mm 2,6 km/h (1 Bft) W 263 ° 0 min 0,000 mm 0,0 UV-I 0 W/m² 10,3 °C 12,8 °C 4,8 km/h (1 Bft)
15.07.2017 01:25 12,8 °C 12,8 °C 85 % 1017,1 hPa 0,0 mm 2,7 km/h (1 Bft) S 186 ° 0 min 0,000 mm 0,0 UV-I 0 W/m² 10,3 °C 12,8 °C 6,4 km/h (2 Bft)
15.07.2017 01:26 12,8 °C 12,8 °C 85 % 1017,1 hPa 0,0 mm 3,6 km/h (1 Bft) SW 232 ° 0 min 0,000 mm 0,0 UV-I 0 W/m² 10,3 °C 12,8 °C 9,7 km/h (2 Bft)
15.07.2017 01:27 12,8 °C 12,8 °C 85 % 1017,1 hPa 0,0 mm 6,1 km/h (2 Bft) SW 227 ° 0 min 0,000 mm 0,0 UV-I 0 W/m² 10,3 °C 12,8 °C 12,9 km/h (3 Bft)
15.07.2017 01:28 12,8 °C 12,8 °C 85 % 1017,1 hPa 0,0 mm 5,9 km/h (2 Bft) SW 216 ° 0 min 0,000 mm 0,0 UV-I 0 W/m² 10,3 °C 12,8 °C 9,7 km/h (2 Bft)
15.07.2017 01:29 12,8 °C 12,9 °C 85 % 1017,1 hPa 0,0 mm 5,6 km/h (1 Bft) W-SW 240 ° 0 min 0,000 mm 0,0 UV-I 0 W/m² 10,3 °C 12,8 °C 11,3 km/h (2 Bft)
15.07.2017 01:30 12,8 °C 12,8 °C 85 % 1017,0 hPa 0,0 mm 3,2 km/h (1 Bft) W-SW 248 ° 0 min 0,000 mm 0,0 UV-I 0 W/m² 10,3 °C 12,8 °C 4,8 km/h (1 Bft)
15.07.2017 01:31 12,8 °C 12,8 °C 85 % 1017,1 hPa 0,0 mm 2,8 km/h (1 Bft) SW 223 ° 0 min 0,000 mm 0,0 UV-I 0 W/m² 10,3 °C 12,8 °C 11,3 km/h (2 Bft)
15.07.2017 01:32 12,8 °C 12,8 °C 85 % 1017,1 hPa 0,0 mm 3,5 km/h (1 Bft) W 265 ° 0 min 0,000 mm 0,0 UV-I 0 W/m² 10,3 °C 12,8 °C 9,7 km/h (2 Bft)
15.07.2017 01:33 12,8 °C 12,8 °C 85 % 1017,1 hPa 0,0 mm 3,5 km/h (1 Bft) W-SW 238 ° 0 min 0,000 mm 0,0 UV-I 0 W/m² 10,3 °C 12,8 °C 11,3 km/h (2 Bft)
15.07.2017 01:34 12,8 °C 12,8 °C 85 % 1017,2 hPa 0,0 mm 5,4 km/h (1 Bft) W-SW 250 ° 0 min 0,000 mm 0,0 UV-I 0 W/m² 10,3 °C 12,8 °C 11,3 km/h (2 Bft)
15.07.2017 01:35 12,8 °C 12,8 °C 85 % 1017,2 hPa 0,0 mm 4,5 km/h (1 Bft) W-SW 240 ° 0 min 0,000 mm 0,0 UV-I 0 W/m² 10,3 °C 12,8 °C 6,4 km/h (2 Bft)
15.07.2017 01:36 12,8 °C 12,8 °C 85 % 1017,2 hPa 0,0 mm 3,9 km/h (1 Bft) W 260 ° 0 min 0,000 mm 0,0 UV-I 0 W/m² 10,3 °C 12,8 °C 6,4 km/h (2 Bft)
15.07.2017 01:37 12,8 °C 12,8 °C 85 % 1017,2 hPa 0,0 mm 2,9 km/h (1 Bft) S-SW 204 ° 0 min 0,000 mm 0,0 UV-I 0 W/m² 10,3 °C 12,8 °C 4,8 km/h (1 Bft)
15.07.2017 01:38 12,8 °C 12,8 °C 85 % 1017,2 hPa 0,0 mm 2,7 km/h (1 Bft) W-SW 249 ° 0 min 0,000 mm 0,0 UV-I 0 W/m² 10,3 °C 12,8 °C 6,4 km/h (2 Bft)
15.07.2017 01:39 12,8 °C 12,8 °C 85 % 1017,2 hPa 0,0 mm 1,6 km/h (1 Bft) SW 230 ° 0 min 0,000 mm 0,0 UV-I 0 W/m² 10,3 °C 12,8 °C 3,2 km/h (1 Bft)
15.07.2017 01:40 12,8 °C 12,8 °C 85 % 1017,1 hPa 0,0 mm 3,4 km/h (1 Bft) SW 236 ° 0 min 0,000 mm 0,0 UV-I 0 W/m² 10,3 °C 12,8 °C 8,0 km/h (2 Bft)
15.07.2017 01:41 12,8 °C 12,8 °C 85 % 1017,1 hPa 0,0 mm 2,1 km/h (1 Bft) S-SW 210 ° 0 min 0,000 mm 0,0 UV-I 0 W/m² 10,3 °C 12,8 °C 4,8 km/h (1 Bft)
15.07.2017 01:42 12,8 °C 12,8 °C 85 % 1017,1 hPa 0,0 mm 4,0 km/h (1 Bft) S 188 ° 0 min 0,000 mm 0,0 UV-I 0 W/m² 10,3 °C 12,8 °C 6,4 km/h (2 Bft)
15.07.2017 01:43 12,8 °C 12,8 °C 85 % 1017,2 hPa 0,0 mm 3,5 km/h (1 Bft) S-SW 207 ° 0 min 0,000 mm 0,0 UV-I 0 W/m² 10,3 °C 12,8 °C 8,0 km/h (2 Bft)
15.07.2017 01:44 12,9 °C 12,9 °C 85 % 1017,2 hPa 0,0 mm 3,8 km/h (1 Bft) S-SW 205 ° 0 min 0,000 mm 0,0 UV-I 0 W/m² 10,4 °C 12,9 °C 6,4 km/h (2 Bft)
15.07.2017 01:45 12,9 °C 12,9 °C 85 % 1017,1 hPa 0,0 mm 4,8 km/h (1 Bft) W 260 ° 0 min 0,000 mm 0,0 UV-I 0 W/m² 10,4 °C 12,9 °C 8,0 km/h (2 Bft)
15.07.2017 01:46 12,9 °C 12,9 °C 85 % 1017,2 hPa 0,0 mm 3,3 km/h (1 Bft) W-SW 244 ° 0 min 0,000 mm 0,0 UV-I 0 W/m² 10,4 °C 12,9 °C 4,8 km/h (1 Bft)
15.07.2017 01:47 12,9 °C 12,9 °C 85 % 1017,2 hPa 0,0 mm 2,1 km/h (1 Bft) W-SW 250 ° 0 min 0,000 mm 0,0 UV-I 0 W/m² 10,4 °C 12,9 °C 4,8 km/h (1 Bft)
15.07.2017 01:48 12,9 °C 12,9 °C 85 % 1017,2 hPa 0,0 mm 1,2 km/h (1 Bft) W-SW 250 ° 0 min 0,000 mm 0,0 UV-I 0 W/m² 10,4 °C 12,9 °C 3,2 km/h (1 Bft)
15.07.2017 01:49 12,9 °C 12,9 °C 85 % 1017,2 hPa 0,0 mm 5,0 km/h (1 Bft) SW 231 ° 0 min 0,000 mm 0,0 UV-I 0 W/m² 10,4 °C 12,9 °C 11,3 km/h (2 Bft)
15.07.2017 01:50 12,9 °C 12,9 °C 85 % 1017,1 hPa 0,0 mm 2,1 km/h (1 Bft) W 267 ° 0 min 0,000 mm 0,0 UV-I 0 W/m² 10,4 °C 12,9 °C 4,8 km/h (1 Bft)
15.07.2017 01:51 12,9 °C 12,9 °C 85 % 1017,2 hPa 0,0 mm 2,6 km/h (1 Bft) SW 222 ° 0 min 0,000 mm 0,0 UV-I 0 W/m² 10,4 °C 12,9 °C 4,8 km/h (1 Bft)
15.07.2017 01:52 12,9 °C 12,9 °C 85 % 1017,1 hPa 0,0 mm 2,9 km/h (1 Bft) SW 235 ° 0 min 0,000 mm 0,0 UV-I 0 W/m² 10,4 °C 12,9 °C 6,4 km/h (2 Bft)
15.07.2017 01:53 12,9 °C 12,9 °C 85 % 1017,1 hPa 0,0 mm 2,0 km/h (1 Bft) S-SW 211 ° 0 min 0,000 mm 0,0 UV-I 0 W/m² 10,4 °C 12,9 °C 4,8 km/h (1 Bft)
15.07.2017 01:54 12,9 °C 12,9 °C 85 % 1017,2 hPa 0,0 mm 1,5 km/h (1 Bft) SW 221 ° 0 min 0,000 mm 0,0 UV-I 0 W/m² 10,4 °C 12,9 °C 4,8 km/h (1 Bft)
15.07.2017 01:55 12,9 °C 12,9 °C 85 % 1017,1 hPa 0,0 mm 3,4 km/h (1 Bft) W 265 ° 0 min 0,000 mm 0,0 UV-I 0 W/m² 10,4 °C 12,9 °C 4,8 km/h (1 Bft)
15.07.2017 01:56 12,9 °C 12,9 °C 86 % 1017,2 hPa 0,0 mm 1,7 km/h (1 Bft) W-SW 238 ° 0 min 0,000 mm 0,0 UV-I 0 W/m² 10,6 °C 12,9 °C 3,2 km/h (1 Bft)
15.07.2017 01:57 12,8 °C 12,9 °C 86 % 1017,2 hPa 0,0 mm 2,0 km/h (1 Bft) W-SW 247 ° 0 min 0,000 mm 0,0 UV-I 0 W/m² 10,5 °C 12,8 °C 4,8 km/h (1 Bft)
15.07.2017 01:58 12,8 °C 12,8 °C 86 % 1017,1 hPa 0,0 mm 1,2 km/h (1 Bft) W-SW 247 ° 0 min 0,000 mm 0,0 UV-I 0 W/m² 10,5 °C 12,8 °C 1,6 km/h (1 Bft)
15.07.2017 01:59 12,7 °C 12,8 °C 86 % 1017,2 hPa 0,0 mm 5,1 km/h (1 Bft) SW 232 ° 0 min 0,000 mm 0,0 UV-I 0 W/m² 10,4 °C 12,7 °C 11,3 km/h (2 Bft)
15.07.2017 02:00 12,7 °C 12,7 °C 86 % 1017,2 hPa 0,0 mm 2,5 km/h (1 Bft) SW 221 ° 0 min 0,026 mm 0,0 UV-I 0 W/m² 10,4 °C 12,7 °C 9,7 km/h (2 Bft)
15.07.2017 02:01 12,7 °C 12,7 °C 86 % 1017,2 hPa 0,0 mm 0,5 km/h (0 Bft) SW 221 ° 0 min 0,000 mm 0,0 UV-I 0 W/m² 10,4 °C 12,7 °C 1,6 km/h (1 Bft)
15.07.2017 02:02 12,7 °C 12,7 °C 87 % 1017,2 hPa 0,0 mm 2,9 km/h (1 Bft) W-SW 240 ° 0 min 0,000 mm 0,0 UV-I 0 W/m² 10,6 °C 12,7 °C 4,8 km/h (1 Bft)
15.07.2017 02:03 12,7 °C 12,7 °C 87 % 1017,1 hPa 0,0 mm 1,3 km/h (1 Bft) S-SW 202 ° 0 min 0,000 mm 0,0 UV-I 0 W/m² 10,6 °C 12,7 °C 3,2 km/h (1 Bft)
15.07.2017 02:04 12,6 °C 12,7 °C 87 % 1017,1 hPa 0,0 mm 2,7 km/h (1 Bft) S-SW 209 ° 0 min 0,000 mm 0,0 UV-I 0 W/m² 10,5 °C 12,6 °C 6,4 km/h (2 Bft)
15.07.2017 02:05 12,7 °C 12,7 °C 87 % 1017,1 hPa 0,0 mm 3,2 km/h (1 Bft) W-NW 289 ° 0 min 0,000 mm 0,0 UV-I 0 W/m² 10,6 °C 12,7 °C 6,4 km/h (2 Bft)
15.07.2017 02:06 12,7 °C 12,7 °C 87 % 1017,1 hPa 0,0 mm 3,0 km/h (1 Bft) W-SW 240 ° 0 min 0,000 mm 0,0 UV-I 0 W/m² 10,6 °C 12,7 °C 4,8 km/h (1 Bft)
15.07.2017 02:07 12,7 °C 12,7 °C 86 % 1017,1 hPa 0,0 mm 2,9 km/h (1 Bft) SW 217 ° 0 min 0,000 mm 0,0 UV-I 0 W/m² 10,4 °C 12,7 °C 4,8 km/h (1 Bft)
15.07.2017 02:08 12,7 °C 12,7 °C 86 % 1017,2 hPa 0,0 mm 2,5 km/h (1 Bft) W-SW 249 ° 0 min 0,000 mm 0,0 UV-I 0 W/m² 10,4 °C 12,7 °C 4,8 km/h (1 Bft)
15.07.2017 02:09 12,7 °C 12,7 °C 86 % 1017,2 hPa 0,0 mm 3,4 km/h (1 Bft) W-SW 254 ° 0 min 0,000 mm 0,0 UV-I 0 W/m² 10,4 °C 12,7 °C 6,4 km/h (2 Bft)
15.07.2017 02:10 12,8 °C 12,8 °C 86 % 1017,1 hPa 0,0 mm 3,0 km/h (1 Bft) SW 232 ° 0 min 0,000 mm 0,0 UV-I 0 W/m² 10,5 °C 12,8 °C 8,0 km/h (2 Bft)
15.07.2017 02:11 12,8 °C 12,8 °C 86 % 1017,2 hPa 0,0 mm 2,2 km/h (1 Bft) S-SW 198 ° 0 min 0,000 mm 0,0 UV-I 0 W/m² 10,5 °C 12,8 °C 4,8 km/h (1 Bft)
15.07.2017 02:12 12,8 °C 12,8 °C 86 % 1017,2 hPa 0,0 mm 3,5 km/h (1 Bft) S-SW 198 ° 0 min 0,000 mm 0,0 UV-I 0 W/m² 10,5 °C 12,8 °C 4,8 km/h (1 Bft)
15.07.2017 02:13 12,8 °C 12,8 °C 86 % 1017,2 hPa 0,0 mm 0,3 km/h (0 Bft) S-SW 198 ° 0 min 0,000 mm 0,0 UV-I 0 W/m² 10,5 °C 12,8 °C 1,6 km/h (1 Bft)
15.07.2017 02:14 12,8 °C 12,8 °C 86 % 1017,2 hPa 0,0 mm 1,6 km/h (1 Bft) S-SW 198 ° 0 min 0,000 mm 0,0 UV-I 0 W/m² 10,5 °C 12,8 °C 3,2 km/h (1 Bft)
15.07.2017 02:15 12,8 °C 12,8 °C 86 % 1017,2 hPa 0,0 mm 0,9 km/h (0 Bft) S-SW 198 ° 0 min 0,000 mm 0,0 UV-I 0 W/m² 10,5 °C 12,8 °C 3,2 km/h (1 Bft)
15.07.2017 02:16 12,8 °C 12,8 °C 86 % 1017,2 hPa 0,0 mm 0,6 km/h (0 Bft) S-SW 199 ° 0 min 0,000 mm 0,0 UV-I 0 W/m² 10,5 °C 12,8 °C 3,2 km/h (1 Bft)
15.07.2017 02:17 12,8 °C 12,8 °C 86 % 1017,2 hPa 0,0 mm 0,3 km/h (0 Bft) S-SW 199 ° 0 min 0,000 mm 0,0 UV-I 0 W/m² 10,5 °C 12,8 °C 1,6 km/h (1 Bft)
15.07.2017 02:18 12,8 °C 12,8 °C 86 % 1017,2 hPa 0,0 mm 0,0 km/h (0 Bft) S-SW 198 ° 0 min 0,000 mm 0,0 UV-I 0 W/m² 10,5 °C 12,8 °C 0,0 km/h (0 Bft)
15.07.2017 02:19 12,8 °C 12,8 °C 86 % 1017,2 hPa 0,0 mm 0,0 km/h (0 Bft) S-SW 199 ° 0 min 0,000 mm 0,0 UV-I 0 W/m² 10,5 °C 12,8 °C 0,0 km/h (0 Bft)
15.07.2017 02:20 12,8 °C 12,8 °C 86 % 1017,2 hPa 0,0 mm 0,0 km/h (0 Bft) S-SW 198 ° 0 min 0,000 mm 0,0 UV-I 0 W/m² 10,5 °C 12,8 °C 0,0 km/h (0 Bft)
15.07.2017 02:21 12,7 °C 12,8 °C 86 % 1017,2 hPa 0,0 mm 0,0 km/h (0 Bft) S-SW 199 ° 0 min 0,000 mm 0,0 UV-I 0 W/m² 10,4 °C 12,7 °C 0,0 km/h (0 Bft)
15.07.2017 02:22 12,7 °C 12,8 °C 87 % 1017,3 hPa 0,0 mm 0,0 km/h (0 Bft) S-SW 199 ° 0 min 0,000 mm 0,0 UV-I 0 W/m² 10,6 °C 12,7 °C 0,0 km/h (0 Bft)
15.07.2017 02:23 12,7 °C 12,7 °C 87 % 1017,3 hPa 0,0 mm 0,0 km/h (0 Bft) S-SW 198 ° 0 min 0,000 mm 0,0 UV-I 0 W/m² 10,6 °C 12,7 °C 0,0 km/h (0 Bft)
15.07.2017 02:24 12,6 °C 12,7 °C 87 % 1017,3 hPa 0,0 mm 0,0 km/h (0 Bft) S-SW 199 ° 0 min 0,000 mm 0,0 UV-I 0 W/m² 10,5 °C 12,6 °C 0,0 km/h (0 Bft)
15.07.2017 02:25 12,6 °C 12,6 °C 87 % 1017,3 hPa 0,0 mm 0,3 km/h (0 Bft) S-SW 199 ° 0 min 0,000 mm 0,0 UV-I 0 W/m² 10,5 °C 12,6 °C 1,6 km/h (1 Bft)
15.07.2017 02:26 12,6 °C 12,6 °C 87 % 1017,3 hPa 0,0 mm 0,1 km/h (0 Bft) S-SW 199 ° 0 min 0,000 mm 0,0 UV-I 0 W/m² 10,5 °C 12,6 °C 1,6 km/h (1 Bft)
15.07.2017 02:27 12,6 °C 12,6 °C 88 % 1017,2 hPa 0,0 mm 1,7 km/h (1 Bft) S-SW 205 ° 0 min 0,000 mm 0,0 UV-I 0 W/m² 10,7 °C 12,6 °C 4,8 km/h (1 Bft)
15.07.2017 02:28 12,5 °C 12,6 °C 88 % 1017,3 hPa 0,0 mm 5,0 km/h (1 Bft) W-SW 252 ° 0 min 0,000 mm 0,0 UV-I 0 W/m² 10,6 °C 12,5 °C 11,3 km/h (2 Bft)
15.07.2017 02:29 12,4 °C 12,5 °C 89 % 1017,3 hPa 0,0 mm 2,3 km/h (1 Bft) W-SW 242 ° 0 min 0,000 mm 0,0 UV-I 0 W/m² 10,6 °C 12,4 °C 4,8 km/h (1 Bft)
15.07.2017 02:30 12,4 °C 12,4 °C 88 % 1017,3 hPa 0,0 mm 1,2 km/h (1 Bft) W-SW 242 ° 0 min 0,000 mm 0,0 UV-I 0 W/m² 10,5 °C 12,4 °C 3,2 km/h (1 Bft)
15.07.2017 02:31 12,4 °C 12,4 °C 88 % 1017,3 hPa 0,0 mm 0,0 km/h (0 Bft) W-SW 242 ° 0 min 0,000 mm 0,0 UV-I 0 W/m² 10,5 °C 12,4 °C 0,0 km/h (0 Bft)
15.07.2017 02:32 12,4 °C 12,4 °C 88 % 1017,3 hPa 0,0 mm 0,5 km/h (0 Bft) W-SW 242 ° 0 min 0,000 mm 0,0 UV-I 0 W/m² 10,5 °C 12,4 °C 3,2 km/h (1 Bft)
15.07.2017 02:33 12,4 °C 12,4 °C 88 % 1017,3 hPa 0,0 mm 2,3 km/h (1 Bft) W-SW 244 ° 0 min 0,000 mm 0,0 UV-I 0 W/m² 10,5 °C 12,4 °C 3,2 km/h (1 Bft)
15.07.2017 02:34 12,4 °C 12,4 °C 88 % 1017,3 hPa 0,0 mm 1,7 km/h (1 Bft) SW 234 ° 0 min 0,000 mm 0,0 UV-I 0 W/m² 10,5 °C 12,4 °C 4,8 km/h (1 Bft)
15.07.2017 02:35 12,4 °C 12,4 °C 88 % 1017,3 hPa 0,0 mm 2,6 km/h (1 Bft) SW 236 ° 0 min 0,000 mm 0,0 UV-I 0 W/m² 10,5 °C 12,4 °C 4,8 km/h (1 Bft)
15.07.2017 02:36 12,4 °C 12,4 °C 88 % 1017,3 hPa 0,0 mm 0,9 km/h (0 Bft) SW 234 ° 0 min 0,000 mm 0,0 UV-I 0 W/m² 10,5 °C 12,4 °C 3,2 km/h (1 Bft)
15.07.2017 02:37 12,5 °C 12,5 °C 87 % 1017,3 hPa 0,0 mm 1,1 km/h (1 Bft) SW 224 ° 0 min 0,000 mm 0,0 UV-I 0 W/m² 10,4 °C 12,5 °C 4,8 km/h (1 Bft)
15.07.2017 02:38 12,6 °C 12,6 °C 87 % 1017,3 hPa 0,0 mm 1,9 km/h (1 Bft) SW 225 ° 0 min 0,000 mm 0,0 UV-I 0 W/m² 10,5 °C 12,6 °C 3,2 km/h (1 Bft)
15.07.2017 02:39 12,6 °C 12,6 °C 87 % 1017,3 hPa 0,0 mm 0,8 km/h (0 Bft) SW 223 ° 0 min 0,000 mm 0,0 UV-I 0 W/m² 10,5 °C 12,6 °C 3,2 km/h (1 Bft)
15.07.2017 02:40 12,6 °C 12,6 °C 87 % 1017,3 hPa 0,0 mm 1,1 km/h (1 Bft) SW 223 ° 0 min 0,000 mm 0,0 UV-I 0 W/m² 10,5 °C 12,6 °C 3,2 km/h (1 Bft)
15.07.2017 02:41 12,7 °C 12,7 °C 87 % 1017,3 hPa 0,0 mm 2,7 km/h (1 Bft) SW 223 ° 0 min 0,000 mm 0,0 UV-I 0 W/m² 10,6 °C 12,7 °C 4,8 km/h (1 Bft)
15.07.2017 02:42 12,7 °C 12,7 °C 87 % 1017,3 hPa 0,0 mm 3,5 km/h (1 Bft) S-SW 202 ° 0 min 0,000 mm 0,0 UV-I 0 W/m² 10,6 °C 12,7 °C 4,8 km/h (1 Bft)
15.07.2017 02:43 12,7 °C 12,7 °C 87 % 1017,3 hPa 0,0 mm 3,6 km/h (1 Bft) W-SW 244 ° 0 min 0,000 mm 0,0 UV-I 0 W/m² 10,6 °C 12,7 °C 6,4 km/h (2 Bft)
15.07.2017 02:44 12,8 °C 12,8 °C 87 % 1017,3 hPa 0,0 mm 1,3 km/h (1 Bft) W-SW 244 ° 0 min 0,000 mm 0,0 UV-I 0 W/m² 10,7 °C 12,8 °C 3,2 km/h (1 Bft)
15.07.2017 02:45 12,8 °C 12,8 °C 87 % 1017,3 hPa 0,0 mm 3,7 km/h (1 Bft) S-SW 205 ° 0 min 0,000 mm 0,0 UV-I 0 W/m² 10,7 °C 12,8 °C 6,4 km/h (2 Bft)
15.07.2017 02:46 12,8 °C 12,8 °C 86 % 1017,3 hPa 0,0 mm 7,2 km/h (2 Bft) S-SW 212 ° 0 min 0,000 mm 0,0 UV-I 0 W/m² 10,5 °C 12,8 °C 14,5 km/h (3 Bft)
15.07.2017 02:47 12,8 °C 12,8 °C 86 % 1017,3 hPa 0,0 mm 3,3 km/h (1 Bft) W-SW 249 ° 0 min 0,000 mm 0,0 UV-I 0 W/m² 10,5 °C 12,8 °C 4,8 km/h (1 Bft)
15.07.2017 02:48 12,9 °C 12,9 °C 86 % 1017,3 hPa 0,0 mm 5,9 km/h (2 Bft) W-SW 258 ° 0 min 0,000 mm 0,0 UV-I 0 W/m² 10,6 °C 12,9 °C 14,5 km/h (3 Bft)
15.07.2017 02:49 12,9 °C 12,9 °C 86 % 1017,3 hPa 0,0 mm 4,6 km/h (1 Bft) SW 234 ° 0 min 0,000 mm 0,0 UV-I 0 W/m² 10,6 °C 12,9 °C 11,3 km/h (2 Bft)
15.07.2017 02:50 12,9 °C 12,9 °C 86 % 1017,3 hPa 0,0 mm 7,0 km/h (2 Bft) S-SW 200 ° 0 min 0,000 mm 0,0 UV-I 0 W/m² 10,6 °C 12,9 °C 12,9 km/h (3 Bft)
15.07.2017 02:51 12,9 °C 12,9 °C 86 % 1017,3 hPa 0,0 mm 4,1 km/h (1 Bft) SW 223 ° 0 min 0,000 mm 0,0 UV-I 0 W/m² 10,6 °C 12,9 °C 6,4 km/h (2 Bft)
15.07.2017 02:52 12,9 °C 12,9 °C 86 % 1017,3 hPa 0,0 mm 2,3 km/h (1 Bft) SW 236 ° 0 min 0,000 mm 0,0 UV-I 0 W/m² 10,6 °C 12,9 °C 6,4 km/h (2 Bft)
15.07.2017 02:53 13,0 °C 13,0 °C 86 % 1017,3 hPa 0,0 mm 1,6 km/h (1 Bft) W-SW 248 ° 0 min 0,000 mm 0,0 UV-I 0 W/m² 10,7 °C 13,0 °C 4,8 km/h (1 Bft)
15.07.2017 02:54 12,9 °C 13,0 °C 86 % 1017,3 hPa 0,0 mm 4,2 km/h (1 Bft) W-SW 242 ° 0 min 0,000 mm 0,0 UV-I 0 W/m² 10,6 °C 12,9 °C 6,4 km/h (2 Bft)
15.07.2017 02:55 12,9 °C 12,9 °C 86 % 1017,3 hPa 0,0 mm 0,1 km/h (0 Bft) W-SW 242 ° 0 min 0,000 mm 0,0 UV-I 0 W/m² 10,6 °C 12,9 °C 1,6 km/h (1 Bft)
15.07.2017 02:56 12,9 °C 12,9 °C 87 % 1017,3 hPa 0,0 mm 2,4 km/h (1 Bft) W-SW 242 ° 0 min 0,000 mm 0,0 UV-I 0 W/m² 10,8 °C 12,9 °C 4,8 km/h (1 Bft)
15.07.2017 02:57 12,9 °C 12,9 °C 86 % 1017,3 hPa 0,0 mm 3,4 km/h (1 Bft) SW 223 ° 0 min 0,000 mm 0,0 UV-I 0 W/m² 10,6 °C 12,9 °C 4,8 km/h (1 Bft)
15.07.2017 02:58 12,9 °C 12,9 °C 86 % 1017,3 hPa 0,0 mm 3,1 km/h (1 Bft) S 181 ° 0 min 0,000 mm 0,0 UV-I 0 W/m² 10,6 °C 12,9 °C 4,8 km/h (1 Bft)
15.07.2017 02:59 12,9 °C 12,9 °C 86 % 1017,3 hPa 0,0 mm 3,9 km/h (1 Bft) W 273 ° 0 min 0,000 mm 0,0 UV-I 0 W/m² 10,6 °C 12,9 °C 6,4 km/h (2 Bft)
15.07.2017 03:00 13,0 °C 13,0 °C 86 % 1017,3 hPa 0,0 mm 6,5 km/h (2 Bft) W 269 ° 0 min 0,000 mm 0,0 UV-I 0 W/m² 10,7 °C 13,0 °C 11,3 km/h (2 Bft)
15.07.2017 03:01 13,0 °C 13,1 °C 86 % 1017,3 hPa 0,0 mm 6,1 km/h (2 Bft) W 263 ° 0 min 0,000 mm 0,0 UV-I 0 W/m² 10,7 °C 13,0 °C 9,7 km/h (2 Bft)
15.07.2017 03:02 13,0 °C 13,1 °C 86 % 1017,4 hPa 0,0 mm 4,0 km/h (1 Bft) W 265 ° 0 min 0,000 mm 0,0 UV-I 0 W/m² 10,7 °C 13,0 °C 6,4 km/h (2 Bft)
15.07.2017 03:03 13,0 °C 13,1 °C 85 % 1017,3 hPa 0,0 mm 1,8 km/h (1 Bft) W 264 ° 0 min 0,000 mm 0,0 UV-I 0 W/m² 10,5 °C 13,0 °C 4,8 km/h (1 Bft)
15.07.2017 03:04 13,1 °C 13,1 °C 85 % 1017,3 hPa 0,0 mm 2,8 km/h (1 Bft) S-SW 201 ° 0 min 0,000 mm 0,0 UV-I 0 W/m² 10,6 °C 13,1 °C 4,8 km/h (1 Bft)
15.07.2017 03:05 13,1 °C 13,1 °C 85 % 1017,3 hPa 0,0 mm 4,2 km/h (1 Bft) SW 231 ° 0 min 0,000 mm 0,0 UV-I 0 W/m² 10,6 °C 13,1 °C 11,3 km/h (2 Bft)
15.07.2017 03:06 13,1 °C 13,1 °C 85 % 1017,3 hPa 0,0 mm 4,9 km/h (1 Bft) W-SW 256 ° 0 min 0,000 mm 0,0 UV-I 0 W/m² 10,6 °C 13,1 °C 14,5 km/h (3 Bft)
15.07.2017 03:07 13,1 °C 13,1 °C 85 % 1017,3 hPa 0,0 mm 5,1 km/h (1 Bft) W-SW 238 ° 0 min 0,000 mm 0,0 UV-I 0 W/m² 10,6 °C 13,1 °C 12,9 km/h (3 Bft)
15.07.2017 03:08 13,1 °C 13,1 °C 84 % 1017,3 hPa 0,0 mm 3,6 km/h (1 Bft) W-SW 256 ° 0 min 0,000 mm 0,0 UV-I 0 W/m² 10,5 °C 13,1 °C 6,4 km/h (2 Bft)
15.07.2017 03:09 13,1 °C 13,1 °C 85 % 1017,3 hPa 0,0 mm 7,1 km/h (2 Bft) W-SW 258 ° 0 min 0,000 mm 0,0 UV-I 0 W/m² 10,6 °C 13,1 °C 11,3 km/h (2 Bft)
15.07.2017 03:10 13,1 °C 13,1 °C 85 % 1017,3 hPa 0,0 mm 3,4 km/h (1 Bft) W 279 ° 0 min 0,000 mm 0,0 UV-I 0 W/m² 10,6 °C 13,1 °C 6,4 km/h (2 Bft)
15.07.2017 03:11 13,1 °C 13,1 °C 85 % 1017,3 hPa 0,0 mm 4,4 km/h (1 Bft) W-SW 242 ° 0 min 0,000 mm 0,0 UV-I 0 W/m² 10,6 °C 13,1 °C 9,7 km/h (2 Bft)
15.07.2017 03:12 13,1 °C 13,1 °C 85 % 1017,3 hPa 0,0 mm 2,5 km/h (1 Bft) W-SW 241 ° 0 min 0,000 mm 0,0 UV-I 0 W/m² 10,6 °C 13,1 °C 4,8 km/h (1 Bft)
15.07.2017 03:13 13,0 °C 13,1 °C 85 % 1017,3 hPa 0,0 mm 3,8 km/h (1 Bft) W 269 ° 0 min 0,000 mm 0,0 UV-I 0 W/m² 10,5 °C 13,0 °C 4,8 km/h (1 Bft)
15.07.2017 03:14 12,9 °C 13,0 °C 85 % 1017,3 hPa 0,0 mm 7,1 km/h (2 Bft) W 277 ° 0 min 0,000 mm 0,0 UV-I 0 W/m² 10,4 °C 12,9 °C 11,3 km/h (2 Bft)
15.07.2017 03:15 12,9 °C 13,0 °C 85 % 1017,3 hPa 0,0 mm 3,0 km/h (1 Bft) W-SW 250 ° 0 min 0,000 mm 0,0 UV-I 0 W/m² 10,4 °C 12,9 °C 6,4 km/h (2 Bft)
15.07.2017 03:16 12,9 °C 12,9 °C 85 % 1017,3 hPa 0,0 mm 3,6 km/h (1 Bft) W-SW 255 ° 0 min 0,000 mm 0,0 UV-I 0 W/m² 10,4 °C 12,9 °C 4,8 km/h (1 Bft)
15.07.2017 03:17 13,0 °C 13,0 °C 85 % 1017,3 hPa 0,0 mm 1,5 km/h (1 Bft) W-SW 255 ° 0 min 0,000 mm 0,0 UV-I 0 W/m² 10,5 °C 13,0 °C 3,2 km/h (1 Bft)
15.07.2017 03:18 12,9 °C 13,0 °C 84 % 1017,3 hPa 0,0 mm 0,0 km/h (0 Bft) W-SW 255 ° 0 min 0,000 mm 0,0 UV-I 0 W/m² 10,3 °C 12,9 °C 0,0 km/h (0 Bft)
15.07.2017 03:19 13,0 °C 13,0 °C 84 % 1017,3 hPa 0,0 mm 0,0 km/h (0 Bft) W-SW 255 ° 0 min 0,000 mm 0,0 UV-I 0 W/m² 10,4 °C 13,0 °C 0,0 km/h (0 Bft)
15.07.2017 03:20 13,0 °C 13,0 °C 85 % 1017,2 hPa 0,0 mm 0,9 km/h (0 Bft) W-SW 255 ° 0 min 0,000 mm 0,0 UV-I 0 W/m² 10,5 °C 13,0 °C 1,6 km/h (1 Bft)
15.07.2017 03:21 13,0 °C 13,1 °C 85 % 1017,2 hPa 0,0 mm 2,6 km/h (1 Bft) W-SW 254 ° 0 min 0,000 mm 0,0 UV-I 0 W/m² 10,5 °C 13,0 °C 4,8 km/h (1 Bft)
15.07.2017 03:22 13,0 °C 13,1 °C 85 % 1017,3 hPa 0,0 mm 1,5 km/h (1 Bft) W-SW 257 ° 0 min 0,000 mm 0,0 UV-I 0 W/m² 10,5 °C 13,0 °C 3,2 km/h (1 Bft)
15.07.2017 03:23 13,0 °C 13,1 °C 85 % 1017,3 hPa 0,0 mm 0,7 km/h (0 Bft) W-SW 257 ° 0 min 0,000 mm 0,0 UV-I 0 W/m² 10,5 °C 13,0 °C 3,2 km/h (1 Bft)
15.07.2017 03:24 13,0 °C 13,0 °C 85 % 1017,3 hPa 0,0 mm 2,3 km/h (1 Bft) W-SW 256 ° 0 min 0,000 mm 0,0 UV-I 0 W/m² 10,5 °C 13,0 °C 4,8 km/h (1 Bft)
15.07.2017 03:25 12,9 °C 13,0 °C 86 % 1017,3 hPa 0,0 mm 0,3 km/h (0 Bft) W-SW 256 ° 0 min 0,000 mm 0,0 UV-I 0 W/m² 10,6 °C 12,9 °C 1,6 km/h (1 Bft)
15.07.2017 03:26 12,9 °C 12,9 °C 86 % 1017,3 hPa 0,0 mm 1,1 km/h (1 Bft) W-SW 256 ° 0 min 0,000 mm 0,0 UV-I 0 W/m² 10,6 °C 12,9 °C 4,8 km/h (1 Bft)
15.07.2017 03:27 12,8 °C 12,9 °C 87 % 1017,3 hPa 0,0 mm 3,4 km/h (1 Bft) W-SW 255 ° 0 min 0,000 mm 0,0 UV-I 0 W/m² 10,7 °C 12,8 °C 4,8 km/h (1 Bft)
15.07.2017 03:28 12,7 °C 12,8 °C 87 % 1017,3 hPa 0,0 mm 1,1 km/h (1 Bft) W-SW 255 ° 0 min 0,000 mm 0,0 UV-I 0 W/m² 10,6 °C 12,7 °C 3,2 km/h (1 Bft)
15.07.2017 03:29 12,7 °C 12,7 °C 86 % 1017,3 hPa 0,0 mm 1,7 km/h (1 Bft) W-SW 255 ° 0 min 0,000 mm 0,0 UV-I 0 W/m² 10,4 °C 12,7 °C 3,2 km/h (1 Bft)
15.07.2017 03:30 12,7 °C 12,7 °C 86 % 1017,3 hPa 0,0 mm 0,0 km/h (0 Bft) W-SW 255 ° 0 min 0,000 mm 0,0 UV-I 0 W/m² 10,4 °C 12,7 °C 0,0 km/h (0 Bft)
15.07.2017 03:31 12,7 °C 12,7 °C 86 % 1017,3 hPa 0,0 mm 0,8 km/h (0 Bft) W-SW 255 ° 0 min 0,000 mm 0,0 UV-I 0 W/m² 10,4 °C 12,7 °C 3,2 km/h (1 Bft)
15.07.2017 03:32 12,7 °C 12,7 °C 86 % 1017,3 hPa 0,0 mm 2,3 km/h (1 Bft) W-SW 255 ° 0 min 0,000 mm 0,0 UV-I 0 W/m² 10,4 °C 12,7 °C 3,2 km/h (1 Bft)
15.07.2017 03:33 12,7 °C 12,7 °C 86 % 1017,3 hPa 0,0 mm 2,8 km/h (1 Bft) W-SW 238 ° 0 min 0,000 mm 0,0 UV-I 0 W/m² 10,4 °C 12,7 °C 4,8 km/h (1 Bft)
15.07.2017 03:34 12,8 °C 12,8 °C 86 % 1017,3 hPa 0,0 mm 1,9 km/h (1 Bft) W-SW 238 ° 0 min 0,000 mm 0,0 UV-I 0 W/m² 10,5 °C 12,8 °C 4,8 km/h (1 Bft)
15.07.2017 03:35 12,8 °C 12,8 °C 86 % 1017,3 hPa 0,0 mm 1,7 km/h (1 Bft) SW 222 ° 0 min 0,000 mm 0,0 UV-I 0 W/m² 10,5 °C 12,8 °C 3,2 km/h (1 Bft)
15.07.2017 03:36 12,8 °C 12,8 °C 86 % 1017,3 hPa 0,0 mm 1,4 km/h (1 Bft) SW 223 ° 0 min 0,000 mm 0,0 UV-I 0 W/m² 10,5 °C 12,8 °C 3,2 km/h (1 Bft)
15.07.2017 03:37 12,8 °C 12,8 °C 86 % 1017,3 hPa 0,0 mm 0,0 km/h (0 Bft) SW 223 ° 0 min 0,000 mm 0,0 UV-I 0 W/m² 10,5 °C 12,8 °C 0,0 km/h (0 Bft)
15.07.2017 03:38 12,8 °C 12,8 °C 86 % 1017,3 hPa 0,0 mm 1,1 km/h (1 Bft) SW 223 ° 0 min 0,000 mm 0,0 UV-I 0 W/m² 10,5 °C 12,8 °C 3,2 km/h (1 Bft)
15.07.2017 03:39 12,8 °C 12,8 °C 86 % 1017,3 hPa 0,0 mm 0,1 km/h (0 Bft) SW 223 ° 0 min 0,000 mm 0,0 UV-I 0 W/m² 10,5 °C 12,8 °C 1,6 km/h (1 Bft)
15.07.2017 03:40 12,8 °C 12,8 °C 86 % 1017,3 hPa 0,0 mm 0,0 km/h (0 Bft) SW 223 ° 0 min 0,000 mm 0,0 UV-I 0 W/m² 10,5 °C 12,8 °C 0,0 km/h (0 Bft)
15.07.2017 03:41 12,8 °C 12,8 °C 86 % 1017,3 hPa 0,0 mm 0,0 km/h (0 Bft) SW 223 ° 0 min 0,000 mm 0,0 UV-I 0 W/m² 10,5 °C 12,8 °C 0,0 km/h (0 Bft)
15.07.2017 03:42 12,8 °C 12,8 °C 86 % 1017,3 hPa 0,0 mm 0,0 km/h (0 Bft) SW 223 ° 0 min 0,000 mm 0,0 UV-I 0 W/m² 10,5 °C 12,8 °C 0,0 km/h (0 Bft)
15.07.2017 03:43 12,8 °C 12,8 °C 86 % 1017,3 hPa 0,0 mm 2,1 km/h (1 Bft) SW 223 ° 0 min 0,000 mm 0,0 UV-I 0 W/m² 10,5 °C 12,8 °C 3,2 km/h (1 Bft)
15.07.2017 03:44 12,7 °C 12,8 °C 86 % 1017,3 hPa 0,0 mm 0,9 km/h (0 Bft) SW 225 ° 0 min 0,000 mm 0,0 UV-I 0 W/m² 10,4 °C 12,7 °C 1,6 km/h (1 Bft)
15.07.2017 03:45 12,7 °C 12,8 °C 86 % 1017,3 hPa 0,0 mm 1,7 km/h (1 Bft) SW 224 ° 0 min 0,000 mm 0,0 UV-I 0 W/m² 10,4 °C 12,7 °C 3,2 km/h (1 Bft)
15.07.2017 03:46 12,8 °C 12,8 °C 85 % 1017,3 hPa 0,0 mm 2,3 km/h (1 Bft) SW 219 ° 0 min 0,000 mm 0,0 UV-I 0 W/m² 10,3 °C 12,8 °C 4,8 km/h (1 Bft)
15.07.2017 03:47 12,8 °C 12,8 °C 86 % 1017,3 hPa 0,0 mm 1,6 km/h (1 Bft) SW 229 ° 0 min 0,000 mm 0,0 UV-I 0 W/m² 10,5 °C 12,8 °C 3,2 km/h (1 Bft)
15.07.2017 03:48 12,8 °C 12,8 °C 86 % 1017,3 hPa 0,0 mm 3,1 km/h (1 Bft) SW 223 ° 0 min 0,000 mm 0,0 UV-I 0 W/m² 10,5 °C 12,8 °C 4,8 km/h (1 Bft)
15.07.2017 03:49 12,8 °C 12,8 °C 85 % 1017,3 hPa 0,0 mm 3,5 km/h (1 Bft) S-SW 210 ° 0 min 0,000 mm 0,0 UV-I 0 W/m² 10,3 °C 12,8 °C 4,8 km/h (1 Bft)
15.07.2017 03:50 12,8 °C 12,8 °C 86 % 1017,3 hPa 0,0 mm 1,8 km/h (1 Bft) S-SW 208 ° 0 min 0,000 mm 0,0 UV-I 0 W/m² 10,5 °C 12,8 °C 4,8 km/h (1 Bft)
15.07.2017 03:51 12,8 °C 12,8 °C 86 % 1017,3 hPa 0,0 mm 0,7 km/h (0 Bft) S-SW 208 ° 0 min 0,000 mm 0,0 UV-I 0 W/m² 10,5 °C 12,8 °C 3,2 km/h (1 Bft)
15.07.2017 03:52 12,8 °C 12,8 °C 86 % 1017,3 hPa 0,0 mm 0,0 km/h (0 Bft) S-SW 208 ° 0 min 0,000 mm 0,0 UV-I 0 W/m² 10,5 °C 12,8 °C 0,0 km/h (0 Bft)
15.07.2017 03:53 12,8 °C 12,8 °C 86 % 1017,2 hPa 0,0 mm 0,0 km/h (0 Bft) S-SW 208 ° 0 min 0,000 mm 0,0 UV-I 0 W/m² 10,5 °C 12,8 °C 0,0 km/h (0 Bft)
15.07.2017 03:54 12,8 °C 12,8 °C 86 % 1017,2 hPa 0,0 mm 0,0 km/h (0 Bft) S-SW 208 ° 0 min 0,000 mm 0,0 UV-I 0 W/m² 10,5 °C 12,8 °C 0,0 km/h (0 Bft)
15.07.2017 03:55 12,8 °C 12,8 °C 86 % 1017,2 hPa 0,0 mm 0,3 km/h (0 Bft) S-SW 208 ° 0 min 0,000 mm 0,0 UV-I 0 W/m² 10,5 °C 12,8 °C 1,6 km/h (1 Bft)
15.07.2017 03:56 12,8 °C 12,8 °C 86 % 1017,2 hPa 0,0 mm 0,6 km/h (0 Bft) W 265 ° 0 min 0,000 mm 0,0 UV-I 0 W/m² 10,5 °C 12,8 °C 3,2 km/h (1 Bft)
15.07.2017 03:57 12,8 °C 12,8 °C 86 % 1017,2 hPa 0,0 mm 1,6 km/h (1 Bft) W-SW 246 ° 0 min 0,000 mm 0,0 UV-I 0 W/m² 10,5 °C 12,8 °C 3,2 km/h (1 Bft)
15.07.2017 03:58 12,9 °C 12,9 °C 85 % 1017,2 hPa 0,0 mm 1,5 km/h (1 Bft) W-SW 246 ° 0 min 0,000 mm 0,0 UV-I 0 W/m² 10,4 °C 12,9 °C 3,2 km/h (1 Bft)
15.07.2017 03:59 12,8 °C 12,9 °C 85 % 1017,2 hPa 0,0 mm 2,1 km/h (1 Bft) W-SW 240 ° 0 min 0,000 mm 0,0 UV-I 0 W/m² 10,3 °C 12,8 °C 3,2 km/h (1 Bft)
15.07.2017 04:00 12,8 °C 12,8 °C 85 % 1017,2 hPa 0,0 mm 1,7 km/h (1 Bft) W-SW 240 ° 0 min 0,025 mm 0,0 UV-I 0 W/m² 10,3 °C 12,8 °C 3,2 km/h (1 Bft)
15.07.2017 04:01 12,8 °C 12,8 °C 85 % 1017,2 hPa 0,0 mm 2,7 km/h (1 Bft) W-SW 240 ° 0 min 0,000 mm 0,0 UV-I 0 W/m² 10,3 °C 12,8 °C 3,2 km/h (1 Bft)
15.07.2017 04:02 12,8 °C 12,8 °C 85 % 1017,2 hPa 0,0 mm 3,2 km/h (1 Bft) SW 225 ° 0 min 0,000 mm 0,0 UV-I 0 W/m² 10,3 °C 12,8 °C 4,8 km/h (1 Bft)
15.07.2017 04:03 12,8 °C 12,8 °C 85 % 1017,3 hPa 0,0 mm 1,6 km/h (1 Bft) S-SW 202 ° 0 min 0,000 mm 0,0 UV-I 0 W/m² 10,3 °C 12,8 °C 4,8 km/h (1 Bft)
15.07.2017 04:04 12,8 °C 12,8 °C 85 % 1017,3 hPa 0,0 mm 3,2 km/h (1 Bft) W-SW 247 ° 0 min 0,000 mm 0,0 UV-I 0 W/m² 10,3 °C 12,8 °C 8,0 km/h (2 Bft)
15.07.2017 04:05 12,9 °C 12,9 °C 85 % 1017,3 hPa 0,0 mm 3,2 km/h (1 Bft) W-SW 247 ° 0 min 0,000 mm 0,0 UV-I 0 W/m² 10,4 °C 12,9 °C 4,8 km/h (1 Bft)
15.07.2017 04:06 12,8 °C 12,9 °C 86 % 1017,3 hPa 0,0 mm 3,2 km/h (1 Bft) W-SW 247 ° 0 min 0,000 mm 0,0 UV-I 0 W/m² 10,5 °C 12,8 °C 6,4 km/h (2 Bft)
15.07.2017 04:07 12,8 °C 12,9 °C 86 % 1017,2 hPa 0,0 mm 3,2 km/h (1 Bft) W 270 ° 0 min 0,000 mm 0,0 UV-I 0 W/m² 10,5 °C 12,8 °C 4,8 km/h (1 Bft)
15.07.2017 04:08 12,8 °C 12,8 °C 86 % 1017,3 hPa 0,0 mm 1,6 km/h (1 Bft) W 270 ° 0 min 0,000 mm 0,0 UV-I 0 W/m² 10,5 °C 12,8 °C 4,8 km/h (1 Bft)
15.07.2017 04:09 12,8 °C 12,8 °C 86 % 1017,3 hPa 0,0 mm 1,6 km/h (1 Bft) W 270 ° 0 min 0,000 mm 0,0 UV-I 0 W/m² 10,5 °C 12,8 °C 3,2 km/h (1 Bft)
15.07.2017 04:10 12,8 °C 12,8 °C 86 % 1017,2 hPa 0,0 mm 1,6 km/h (1 Bft) W-SW 247 ° 0 min 0,000 mm 0,0 UV-I 0 W/m² 10,5 °C 12,8 °C 3,2 km/h (1 Bft)
15.07.2017 04:11 12,7 °C 12,8 °C 86 % 1017,3 hPa 0,0 mm 1,6 km/h (1 Bft) W-SW 247 ° 0 min 0,000 mm 0,0 UV-I 0 W/m² 10,4 °C 12,7 °C 3,2 km/h (1 Bft)
15.07.2017 04:13 12,7 °C 12,8 °C 86 % 1017,3 hPa 0,0 mm 0,2 km/h (0 Bft) W-SW 239 ° 0 min 0,000 mm 0,0 UV-I 0 W/m² 10,4 °C 12,7 °C 1,6 km/h (1 Bft)
15.07.2017 04:14 12,6 °C 12,7 °C 87 % 1017,3 hPa 0,0 mm 2,0 km/h (1 Bft) W-SW 239 ° 0 min 0,000 mm 0,0 UV-I 0 W/m² 10,5 °C 12,6 °C 3,2 km/h (1 Bft)
15.07.2017 04:15 12,6 °C 12,7 °C 87 % 1017,3 hPa 0,0 mm 1,6 km/h (1 Bft) W-SW 239 ° 0 min 0,000 mm 0,0 UV-I 0 W/m² 10,5 °C 12,6 °C 3,2 km/h (1 Bft)
15.07.2017 04:16 12,6 °C 12,6 °C 87 % 1017,3 hPa 0,0 mm 2,3 km/h (1 Bft) SW 221 ° 0 min 0,000 mm 0,0 UV-I 0 W/m² 10,5 °C 12,6 °C 6,4 km/h (2 Bft)
15.07.2017 04:17 12,6 °C 12,6 °C 87 % 1017,3 hPa 0,0 mm 2,1 km/h (1 Bft) SW 222 ° 0 min 0,000 mm 0,0 UV-I 0 W/m² 10,5 °C 12,6 °C 4,8 km/h (1 Bft)
15.07.2017 04:18 12,6 °C 12,6 °C 87 % 1017,3 hPa 0,0 mm 0,1 km/h (0 Bft) SW 222 ° 0 min 0,000 mm 0,0 UV-I 0 W/m² 10,5 °C 12,6 °C 1,6 km/h (1 Bft)
15.07.2017 04:19 12,6 °C 12,6 °C 87 % 1017,4 hPa 0,0 mm 0,5 km/h (0 Bft) W 259 ° 0 min 0,000 mm 0,0 UV-I 0 W/m² 10,5 °C 12,6 °C 3,2 km/h (1 Bft)
15.07.2017 04:20 12,6 °C 12,6 °C 87 % 1017,4 hPa 0,0 mm 3,2 km/h (1 Bft) W-NW 285 ° 0 min 0,000 mm 0,0 UV-I 0 W/m² 10,5 °C 12,6 °C 4,8 km/h (1 Bft)
15.07.2017 04:21 12,6 °C 12,6 °C 87 % 1017,3 hPa 0,0 mm 2,7 km/h (1 Bft) NW 313 ° 0 min 0,000 mm 0,0 UV-I 0 W/m² 10,5 °C 12,6 °C 4,8 km/h (1 Bft)
15.07.2017 04:22 12,6 °C 12,6 °C 87 % 1017,4 hPa 0,0 mm 3,6 km/h (1 Bft) NW 319 ° 0 min 0,000 mm 0,0 UV-I 0 W/m² 10,5 °C 12,6 °C 4,8 km/h (1 Bft)
15.07.2017 04:23 12,5 °C 12,6 °C 87 % 1017,4 hPa 0,0 mm 2,2 km/h (1 Bft) NW 319 ° 0 min 0,000 mm 0,0 UV-I 0 W/m² 10,4 °C 12,5 °C 3,2 km/h (1 Bft)
15.07.2017 04:24 12,5 °C 12,6 °C 88 % 1017,4 hPa 0,0 mm 1,6 km/h (1 Bft) NW 319 ° 0 min 0,000 mm 0,0 UV-I 0 W/m² 10,6 °C 12,5 °C 3,2 km/h (1 Bft)
15.07.2017 04:25 12,4 °C 12,5 °C 88 % 1017,4 hPa 0,0 mm 0,3 km/h (0 Bft) NW 319 ° 0 min 0,000 mm 0,0 UV-I 0 W/m² 10,5 °C 12,4 °C 1,6 km/h (1 Bft)
15.07.2017 04:26 12,4 °C 12,4 °C 88 % 1017,3 hPa 0,0 mm 0,0 km/h (0 Bft) NW 319 ° 0 min 0,000 mm 0,0 UV-I 0 W/m² 10,5 °C 12,4 °C 0,0 km/h (0 Bft)
15.07.2017 04:27 12,3 °C 12,4 °C 89 % 1017,3 hPa 0,0 mm 1,3 km/h (1 Bft) NW 319 ° 0 min 0,000 mm 0,0 UV-I 0 W/m² 10,5 °C 12,3 °C 1,6 km/h (1 Bft)
15.07.2017 04:28 12,3 °C 12,4 °C 89 % 1017,3 hPa 0,0 mm 0,0 km/h (0 Bft) NW 319 ° 0 min 0,000 mm 0,0 UV-I 0 W/m² 10,5 °C 12,3 °C 0,0 km/h (0 Bft)
15.07.2017 04:29 12,3 °C 12,3 °C 89 % 1017,3 hPa 0,0 mm 0,3 km/h (0 Bft) NW 319 ° 0 min 0,000 mm 0,0 UV-I 0 W/m² 10,5 °C 12,3 °C 1,6 km/h (1 Bft)
15.07.2017 04:30 12,2 °C 12,3 °C 89 % 1017,4 hPa 0,0 mm 0,0 km/h (0 Bft) NW 319 ° 0 min 0,000 mm 0,0 UV-I 0 W/m² 10,4 °C 12,2 °C 0,0 km/h (0 Bft)
15.07.2017 04:31 12,2 °C 12,2 °C 89 % 1017,4 hPa 0,0 mm 0,0 km/h (0 Bft) NW 319 ° 0 min 0,000 mm 0,0 UV-I 0 W/m² 10,4 °C 12,2 °C 0,0 km/h (0 Bft)
15.07.2017 04:32 12,2 °C 12,2 °C 90 % 1017,4 hPa 0,0 mm 0,0 km/h (0 Bft) NW 319 ° 0 min 0,000 mm 0,0 UV-I 0 W/m² 10,6 °C 12,2 °C 0,0 km/h (0 Bft)
15.07.2017 04:33 12,1 °C 12,2 °C 91 % 1017,4 hPa 0,0 mm 0,0 km/h (0 Bft) NW 319 ° 0 min 0,000 mm 0,0 UV-I 0 W/m² 10,7 °C 12,1 °C 0,0 km/h (0 Bft)
15.07.2017 04:34 12,1 °C 12,1 °C 91 % 1017,5 hPa 0,0 mm 0,1 km/h (0 Bft) NW 319 ° 0 min 0,000 mm 0,0 UV-I 0 W/m² 10,7 °C 12,1 °C 1,6 km/h (1 Bft)
15.07.2017 04:35 11,9 °C 12,1 °C 91 % 1017,5 hPa 0,0 mm 0,1 km/h (0 Bft) NW 319 ° 0 min 0,000 mm 0,0 UV-I 0 W/m² 10,5 °C 11,9 °C 1,6 km/h (1 Bft)
15.07.2017 04:36 11,9 °C 12,0 °C 91 % 1017,5 hPa 0,0 mm 0,0 km/h (0 Bft) NW 319 ° 0 min 0,000 mm 0,0 UV-I 0 W/m² 10,5 °C 11,9 °C 0,0 km/h (0 Bft)
15.07.2017 04:37 11,9 °C 11,9 °C 91 % 1017,5 hPa 0,0 mm 0,0 km/h (0 Bft) NW 319 ° 0 min 0,000 mm 0,0 UV-I 0 W/m² 10,5 °C 11,9 °C 0,0 km/h (0 Bft)
15.07.2017 04:38 11,9 °C 11,9 °C 91 % 1017,5 hPa 0,0 mm 0,0 km/h (0 Bft) NW 319 ° 0 min 0,000 mm 0,0 UV-I 0 W/m² 10,5 °C 11,9 °C 0,0 km/h (0 Bft)
15.07.2017 04:39 12,0 °C 12,0 °C 91 % 1017,4 hPa 0,0 mm 2,3 km/h (1 Bft) NW 319 ° 0 min 0,000 mm 0,0 UV-I 0 W/m² 10,6 °C 12,0 °C 4,8 km/h (1 Bft)
15.07.2017 04:40 12,0 °C 12,0 °C 90 % 1017,4 hPa 0,0 mm 2,7 km/h (1 Bft) W-NW 288 ° 0 min 0,000 mm 0,0 UV-I 0 W/m² 10,4 °C 12,0 °C 4,8 km/h (1 Bft)
15.07.2017 04:41 12,0 °C 12,1 °C 90 % 1017,4 hPa 0,0 mm 0,3 km/h (0 Bft) W-NW 288 ° 0 min 0,000 mm 0,0 UV-I 0 W/m² 10,4 °C 12,0 °C 1,6 km/h (1 Bft)
15.07.2017 04:42 12,1 °C 12,1 °C 90 % 1017,5 hPa 0,0 mm 0,7 km/h (0 Bft) W-NW 288 ° 0 min 0,000 mm 0,0 UV-I 0 W/m² 10,5 °C 12,1 °C 3,2 km/h (1 Bft)
15.07.2017 04:43 12,1 °C 12,1 °C 91 % 1017,5 hPa 0,0 mm 1,9 km/h (1 Bft) W-NW 288 ° 0 min 0,000 mm 0,0 UV-I 0 W/m² 10,7 °C 12,1 °C 3,2 km/h (1 Bft)
15.07.2017 04:44 12,1 °C 12,1 °C 91 % 1017,5 hPa 0,0 mm 3,2 km/h (1 Bft) W-NW 288 ° 0 min 0,000 mm 0,0 UV-I 0 W/m² 10,7 °C 12,1 °C 4,8 km/h (1 Bft)
15.07.2017 04:45 12,1 °C 12,1 °C 91 % 1017,4 hPa 0,0 mm 1,6 km/h (1 Bft) W-NW 288 ° 0 min 0,000 mm 0,0 UV-I 0 W/m² 10,7 °C 12,1 °C 3,2 km/h (1 Bft)
15.07.2017 04:46 12,1 °C 12,2 °C 91 % 1017,5 hPa 0,0 mm 1,3 km/h (1 Bft) W-NW 288 ° 0 min 0,000 mm 0,0 UV-I 0 W/m² 10,7 °C 12,1 °C 3,2 km/h (1 Bft)
15.07.2017 04:47 12,1 °C 12,2 °C 91 % 1017,5 hPa 0,0 mm 0,5 km/h (0 Bft) W-NW 288 ° 0 min 0,000 mm 0,0 UV-I 0 W/m² 10,7 °C 12,1 °C 1,6 km/h (1 Bft)
15.07.2017 04:48 12,1 °C 12,1 °C 91 % 1017,4 hPa 0,0 mm 1,8 km/h (1 Bft) W-NW 288 ° 0 min 0,000 mm 0,0 UV-I 0 W/m² 10,7 °C 12,1 °C 3,2 km/h (1 Bft)
15.07.2017 04:49 12,1 °C 12,1 °C 91 % 1017,5 hPa 0,0 mm 0,1 km/h (0 Bft) W-NW 288 ° 0 min 0,000 mm 0,0 UV-I 0 W/m² 10,7 °C 12,1 °C 1,6 km/h (1 Bft)
15.07.2017 04:50 12,1 °C 12,1 °C 90 % 1017,5 hPa 0,0 mm 0,0 km/h (0 Bft) W-NW 288 ° 0 min 0,000 mm 0,0 UV-I 0 W/m² 10,5 °C 12,1 °C 0,0 km/h (0 Bft)
15.07.2017 04:51 12,1 °C 12,1 °C 91 % 1017,5 hPa 0,0 mm 0,0 km/h (0 Bft) W-NW 288 ° 0 min 0,000 mm 0,0 UV-I 0 W/m² 10,7 °C 12,1 °C 0,0 km/h (0 Bft)
15.07.2017 04:52 12,0 °C 12,1 °C 91 % 1017,5 hPa 0,0 mm 0,9 km/h (0 Bft) W-NW 288 ° 0 min 0,000 mm 0,0 UV-I 0 W/m² 10,6 °C 12,0 °C 4,8 km/h (1 Bft)
15.07.2017 04:53 12,1 °C 12,1 °C 91 % 1017,5 hPa 0,0 mm 3,2 km/h (1 Bft) W-NW 286 ° 0 min 0,000 mm 0,0 UV-I 0 W/m² 10,7 °C 12,1 °C 6,4 km/h (2 Bft)
15.07.2017 04:54 12,0 °C 12,1 °C 91 % 1017,5 hPa 0,0 mm 2,7 km/h (1 Bft) W-NW 286 ° 0 min 0,000 mm 0,0 UV-I 0 W/m² 10,6 °C 12,0 °C 3,2 km/h (1 Bft)
15.07.2017 04:55 12,1 °C 12,1 °C 91 % 1017,5 hPa 0,0 mm 1,9 km/h (1 Bft) W-NW 286 ° 0 min 0,000 mm 0,0 UV-I 0 W/m² 10,7 °C 12,1 °C 3,2 km/h (1 Bft)
15.07.2017 04:56 12,1 °C 12,1 °C 91 % 1017,5 hPa 0,0 mm 3,0 km/h (1 Bft) W-NW 286 ° 0 min 0,000 mm 0,0 UV-I 0 W/m² 10,7 °C 12,1 °C 3,2 km/h (1 Bft)
15.07.2017 04:57 12,1 °C 12,1 °C 91 % 1017,5 hPa 0,0 mm 0,2 km/h (0 Bft) W-NW 286 ° 0 min 0,000 mm 0,0 UV-I 0 W/m² 10,7 °C 12,1 °C 1,6 km/h (1 Bft)
15.07.2017 04:58 12,1 °C 12,1 °C 91 % 1017,5 hPa 0,0 mm 0,0 km/h (0 Bft) W-NW 286 ° 0 min 0,000 mm 0,0 UV-I 0 W/m² 10,7 °C 12,1 °C 0,0 km/h (0 Bft)
15.07.2017 04:59 12,1 °C 12,1 °C 91 % 1017,5 hPa 0,0 mm 4,2 km/h (1 Bft) W-NW 286 ° 0 min 0,000 mm 0,0 UV-I 0 W/m² 10,7 °C 12,1 °C 6,4 km/h (2 Bft)
15.07.2017 05:00 12,1 °C 12,1 °C 91 % 1017,5 hPa 0,0 mm 3,5 km/h (1 Bft) NW 315 ° 0 min 0,000 mm 0,0 UV-I 0 W/m² 10,7 °C 12,1 °C 6,4 km/h (2 Bft)
15.07.2017 05:01 12,1 °C 12,1 °C 91 % 1017,5 hPa 0,0 mm 1,2 km/h (1 Bft) NW 306 ° 0 min 0,000 mm 0,0 UV-I 0 W/m² 10,7 °C 12,1 °C 3,2 km/h (1 Bft)
15.07.2017 05:02 12,1 °C 12,1 °C 91 % 1017,5 hPa 0,0 mm 1,2 km/h (1 Bft) NW 306 ° 0 min 0,000 mm 0,0 UV-I 0 W/m² 10,7 °C 12,1 °C 3,2 km/h (1 Bft)
15.07.2017 05:03 12,1 °C 12,1 °C 91 % 1017,6 hPa 0,0 mm 2,1 km/h (1 Bft) NW 306 ° 0 min 0,000 mm 0,0 UV-I 0 W/m² 10,7 °C 12,1 °C 4,8 km/h (1 Bft)
15.07.2017 05:04 12,1 °C 12,1 °C 91 % 1017,6 hPa 0,0 mm 2,0 km/h (1 Bft) NW 306 ° 0 min 0,000 mm 0,0 UV-I 0 W/m² 10,7 °C 12,1 °C 3,2 km/h (1 Bft)
15.07.2017 05:05 12,2 °C 12,2 °C 91 % 1017,6 hPa 0,0 mm 1,1 km/h (1 Bft) NW 305 ° 0 min 0,000 mm 0,0 UV-I 0 W/m² 10,8 °C 12,2 °C 3,2 km/h (1 Bft)
15.07.2017 05:06 12,2 °C 12,2 °C 91 % 1017,6 hPa 0,0 mm 1,9 km/h (1 Bft) W 273 ° 0 min 0,000 mm 0,0 UV-I 0 W/m² 10,8 °C 12,2 °C 4,8 km/h (1 Bft)
15.07.2017 05:07 12,2 °C 12,2 °C 91 % 1017,5 hPa 0,0 mm 2,5 km/h (1 Bft) W 268 ° 0 min 0,000 mm 0,0 UV-I 0 W/m² 10,8 °C 12,2 °C 4,8 km/h (1 Bft)
15.07.2017 05:08 12,1 °C 12,2 °C 91 % 1017,5 hPa 0,0 mm 0,9 km/h (0 Bft) W 268 ° 0 min 0,000 mm 0,0 UV-I 0 W/m² 10,7 °C 12,1 °C 3,2 km/h (1 Bft)
15.07.2017 05:09 12,1 °C 12,2 °C 91 % 1017,5 hPa 0,0 mm 1,8 km/h (1 Bft) W 268 ° 0 min 0,000 mm 0,0 UV-I 0 W/m² 10,7 °C 12,1 °C 3,2 km/h (1 Bft)
15.07.2017 05:10 12,1 °C 12,1 °C 91 % 1017,5 hPa 0,0 mm 2,1 km/h (1 Bft) W 268 ° 0 min 0,000 mm 0,0 UV-I 0 W/m² 10,7 °C 12,1 °C 4,8 km/h (1 Bft)
15.07.2017 05:11 12,1 °C 12,1 °C 91 % 1017,5 hPa 0,0 mm 3,2 km/h (1 Bft) W 268 ° 0 min 0,000 mm 0,0 UV-I 0 W/m² 10,7 °C 12,1 °C 4,8 km/h (1 Bft)
15.07.2017 05:12 12,1 °C 12,1 °C 91 % 1017,5 hPa 0,0 mm 4,6 km/h (1 Bft) W 275 ° 0 min 0,000 mm 0,0 UV-I 0 W/m² 10,7 °C 12,1 °C 6,4 km/h (2 Bft)
15.07.2017 05:13 12,2 °C 12,2 °C 91 % 1017,6 hPa 0,0 mm 5,7 km/h (1 Bft) W 260 ° 0 min 0,000 mm 0,0 UV-I 0 W/m² 10,8 °C 12,2 °C 9,7 km/h (2 Bft)
15.07.2017 05:14 12,2 °C 12,2 °C 91 % 1017,6 hPa 0,0 mm 3,6 km/h (1 Bft) W-SW 245 ° 0 min 0,000 mm 0,0 UV-I 0 W/m² 10,8 °C 12,2 °C 4,8 km/h (1 Bft)
15.07.2017 05:15 12,1 °C 12,2 °C 91 % 1017,6 hPa 0,0 mm 1,8 km/h (1 Bft) W-SW 245 ° 0 min 0,000 mm 0,0 UV-I 0 W/m² 10,7 °C 12,1 °C 4,8 km/h (1 Bft)
15.07.2017 05:16 12,1 °C 12,2 °C 91 % 1017,6 hPa 0,0 mm 1,9 km/h (1 Bft) W 259 ° 0 min 0,000 mm 0,0 UV-I 0 W/m² 10,7 °C 12,1 °C 6,4 km/h (2 Bft)
15.07.2017 05:17 12,1 °C 12,2 °C 91 % 1017,5 hPa 0,0 mm 5,1 km/h (1 Bft) W-SW 256 ° 0 min 0,000 mm 0,0 UV-I 0 W/m² 10,7 °C 12,1 °C 6,4 km/h (2 Bft)
15.07.2017 05:18 12,2 °C 12,2 °C 91 % 1017,6 hPa 0,0 mm 3,0 km/h (1 Bft) W-SW 258 ° 0 min 0,000 mm 0,0 UV-I 0 W/m² 10,8 °C 12,2 °C 4,8 km/h (1 Bft)
15.07.2017 05:19 12,2 °C 12,2 °C 91 % 1017,5 hPa 0,0 mm 2,6 km/h (1 Bft) W-NW 283 ° 0 min 0,000 mm 0,0 UV-I 0 W/m² 10,8 °C 12,2 °C 4,8 km/h (1 Bft)
15.07.2017 05:20 12,2 °C 12,2 °C 91 % 1017,6 hPa 0,0 mm 2,5 km/h (1 Bft) W-NW 283 ° 0 min 0,000 mm 0,0 UV-I 0 W/m² 10,8 °C 12,2 °C 4,8 km/h (1 Bft)
15.07.2017 05:21 12,2 °C 12,2 °C 91 % 1017,5 hPa 0,0 mm 1,7 km/h (1 Bft) W-NW 283 ° 0 min 0,000 mm 0,0 UV-I 0 W/m² 10,8 °C 12,2 °C 3,2 km/h (1 Bft)
15.07.2017 05:22 12,2 °C 12,2 °C 91 % 1017,6 hPa 0,0 mm 2,0 km/h (1 Bft) W-NW 283 ° 0 min 0,000 mm 0,0 UV-I 0 W/m² 10,8 °C 12,2 °C 3,2 km/h (1 Bft)
15.07.2017 05:23 12,1 °C 12,2 °C 91 % 1017,6 hPa 0,0 mm 2,6 km/h (1 Bft) W-NW 283 ° 0 min 0,000 mm 0,0 UV-I 0 W/m² 10,7 °C 12,1 °C 3,2 km/h (1 Bft)
15.07.2017 05:24 12,1 °C 12,2 °C 91 % 1017,5 hPa 0,0 mm 2,7 km/h (1 Bft) W-NW 283 ° 0 min 0,000 mm 0,0 UV-I 0 W/m² 10,7 °C 12,1 °C 3,2 km/h (1 Bft)
15.07.2017 05:25 12,2 °C 12,2 °C 91 % 1017,6 hPa 0,0 mm 2,7 km/h (1 Bft) W-NW 282 ° 0 min 0,000 mm 0,0 UV-I 0 W/m² 10,8 °C 12,2 °C 6,4 km/h (2 Bft)
15.07.2017 05:26 12,2 °C 12,2 °C 91 % 1017,6 hPa 0,0 mm 4,5 km/h (1 Bft) W 276 ° 0 min 0,000 mm 0,0 UV-I 0 W/m² 10,8 °C 12,2 °C 6,4 km/h (2 Bft)
15.07.2017 05:27 12,2 °C 12,2 °C 91 % 1017,6 hPa 0,0 mm 2,4 km/h (1 Bft) W 276 ° 0 min 0,000 mm 0,0 UV-I 0 W/m² 10,8 °C 12,2 °C 4,8 km/h (1 Bft)
15.07.2017 05:28 12,2 °C 12,2 °C 92 % 1017,6 hPa 0,0 mm 2,6 km/h (1 Bft) W 276 ° 0 min 0,000 mm 0,0 UV-I 0 W/m² 10,9 °C 12,2 °C 4,8 km/h (1 Bft)
15.07.2017 05:29 12,2 °C 12,2 °C 92 % 1017,6 hPa 0,0 mm 1,8 km/h (1 Bft) W 276 ° 0 min 0,000 mm 0,0 UV-I 0 W/m² 10,9 °C 12,2 °C 4,8 km/h (1 Bft)
15.07.2017 05:30 12,2 °C 12,2 °C 91 % 1017,6 hPa 0,0 mm 3,3 km/h (1 Bft) W 276 ° 0 min 0,000 mm 0,0 UV-I 0 W/m² 10,8 °C 12,2 °C 4,8 km/h (1 Bft)
15.07.2017 05:31 12,2 °C 12,2 °C 92 % 1017,6 hPa 0,0 mm 1,1 km/h (1 Bft) W 276 ° 0 min 0,000 mm 0,0 UV-I 0 W/m² 10,9 °C 12,2 °C 3,2 km/h (1 Bft)
15.07.2017 05:32 12,2 °C 12,2 °C 91 % 1017,6 hPa 0,0 mm 0,0 km/h (0 Bft) W 276 ° 0 min 0,000 mm 0,0 UV-I 0 W/m² 10,8 °C 12,2 °C 0,0 km/h (0 Bft)
15.07.2017 05:33 12,2 °C 12,2 °C 91 % 1017,7 hPa 0,0 mm 0,0 km/h (0 Bft) W 276 ° 0 min 0,000 mm 0,0 UV-I 0 W/m² 10,8 °C 12,2 °C 0,0 km/h (0 Bft)
15.07.2017 05:34 12,2 °C 12,2 °C 91 % 1017,7 hPa 0,0 mm 0,0 km/h (0 Bft) W 276 ° 0 min 0,000 mm 0,0 UV-I 0 W/m² 10,8 °C 12,2 °C 0,0 km/h (0 Bft)
15.07.2017 05:35 12,2 °C 12,2 °C 91 % 1017,6 hPa 0,0 mm 0,8 km/h (0 Bft) W-SW 245 ° 0 min 0,000 mm 0,0 UV-I 0 W/m² 10,8 °C 12,2 °C 3,2 km/h (1 Bft)
15.07.2017 05:36 12,2 °C 12,2 °C 91 % 1017,6 hPa 0,0 mm 0,9 km/h (0 Bft) W-SW 245 ° 0 min 0,000 mm 0,0 UV-I 0 W/m² 10,8 °C 12,2 °C 1,6 km/h (1 Bft)
15.07.2017 05:37 12,1 °C 12,2 °C 92 % 1017,6 hPa 0,0 mm 4,7 km/h (1 Bft) W 280 ° 0 min 0,000 mm 0,0 UV-I 0 W/m² 10,8 °C 12,1 °C 6,4 km/h (2 Bft)
15.07.2017 05:38 12,2 °C 12,2 °C 91 % 1017,6 hPa 0,0 mm 1,8 km/h (1 Bft) W 280 ° 0 min 0,000 mm 0,0 UV-I 0 W/m² 10,8 °C 12,2 °C 4,8 km/h (1 Bft)
15.07.2017 05:39 12,2 °C 12,2 °C 91 % 1017,7 hPa 0,0 mm 4,3 km/h (1 Bft) W 275 ° 0 min 0,000 mm 0,0 UV-I 0 W/m² 10,8 °C 12,2 °C 4,8 km/h (1 Bft)
15.07.2017 05:40 12,2 °C 12,2 °C 91 % 1017,7 hPa 0,0 mm 2,3 km/h (1 Bft) W 275 ° 0 min 0,000 mm 0,0 UV-I 0 W/m² 10,8 °C 12,2 °C 4,8 km/h (1 Bft)
15.07.2017 05:41 12,2 °C 12,2 °C 91 % 1017,7 hPa 0,0 mm 2,3 km/h (1 Bft) W 275 ° 0 min 0,000 mm 0,0 UV-I 0 W/m² 10,8 °C 12,2 °C 3,2 km/h (1 Bft)
15.07.2017 05:42 12,2 °C 12,2 °C 92 % 1017,8 hPa 0,0 mm 2,3 km/h (1 Bft) W 275 ° 0 min 0,000 mm 0,0 UV-I 0 W/m² 10,9 °C 12,2 °C 3,2 km/h (1 Bft)
15.07.2017 05:43 12,3 °C 12,3 °C 91 % 1017,8 hPa 0,0 mm 3,0 km/h (1 Bft) W 275 ° 0 min 0,000 mm 0,0 UV-I 0 W/m² 10,9 °C 12,3 °C 4,8 km/h (1 Bft)
15.07.2017 05:44 12,3 °C 12,3 °C 92 % 1017,8 hPa 0,0 mm 3,7 km/h (1 Bft) W 273 ° 0 min 0,000 mm 0,0 UV-I 0 W/m² 11,0 °C 12,3 °C 4,8 km/h (1 Bft)
15.07.2017 05:45 12,3 °C 12,3 °C 92 % 1017,8 hPa 0,0 mm 4,6 km/h (1 Bft) NW 311 ° 0 min 0,000 mm 0,0 UV-I 0 W/m² 11,0 °C 12,3 °C 6,4 km/h (2 Bft)
15.07.2017 05:46 12,2 °C 12,3 °C 92 % 1017,9 hPa 0,0 mm 5,1 km/h (1 Bft) N-NW 331 ° 0 min 0,000 mm 0,0 UV-I 0 W/m² 10,9 °C 12,2 °C 8,0 km/h (2 Bft)
15.07.2017 05:47 12,2 °C 12,2 °C 91 % 1018,1 hPa 0,0 mm 3,3 km/h (1 Bft) NW 325 ° 0 min 0,000 mm 0,0 UV-I 0 W/m² 10,8 °C 12,2 °C 6,4 km/h (2 Bft)
15.07.2017 05:48 12,2 °C 12,2 °C 92 % 1018,1 hPa 0,0 mm 8,0 km/h (2 Bft) W-NW 283 ° 0 min 0,000 mm 0,0 UV-I 0 W/m² 10,9 °C 12,2 °C 17,7 km/h (3 Bft)
15.07.2017 05:49 12,1 °C 12,2 °C 91 % 1018,1 hPa 0,0 mm 10,4 km/h (2 Bft) NW 325 ° 0 min 0,000 mm 0,0 UV-I 0 W/m² 10,7 °C 12,1 °C 17,7 km/h (3 Bft)
15.07.2017 05:50 12,1 °C 12,1 °C 90 % 1018,2 hPa 0,0 mm 12,4 km/h (3 Bft) NW 310 ° 0 min 0,000 mm 0,0 UV-I 0 W/m² 10,5 °C 12,1 °C 19,3 km/h (3 Bft)
15.07.2017 05:51 12,0 °C 12,1 °C 90 % 1018,2 hPa 0,0 mm 9,0 km/h (2 Bft) W-NW 290 ° 0 min 0,000 mm 0,0 UV-I 0 W/m² 10,4 °C 12,0 °C 12,9 km/h (3 Bft)
15.07.2017 05:52 12,0 °C 12,1 °C 89 % 1018,2 hPa 0,0 mm 10,2 km/h (2 Bft) NW 320 ° 0 min 0,000 mm 0,0 UV-I 0 W/m² 10,2 °C 12,0 °C 17,7 km/h (3 Bft)
15.07.2017 05:53 11,9 °C 12,0 °C 89 % 1018,2 hPa 0,0 mm 6,4 km/h (2 Bft) N-NW 342 ° 0 min 0,000 mm 0,0 UV-I 0 W/m² 10,1 °C 11,9 °C 8,0 km/h (2 Bft)
15.07.2017 05:54 11,9 °C 11,9 °C 89 % 1018,2 hPa 0,0 mm 8,6 km/h (2 Bft) N-NW 327 ° 0 min 0,000 mm 0,0 UV-I 0 W/m² 10,1 °C 11,9 °C 14,5 km/h (3 Bft)
15.07.2017 05:55 11,9 °C 11,9 °C 89 % 1018,2 hPa 0,0 mm 5,8 km/h (2 Bft) N-NW 340 ° 0 min 0,000 mm 0,0 UV-I 0 W/m² 10,1 °C 11,9 °C 14,5 km/h (3 Bft)
15.07.2017 05:56 11,8 °C 11,9 °C 89 % 1018,2 hPa 0,2 mm 9,1 km/h (2 Bft) NW 317 ° 0 min 0,000 mm 0,0 UV-I 0 W/m² 10,0 °C 11,8 °C 16,1 km/h (3 Bft)
15.07.2017 05:57 11,8 °C 11,8 °C 89 % 1018,2 hPa 0,0 mm 7,2 km/h (2 Bft) NW 311 ° 0 min 0,000 mm 0,0 UV-I 0 W/m² 10,0 °C 11,8 °C 12,9 km/h (3 Bft)
15.07.2017 05:58 11,7 °C 11,8 °C 89 % 1018,1 hPa 0,2 mm 5,7 km/h (1 Bft) NW 321 ° 0 min 0,000 mm 0,0 UV-I 0 W/m² 9,9 °C 11,7 °C 9,7 km/h (2 Bft)
15.07.2017 05:59 11,7 °C 11,7 °C 90 % 1018,1 hPa 0,0 mm 9,1 km/h (2 Bft) N-NW 332 ° 0 min 0,000 mm 0,0 UV-I 0 W/m² 10,1 °C 11,7 °C 16,1 km/h (3 Bft)
15.07.2017 06:00 11,6 °C 11,7 °C 90 % 1018,1 hPa 0,0 mm 6,2 km/h (2 Bft) W-NW 295 ° 0 min 0,000 mm 0,0 UV-I 0 W/m² 10,0 °C 11,6 °C 11,3 km/h (2 Bft)
15.07.2017 06:01 11,6 °C 11,6 °C 90 % 1018,2 hPa 0,0 mm 8,4 km/h (2 Bft) NW 309 ° 0 min 0,000 mm 0,0 UV-I 0 W/m² 10,0 °C 11,6 °C 12,9 km/h (3 Bft)
15.07.2017 06:02 11,6 °C 11,6 °C 90 % 1018,3 hPa 0,0 mm 8,3 km/h (2 Bft) NW 326 ° 0 min 0,000 mm 0,0 UV-I 5 W/m² 10,0 °C 11,6 °C 14,5 km/h (3 Bft)
15.07.2017 06:03 11,5 °C 11,6 °C 90 % 1018,2 hPa 0,0 mm 8,7 km/h (2 Bft) NW 320 ° 0 min 0,000 mm 0,0 UV-I 7 W/m² 9,9 °C 11,5 °C 11,3 km/h (2 Bft)
15.07.2017 06:04 11,4 °C 11,5 °C 91 % 1018,2 hPa 0,0 mm 5,0 km/h (1 Bft) N-NW 328 ° 0 min 0,000 mm 0,0 UV-I 9 W/m² 10,0 °C 11,4 °C 8,0 km/h (2 Bft)
15.07.2017 06:05 11,4 °C 11,4 °C 91 % 1018,2 hPa 0,0 mm 6,2 km/h (2 Bft) NW 317 ° 0 min 0,000 mm 0,0 UV-I 11 W/m² 10,0 °C 11,4 °C 8,0 km/h (2 Bft)
15.07.2017 06:06 11,4 °C 11,4 °C 91 % 1018,2 hPa 0,0 mm 6,9 km/h (2 Bft) N 351 ° 0 min 0,000 mm 0,0 UV-I 11 W/m² 10,0 °C 11,4 °C 12,9 km/h (3 Bft)
15.07.2017 06:07 11,4 °C 11,4 °C 91 % 1018,3 hPa 0,0 mm 4,8 km/h (1 Bft) W-NW 282 ° 0 min 0,000 mm 0,0 UV-I 11 W/m² 10,0 °C 11,4 °C 6,4 km/h (2 Bft)
15.07.2017 06:08 11,4 °C 11,4 °C 91 % 1018,2 hPa 0,2 mm 1,9 km/h (1 Bft) W-NW 284 ° 0 min 0,000 mm 0,0 UV-I 11 W/m² 10,0 °C 11,4 °C 4,8 km/h (1 Bft)
15.07.2017 06:09 11,3 °C 11,4 °C 91 % 1018,2 hPa 0,0 mm 2,8 km/h (1 Bft) W-NW 302 ° 0 min 0,000 mm 0,0 UV-I 12 W/m² 9,9 °C 11,3 °C 4,8 km/h (1 Bft)
15.07.2017 06:10 11,3 °C 11,3 °C 91 % 1018,3 hPa 0,0 mm 4,6 km/h (1 Bft) NW 306 ° 0 min 0,000 mm 0,0 UV-I 14 W/m² 9,9 °C 11,3 °C 6,4 km/h (2 Bft)
15.07.2017 06:11 11,3 °C 11,3 °C 91 % 1018,3 hPa 0,0 mm 3,6 km/h (1 Bft) W 268 ° 0 min 0,000 mm 0,0 UV-I 14 W/m² 9,9 °C 11,3 °C 6,4 km/h (2 Bft)
15.07.2017 06:12 11,3 °C 11,3 °C 91 % 1018,3 hPa 0,0 mm 6,1 km/h (2 Bft) W-NW 288 ° 0 min 0,000 mm 0,0 UV-I 14 W/m² 9,9 °C 11,3 °C 11,3 km/h (2 Bft)
15.07.2017 06:13 11,3 °C 11,3 °C 91 % 1018,3 hPa 0,0 mm 4,8 km/h (1 Bft) N-NW 329 ° 0 min 0,000 mm 0,0 UV-I 12 W/m² 9,9 °C 11,3 °C 8,0 km/h (2 Bft)
15.07.2017 06:14 11,3 °C 11,3 °C 91 % 1018,3 hPa 0,0 mm 6,4 km/h (2 Bft) W-NW 292 ° 0 min 0,000 mm 0,0 UV-I 12 W/m² 9,9 °C 11,3 °C 12,9 km/h (3 Bft)
15.07.2017 06:15 11,2 °C 11,3 °C 92 % 1018,3 hPa 0,0 mm 4,3 km/h (1 Bft) W-NW 286 ° 0 min 0,000 mm 0,0 UV-I 12 W/m² 9,9 °C 11,2 °C 6,4 km/h (2 Bft)
15.07.2017 06:16 11,2 °C 11,2 °C 91 % 1018,3 hPa 0,0 mm 3,7 km/h (1 Bft) W-NW 301 ° 0 min 0,000 mm 0,0 UV-I 11 W/m² 9,8 °C 11,2 °C 6,4 km/h (2 Bft)
15.07.2017 06:17 11,2 °C 11,2 °C 92 % 1018,3 hPa 0,0 mm 2,3 km/h (1 Bft) W-NW 302 ° 0 min 0,000 mm 0,0 UV-I 12 W/m² 9,9 °C 11,2 °C 4,8 km/h (1 Bft)
15.07.2017 06:18 11,2 °C 11,2 °C 92 % 1018,4 hPa 0,0 mm 6,6 km/h (2 Bft) W-NW 302 ° 0 min 0,000 mm 0,0 UV-I 12 W/m² 9,9 °C 11,2 °C 9,7 km/h (2 Bft)
15.07.2017 06:19 11,2 °C 11,2 °C 92 % 1018,4 hPa 0,0 mm 6,1 km/h (2 Bft) W-NW 286 ° 0 min 0,000 mm 0,0 UV-I 16 W/m² 9,9 °C 11,2 °C 8,0 km/h (2 Bft)
15.07.2017 06:20 11,2 °C 11,2 °C 92 % 1018,4 hPa 0,0 mm 8,1 km/h (2 Bft) W-NW 302 ° 0 min 0,000 mm 0,0 UV-I 18 W/m² 9,9 °C 11,2 °C 12,9 km/h (3 Bft)
15.07.2017 06:21 11,2 °C 11,2 °C 92 % 1018,4 hPa 0,0 mm 6,8 km/h (2 Bft) W-NW 292 ° 0 min 0,000 mm 0,0 UV-I 30 W/m² 9,9 °C 11,2 °C 11,3 km/h (2 Bft)
15.07.2017 06:22 11,1 °C 11,2 °C 92 % 1018,4 hPa 0,0 mm 4,8 km/h (1 Bft) NW 306 ° 0 min 0,000 mm 0,0 UV-I 37 W/m² 9,8 °C 11,1 °C 8,0 km/h (2 Bft)
15.07.2017 06:23 11,1 °C 11,2 °C 92 % 1018,4 hPa 0,0 mm 5,1 km/h (1 Bft) NW 315 ° 0 min 0,000 mm 0,0 UV-I 39 W/m² 9,8 °C 11,1 °C 6,4 km/h (2 Bft)
15.07.2017 06:24 11,1 °C 11,2 °C 92 % 1018,5 hPa 0,0 mm 3,1 km/h (1 Bft) NW 311 ° 0 min 0,000 mm 0,0 UV-I 39 W/m² 9,8 °C 11,1 °C 4,8 km/h (1 Bft)
15.07.2017 06:25 11,2 °C 11,2 °C 92 % 1018,4 hPa 0,0 mm 3,8 km/h (1 Bft) NW 317 ° 0 min 0,000 mm 0,0 UV-I 39 W/m² 9,9 °C 11,2 °C 6,4 km/h (2 Bft)
15.07.2017 06:26 11,2 °C 11,2 °C 92 % 1018,5 hPa 0,0 mm 3,0 km/h (1 Bft) NW 315 ° 0 min 0,000 mm 0,0 UV-I 33 W/m² 9,9 °C 11,2 °C 4,8 km/h (1 Bft)
15.07.2017 06:27 11,2 °C 11,2 °C 92 % 1018,5 hPa 0,0 mm 2,1 km/h (1 Bft) NW 323 ° 0 min 0,000 mm 0,0 UV-I 33 W/m² 9,9 °C 11,2 °C 4,8 km/h (1 Bft)
15.07.2017 06:28 11,2 °C 11,2 °C 92 % 1018,5 hPa 0,0 mm 4,4 km/h (1 Bft) N-NW 329 ° 0 min 0,000 mm 0,0 UV-I 35 W/m² 9,9 °C 11,2 °C 6,4 km/h (2 Bft)
15.07.2017 06:29 11,2 °C 11,2 °C 92 % 1018,5 hPa 0,0 mm 5,7 km/h (1 Bft) N-NW 329 ° 0 min 0,000 mm 0,0 UV-I 40 W/m² 9,9 °C 11,2 °C 8,0 km/h (2 Bft)
15.07.2017 06:30 11,2 °C 11,2 °C 92 % 1018,5 hPa 0,0 mm 4,4 km/h (1 Bft) NW 321 ° 0 min 0,000 mm 0,0 UV-I 35 W/m² 9,9 °C 11,2 °C 4,8 km/h (1 Bft)
15.07.2017 06:31 11,1 °C 11,2 °C 92 % 1018,5 hPa 0,0 mm 4,4 km/h (1 Bft) NW 309 ° 0 min 0,000 mm 0,0 UV-I 33 W/m² 9,8 °C 11,1 °C 8,0 km/h (2 Bft)
15.07.2017 06:32 11,1 °C 11,2 °C 92 % 1018,5 hPa 0,2 mm 6,6 km/h (2 Bft) W 275 ° 0 min 0,000 mm 0,0 UV-I 21 W/m² 9,8 °C 11,1 °C 14,5 km/h (3 Bft)
15.07.2017 06:33 11,1 °C 11,1 °C 92 % 1018,5 hPa 0,0 mm 7,6 km/h (2 Bft) NW 319 ° 0 min 0,000 mm 0,0 UV-I 19 W/m² 9,8 °C 11,1 °C 9,7 km/h (2 Bft)
15.07.2017 06:34 11,1 °C 11,1 °C 92 % 1018,6 hPa 0,0 mm 4,1 km/h (1 Bft) W 269 ° 0 min 0,000 mm 0,0 UV-I 23 W/m² 9,8 °C 11,1 °C 8,0 km/h (2 Bft)
15.07.2017 06:35 11,1 °C 11,1 °C 93 % 1018,5 hPa 0,0 mm 3,0 km/h (1 Bft) W 277 ° 0 min 0,000 mm 0,0 UV-I 21 W/m² 10,0 °C 11,1 °C 6,4 km/h (2 Bft)
15.07.2017 06:36 11,1 °C 11,1 °C 93 % 1018,5 hPa 0,0 mm 5,8 km/h (2 Bft) NW 316 ° 0 min 0,000 mm 0,0 UV-I 21 W/m² 10,0 °C 11,1 °C 12,9 km/h (3 Bft)
15.07.2017 06:37 11,1 °C 11,1 °C 93 % 1018,5 hPa 0,0 mm 5,4 km/h (1 Bft) W-NW 300 ° 0 min 0,000 mm 0,0 UV-I 18 W/m² 10,0 °C 11,1 °C 8,0 km/h (2 Bft)
15.07.2017 06:38 11,1 °C 11,1 °C 93 % 1018,6 hPa 0,0 mm 3,3 km/h (1 Bft) W-NW 303 ° 0 min 0,000 mm 0,0 UV-I 14 W/m² 10,0 °C 11,1 °C 4,8 km/h (1 Bft)
15.07.2017 06:39 11,1 °C 11,1 °C 93 % 1018,6 hPa 0,0 mm 2,9 km/h (1 Bft) W-SW 239 ° 0 min 0,000 mm 0,0 UV-I 16 W/m² 10,0 °C 11,1 °C 4,8 km/h (1 Bft)
15.07.2017 06:40 11,1 °C 11,1 °C 93 % 1018,6 hPa 0,0 mm 4,9 km/h (1 Bft) W-NW 294 ° 0 min 0,000 mm 0,0 UV-I 18 W/m² 10,0 °C 11,1 °C 8,0 km/h (2 Bft)
15.07.2017 06:41 11,0 °C 11,1 °C 93 % 1018,6 hPa 0,0 mm 4,0 km/h (1 Bft) W-NW 296 ° 0 min 0,000 mm 0,0 UV-I 19 W/m² 9,9 °C 11,0 °C 6,4 km/h (2 Bft)
15.07.2017 06:42 11,1 °C 11,1 °C 93 % 1018,6 hPa 0,0 mm 3,6 km/h (1 Bft) W 271 ° 0 min 0,000 mm 0,0 UV-I 21 W/m² 10,0 °C 11,1 °C 6,4 km/h (2 Bft)
15.07.2017 06:43 11,0 °C 11,1 °C 93 % 1018,6 hPa 0,0 mm 3,7 km/h (1 Bft) W 275 ° 0 min 0,000 mm 0,0 UV-I 21 W/m² 9,9 °C 11,0 °C 4,8 km/h (1 Bft)
15.07.2017 06:44 11,0 °C 11,0 °C 93 % 1018,6 hPa 0,0 mm 2,4 km/h (1 Bft) W 279 ° 0 min 0,000 mm 0,0 UV-I 25 W/m² 9,9 °C 11,0 °C 3,2 km/h (1 Bft)
15.07.2017 06:45 11,0 °C 11,0 °C 93 % 1018,6 hPa 0,0 mm 2,4 km/h (1 Bft) W 281 ° 0 min 0,000 mm 0,0 UV-I 30 W/m² 9,9 °C 11,0 °C 3,2 km/h (1 Bft)
15.07.2017 06:46 11,0 °C 11,0 °C 93 % 1018,6 hPa 0,0 mm 2,5 km/h (1 Bft) W 281 ° 0 min 0,000 mm 0,0 UV-I 32 W/m² 9,9 °C 11,0 °C 3,2 km/h (1 Bft)
15.07.2017 06:47 11,0 °C 11,1 °C 93 % 1018,6 hPa 0,0 mm 3,9 km/h (1 Bft) W 269 ° 0 min 0,000 mm 0,0 UV-I 25 W/m² 9,9 °C 11,0 °C 6,4 km/h (2 Bft)
15.07.2017 06:48 11,0 °C 11,1 °C 93 % 1018,6 hPa 0,0 mm 7,0 km/h (2 Bft) W-NW 300 ° 0 min 0,000 mm 0,0 UV-I 18 W/m² 9,9 °C 11,0 °C 9,7 km/h (2 Bft)
15.07.2017 06:49 11,0 °C 11,1 °C 93 % 1018,6 hPa 0,0 mm 3,7 km/h (1 Bft) NW 307 ° 0 min 0,000 mm 0,0 UV-I 14 W/m² 9,9 °C 11,0 °C 6,4 km/h (2 Bft)
15.07.2017 06:50 11,0 °C 11,1 °C 93 % 1018,7 hPa 0,0 mm 3,5 km/h (1 Bft) NW 314 ° 0 min 0,000 mm 0,0 UV-I 14 W/m² 9,9 °C 11,0 °C 4,8 km/h (1 Bft)
15.07.2017 06:51 11,0 °C 11,1 °C 93 % 1018,6 hPa 0,0 mm 2,8 km/h (1 Bft) W 275 ° 0 min 0,000 mm 0,0 UV-I 14 W/m² 9,9 °C 11,0 °C 4,8 km/h (1 Bft)
15.07.2017 06:52 11,1 °C 11,1 °C 93 % 1018,6 hPa 0,0 mm 1,9 km/h (1 Bft) W 276 ° 0 min 0,000 mm 0,0 UV-I 18 W/m² 10,0 °C 11,1 °C 3,2 km/h (1 Bft)
15.07.2017 06:53 11,1 °C 11,1 °C 93 % 1018,6 hPa 0,0 mm 2,2 km/h (1 Bft) NW 321 ° 0 min 0,000 mm 0,0 UV-I 21 W/m² 10,0 °C 11,1 °C 4,8 km/h (1 Bft)
15.07.2017 06:54 11,1 °C 11,1 °C 93 % 1018,6 hPa 0,0 mm 1,4 km/h (1 Bft) NW 321 ° 0 min 0,000 mm 0,0 UV-I 21 W/m² 10,0 °C 11,1 °C 3,2 km/h (1 Bft)
15.07.2017 06:55 11,1 °C 11,1 °C 93 % 1018,6 hPa 0,0 mm 1,4 km/h (1 Bft) NW 321 ° 0 min 0,000 mm 0,0 UV-I 12 W/m² 10,0 °C 11,1 °C 3,2 km/h (1 Bft)
15.07.2017 06:56 11,1 °C 11,1 °C 93 % 1018,7 hPa 0,0 mm 2,5 km/h (1 Bft) NW 321 ° 0 min 0,000 mm 0,0 UV-I 9 W/m² 10,0 °C 11,1 °C 3,2 km/h (1 Bft)
15.07.2017 06:57 11,1 °C 11,1 °C 93 % 1018,7 hPa 0,0 mm 0,9 km/h (0 Bft) NW 321 ° 0 min 0,000 mm 0,0 UV-I 9 W/m² 10,0 °C 11,1 °C 3,2 km/h (1 Bft)
15.07.2017 06:58 11,1 °C 11,1 °C 93 % 1018,7 hPa 0,0 mm 2,5 km/h (1 Bft) N 5 ° 0 min 0,000 mm 0,0 UV-I 11 W/m² 10,0 °C 11,1 °C 6,4 km/h (2 Bft)
15.07.2017 06:59 11,1 °C 11,1 °C 93 % 1018,7 hPa 0,0 mm 1,2 km/h (1 Bft) N 5 ° 0 min 0,000 mm 0,0 UV-I 12 W/m² 10,0 °C 11,1 °C 4,8 km/h (1 Bft)
15.07.2017 07:00 11,1 °C 11,1 °C 93 % 1018,7 hPa 0,0 mm 3,6 km/h (1 Bft) NW 321 ° 0 min 0,026 mm 0,0 UV-I 14 W/m² 10,0 °C 11,1 °C 8,0 km/h (2 Bft)
15.07.2017 07:01 11,0 °C 11,1 °C 93 % 1018,7 hPa 0,0 mm 4,9 km/h (1 Bft) NW 312 ° 0 min 0,000 mm 0,0 UV-I 14 W/m² 9,9 °C 11,0 °C 6,4 km/h (2 Bft)
15.07.2017 07:02 11,0 °C 11,0 °C 93 % 1018,7 hPa 0,0 mm 2,7 km/h (1 Bft) NW 311 ° 0 min 0,000 mm 0,0 UV-I 14 W/m² 9,9 °C 11,0 °C 4,8 km/h (1 Bft)
15.07.2017 07:03 11,0 °C 11,0 °C 93 % 1018,7 hPa 0,0 mm 3,4 km/h (1 Bft) NW 317 ° 0 min 0,000 mm 0,0 UV-I 16 W/m² 9,9 °C 11,0 °C 4,8 km/h (1 Bft)
15.07.2017 07:04 10,9 °C 11,0 °C 93 % 1018,7 hPa 0,0 mm 3,5 km/h (1 Bft) NW 317 ° 0 min 0,000 mm 0,0 UV-I 18 W/m² 9,8 °C 10,9 °C 4,8 km/h (1 Bft)
15.07.2017 07:05 11,0 °C 11,0 °C 93 % 1018,7 hPa 0,0 mm 3,4 km/h (1 Bft) W-NW 293 ° 0 min 0,000 mm 0,0 UV-I 16 W/m² 9,9 °C 11,0 °C 6,4 km/h (2 Bft)
15.07.2017 07:06 10,9 °C 11,0 °C 93 % 1018,7 hPa 0,0 mm 2,9 km/h (1 Bft) W-NW 294 ° 0 min 0,000 mm 0,0 UV-I 14 W/m² 9,8 °C 10,9 °C 4,8 km/h (1 Bft)
15.07.2017 07:07 10,9 °C 10,9 °C 93 % 1018,7 hPa 0,0 mm 2,2 km/h (1 Bft) W-NW 294 ° 0 min 0,000 mm 0,0 UV-I 12 W/m² 9,8 °C 10,9 °C 3,2 km/h (1 Bft)
15.07.2017 07:08 10,9 °C 10,9 °C 93 % 1018,7 hPa 0,0 mm 2,2 km/h (1 Bft) W-NW 294 ° 0 min 0,000 mm 0,0 UV-I 12 W/m² 9,8 °C 10,9 °C 3,2 km/h (1 Bft)
15.07.2017 07:09 10,9 °C 10,9 °C 93 % 1018,7 hPa 0,0 mm 2,8 km/h (1 Bft) W-NW 300 ° 0 min 0,000 mm 0,0 UV-I 11 W/m² 9,8 °C 10,9 °C 3,2 km/h (1 Bft)
15.07.2017 07:10 10,9 °C 10,9 °C 93 % 1018,7 hPa 0,0 mm 3,2 km/h (1 Bft) NW 309 ° 0 min 0,000 mm 0,0 UV-I 9 W/m² 9,8 °C 10,9 °C 4,8 km/h (1 Bft)
15.07.2017 07:11 10,9 °C 10,9 °C 93 % 1018,8 hPa 0,0 mm 1,0 km/h (0 Bft) NW 309 ° 0 min 0,000 mm 0,0 UV-I 7 W/m² 9,8 °C 10,9 °C 1,6 km/h (1 Bft)
15.07.2017 07:12 10,9 °C 10,9 °C 93 % 1018,8 hPa 0,0 mm 1,1 km/h (1 Bft) NW 309 ° 0 min 0,000 mm 0,0 UV-I 7 W/m² 9,8 °C 10,9 °C 1,6 km/h (1 Bft)
15.07.2017 07:13 10,9 °C 10,9 °C 93 % 1018,8 hPa 0,0 mm 2,9 km/h (1 Bft) NW 311 ° 0 min 0,000 mm 0,0 UV-I 5 W/m² 9,8 °C 10,9 °C 4,8 km/h (1 Bft)
15.07.2017 07:14 10,9 °C 10,9 °C 93 % 1018,8 hPa 0,0 mm 3,9 km/h (1 Bft) NW 304 ° 0 min 0,000 mm 0,0 UV-I 7 W/m² 9,8 °C 10,9 °C 6,4 km/h (2 Bft)
15.07.2017 07:15 10,9 °C 10,9 °C 93 % 1018,8 hPa 0,0 mm 2,5 km/h (1 Bft) W 277 ° 0 min 0,000 mm 0,0 UV-I 7 W/m² 9,8 °C 10,9 °C 4,8 km/h (1 Bft)
15.07.2017 07:16 10,8 °C 10,9 °C 93 % 1018,8 hPa 0,0 mm 1,5 km/h (1 Bft) W-NW 288 ° 0 min 0,000 mm 0,0 UV-I 9 W/m² 9,7 °C 10,8 °C 3,2 km/h (1 Bft)
15.07.2017 07:17 10,8 °C 10,9 °C 93 % 1018,8 hPa 0,0 mm 3,1 km/h (1 Bft) W-NW 286 ° 0 min 0,000 mm 0,0 UV-I 9 W/m² 9,7 °C 10,8 °C 4,8 km/h (1 Bft)
15.07.2017 07:18 10,8 °C 10,8 °C 93 % 1018,8 hPa 0,0 mm 4,6 km/h (1 Bft) W-NW 291 ° 0 min 0,000 mm 0,0 UV-I 11 W/m² 9,7 °C 10,8 °C 6,4 km/h (2 Bft)
15.07.2017 07:19 10,8 °C 10,8 °C 93 % 1018,8 hPa 0,0 mm 5,0 km/h (1 Bft) W-NW 297 ° 0 min 0,000 mm 0,0 UV-I 14 W/m² 9,7 °C 10,8 °C 6,4 km/h (2 Bft)
15.07.2017 07:20 10,8 °C 10,8 °C 93 % 1018,9 hPa 0,0 mm 4,6 km/h (1 Bft) W-NW 293 ° 0 min 0,000 mm 0,0 UV-I 19 W/m² 9,7 °C 10,8 °C 6,4 km/h (2 Bft)
15.07.2017 07:21 10,8 °C 10,8 °C 93 % 1018,9 hPa 0,0 mm 4,8 km/h (1 Bft) NW 315 ° 0 min 0,000 mm 0,0 UV-I 19 W/m² 9,7 °C 10,8 °C 8,0 km/h (2 Bft)
15.07.2017 07:22 10,8 °C 10,8 °C 93 % 1018,9 hPa 0,0 mm 3,6 km/h (1 Bft) W 274 ° 0 min 0,000 mm 0,0 UV-I 19 W/m² 9,7 °C 10,8 °C 6,4 km/h (2 Bft)
15.07.2017 07:23 10,7 °C 10,8 °C 92 % 1018,9 hPa 0,0 mm 6,6 km/h (2 Bft) NW 304 ° 0 min 0,000 mm 0,0 UV-I 19 W/m² 9,5 °C 10,7 °C 11,3 km/h (2 Bft)
15.07.2017 07:24 10,7 °C 10,8 °C 92 % 1019,0 hPa 0,0 mm 8,4 km/h (2 Bft) N 351 ° 0 min 0,000 mm 0,0 UV-I 19 W/m² 9,5 °C 10,7 °C 14,5 km/h (3 Bft)
15.07.2017 07:25 10,7 °C 10,8 °C 92 % 1019,0 hPa 0,2 mm 6,6 km/h (2 Bft) NW 318 ° 0 min 0,000 mm 0,0 UV-I 23 W/m² 9,5 °C 10,7 °C 11,3 km/h (2 Bft)
15.07.2017 07:26 10,7 °C 10,7 °C 92 % 1019,0 hPa 0,0 mm 6,4 km/h (2 Bft) NW 323 ° 0 min 0,000 mm 0,0 UV-I 32 W/m² 9,5 °C 10,7 °C 9,7 km/h (2 Bft)
15.07.2017 07:27 10,7 °C 10,7 °C 92 % 1019,0 hPa 0,2 mm 1,5 km/h (1 Bft) NW 317 ° 0 min 0,000 mm 0,0 UV-I 37 W/m² 9,5 °C 10,7 °C 4,8 km/h (1 Bft)
15.07.2017 07:28 10,7 °C 10,7 °C 92 % 1019,0 hPa 0,0 mm 2,2 km/h (1 Bft) NW 316 ° 0 min 0,000 mm 0,0 UV-I 40 W/m² 9,5 °C 10,7 °C 3,2 km/h (1 Bft)
15.07.2017 07:29 10,6 °C 10,7 °C 92 % 1019,0 hPa 0,0 mm 3,0 km/h (1 Bft) W 271 ° 0 min 0,000 mm 0,0 UV-I 39 W/m² 9,4 °C 10,6 °C 6,4 km/h (2 Bft)
15.07.2017 07:30 10,6 °C 10,6 °C 92 % 1019,0 hPa 0,0 mm 5,0 km/h (1 Bft) W-NW 289 ° 0 min 0,000 mm 0,0 UV-I 35 W/m² 9,4 °C 10,6 °C 9,7 km/h (2 Bft)
15.07.2017 07:31 10,6 °C 10,6 °C 92 % 1019,0 hPa 0,0 mm 3,1 km/h (1 Bft) N-NW 333 ° 0 min 0,000 mm 0,0 UV-I 40 W/m² 9,4 °C 10,6 °C 6,4 km/h (2 Bft)
15.07.2017 07:32 10,6 °C 10,6 °C 92 % 1019,0 hPa 0,2 mm 1,9 km/h (1 Bft) N-NW 333 ° 0 min 0,000 mm 0,0 UV-I 42 W/m² 9,4 °C 10,6 °C 3,2 km/h (1 Bft)
15.07.2017 07:33 10,6 °C 10,6 °C 92 % 1019,0 hPa 0,0 mm 2,2 km/h (1 Bft) NW 315 ° 0 min 0,000 mm 0,0 UV-I 35 W/m² 9,4 °C 10,6 °C 3,2 km/h (1 Bft)
15.07.2017 07:34 10,6 °C 10,6 °C 92 % 1019,0 hPa 0,0 mm 1,1 km/h (1 Bft) NW 313 ° 0 min 0,000 mm 0,0 UV-I 30 W/m² 9,4 °C 10,6 °C 3,2 km/h (1 Bft)
15.07.2017 07:35 10,6 °C 10,6 °C 93 % 1019,1 hPa 0,0 mm 1,7 km/h (1 Bft) NW 313 ° 0 min 0,000 mm 0,0 UV-I 26 W/m² 9,5 °C 10,6 °C 4,8 km/h (1 Bft)
15.07.2017 07:36 10,6 °C 10,6 °C 93 % 1019,1 hPa 0,0 mm 2,6 km/h (1 Bft) W-NW 300 ° 0 min 0,000 mm 0,0 UV-I 25 W/m² 9,5 °C 10,6 °C 4,8 km/h (1 Bft)
15.07.2017 07:37 10,6 °C 10,6 °C 93 % 1019,1 hPa 0,0 mm 3,0 km/h (1 Bft) W-SW 240 ° 0 min 0,000 mm 0,0 UV-I 19 W/m² 9,5 °C 10,6 °C 4,8 km/h (1 Bft)
15.07.2017 07:38 10,6 °C 10,6 °C 93 % 1019,1 hPa 0,0 mm 1,5 km/h (1 Bft) W-SW 240 ° 0 min 0,000 mm 0,0 UV-I 19 W/m² 9,5 °C 10,6 °C 3,2 km/h (1 Bft)
15.07.2017 07:39 10,6 °C 10,6 °C 93 % 1019,1 hPa 0,0 mm 7,2 km/h (2 Bft) W 259 ° 0 min 0,000 mm 0,0 UV-I 26 W/m² 9,5 °C 10,6 °C 12,9 km/h (3 Bft)
15.07.2017 07:40 10,5 °C 10,6 °C 92 % 1019,2 hPa 0,0 mm 10,9 km/h (2 Bft) W 265 ° 0 min 0,000 mm 0,0 UV-I 40 W/m² 9,3 °C 10,5 °C 12,9 km/h (3 Bft)
15.07.2017 07:41 10,4 °C 10,5 °C 92 % 1019,1 hPa 0,0 mm 5,2 km/h (1 Bft) SW 225 ° 0 min 0,000 mm 0,0 UV-I 40 W/m² 9,2 °C 10,4 °C 9,7 km/h (2 Bft)
15.07.2017 07:42 10,4 °C 10,4 °C 92 % 1019,2 hPa 0,0 mm 4,9 km/h (1 Bft) W 267 ° 0 min 0,000 mm 0,0 UV-I 63 W/m² 9,2 °C 10,4 °C 6,4 km/h (2 Bft)
15.07.2017 07:43 10,4 °C 10,4 °C 92 % 1019,2 hPa 0,0 mm 5,3 km/h (1 Bft) W-SW 248 ° 0 min 0,000 mm 0,0 UV-I 81 W/m² 9,2 °C 10,4 °C 11,3 km/h (2 Bft)
15.07.2017 07:44 10,4 °C 10,4 °C 92 % 1019,2 hPa 0,0 mm 3,2 km/h (1 Bft) W 269 ° 0 min 0,000 mm 0,0 UV-I 102 W/m² 9,2 °C 10,4 °C 6,4 km/h (2 Bft)
15.07.2017 07:45 10,5 °C 10,5 °C 93 % 1019,3 hPa 0,0 mm 7,6 km/h (2 Bft) W 262 ° 0 min 0,000 mm 0,0 UV-I 98 W/m² 9,4 °C 10,5 °C 14,5 km/h (3 Bft)
15.07.2017 07:46 10,4 °C 10,5 °C 93 % 1019,2 hPa 0,0 mm 6,2 km/h (2 Bft) W 279 ° 0 min 0,000 mm 0,0 UV-I 79 W/m² 9,3 °C 10,4 °C 9,7 km/h (2 Bft)
15.07.2017 07:47 10,4 °C 10,4 °C 92 % 1019,2 hPa 0,0 mm 4,9 km/h (1 Bft) W 276 ° 0 min 0,000 mm 0,0 UV-I 63 W/m² 9,2 °C 10,4 °C 9,7 km/h (2 Bft)
15.07.2017 07:48 10,5 °C 10,5 °C 92 % 1019,3 hPa 0,0 mm 3,1 km/h (1 Bft) W 281 ° 0 min 0,000 mm 0,0 UV-I 49 W/m² 9,3 °C 10,5 °C 4,8 km/h (1 Bft)
15.07.2017 07:49 10,5 °C 10,6 °C 93 % 1019,3 hPa 0,0 mm 1,9 km/h (1 Bft) W 281 ° 0 min 0,000 mm 0,0 UV-I 32 W/m² 9,4 °C 10,5 °C 3,2 km/h (1 Bft)
15.07.2017 07:50 10,6 °C 10,6 °C 93 % 1019,3 hPa 0,0 mm 1,7 km/h (1 Bft) W 270 ° 0 min 0,000 mm 0,0 UV-I 30 W/m² 9,5 °C 10,6 °C 6,4 km/h (2 Bft)
15.07.2017 07:51 10,6 °C 10,6 °C 92 % 1019,3 hPa 0,0 mm 3,8 km/h (1 Bft) W 271 ° 0 min 0,000 mm 0,0 UV-I 33 W/m² 9,4 °C 10,6 °C 6,4 km/h (2 Bft)
15.07.2017 07:52 10,5 °C 10,6 °C 92 % 1019,3 hPa 0,0 mm 2,8 km/h (1 Bft) W 271 ° 0 min 0,000 mm 0,0 UV-I 37 W/m² 9,3 °C 10,5 °C 4,8 km/h (1 Bft)
15.07.2017 07:53 10,5 °C 10,6 °C 93 % 1019,3 hPa 0,0 mm 0,7 km/h (0 Bft) W 271 ° 0 min 0,000 mm 0,0 UV-I 37 W/m² 9,4 °C 10,5 °C 3,2 km/h (1 Bft)
15.07.2017 07:54 10,6 °C 10,6 °C 93 % 1019,3 hPa 0,0 mm 2,1 km/h (1 Bft) W 271 ° 0 min 0,000 mm 0,0 UV-I 37 W/m² 9,5 °C 10,6 °C 3,2 km/h (1 Bft)
15.07.2017 07:55 10,6 °C 10,6 °C 93 % 1019,4 hPa 0,0 mm 2,6 km/h (1 Bft) W 271 ° 0 min 0,000 mm 0,0 UV-I 32 W/m² 9,5 °C 10,6 °C 4,8 km/h (1 Bft)
15.07.2017 07:56 10,6 °C 10,6 °C 93 % 1019,4 hPa 0,0 mm 1,6 km/h (1 Bft) W 271 ° 0 min 0,000 mm 0,0 UV-I 33 W/m² 9,5 °C 10,6 °C 3,2 km/h (1 Bft)
15.07.2017 07:57 10,6 °C 10,6 °C 93 % 1019,4 hPa 0,0 mm 0,1 km/h (0 Bft) W 271 ° 0 min 0,000 mm 0,0 UV-I 35 W/m² 9,5 °C 10,6 °C 1,6 km/h (1 Bft)
15.07.2017 07:58 10,6 °C 10,6 °C 93 % 1019,4 hPa 0,0 mm 1,6 km/h (1 Bft) W 268 ° 0 min 0,000 mm 0,0 UV-I 39 W/m² 9,5 °C 10,6 °C 6,4 km/h (2 Bft)
15.07.2017 07:59 10,6 °C 10,6 °C 93 % 1019,5 hPa 0,0 mm 7,6 km/h (2 Bft) W-SW 252 ° 0 min 0,000 mm 0,0 UV-I 40 W/m² 9,5 °C 10,6 °C 11,3 km/h (2 Bft)
15.07.2017 08:00 10,5 °C 10,6 °C 93 % 1019,5 hPa 0,0 mm 5,7 km/h (1 Bft) W-NW 297 ° 0 min 0,000 mm 0,0 UV-I 37 W/m² 9,4 °C 10,5 °C 9,7 km/h (2 Bft)
15.07.2017 08:01 10,6 °C 10,6 °C 93 % 1019,5 hPa 0,0 mm 3,0 km/h (1 Bft) W 275 ° 0 min 0,025 mm 0,0 UV-I 37 W/m² 9,5 °C 10,6 °C 4,8 km/h (1 Bft)
15.07.2017 08:02 10,6 °C 10,6 °C 92 % 1019,5 hPa 0,0 mm 3,5 km/h (1 Bft) W 274 ° 0 min 0,000 mm 0,0 UV-I 39 W/m² 9,4 °C 10,6 °C 4,8 km/h (1 Bft)
15.07.2017 08:03 10,5 °C 10,6 °C 93 % 1019,5 hPa 0,0 mm 3,8 km/h (1 Bft) W 268 ° 0 min 0,000 mm 0,0 UV-I 37 W/m² 9,4 °C 10,5 °C 4,8 km/h (1 Bft)
15.07.2017 08:04 10,5 °C 10,6 °C 93 % 1019,5 hPa 0,0 mm 2,4 km/h (1 Bft) SW 221 ° 0 min 0,000 mm 0,0 UV-I 30 W/m² 9,4 °C 10,5 °C 3,2 km/h (1 Bft)
15.07.2017 08:05 10,6 °C 10,6 °C 92 % 1019,5 hPa 0,0 mm 0,3 km/h (0 Bft) SW 221 ° 0 min 0,000 mm 0,0 UV-I 26 W/m² 9,4 °C 10,6 °C 1,6 km/h (1 Bft)
15.07.2017 08:06 10,6 °C 10,6 °C 93 % 1019,5 hPa 0,0 mm 3,2 km/h (1 Bft) W-SW 252 ° 0 min 0,000 mm 0,0 UV-I 26 W/m² 9,5 °C 10,6 °C 6,4 km/h (2 Bft)
15.07.2017 08:07 10,6 °C 10,6 °C 93 % 1019,6 hPa 0,0 mm 3,1 km/h (1 Bft) W-SW 256 ° 0 min 0,000 mm 0,0 UV-I 32 W/m² 9,5 °C 10,6 °C 6,4 km/h (2 Bft)
15.07.2017 08:08 10,6 °C 10,6 °C 93 % 1019,6 hPa 0,0 mm 2,9 km/h (1 Bft) W-SW 258 ° 0 min 0,000 mm 0,0 UV-I 40 W/m² 9,5 °C 10,6 °C 6,4 km/h (2 Bft)
15.07.2017 08:09 10,6 °C 10,6 °C 93 % 1019,5 hPa 0,0 mm 0,3 km/h (0 Bft) W-SW 258 ° 0 min 0,000 mm 0,0 UV-I 51 W/m² 9,5 °C 10,6 °C 1,6 km/h (1 Bft)
15.07.2017 08:10 10,6 °C 10,6 °C 93 % 1019,6 hPa 0,0 mm 1,1 km/h (1 Bft) W-SW 258 ° 0 min 0,000 mm 0,0 UV-I 56 W/m² 9,5 °C 10,6 °C 1,6 km/h (1 Bft)
15.07.2017 08:11 10,6 °C 10,6 °C 93 % 1019,6 hPa 0,0 mm 4,5 km/h (1 Bft) W 259 ° 0 min 0,000 mm 0,0 UV-I 54 W/m² 9,5 °C 10,6 °C 6,4 km/h (2 Bft)
15.07.2017 08:12 10,6 °C 10,6 °C 93 % 1019,6 hPa 0,0 mm 2,0 km/h (1 Bft) SW 234 ° 0 min 0,000 mm 0,0 UV-I 53 W/m² 9,5 °C 10,6 °C 3,2 km/h (1 Bft)
15.07.2017 08:13 10,6 °C 10,6 °C 93 % 1019,6 hPa 0,0 mm 3,9 km/h (1 Bft) W 271 ° 0 min 0,000 mm 0,0 UV-I 51 W/m² 9,5 °C 10,6 °C 6,4 km/h (2 Bft)
15.07.2017 08:14 10,7 °C 10,7 °C 93 % 1019,6 hPa 0,0 mm 6,2 km/h (2 Bft) W 261 ° 0 min 0,000 mm 0,0 UV-I 46 W/m² 9,6 °C 10,7 °C 8,0 km/h (2 Bft)
15.07.2017 08:15 10,7 °C 10,7 °C 93 % 1019,6 hPa 0,0 mm 4,6 km/h (1 Bft) W-SW 250 ° 0 min 0,000 mm 0,0 UV-I 42 W/m² 9,6 °C 10,7 °C 6,4 km/h (2 Bft)
15.07.2017 08:16 10,7 °C 10,7 °C 93 % 1019,7 hPa 0,0 mm 1,7 km/h (1 Bft) W-SW 250 ° 0 min 0,000 mm 0,0 UV-I 39 W/m² 9,6 °C 10,7 °C 3,2 km/h (1 Bft)
15.07.2017 08:17 10,7 °C 10,7 °C 93 % 1019,7 hPa 0,0 mm 3,0 km/h (1 Bft) W-SW 249 ° 0 min 0,000 mm 0,0 UV-I 40 W/m² 9,6 °C 10,7 °C 4,8 km/h (1 Bft)
15.07.2017 08:18 10,6 °C 10,7 °C 93 % 1019,6 hPa 0,0 mm 0,1 km/h (0 Bft) W-SW 249 ° 0 min 0,000 mm 0,0 UV-I 53 W/m² 9,5 °C 10,6 °C 1,6 km/h (1 Bft)
15.07.2017 08:19 10,6 °C 10,7 °C 93 % 1019,7 hPa 0,0 mm 0,0 km/h (0 Bft) W-SW 249 ° 0 min 0,000 mm 0,0 UV-I 58 W/m² 9,5 °C 10,6 °C 0,0 km/h (0 Bft)
15.07.2017 08:20 10,6 °C 10,6 °C 93 % 1019,6 hPa 0,0 mm 1,3 km/h (1 Bft) W-SW 249 ° 0 min 0,000 mm 0,5 UV-I 69 W/m² 9,5 °C 10,6 °C 3,2 km/h (1 Bft)
15.07.2017 08:21 10,6 °C 10,7 °C 93 % 1019,6 hPa 0,0 mm 1,4 km/h (1 Bft) W-SW 249 ° 0 min 0,000 mm 0,6 UV-I 83 W/m² 9,5 °C 10,6 °C 3,2 km/h (1 Bft)
15.07.2017 08:22 10,6 °C 10,7 °C 93 % 1019,6 hPa 0,0 mm 2,9 km/h (1 Bft) W-SW 247 ° 0 min 0,000 mm 0,7 UV-I 91 W/m² 9,5 °C 10,6 °C 4,8 km/h (1 Bft)
15.07.2017 08:23 10,7 °C 10,7 °C 93 % 1019,6 hPa 0,0 mm 1,3 km/h (1 Bft) W-SW 247 ° 0 min 0,000 mm 0,7 UV-I 100 W/m² 9,6 °C 10,7 °C 3,2 km/h (1 Bft)
15.07.2017 08:24 10,7 °C 10,7 °C 93 % 1019,7 hPa 0,0 mm 2,1 km/h (1 Bft) W-SW 247 ° 0 min 0,000 mm 0,8 UV-I 127 W/m² 9,6 °C 10,7 °C 3,2 km/h (1 Bft)
15.07.2017 08:25 10,7 °C 10,8 °C 93 % 1019,7 hPa 0,0 mm 0,7 km/h (0 Bft) W-SW 247 ° 0 min 0,000 mm 0,8 UV-I 137 W/m² 9,6 °C 10,7 °C 1,6 km/h (1 Bft)
15.07.2017 08:26 10,8 °C 10,8 °C 93 % 1019,7 hPa 0,0 mm 2,8 km/h (1 Bft) W-SW 247 ° 0 min 0,000 mm 0,9 UV-I 149 W/m² 9,7 °C 10,8 °C 4,8 km/h (1 Bft)
15.07.2017 08:27 10,8 °C 10,8 °C 93 % 1019,7 hPa 0,0 mm 1,4 km/h (1 Bft) W-SW 247 ° 0 min 0,000 mm 0,9 UV-I 163 W/m² 9,7 °C 10,8 °C 3,2 km/h (1 Bft)
15.07.2017 08:28 10,8 °C 10,8 °C 93 % 1019,7 hPa 0,0 mm 1,0 km/h (0 Bft) W-SW 247 ° 0 min 0,000 mm 1,0 UV-I 174 W/m² 9,7 °C 10,8 °C 3,2 km/h (1 Bft)
15.07.2017 08:29 10,9 °C 10,9 °C 93 % 1019,7 hPa 0,0 mm 2,3 km/h (1 Bft) W 263 ° 0 min 0,000 mm 1,1 UV-I 192 W/m² 9,8 °C 10,9 °C 6,4 km/h (2 Bft)
15.07.2017 08:30 11,1 °C 11,1 °C 93 % 1019,6 hPa 0,0 mm 3,9 km/h (1 Bft) W 270 ° 0 min 0,000 mm 1,2 UV-I 227 W/m² 10,0 °C 11,1 °C 6,4 km/h (2 Bft)
15.07.2017 08:31 11,2 °C 11,2 °C 93 % 1019,6 hPa 0,0 mm 4,5 km/h (1 Bft) W 265 ° 0 min 0,000 mm 1,2 UV-I 206 W/m² 10,1 °C 11,2 °C 6,4 km/h (2 Bft)
15.07.2017 08:32 11,2 °C 11,2 °C 93 % 1019,6 hPa 0,0 mm 4,5 km/h (1 Bft) W 259 ° 0 min 0,000 mm 1,2 UV-I 192 W/m² 10,1 °C 11,2 °C 6,4 km/h (2 Bft)
15.07.2017 08:33 11,3 °C 11,3 °C 92 % 1019,7 hPa 0,0 mm 7,9 km/h (2 Bft) W-NW 290 ° 0 min 0,000 mm 1,3 UV-I 204 W/m² 10,0 °C 11,3 °C 11,3 km/h (2 Bft)
15.07.2017 08:34 11,3 °C 11,3 °C 92 % 1019,6 hPa 0,0 mm 4,6 km/h (1 Bft) W 265 ° 0 min 0,000 mm 1,2 UV-I 213 W/m² 10,0 °C 11,3 °C 6,4 km/h (2 Bft)
15.07.2017 08:35 11,3 °C 11,3 °C 92 % 1019,6 hPa 0,0 mm 3,6 km/h (1 Bft) W 265 ° 0 min 0,000 mm 1,2 UV-I 213 W/m² 10,0 °C 11,3 °C 4,8 km/h (1 Bft)
15.07.2017 08:36 11,4 °C 11,4 °C 92 % 1019,6 hPa 0,0 mm 3,5 km/h (1 Bft) SW 229 ° 0 min 0,000 mm 1,2 UV-I 160 W/m² 10,1 °C 11,4 °C 6,4 km/h (2 Bft)
15.07.2017 08:37 11,4 °C 11,4 °C 92 % 1019,7 hPa 0,0 mm 2,3 km/h (1 Bft) SW 236 ° 0 min 0,000 mm 1,2 UV-I 155 W/m² 10,1 °C 11,4 °C 4,8 km/h (1 Bft)
15.07.2017 08:38 11,5 °C 11,5 °C 92 % 1019,6 hPa 0,0 mm 3,1 km/h (1 Bft) W-SW 255 ° 0 min 0,000 mm 1,5 UV-I 155 W/m² 10,2 °C 11,5 °C 4,8 km/h (1 Bft)
15.07.2017 08:39 11,6 °C 11,6 °C 92 % 1019,6 hPa 0,0 mm 1,8 km/h (1 Bft) W-SW 255 ° 0 min 0,000 mm 1,3 UV-I 155 W/m² 10,3 °C 11,6 °C 3,2 km/h (1 Bft)
15.07.2017 08:40 11,6 °C 11,6 °C 92 % 1019,7 hPa 0,0 mm 3,3 km/h (1 Bft) W-SW 255 ° 0 min 0,000 mm 1,3 UV-I 176 W/m² 10,3 °C 11,6 °C 8,0 km/h (2 Bft)
15.07.2017 08:41 11,6 °C 11,6 °C 92 % 1019,7 hPa 0,0 mm 3,4 km/h (1 Bft) W-SW 246 ° 0 min 0,000 mm 1,5 UV-I 200 W/m² 10,3 °C 11,6 °C 6,4 km/h (2 Bft)
15.07.2017 08:42 11,6 °C 11,6 °C 92 % 1019,7 hPa 0,0 mm 2,7 km/h (1 Bft) W-NW 290 ° 1 min 0,000 mm 1,5 UV-I 304 W/m² 10,3 °C 11,6 °C 4,8 km/h (1 Bft)
15.07.2017 08:43 11,7 °C 11,7 °C 92 % 1019,7 hPa 0,0 mm 3,2 km/h (1 Bft) W-SW 243 ° 1 min 0,000 mm 1,8 UV-I 371 W/m² 10,4 °C 11,7 °C 6,4 km/h (2 Bft)
15.07.2017 08:44 11,7 °C 11,7 °C 92 % 1019,7 hPa 0,0 mm 2,1 km/h (1 Bft) W-SW 255 ° 1 min 0,000 mm 2,0 UV-I 422 W/m² 10,4 °C 11,7 °C 3,2 km/h (1 Bft)
15.07.2017 08:45 11,9 °C 11,9 °C 92 % 1019,7 hPa 0,0 mm 3,3 km/h (1 Bft) W-SW 257 ° 1 min 0,000 mm 1,7 UV-I 422 W/m² 10,6 °C 11,9 °C 4,8 km/h (1 Bft)
15.07.2017 08:46 12,0 °C 12,0 °C 92 % 1019,8 hPa 0,0 mm 5,5 km/h (1 Bft) W 268 ° 1 min 0,000 mm 1,7 UV-I 311 W/m² 10,7 °C 12,0 °C 9,7 km/h (2 Bft)
15.07.2017 08:47 12,1 °C 12,1 °C 92 % 1019,8 hPa 0,0 mm 6,8 km/h (2 Bft) W 267 ° 1 min 0,000 mm 1,9 UV-I 311 W/m² 10,8 °C 12,1 °C 9,7 km/h (2 Bft)
15.07.2017 08:48 12,1 °C 12,1 °C 92 % 1019,7 hPa 0,0 mm 2,3 km/h (1 Bft) W 271 ° 0 min 0,000 mm 1,5 UV-I 204 W/m² 10,8 °C 12,1 °C 6,4 km/h (2 Bft)
15.07.2017 08:49 12,1 °C 12,1 °C 92 % 1019,7 hPa 0,0 mm 2,0 km/h (1 Bft) W 271 ° 0 min 0,000 mm 1,2 UV-I 167 W/m² 10,8 °C 12,1 °C 4,8 km/h (1 Bft)
15.07.2017 08:50 12,1 °C 12,1 °C 91 % 1019,8 hPa 0,0 mm 2,5 km/h (1 Bft) W 271 ° 0 min 0,000 mm 1,2 UV-I 156 W/m² 10,7 °C 12,1 °C 4,8 km/h (1 Bft)
15.07.2017 08:51 12,0 °C 12,1 °C 91 % 1019,8 hPa 0,0 mm 4,2 km/h (1 Bft) W-NW 288 ° 0 min 0,000 mm 1,2 UV-I 160 W/m² 10,6 °C 12,0 °C 6,4 km/h (2 Bft)
15.07.2017 08:52 11,9 °C 12,1 °C 90 % 1019,8 hPa 0,0 mm 4,5 km/h (1 Bft) W-SW 251 ° 0 min 0,000 mm 1,2 UV-I 163 W/m² 10,3 °C 11,9 °C 8,0 km/h (2 Bft)
15.07.2017 08:53 11,9 °C 11,9 °C 90 % 1019,8 hPa 0,0 mm 7,9 km/h (2 Bft) W-NW 284 ° 0 min 0,000 mm 1,2 UV-I 162 W/m² 10,3 °C 11,9 °C 9,7 km/h (2 Bft)
15.07.2017 08:54 11,8 °C 11,9 °C 90 % 1019,8 hPa 0,0 mm 4,7 km/h (1 Bft) W-SW 237 ° 0 min 0,000 mm 1,2 UV-I 151 W/m² 10,2 °C 11,8 °C 9,7 km/h (2 Bft)
15.07.2017 08:55 11,8 °C 11,8 °C 90 % 1019,9 hPa 0,0 mm 6,8 km/h (2 Bft) W 270 ° 0 min 0,000 mm 1,3 UV-I 151 W/m² 10,2 °C 11,8 °C 9,7 km/h (2 Bft)
15.07.2017 08:56 11,7 °C 11,8 °C 91 % 1019,9 hPa 0,0 mm 4,7 km/h (1 Bft) W 274 ° 0 min 0,000 mm 1,3 UV-I 155 W/m² 10,3 °C 11,7 °C 6,4 km/h (2 Bft)
15.07.2017 08:57 11,7 °C 11,7 °C 91 % 1019,9 hPa 0,0 mm 2,8 km/h (1 Bft) SW 230 ° 0 min 0,000 mm 1,4 UV-I 167 W/m² 10,3 °C 11,7 °C 4,8 km/h (1 Bft)
15.07.2017 08:58 11,7 °C 11,7 °C 91 % 1019,9 hPa 0,0 mm 4,7 km/h (1 Bft) S-SW 202 ° 0 min 0,000 mm 1,5 UV-I 176 W/m² 10,3 °C 11,7 °C 8,0 km/h (2 Bft)
15.07.2017 08:59 11,7 °C 11,7 °C 91 % 1019,9 hPa 0,0 mm 5,4 km/h (1 Bft) W-SW 254 ° 0 min 0,000 mm 1,6 UV-I 186 W/m² 10,3 °C 11,7 °C 9,7 km/h (2 Bft)
15.07.2017 09:00 11,7 °C 11,7 °C 91 % 1019,9 hPa 0,0 mm 6,8 km/h (2 Bft) W 274 ° 0 min 0,000 mm 1,5 UV-I 127 W/m² 10,3 °C 11,7 °C 11,3 km/h (2 Bft)
15.07.2017 09:01 11,7 °C 11,7 °C 90 % 1020,0 hPa 0,0 mm 5,6 km/h (1 Bft) W-NW 302 ° 0 min 0,076 mm 1,3 UV-I 109 W/m² 10,1 °C 11,7 °C 6,4 km/h (2 Bft)
15.07.2017 09:02 11,7 °C 11,7 °C 90 % 1019,9 hPa 0,0 mm 5,0 km/h (1 Bft) W-NW 285 ° 0 min 0,000 mm 1,4 UV-I 134 W/m² 10,1 °C 11,7 °C 9,7 km/h (2 Bft)
15.07.2017 09:03 11,7 °C 11,7 °C 90 % 1020,0 hPa 0,0 mm 7,9 km/h (2 Bft) W-NW 286 ° 0 min 0,000 mm 1,5 UV-I 190 W/m² 10,1 °C 11,7 °C 12,9 km/h (3 Bft)
15.07.2017 09:04 11,6 °C 11,7 °C 90 % 1020,0 hPa 0,0 mm 9,6 km/h (2 Bft) NW 304 ° 0 min 0,000 mm 1,5 UV-I 188 W/m² 10,0 °C 11,6 °C 12,9 km/h (3 Bft)
15.07.2017 09:05 11,6 °C 11,6 °C 88 % 1020,0 hPa 0,0 mm 5,2 km/h (1 Bft) W 267 ° 0 min 0,000 mm 1,4 UV-I 162 W/m² 9,7 °C 11,6 °C 6,4 km/h (2 Bft)
15.07.2017 09:06 11,6 °C 11,6 °C 89 % 1020,0 hPa 0,0 mm 2,8 km/h (1 Bft) W 280 ° 0 min 0,000 mm 1,3 UV-I 162 W/m² 9,8 °C 11,6 °C 4,8 km/h (1 Bft)
15.07.2017 09:07 11,6 °C 11,6 °C 89 % 1020,0 hPa 0,0 mm 2,7 km/h (1 Bft) W 280 ° 0 min 0,000 mm 1,4 UV-I 169 W/m² 9,8 °C 11,6 °C 4,8 km/h (1 Bft)
15.07.2017 09:08 11,6 °C 11,6 °C 90 % 1020,0 hPa 0,0 mm 4,5 km/h (1 Bft) W-NW 294 ° 0 min 0,000 mm 1,4 UV-I 167 W/m² 10,0 °C 11,6 °C 6,4 km/h (2 Bft)
15.07.2017 09:09 11,6 °C 11,6 °C 90 % 1020,0 hPa 0,0 mm 6,2 km/h (2 Bft) W-NW 290 ° 0 min 0,000 mm 1,4 UV-I 172 W/m² 10,0 °C 11,6 °C 11,3 km/h (2 Bft)
15.07.2017 09:10 11,7 °C 11,7 °C 89 % 1020,0 hPa 0,0 mm 2,9 km/h (1 Bft) W-NW 292 ° 0 min 0,000 mm 1,5 UV-I 195 W/m² 9,9 °C 11,7 °C 4,8 km/h (1 Bft)
15.07.2017 09:11 11,7 °C 11,7 °C 89 % 1020,0 hPa 0,0 mm 4,8 km/h (1 Bft) W-SW 257 ° 0 min 0,000 mm 1,5 UV-I 202 W/m² 9,9 °C 11,7 °C 9,7 km/h (2 Bft)
15.07.2017 09:12 11,7 °C 11,7 °C 89 % 1020,1 hPa 0,0 mm 5,6 km/h (1 Bft) W 281 ° 0 min 0,000 mm 1,3 UV-I 185 W/m² 9,9 °C 11,7 °C 9,7 km/h (2 Bft)
15.07.2017 09:13 11,7 °C 11,7 °C 89 % 1020,1 hPa 0,0 mm 6,2 km/h (2 Bft) W 278 ° 0 min 0,000 mm 1,2 UV-I 171 W/m² 9,9 °C 11,7 °C 9,7 km/h (2 Bft)
15.07.2017 09:14 11,7 °C 11,7 °C 89 % 1020,0 hPa 0,0 mm 4,4 km/h (1 Bft) W-NW 292 ° 0 min 0,000 mm 1,3 UV-I 171 W/m² 9,9 °C 11,7 °C 6,4 km/h (2 Bft)
15.07.2017 09:15 11,7 °C 11,7 °C 89 % 1020,0 hPa 0,0 mm 6,1 km/h (2 Bft) W 265 ° 0 min 0,000 mm 1,4 UV-I 176 W/m² 9,9 °C 11,7 °C 6,4 km/h (2 Bft)
15.07.2017 09:16 11,8 °C 11,8 °C 89 % 1020,0 hPa 0,0 mm 3,0 km/h (1 Bft) W 268 ° 0 min 0,000 mm 1,5 UV-I 183 W/m² 10,0 °C 11,8 °C 6,4 km/h (2 Bft)
15.07.2017 09:17 11,8 °C 11,8 °C 89 % 1020,0 hPa 0,0 mm 2,7 km/h (1 Bft) W 268 ° 0 min 0,000 mm 1,6 UV-I 199 W/m² 10,0 °C 11,8 °C 4,8 km/h (1 Bft)
15.07.2017 09:18 11,9 °C 11,9 °C 90 % 1020,1 hPa 0,0 mm 6,6 km/h (2 Bft) W-SW 243 ° 0 min 0,000 mm 1,6 UV-I 206 W/m² 10,3 °C 11,9 °C 12,9 km/h (3 Bft)
15.07.2017 09:19 11,9 °C 11,9 °C 89 % 1020,1 hPa 0,0 mm 6,4 km/h (2 Bft) W-SW 239 ° 0 min 0,000 mm 1,6 UV-I 207 W/m² 10,1 °C 11,9 °C 11,3 km/h (2 Bft)
15.07.2017 09:20 11,9 °C 11,9 °C 88 % 1020,1 hPa 0,0 mm 3,6 km/h (1 Bft) NW 317 ° 0 min 0,000 mm 1,7 UV-I 225 W/m² 10,0 °C 11,9 °C 6,4 km/h (2 Bft)
15.07.2017 09:21 11,9 °C 11,9 °C 88 % 1020,1 hPa 0,0 mm 2,5 km/h (1 Bft) NW 315 ° 0 min 0,000 mm 1,7 UV-I 248 W/m² 10,0 °C 11,9 °C 6,4 km/h (2 Bft)
15.07.2017 09:22 11,9 °C 11,9 °C 87 % 1020,1 hPa 0,0 mm 4,4 km/h (1 Bft) N-NO 13 ° 0 min 0,000 mm 1,5 UV-I 229 W/m² 9,8 °C 11,9 °C 8,0 km/h (2 Bft)
15.07.2017 09:23 11,9 °C 11,9 °C 89 % 1020,0 hPa 0,0 mm 2,3 km/h (1 Bft) W-NW 288 ° 0 min 0,000 mm 1,4 UV-I 156 W/m² 10,1 °C 11,9 °C 4,8 km/h (1 Bft)
15.07.2017 09:24 11,9 °C 11,9 °C 89 % 1020,1 hPa 0,0 mm 1,7 km/h (1 Bft) W-NW 286 ° 0 min 0,000 mm 1,2 UV-I 139 W/m² 10,1 °C 11,9 °C 4,8 km/h (1 Bft)
15.07.2017 09:25 11,9 °C 11,9 °C 88 % 1020,1 hPa 0,0 mm 5,6 km/h (1 Bft) W 269 ° 0 min 0,000 mm 1,3 UV-I 155 W/m² 10,0 °C 11,9 °C 12,9 km/h (3 Bft)
15.07.2017 09:26 12,0 °C 12,0 °C 88 % 1020,2 hPa 0,0 mm 9,3 km/h (2 Bft) W 263 ° 0 min 0,000 mm 1,3 UV-I 185 W/m² 10,1 °C 12,0 °C 12,9 km/h (3 Bft)
15.07.2017 09:27 11,9 °C 12,0 °C 87 % 1020,1 hPa 0,0 mm 4,4 km/h (1 Bft) W 265 ° 0 min 0,000 mm 1,2 UV-I 178 W/m² 9,8 °C 11,9 °C 6,4 km/h (2 Bft)
15.07.2017 09:28 11,9 °C 11,9 °C 88 % 1020,1 hPa 0,0 mm 4,8 km/h (1 Bft) W-NW 296 ° 0 min 0,000 mm 1,1 UV-I 156 W/m² 10,0 °C 11,9 °C 9,7 km/h (2 Bft)
15.07.2017 09:29 11,9 °C 11,9 °C 87 % 1020,2 hPa 0,0 mm 4,7 km/h (1 Bft) NW 318 ° 0 min 0,000 mm 1,1 UV-I 128 W/m² 9,8 °C 11,9 °C 6,4 km/h (2 Bft)
15.07.2017 09:30 12,0 °C 12,0 °C 87 % 1020,2 hPa 0,0 mm 4,8 km/h (1 Bft) W-NW 286 ° 0 min 0,000 mm 1,0 UV-I 128 W/m² 9,9 °C 12,0 °C 6,4 km/h (2 Bft)
15.07.2017 09:31 12,0 °C 12,0 °C 87 % 1020,2 hPa 0,0 mm 5,1 km/h (1 Bft) NW 323 ° 0 min 0,000 mm 1,0 UV-I 134 W/m² 9,9 °C 12,0 °C 8,0 km/h (2 Bft)
15.07.2017 09:32 12,0 °C 12,0 °C 86 % 1020,2 hPa 0,0 mm 8,0 km/h (2 Bft) W 281 ° 0 min 0,000 mm 1,1 UV-I 148 W/m² 9,7 °C 12,0 °C 12,9 km/h (3 Bft)
15.07.2017 09:33 12,0 °C 12,0 °C 86 % 1020,2 hPa 0,0 mm 5,6 km/h (1 Bft) W 279 ° 0 min 0,000 mm 1,0 UV-I 146 W/m² 9,7 °C 12,0 °C 9,7 km/h (2 Bft)
15.07.2017 09:34 12,0 °C 12,0 °C 86 % 1020,2 hPa 0,0 mm 5,3 km/h (1 Bft) W-NW 290 ° 0 min 0,000 mm 0,8 UV-I 123 W/m² 9,7 °C 12,0 °C 8,0 km/h (2 Bft)
15.07.2017 09:35 12,0 °C 12,0 °C 87 % 1020,3 hPa 0,0 mm 2,1 km/h (1 Bft) W 271 ° 0 min 0,000 mm 0,6 UV-I 81 W/m² 9,9 °C 12,0 °C 6,4 km/h (2 Bft)
15.07.2017 09:36 11,9 °C 12,0 °C 88 % 1020,3 hPa 0,0 mm 2,9 km/h (1 Bft) W 261 ° 0 min 0,000 mm 0,7 UV-I 86 W/m² 10,0 °C 11,9 °C 6,4 km/h (2 Bft)
15.07.2017 09:37 11,9 °C 11,9 °C 88 % 1020,3 hPa 0,0 mm 2,3 km/h (1 Bft) W 259 ° 0 min 0,000 mm 0,7 UV-I 97 W/m² 10,0 °C 11,9 °C 6,4 km/h (2 Bft)
15.07.2017 09:38 11,9 °C 12,0 °C 88 % 1020,4 hPa 0,0 mm 2,9 km/h (1 Bft) W-SW 248 ° 0 min 0,000 mm 0,7 UV-I 95 W/m² 10,0 °C 11,9 °C 4,8 km/h (1 Bft)
15.07.2017 09:39 11,9 °C 11,9 °C 89 % 1020,3 hPa 0,0 mm 4,0 km/h (1 Bft) W-SW 256 ° 0 min 0,000 mm 0,7 UV-I 90 W/m² 10,1 °C 11,9 °C 6,4 km/h (2 Bft)
15.07.2017 09:40 11,9 °C 11,9 °C 89 % 1020,2 hPa 0,0 mm 1,9 km/h (1 Bft) W-SW 256 ° 0 min 0,000 mm 0,8 UV-I 105 W/m² 10,1 °C 11,9 °C 3,2 km/h (1 Bft)
15.07.2017 09:41 11,9 °C 11,9 °C 89 % 1020,2 hPa 0,0 mm 2,2 km/h (1 Bft) W-SW 244 ° 0 min 0,000 mm 0,9 UV-I 114 W/m² 10,1 °C 11,9 °C 4,8 km/h (1 Bft)
15.07.2017 09:42 11,8 °C 11,9 °C 88 % 1020,3 hPa 0,0 mm 0,9 km/h (0 Bft) W-SW 244 ° 0 min 0,000 mm 1,0 UV-I 127 W/m² 9,9 °C 11,8 °C 3,2 km/h (1 Bft)
15.07.2017 09:43 11,8 °C 11,9 °C 88 % 1020,3 hPa 0,0 mm 0,4 km/h (0 Bft) W-SW 245 ° 0 min 0,000 mm 1,0 UV-I 132 W/m² 9,9 °C 11,8 °C 1,6 km/h (1 Bft)
15.07.2017 09:44 11,8 °C 11,8 °C 89 % 1020,3 hPa 0,0 mm 3,1 km/h (1 Bft) W-SW 257 ° 0 min 0,000 mm 0,9 UV-I 125 W/m² 10,0 °C 11,8 °C 4,8 km/h (1 Bft)
15.07.2017 09:45 11,9 °C 11,9 °C 90 % 1020,3 hPa 0,0 mm 6,1 km/h (2 Bft) W-SW 256 ° 0 min 0,000 mm 0,9 UV-I 114 W/m² 10,3 °C 11,9 °C 8,0 km/h (2 Bft)
15.07.2017 09:46 11,9 °C 11,9 °C 89 % 1020,3 hPa 0,0 mm 4,6 km/h (1 Bft) W 279 ° 0 min 0,000 mm 0,9 UV-I 114 W/m² 10,1 °C 11,9 °C 6,4 km/h (2 Bft)
15.07.2017 09:47 11,9 °C 11,9 °C 88 % 1020,3 hPa 0,0 mm 4,5 km/h (1 Bft) W-NW 283 ° 0 min 0,000 mm 1,0 UV-I 128 W/m² 10,0 °C 11,9 °C 6,4 km/h (2 Bft)
15.07.2017 09:48 11,8 °C 11,9 °C 89 % 1020,4 hPa 0,0 mm 3,4 km/h (1 Bft) W 278 ° 0 min 0,000 mm 1,1 UV-I 139 W/m² 10,0 °C 11,8 °C 4,8 km/h (1 Bft)
15.07.2017 09:49 11,9 °C 11,9 °C 90 % 1020,4 hPa 0,0 mm 3,9 km/h (1 Bft) W-NW 288 ° 0 min 0,000 mm 1,1 UV-I 137 W/m² 10,3 °C 11,9 °C 6,4 km/h (2 Bft)
15.07.2017 09:50 11,9 °C 11,9 °C 89 % 1020,4 hPa 0,0 mm 1,4 km/h (1 Bft) W-NW 288 ° 0 min 0,000 mm 1,1 UV-I 132 W/m² 10,1 °C 11,9 °C 3,2 km/h (1 Bft)
15.07.2017 09:51 11,9 °C 12,0 °C 89 % 1020,4 hPa 0,0 mm 3,0 km/h (1 Bft) W-NW 286 ° 0 min 0,000 mm 1,0 UV-I 127 W/m² 10,1 °C 11,9 °C 4,8 km/h (1 Bft)
15.07.2017 09:52 11,9 °C 11,9 °C 88 % 1020,4 hPa 0,0 mm 1,4 km/h (1 Bft) W 262 ° 0 min 0,000 mm 1,0 UV-I 121 W/m² 10,0 °C 11,9 °C 4,8 km/h (1 Bft)
15.07.2017 09:53 11,9 °C 11,9 °C 88 % 1020,3 hPa 0,0 mm 3,8 km/h (1 Bft) W 262 ° 0 min 0,000 mm 1,0 UV-I 121 W/m² 10,0 °C 11,9 °C 4,8 km/h (1 Bft)
15.07.2017 09:54 11,9 °C 11,9 °C 88 % 1020,4 hPa 0,0 mm 3,1 km/h (1 Bft) W 262 ° 0 min 0,000 mm 1,1 UV-I 139 W/m² 10,0 °C 11,9 °C 4,8 km/h (1 Bft)
15.07.2017 09:55 11,9 °C 11,9 °C 89 % 1020,4 hPa 0,0 mm 4,6 km/h (1 Bft) W 260 ° 0 min 0,000 mm 1,2 UV-I 153 W/m² 10,1 °C 11,9 °C 8,0 km/h (2 Bft)
15.07.2017 09:56 11,9 °C 11,9 °C 88 % 1020,4 hPa 0,0 mm 2,0 km/h (1 Bft) W 260 ° 0 min 0,000 mm 1,2 UV-I 153 W/m² 10,0 °C 11,9 °C 3,2 km/h (1 Bft)
15.07.2017 09:57 11,9 °C 11,9 °C 88 % 1020,4 hPa 0,0 mm 2,1 km/h (1 Bft) W 260 ° 0 min 0,000 mm 1,3 UV-I 163 W/m² 10,0 °C 11,9 °C 4,8 km/h (1 Bft)
15.07.2017 09:58 11,9 °C 11,9 °C 88 % 1020,4 hPa 0,0 mm 4,6 km/h (1 Bft) W 261 ° 0 min 0,000 mm 1,4 UV-I 207 W/m² 10,0 °C 11,9 °C 6,4 km/h (2 Bft)
15.07.2017 09:59 11,9 °C 11,9 °C 88 % 1020,3 hPa 0,0 mm 1,4 km/h (1 Bft) W 261 ° 0 min 0,000 mm 1,4 UV-I 213 W/m² 10,0 °C 11,9 °C 3,2 km/h (1 Bft)
15.07.2017 10:00 12,0 °C 12,0 °C 88 % 1020,4 hPa 0,0 mm 2,2 km/h (1 Bft) W 261 ° 0 min 0,000 mm 1,1 UV-I 174 W/m² 10,1 °C 12,0 °C 4,8 km/h (1 Bft)
15.07.2017 10:01 12,1 °C 12,1 °C 88 % 1020,4 hPa 0,0 mm 1,7 km/h (1 Bft) W 270 ° 0 min 0,076 mm 0,9 UV-I 123 W/m² 10,2 °C 12,1 °C 4,8 km/h (1 Bft)
15.07.2017 10:02 12,1 °C 12,1 °C 88 % 1020,4 hPa 0,0 mm 4,0 km/h (1 Bft) W 262 ° 0 min 0,000 mm 0,7 UV-I 91 W/m² 10,2 °C 12,1 °C 6,4 km/h (2 Bft)
15.07.2017 10:03 12,1 °C 12,1 °C 89 % 1020,4 hPa 0,0 mm 3,8 km/h (1 Bft) W 265 ° 0 min 0,000 mm 0,7 UV-I 81 W/m² 10,3 °C 12,1 °C 4,8 km/h (1 Bft)
15.07.2017 10:04 12,1 °C 12,1 °C 88 % 1020,5 hPa 0,0 mm 1,0 km/h (0 Bft) W 265 ° 0 min 0,000 mm 0,7 UV-I 90 W/m² 10,2 °C 12,1 °C 1,6 km/h (1 Bft)
15.07.2017 10:05 12,1 °C 12,1 °C 89 % 1020,5 hPa 0,0 mm 1,8 km/h (1 Bft) W-NW 283 ° 0 min 0,000 mm 0,7 UV-I 97 W/m² 10,3 °C 12,1 °C 6,4 km/h (2 Bft)
15.07.2017 10:06 12,1 °C 12,1 °C 89 % 1020,4 hPa 0,0 mm 3,6 km/h (1 Bft) W-NW 283 ° 0 min 0,000 mm 0,8 UV-I 105 W/m² 10,3 °C 12,1 °C 6,4 km/h (2 Bft)
15.07.2017 10:07 12,1 °C 12,1 °C 88 % 1020,4 hPa 0,0 mm 3,7 km/h (1 Bft) W-NW 282 ° 0 min 0,000 mm 0,7 UV-I 104 W/m² 10,2 °C 12,1 °C 4,8 km/h (1 Bft)
15.07.2017 10:08 12,0 °C 12,1 °C 89 % 1020,4 hPa 0,0 mm 3,6 km/h (1 Bft) W 271 ° 0 min 0,000 mm 0,8 UV-I 104 W/m² 10,2 °C 12,0 °C 4,8 km/h (1 Bft)
15.07.2017 10:09 12,1 °C 12,1 °C 88 % 1020,4 hPa 0,0 mm 2,1 km/h (1 Bft) W 271 ° 0 min 0,000 mm 0,9 UV-I 116 W/m² 10,2 °C 12,1 °C 3,2 km/h (1 Bft)
15.07.2017 10:10 11,9 °C 12,1 °C 88 % 1020,4 hPa 0,0 mm 1,8 km/h (1 Bft) W 271 ° 0 min 0,000 mm 1,1 UV-I 162 W/m² 10,0 °C 11,9 °C 3,2 km/h (1 Bft)
15.07.2017 10:11 11,9 °C 12,0 °C 88 % 1020,4 hPa 0,0 mm 3,6 km/h (1 Bft) W 271 ° 0 min 0,000 mm 1,4 UV-I 183 W/m² 10,0 °C 11,9 °C 4,8 km/h (1 Bft)
15.07.2017 10:12 12,1 °C 12,1 °C 89 % 1020,4 hPa 0,0 mm 3,1 km/h (1 Bft) W-NW 293 ° 0 min 0,000 mm 1,4 UV-I 186 W/m² 10,3 °C 12,1 °C 4,8 km/h (1 Bft)
15.07.2017 10:13 12,2 °C 12,2 °C 90 % 1020,4 hPa 0,0 mm 1,6 km/h (1 Bft) W-NW 293 ° 0 min 0,000 mm 1,5 UV-I 200 W/m² 10,6 °C 12,2 °C 3,2 km/h (1 Bft)
15.07.2017 10:14 12,2 °C 12,2 °C 89 % 1020,4 hPa 0,0 mm 1,8 km/h (1 Bft) W-NW 293 ° 0 min 0,000 mm 1,5 UV-I 204 W/m² 10,4 °C 12,2 °C 3,2 km/h (1 Bft)
15.07.2017 10:15 12,2 °C 12,2 °C 88 % 1020,5 hPa 0,0 mm 2,7 km/h (1 Bft) W-NW 293 ° 0 min 0,000 mm 1,5 UV-I 174 W/m² 10,3 °C 12,2 °C 3,2 km/h (1 Bft)
15.07.2017 10:16 12,2 °C 12,2 °C 89 % 1020,4 hPa 0,0 mm 3,3 km/h (1 Bft) W-NW 292 ° 0 min 0,000 mm 1,3 UV-I 153 W/m² 10,4 °C 12,2 °C 4,8 km/h (1 Bft)
15.07.2017 10:17 12,3 °C 12,3 °C 89 % 1020,4 hPa 0,0 mm 0,3 km/h (0 Bft) W-NW 292 ° 0 min 0,000 mm 1,2 UV-I 142 W/m² 10,5 °C 12,3 °C 1,6 km/h (1 Bft)
15.07.2017 10:18 12,2 °C 12,3 °C 88 % 1020,4 hPa 0,0 mm 3,6 km/h (1 Bft) W 276 ° 0 min 0,000 mm 1,2 UV-I 139 W/m² 10,3 °C 12,2 °C 6,4 km/h (2 Bft)
15.07.2017 10:19 12,2 °C 12,2 °C 87 % 1020,4 hPa 0,0 mm 1,6 km/h (1 Bft) W 276 ° 0 min 0,000 mm 1,3 UV-I 144 W/m² 10,1 °C 12,2 °C 3,2 km/h (1 Bft)
15.07.2017 10:20 12,2 °C 12,2 °C 88 % 1020,4 hPa 0,0 mm 0,3 km/h (0 Bft) W 276 ° 0 min 0,000 mm 1,5 UV-I 160 W/m² 10,3 °C 12,2 °C 1,6 km/h (1 Bft)
15.07.2017 10:21 12,2 °C 12,2 °C 88 % 1020,4 hPa 0,0 mm 3,6 km/h (1 Bft) W 277 ° 0 min 0,000 mm 1,6 UV-I 183 W/m² 10,3 °C 12,2 °C 4,8 km/h (1 Bft)
15.07.2017 10:22 12,2 °C 12,2 °C 89 % 1020,4 hPa 0,0 mm 1,9 km/h (1 Bft) W 277 ° 0 min 0,000 mm 1,6 UV-I 195 W/m² 10,4 °C 12,2 °C 3,2 km/h (1 Bft)
15.07.2017 10:23 12,3 °C 12,3 °C 89 % 1020,4 hPa 0,0 mm 0,8 km/h (0 Bft) W 277 ° 0 min 0,000 mm 1,7 UV-I 209 W/m² 10,5 °C 12,3 °C 1,6 km/h (1 Bft)
15.07.2017 10:24 12,3 °C 12,3 °C 89 % 1020,4 hPa 0,0 mm 0,0 km/h (0 Bft) W 277 ° 0 min 0,000 mm 1,6 UV-I 213 W/m² 10,5 °C 12,3 °C 0,0 km/h (0 Bft)
15.07.2017 10:25 12,3 °C 12,3 °C 87 % 1020,4 hPa 0,0 mm 2,2 km/h (1 Bft) W-NW 286 ° 0 min 0,000 mm 1,5 UV-I 197 W/m² 10,2 °C 12,3 °C 3,2 km/h (1 Bft)
15.07.2017 10:26 12,3 °C 12,3 °C 88 % 1020,5 hPa 0,0 mm 3,8 km/h (1 Bft) W-NW 294 ° 0 min 0,000 mm 1,2 UV-I 158 W/m² 10,4 °C 12,3 °C 6,4 km/h (2 Bft)
15.07.2017 10:27 12,3 °C 12,4 °C 88 % 1020,5 hPa 0,0 mm 1,5 km/h (1 Bft) W-NW 294 ° 0 min 0,000 mm 1,0 UV-I 121 W/m² 10,4 °C 12,3 °C 3,2 km/h (1 Bft)
15.07.2017 10:28 12,3 °C 12,4 °C 87 % 1020,5 hPa 0,0 mm 4,3 km/h (1 Bft) W-NW 301 ° 0 min 0,000 mm 1,1 UV-I 125 W/m² 10,2 °C 12,3 °C 11,3 km/h (2 Bft)
15.07.2017 10:29 12,3 °C 12,4 °C 87 % 1020,5 hPa 0,0 mm 4,8 km/h (1 Bft) NW 321 ° 0 min 0,000 mm 1,1 UV-I 130 W/m² 10,2 °C 12,3 °C 6,4 km/h (2 Bft)
15.07.2017 10:30 12,3 °C 12,3 °C 85 % 1020,5 hPa 0,0 mm 3,4 km/h (1 Bft) NW 320 ° 0 min 0,000 mm 1,1 UV-I 134 W/m² 9,9 °C 12,3 °C 4,8 km/h (1 Bft)
15.07.2017 10:31 12,3 °C 12,3 °C 84 % 1020,5 hPa 0,0 mm 1,8 km/h (1 Bft) W-NW 294 ° 0 min 0,000 mm 1,2 UV-I 139 W/m² 9,7 °C 12,3 °C 3,2 km/h (1 Bft)
15.07.2017 10:32 12,3 °C 12,3 °C 85 % 1020,5 hPa 0,0 mm 3,5 km/h (1 Bft) W-NW 284 ° 0 min 0,000 mm 1,2 UV-I 146 W/m² 9,9 °C 12,3 °C 6,4 km/h (2 Bft)
15.07.2017 10:33 12,3 °C 12,3 °C 84 % 1020,5 hPa 0,0 mm 3,3 km/h (1 Bft) W 276 ° 0 min 0,000 mm 1,2 UV-I 171 W/m² 9,7 °C 12,3 °C 6,4 km/h (2 Bft)
15.07.2017 10:34 12,2 °C 12,3 °C 83 % 1020,5 hPa 0,0 mm 4,5 km/h (1 Bft) NW 308 ° 0 min 0,000 mm 1,3 UV-I 165 W/m² 9,4 °C 12,2 °C 6,4 km/h (2 Bft)
15.07.2017 10:35 12,2 °C 12,2 °C 84 % 1020,5 hPa 0,0 mm 5,4 km/h (1 Bft) N-NW 335 ° 0 min 0,000 mm 1,3 UV-I 165 W/m² 9,6 °C 12,2 °C 8,0 km/h (2 Bft)
15.07.2017 10:36 12,2 °C 12,3 °C 84 % 1020,5 hPa 0,0 mm 5,3 km/h (1 Bft) W-NW 298 ° 0 min 0,000 mm 1,2 UV-I 160 W/m² 9,6 °C 12,2 °C 6,4 km/h (2 Bft)
15.07.2017 10:37 12,3 °C 12,3 °C 83 % 1020,5 hPa 0,0 mm 4,0 km/h (1 Bft) N-NW 331 ° 0 min 0,000 mm 1,1 UV-I 149 W/m² 9,5 °C 12,3 °C 6,4 km/h (2 Bft)
15.07.2017 10:38 12,2 °C 12,3 °C 83 % 1020,6 hPa 0,0 mm 3,2 km/h (1 Bft) NW 314 ° 0 min 0,000 mm 1,1 UV-I 141 W/m² 9,4 °C 12,2 °C 4,8 km/h (1 Bft)
15.07.2017 10:39 12,2 °C 12,2 °C 83 % 1020,6 hPa 0,0 mm 4,2 km/h (1 Bft) NW 305 ° 0 min 0,000 mm 1,1 UV-I 128 W/m² 9,4 °C 12,2 °C 6,4 km/h (2 Bft)
15.07.2017 10:40 12,2 °C 12,2 °C 83 % 1020,6 hPa 0,0 mm 5,0 km/h (1 Bft) NW 313 ° 0 min 0,000 mm 1,0 UV-I 128 W/m² 9,4 °C 12,2 °C 8,0 km/h (2 Bft)
15.07.2017 10:41 12,2 °C 12,2 °C 83 % 1020,6 hPa 0,0 mm 3,7 km/h (1 Bft) NW 321 ° 0 min 0,000 mm 1,2 UV-I 141 W/m² 9,4 °C 12,2 °C 6,4 km/h (2 Bft)
15.07.2017 10:42 12,2 °C 12,3 °C 84 % 1020,7 hPa 0,0 mm 3,6 km/h (1 Bft) SW 222 ° 0 min 0,000 mm 1,3 UV-I 160 W/m² 9,6 °C 12,2 °C 6,4 km/h (2 Bft)
15.07.2017 10:43 12,2 °C 12,2 °C 81 % 1020,7 hPa 0,0 mm 5,6 km/h (1 Bft) W 280 ° 0 min 0,000 mm 1,4 UV-I 178 W/m² 9,0 °C 12,2 °C 9,7 km/h (2 Bft)
15.07.2017 10:44 12,2 °C 12,2 °C 82 % 1020,6 hPa 0,0 mm 3,3 km/h (1 Bft) W 274 ° 0 min 0,000 mm 1,5 UV-I 179 W/m² 9,2 °C 12,2 °C 4,8 km/h (1 Bft)
15.07.2017 10:45 12,2 °C 12,2 °C 81 % 1020,6 hPa 0,0 mm 2,4 km/h (1 Bft) W 273 ° 0 min 0,000 mm 1,6 UV-I 204 W/m² 9,0 °C 12,2 °C 4,8 km/h (1 Bft)
15.07.2017 10:46 12,2 °C 12,2 °C 81 % 1020,6 hPa 0,0 mm 3,2 km/h (1 Bft) W-NW 283 ° 0 min 0,000 mm 2,0 UV-I 237 W/m² 9,0 °C 12,2 °C 4,8 km/h (1 Bft)
15.07.2017 10:47 12,2 °C 12,2 °C 82 % 1020,5 hPa 0,0 mm 3,0 km/h (1 Bft) W-NW 284 ° 0 min 0,000 mm 2,1 UV-I 253 W/m² 9,2 °C 12,2 °C 4,8 km/h (1 Bft)
15.07.2017 10:48 12,3 °C 12,3 °C 84 % 1020,5 hPa 0,0 mm 2,4 km/h (1 Bft) W-NW 284 ° 0 min 0,000 mm 2,1 UV-I 255 W/m² 9,7 °C 12,3 °C 4,8 km/h (1 Bft)
15.07.2017 10:49 12,4 °C 12,4 °C 83 % 1020,5 hPa 0,0 mm 0,7 km/h (0 Bft) W-NW 284 ° 0 min 0,000 mm 2,1 UV-I 265 W/m² 9,6 °C 12,4 °C 1,6 km/h (1 Bft)
15.07.2017 10:50 12,5 °C 12,5 °C 84 % 1020,6 hPa 0,0 mm 2,5 km/h (1 Bft) W-NW 284 ° 0 min 0,000 mm 2,1 UV-I 239 W/m² 9,9 °C 12,5 °C 4,8 km/h (1 Bft)
15.07.2017 10:51 12,6 °C 12,6 °C 84 % 1020,6 hPa 0,0 mm 3,3 km/h (1 Bft) W-NW 284 ° 0 min 0,000 mm 2,1 UV-I 209 W/m² 10,0 °C 12,6 °C 4,8 km/h (1 Bft)
15.07.2017 10:52 12,6 °C 12,6 °C 82 % 1020,6 hPa 0,0 mm 2,7 km/h (1 Bft) NW 312 ° 0 min 0,000 mm 1,5 UV-I 195 W/m² 9,6 °C 12,6 °C 4,8 km/h (1 Bft)
15.07.2017 10:53 12,6 °C 12,6 °C 81 % 1020,6 hPa 0,0 mm 3,7 km/h (1 Bft) W-NW 303 ° 0 min 0,000 mm 1,5 UV-I 190 W/m² 9,4 °C 12,6 °C 4,8 km/h (1 Bft)
15.07.2017 10:54 12,6 °C 12,6 °C 81 % 1020,6 hPa 0,0 mm 3,2 km/h (1 Bft) W-NW 303 ° 0 min 0,000 mm 1,6 UV-I 193 W/m² 9,4 °C 12,6 °C 4,8 km/h (1 Bft)
15.07.2017 10:55 12,5 °C 12,6 °C 81 % 1020,6 hPa 0,0 mm 4,4 km/h (1 Bft) NW 323 ° 0 min 0,000 mm 1,8 UV-I 213 W/m² 9,3 °C 12,5 °C 6,4 km/h (2 Bft)
15.07.2017 10:56 12,6 °C 12,6 °C 83 % 1020,6 hPa 0,0 mm 1,9 km/h (1 Bft) N-NW 333 ° 0 min 0,000 mm 1,9 UV-I 229 W/m² 9,8 °C 12,6 °C 4,8 km/h (1 Bft)
15.07.2017 10:57 12,6 °C 12,6 °C 82 % 1020,6 hPa 0,0 mm 3,7 km/h (1 Bft) NW 324 ° 0 min 0,000 mm 2,0 UV-I 244 W/m² 9,6 °C 12,6 °C 6,4 km/h (2 Bft)
15.07.2017 10:58 12,6 °C 12,6 °C 83 % 1020,6 hPa 0,0 mm 2,9 km/h (1 Bft) NW 322 ° 0 min 0,000 mm 2,3 UV-I 271 W/m² 9,8 °C 12,6 °C 4,8 km/h (1 Bft)
15.07.2017 10:59 12,7 °C 12,7 °C 83 % 1020,7 hPa 0,0 mm 3,8 km/h (1 Bft) N-NW 340 ° 1 min 0,000 mm 2,4 UV-I 295 W/m² 9,9 °C 12,7 °C 6,4 km/h (2 Bft)
15.07.2017 11:00 12,8 °C 12,8 °C 83 % 1020,6 hPa 0,0 mm 2,9 km/h (1 Bft) N-NW 332 ° 1 min 0,102 mm 2,5 UV-I 313 W/m² 10,0 °C 12,8 °C 4,8 km/h (1 Bft)
15.07.2017 11:01 12,8 °C 12,8 °C 82 % 1020,7 hPa 0,0 mm 4,8 km/h (1 Bft) N-NW 336 ° 1 min 0,000 mm 2,6 UV-I 334 W/m² 9,8 °C 12,8 °C 6,4 km/h (2 Bft)
15.07.2017 11:02 12,9 °C 12,9 °C 84 % 1020,7 hPa 0,0 mm 1,9 km/h (1 Bft) N-NW 346 ° 0 min 0,000 mm 2,4 UV-I 264 W/m² 10,3 °C 12,9 °C 4,8 km/h (1 Bft)
15.07.2017 11:03 12,9 °C 12,9 °C 83 % 1020,7 hPa 0,0 mm 4,1 km/h (1 Bft) N-NW 332 ° 0 min 0,000 mm 2,2 UV-I 237 W/m² 10,1 °C 12,9 °C 6,4 km/h (2 Bft)
15.07.2017 11:04 12,9 °C 13,0 °C 82 % 1020,7 hPa 0,0 mm 2,6 km/h (1 Bft) N-NW 333 ° 0 min 0,000 mm 2,1 UV-I 244 W/m² 9,9 °C 12,9 °C 4,8 km/h (1 Bft)
15.07.2017 11:05 13,0 °C 13,0 °C 81 % 1020,7 hPa 0,0 mm 1,2 km/h (1 Bft) N-NW 333 ° 0 min 0,000 mm 2,0 UV-I 246 W/m² 9,8 °C 13,0 °C 3,2 km/h (1 Bft)
15.07.2017 11:06 13,0 °C 13,0 °C 82 % 1020,7 hPa 0,0 mm 1,8 km/h (1 Bft) N-NW 333 ° 0 min 0,000 mm 1,9 UV-I 221 W/m² 10,0 °C 13,0 °C 3,2 km/h (1 Bft)
15.07.2017 11:07 13,0 °C 13,1 °C 82 % 1020,7 hPa 0,0 mm 3,2 km/h (1 Bft) W-NW 292 ° 0 min 0,000 mm 1,9 UV-I 218 W/m² 10,0 °C 13,0 °C 6,4 km/h (2 Bft)
15.07.2017 11:08 12,9 °C 13,0 °C 78 % 1020,8 hPa 0,0 mm 2,6 km/h (1 Bft) NW 315 ° 0 min 0,000 mm 1,9 UV-I 227 W/m² 9,2 °C 12,9 °C 4,8 km/h (1 Bft)
15.07.2017 11:09 12,9 °C 12,9 °C 79 % 1020,8 hPa 0,0 mm 2,7 km/h (1 Bft) NW 319 ° 0 min 0,000 mm 2,1 UV-I 241 W/m² 9,3 °C 12,9 °C 8,0 km/h (2 Bft)
15.07.2017 11:10 12,9 °C 12,9 °C 81 % 1020,8 hPa 0,0 mm 5,8 km/h (2 Bft) W-NW 302 ° 0 min 0,000 mm 2,1 UV-I 251 W/m² 9,7 °C 12,9 °C 9,7 km/h (2 Bft)
15.07.2017 11:11 12,9 °C 12,9 °C 81 % 1020,8 hPa 0,0 mm 4,0 km/h (1 Bft) W-NW 286 ° 0 min 0,000 mm 2,1 UV-I 246 W/m² 9,7 °C 12,9 °C 6,4 km/h (2 Bft)
15.07.2017 11:12 12,9 °C 12,9 °C 81 % 1020,8 hPa 0,0 mm 4,8 km/h (1 Bft) W-NW 296 ° 0 min 0,000 mm 2,1 UV-I 241 W/m² 9,7 °C 12,9 °C 6,4 km/h (2 Bft)
15.07.2017 11:13 12,9 °C 12,9 °C 80 % 1020,8 hPa 0,0 mm 2,7 km/h (1 Bft) N-NW 338 ° 0 min 0,000 mm 2,2 UV-I 250 W/m² 9,5 °C 12,9 °C 6,4 km/h (2 Bft)
15.07.2017 11:14 12,8 °C 12,9 °C 80 % 1020,8 hPa 0,0 mm 3,9 km/h (1 Bft) W-NW 292 ° 0 min 0,000 mm 2,3 UV-I 269 W/m² 9,4 °C 12,8 °C 4,8 km/h (1 Bft)
15.07.2017 11:15 12,8 °C 12,8 °C 79 % 1020,7 hPa 0,0 mm 2,1 km/h (1 Bft) NW 319 ° 1 min 0,000 mm 3,1 UV-I 304 W/m² 9,2 °C 12,8 °C 3,2 km/h (1 Bft)
15.07.2017 11:16 12,9 °C 12,9 °C 81 % 1020,8 hPa 0,0 mm 2,2 km/h (1 Bft) NW 319 ° 1 min 0,000 mm 3,1 UV-I 339 W/m² 9,7 °C 12,9 °C 4,8 km/h (1 Bft)
15.07.2017 11:17 12,9 °C 12,9 °C 81 % 1020,8 hPa 0,0 mm 3,2 km/h (1 Bft) W-NW 295 ° 1 min 0,000 mm 4,4 UV-I 339 W/m² 9,7 °C 12,9 °C 4,8 km/h (1 Bft)
15.07.2017 11:18 13,1 °C 13,1 °C 82 % 1020,7 hPa 0,0 mm 4,2 km/h (1 Bft) W-NW 294 ° 1 min 0,000 mm 3,2 UV-I 339 W/m² 10,1 °C 13,1 °C 6,4 km/h (2 Bft)
15.07.2017 11:19 13,1 °C 13,1 °C 80 % 1020,7 hPa 0,0 mm 4,1 km/h (1 Bft) W 269 ° 1 min 0,000 mm 3,5 UV-I 434 W/m² 9,7 °C 13,1 °C 4,8 km/h (1 Bft)
15.07.2017 11:20 13,1 °C 13,1 °C 78 % 1020,8 hPa 0,0 mm 1,1 km/h (1 Bft) W 269 ° 1 min 0,000 mm 3,0 UV-I 490 W/m² 9,4 °C 13,1 °C 3,2 km/h (1 Bft)
15.07.2017 11:21 13,0 °C 13,1 °C 81 % 1020,8 hPa 0,0 mm 3,4 km/h (1 Bft) W-NW 298 ° 1 min 0,000 mm 2,4 UV-I 302 W/m² 9,8 °C 13,0 °C 4,8 km/h (1 Bft)
15.07.2017 11:22 13,1 °C 13,1 °C 81 % 1020,8 hPa 0,0 mm 0,6 km/h (0 Bft) W-NW 298 ° 1 min 0,000 mm 2,4 UV-I 294 W/m² 9,9 °C 13,1 °C 1,6 km/h (1 Bft)
15.07.2017 11:23 13,2 °C 13,2 °C 83 % 1020,8 hPa 0,0 mm 4,4 km/h (1 Bft) W 261 ° 1 min 0,000 mm 2,4 UV-I 294 W/m² 10,4 °C 13,2 °C 9,7 km/h (2 Bft)
15.07.2017 11:24 13,2 °C 13,2 °C 81 % 1020,9 hPa 0,0 mm 6,0 km/h (2 Bft) W 278 ° 1 min 0,000 mm 2,4 UV-I 292 W/m² 10,0 °C 13,2 °C 9,7 km/h (2 Bft)
15.07.2017 11:25 13,1 °C 13,2 °C 80 % 1020,9 hPa 0,0 mm 3,6 km/h (1 Bft) W 267 ° 0 min 0,000 mm 2,2 UV-I 274 W/m² 9,7 °C 13,1 °C 4,8 km/h (1 Bft)
15.07.2017 11:26 13,1 °C 13,1 °C 81 % 1020,8 hPa 0,0 mm 3,4 km/h (1 Bft) W-NW 288 ° 0 min 0,000 mm 2,2 UV-I 258 W/m² 9,9 °C 13,1 °C 6,4 km/h (2 Bft)
15.07.2017 11:27 13,1 °C 13,1 °C 82 % 1020,9 hPa 0,0 mm 6,5 km/h (2 Bft) W 267 ° 0 min 0,000 mm 2,2 UV-I 262 W/m² 10,1 °C 13,1 °C 9,7 km/h (2 Bft)
15.07.2017 11:28 13,1 °C 13,1 °C 81 % 1020,8 hPa 0,0 mm 4,6 km/h (1 Bft) W 275 ° 0 min 0,000 mm 2,3 UV-I 269 W/m² 9,9 °C 13,1 °C 8,0 km/h (2 Bft)
15.07.2017 11:29 13,2 °C 13,2 °C 83 % 1020,8 hPa 0,0 mm 3,2 km/h (1 Bft) W-NW 292 ° 0 min 0,000 mm 2,4 UV-I 279 W/m² 10,4 °C 13,2 °C 6,4 km/h (2 Bft)
15.07.2017 11:30 13,2 °C 13,2 °C 82 % 1020,8 hPa 0,0 mm 8,4 km/h (2 Bft) W-SW 257 ° 1 min 0,000 mm 2,6 UV-I 302 W/m² 10,2 °C 13,2 °C 12,9 km/h (3 Bft)
15.07.2017 11:31 13,2 °C 13,3 °C 80 % 1020,9 hPa 0,0 mm 5,0 km/h (1 Bft) W-SW 248 ° 1 min 0,000 mm 2,5 UV-I 302 W/m² 9,8 °C 13,2 °C 6,4 km/h (2 Bft)
15.07.2017 11:32 13,2 °C 13,2 °C 81 % 1020,9 hPa 0,0 mm 3,8 km/h (1 Bft) W 281 ° 1 min 0,000 mm 2,4 UV-I 290 W/m² 10,0 °C 13,2 °C 6,4 km/h (2 Bft)
15.07.2017 11:33 13,2 °C 13,2 °C 80 % 1020,9 hPa 0,0 mm 2,0 km/h (1 Bft) W 281 ° 1 min 0,000 mm 2,2 UV-I 290 W/m² 9,8 °C 13,2 °C 3,2 km/h (1 Bft)
15.07.2017 11:34 13,2 °C 13,2 °C 79 % 1020,8 hPa 0,0 mm 0,0 km/h (0 Bft) W 281 ° 0 min 0,000 mm 2,1 UV-I 264 W/m² 9,6 °C 13,2 °C 0,0 km/h (0 Bft)
15.07.2017 11:35 13,2 °C 13,2 °C 81 % 1020,9 hPa 0,0 mm 6,0 km/h (2 Bft) W-NW 282 ° 0 min 0,000 mm 1,9 UV-I 251 W/m² 10,0 °C 13,2 °C 11,3 km/h (2 Bft)
15.07.2017 11:36 13,2 °C 13,3 °C 80 % 1020,9 hPa 0,0 mm 5,6 km/h (1 Bft) W-NW 301 ° 0 min 0,000 mm 1,7 UV-I 227 W/m² 9,8 °C 13,2 °C 9,7 km/h (2 Bft)
15.07.2017 11:37 13,2 °C 13,3 °C 79 % 1020,9 hPa 0,0 mm 2,6 km/h (1 Bft) NW 308 ° 0 min 0,000 mm 1,5 UV-I 179 W/m² 9,6 °C 13,2 °C 6,4 km/h (2 Bft)
15.07.2017 11:38 13,2 °C 13,2 °C 79 % 1020,9 hPa 0,0 mm 2,2 km/h (1 Bft) NW 308 ° 0 min 0,000 mm 1,5 UV-I 169 W/m² 9,6 °C 13,2 °C 4,8 km/h (1 Bft)
15.07.2017 11:39 13,1 °C 13,2 °C 80 % 1020,9 hPa 0,0 mm 4,5 km/h (1 Bft) W-NW 296 ° 0 min 0,000 mm 1,3 UV-I 163 W/m² 9,7 °C 13,1 °C 6,4 km/h (2 Bft)
15.07.2017 11:40 13,1 °C 13,1 °C 79 % 1020,9 hPa 0,0 mm 4,4 km/h (1 Bft) NW 324 ° 0 min 0,000 mm 1,3 UV-I 162 W/m² 9,5 °C 13,1 °C 6,4 km/h (2 Bft)
15.07.2017 11:41 13,0 °C 13,1 °C 80 % 1020,9 hPa 0,0 mm 1,6 km/h (1 Bft) NW 324 ° 0 min 0,000 mm 1,3 UV-I 155 W/m² 9,6 °C 13,0 °C 3,2 km/h (1 Bft)
15.07.2017 11:42 12,9 °C 13,1 °C 79 % 1020,9 hPa 0,0 mm 2,2 km/h (1 Bft) W-NW 300 ° 0 min 0,000 mm 1,2 UV-I 144 W/m² 9,3 °C 12,9 °C 6,4 km/h (2 Bft)
15.07.2017 11:43 12,9 °C 12,9 °C 79 % 1020,9 hPa 0,0 mm 3,8 km/h (1 Bft) W-NW 301 ° 0 min 0,000 mm 1,1 UV-I 121 W/m² 9,3 °C 12,9 °C 6,4 km/h (2 Bft)
15.07.2017 11:44 12,8 °C 12,9 °C 80 % 1020,8 hPa 0,0 mm 2,9 km/h (1 Bft) W 279 ° 0 min 0,000 mm 1,0 UV-I 109 W/m² 9,4 °C 12,8 °C 4,8 km/h (1 Bft)
15.07.2017 11:45 12,8 °C 12,9 °C 81 % 1020,9 hPa 0,0 mm 4,0 km/h (1 Bft) W 279 ° 0 min 0,000 mm 0,7 UV-I 91 W/m² 9,6 °C 12,8 °C 4,8 km/h (1 Bft)
15.07.2017 11:46 12,8 °C 12,8 °C 78 % 1020,9 hPa 0,0 mm 2,0 km/h (1 Bft) W 279 ° 0 min 0,000 mm 0,6 UV-I 76 W/m² 9,1 °C 12,8 °C 3,2 km/h (1 Bft)
15.07.2017 11:47 12,7 °C 12,8 °C 78 % 1020,9 hPa 0,0 mm 2,9 km/h (1 Bft) W 279 ° 0 min 0,000 mm 0,5 UV-I 63 W/m² 9,0 °C 12,7 °C 4,8 km/h (1 Bft)
15.07.2017 11:48 12,7 °C 12,7 °C 79 % 1020,9 hPa 0,0 mm 0,6 km/h (0 Bft) W 279 ° 0 min 0,000 mm 0,0 UV-I 54 W/m² 9,2 °C 12,7 °C 3,2 km/h (1 Bft)
15.07.2017 11:49 12,6 °C 12,7 °C 80 % 1021,0 hPa 0,0 mm 0,9 km/h (0 Bft) W 279 ° 0 min 0,000 mm 0,0 UV-I 51 W/m² 9,2 °C 12,6 °C 3,2 km/h (1 Bft)
15.07.2017 11:50 12,6 °C 12,6 °C 80 % 1021,0 hPa 0,0 mm 0,3 km/h (0 Bft) W 279 ° 0 min 0,000 mm 0,0 UV-I 56 W/m² 9,2 °C 12,6 °C 1,6 km/h (1 Bft)
15.07.2017 11:51 12,6 °C 12,6 °C 80 % 1021,0 hPa 0,0 mm 0,3 km/h (0 Bft) W 279 ° 0 min 0,000 mm 0,5 UV-I 62 W/m² 9,2 °C 12,6 °C 1,6 km/h (1 Bft)
15.07.2017 11:52 12,6 °C 12,6 °C 81 % 1021,0 hPa 0,0 mm 1,5 km/h (1 Bft) W 279 ° 0 min 0,000 mm 0,5 UV-I 70 W/m² 9,4 °C 12,6 °C 3,2 km/h (1 Bft)
15.07.2017 11:53 12,6 °C 12,6 °C 82 % 1021,0 hPa 0,0 mm 0,7 km/h (0 Bft) W 279 ° 0 min 0,000 mm 0,7 UV-I 83 W/m² 9,6 °C 12,6 °C 1,6 km/h (1 Bft)
15.07.2017 11:54 12,6 °C 12,6 °C 82 % 1021,0 hPa 0,0 mm 0,7 km/h (0 Bft) W 279 ° 0 min 0,000 mm 0,9 UV-I 98 W/m² 9,6 °C 12,6 °C 1,6 km/h (1 Bft)
15.07.2017 11:55 12,6 °C 12,6 °C 83 % 1021,0 hPa 0,0 mm 0,0 km/h (0 Bft) W 279 ° 0 min 0,000 mm 1,1 UV-I 144 W/m² 9,8 °C 12,6 °C 0,0 km/h (0 Bft)
15.07.2017 11:56 12,6 °C 12,6 °C 82 % 1021,0 hPa 0,0 mm 0,0 km/h (0 Bft) W 279 ° 0 min 0,000 mm 1,5 UV-I 165 W/m² 9,6 °C 12,6 °C 0,0 km/h (0 Bft)
15.07.2017 11:57 12,6 °C 12,6 °C 82 % 1021,0 hPa 0,0 mm 0,0 km/h (0 Bft) W 279 ° 0 min 0,000 mm 1,6 UV-I 179 W/m² 9,6 °C 12,6 °C 0,0 km/h (0 Bft)
15.07.2017 11:58 12,6 °C 12,6 °C 84 % 1021,0 hPa 0,0 mm 1,7 km/h (1 Bft) W 279 ° 0 min 0,000 mm 1,7 UV-I 190 W/m² 10,0 °C 12,6 °C 3,2 km/h (1 Bft)
15.07.2017 11:59 12,7 °C 12,7 °C 86 % 1021,0 hPa 0,0 mm 2,0 km/h (1 Bft) W 279 ° 0 min 0,000 mm 1,9 UV-I 190 W/m² 10,4 °C 12,7 °C 3,2 km/h (1 Bft)
15.07.2017 12:00 12,8 °C 12,8 °C 84 % 1021,0 hPa 0,0 mm 2,3 km/h (1 Bft) W 279 ° 0 min 0,127 mm 1,9 UV-I 214 W/m² 10,2 °C 12,8 °C 3,2 km/h (1 Bft)
15.07.2017 12:01 12,9 °C 12,9 °C 81 % 1021,0 hPa 0,0 mm 2,3 km/h (1 Bft) W 279 ° 0 min 0,000 mm 2,0 UV-I 244 W/m² 9,7 °C 12,9 °C 3,2 km/h (1 Bft)
15.07.2017 12:02 12,9 °C 12,9 °C 82 % 1021,0 hPa 0,0 mm 3,5 km/h (1 Bft) W 279 ° 0 min 0,000 mm 2,3 UV-I 264 W/m² 9,9 °C 12,9 °C 4,8 km/h (1 Bft)
15.07.2017 12:03 13,0 °C 13,0 °C 83 % 1021,0 hPa 0,0 mm 2,0 km/h (1 Bft) W 279 ° 0 min 0,000 mm 2,1 UV-I 251 W/m² 10,2 °C 13,0 °C 3,2 km/h (1 Bft)
15.07.2017 12:04 13,0 °C 13,0 °C 81 % 1021,1 hPa 0,0 mm 3,6 km/h (1 Bft) W 279 ° 0 min 0,000 mm 1,8 UV-I 214 W/m² 9,8 °C 13,0 °C 4,8 km/h (1 Bft)
15.07.2017 12:05 12,9 °C 13,0 °C 79 % 1021,0 hPa 0,0 mm 2,3 km/h (1 Bft) W 279 ° 0 min 0,000 mm 1,7 UV-I 190 W/m² 9,3 °C 12,9 °C 4,8 km/h (1 Bft)
15.07.2017 12:06 13,0 °C 13,0 °C 81 % 1021,1 hPa 0,0 mm 1,9 km/h (1 Bft) W 279 ° 0 min 0,000 mm 1,6 UV-I 179 W/m² 9,8 °C 13,0 °C 3,2 km/h (1 Bft)
15.07.2017 12:07 13,1 °C 13,1 °C 82 % 1021,0 hPa 0,0 mm 1,3 km/h (1 Bft) W 279 ° 0 min 0,000 mm 1,7 UV-I 199 W/m² 10,1 °C 13,1 °C 3,2 km/h (1 Bft)
15.07.2017 12:08 13,1 °C 13,1 °C 83 % 1021,0 hPa 0,0 mm 3,4 km/h (1 Bft) W 279 ° 0 min 0,000 mm 1,9 UV-I 211 W/m² 10,3 °C 13,1 °C 4,8 km/h (1 Bft)
15.07.2017 12:09 13,1 °C 13,1 °C 81 % 1021,0 hPa 0,0 mm 2,4 km/h (1 Bft) W 279 ° 0 min 0,000 mm 2,1 UV-I 223 W/m² 9,9 °C 13,1 °C 3,2 km/h (1 Bft)
15.07.2017 12:10 13,2 °C 13,2 °C 82 % 1021,0 hPa 0,0 mm 1,5 km/h (1 Bft) W 273 ° 0 min 0,000 mm 2,3 UV-I 230 W/m² 10,2 °C 13,2 °C 6,4 km/h (2 Bft)
15.07.2017 12:11 13,2 °C 13,2 °C 81 % 1021,0 hPa 0,0 mm 2,7 km/h (1 Bft) W 273 ° 0 min 0,000 mm 2,5 UV-I 239 W/m² 10,0 °C 13,2 °C 3,2 km/h (1 Bft)
15.07.2017 12:12 13,2 °C 13,2 °C 80 % 1021,0 hPa 0,0 mm 0,6 km/h (0 Bft) W 273 ° 1 min 0,000 mm 2,9 UV-I 320 W/m² 9,8 °C 13,2 °C 1,6 km/h (1 Bft)
15.07.2017 12:13 13,2 °C 13,2 °C 80 % 1021,0 hPa 0,0 mm 0,0 km/h (0 Bft) W 273 ° 1 min 0,000 mm 3,4 UV-I 404 W/m² 9,8 °C 13,2 °C 0,0 km/h (0 Bft)
15.07.2017 12:14 13,2 °C 13,2 °C 79 % 1020,9 hPa 0,0 mm 0,0 km/h (0 Bft) W 273 ° 1 min 0,000 mm 4,0 UV-I 468 W/m² 9,6 °C 13,2 °C 0,0 km/h (0 Bft)
15.07.2017 12:15 13,3 °C 13,3 °C 80 % 1021,0 hPa 0,0 mm 1,9 km/h (1 Bft) W-NW 303 ° 1 min 0,000 mm 4,0 UV-I 468 W/m² 9,9 °C 13,3 °C 4,8 km/h (1 Bft)
15.07.2017 12:16 13,4 °C 13,4 °C 79 % 1021,0 hPa 0,0 mm 3,4 km/h (1 Bft) NW 312 ° 1 min 0,000 mm 3,2 UV-I 468 W/m² 9,8 °C 13,4 °C 4,8 km/h (1 Bft)
15.07.2017 12:17 13,4 °C 13,4 °C 79 % 1020,9 hPa 0,0 mm 1,9 km/h (1 Bft) W-NW 289 ° 1 min 0,000 mm 3,0 UV-I 468 W/m² 9,8 °C 13,4 °C 6,4 km/h (2 Bft)
15.07.2017 12:18 13,5 °C 13,5 °C 81 % 1020,9 hPa 0,0 mm 5,6 km/h (1 Bft) W-NW 287 ° 1 min 0,000 mm 2,9 UV-I 311 W/m² 10,3 °C 13,5 °C 8,0 km/h (2 Bft)
15.07.2017 12:19 13,6 °C 13,6 °C 80 % 1020,9 hPa 0,0 mm 4,7 km/h (1 Bft) W-NW 287 ° 1 min 0,000 mm 2,9 UV-I 306 W/m² 10,2 °C 13,6 °C 8,0 km/h (2 Bft)
15.07.2017 12:20 13,5 °C 13,6 °C 79 % 1020,9 hPa 0,0 mm 3,6 km/h (1 Bft) W-NW 287 ° 1 min 0,000 mm 3,0 UV-I 313 W/m² 9,9 °C 13,5 °C 4,8 km/h (1 Bft)
15.07.2017 12:21 13,5 °C 13,5 °C 77 % 1020,8 hPa 0,0 mm 2,1 km/h (1 Bft) W-NW 287 ° 1 min 0,000 mm 3,4 UV-I 345 W/m² 9,5 °C 13,5 °C 3,2 km/h (1 Bft)
15.07.2017 12:22 13,5 °C 13,5 °C 77 % 1020,8 hPa 0,0 mm 2,6 km/h (1 Bft) W-NW 287 ° 1 min 0,000 mm 3,9 UV-I 394 W/m² 9,5 °C 13,5 °C 3,2 km/h (1 Bft)
15.07.2017 12:23 13,5 °C 13,5 °C 80 % 1020,9 hPa 0,0 mm 2,1 km/h (1 Bft) W-NW 283 ° 1 min 0,000 mm 5,8 UV-I 394 W/m² 10,1 °C 13,5 °C 6,4 km/h (2 Bft)
15.07.2017 12:24 13,7 °C 13,7 °C 80 % 1020,8 hPa 0,0 mm 5,5 km/h (1 Bft) W-SW 254 ° 1 min 0,000 mm 4,5 UV-I 582 W/m² 10,3 °C 13,7 °C 9,7 km/h (2 Bft)
15.07.2017 12:25 13,9 °C 13,9 °C 80 % 1020,8 hPa 0,0 mm 4,6 km/h (1 Bft) W-SW 242 ° 1 min 0,000 mm 4,3 UV-I 582 W/m² 10,5 °C 13,9 °C 8,0 km/h (2 Bft)
15.07.2017 12:26 14,0 °C 14,0 °C 81 % 1020,9 hPa 0,0 mm 3,4 km/h (1 Bft) W 263 ° 1 min 0,000 mm 3,0 UV-I 366 W/m² 10,8 °C 14,0 °C 4,8 km/h (1 Bft)
15.07.2017 12:27 14,1 °C 14,1 °C 82 % 1020,8 hPa 0,0 mm 2,2 km/h (1 Bft) W 271 ° 1 min 0,000 mm 2,6 UV-I 316 W/m² 11,1 °C 14,1 °C 4,8 km/h (1 Bft)
15.07.2017 12:28 13,9 °C 14,1 °C 76 % 1020,9 hPa 0,0 mm 2,2 km/h (1 Bft) NW 319 ° 1 min 0,000 mm 3,4 UV-I 290 W/m² 9,7 °C 13,9 °C 3,2 km/h (1 Bft)
15.07.2017 12:29 13,8 °C 13,9 °C 79 % 1020,8 hPa 0,0 mm 0,7 km/h (0 Bft) NW 319 ° 1 min 0,000 mm 2,0 UV-I 355 W/m² 10,2 °C 13,8 °C 1,6 km/h (1 Bft)
15.07.2017 12:30 13,8 °C 13,8 °C 77 % 1020,8 hPa 0,0 mm 3,4 km/h (1 Bft) SW 234 ° 0 min 0,000 mm 1,6 UV-I 171 W/m² 9,8 °C 13,8 °C 8,0 km/h (2 Bft)
15.07.2017 12:31 13,7 °C 13,8 °C 76 % 1020,8 hPa 0,0 mm 3,2 km/h (1 Bft) SW 234 ° 0 min 0,000 mm 1,4 UV-I 153 W/m² 9,5 °C 13,7 °C 4,8 km/h (1 Bft)
15.07.2017 12:32 13,6 °C 13,7 °C 76 % 1020,8 hPa 0,0 mm 2,3 km/h (1 Bft) SW 234 ° 0 min 0,000 mm 1,2 UV-I 141 W/m² 9,4 °C 13,6 °C 4,8 km/h (1 Bft)
15.07.2017 12:33 13,4 °C 13,6 °C 77 % 1020,9 hPa 0,0 mm 1,2 km/h (1 Bft) S-SW 196 ° 0 min 0,000 mm 1,1 UV-I 132 W/m² 9,5 °C 13,4 °C 3,2 km/h (1 Bft)
15.07.2017 12:34 13,4 °C 13,4 °C 77 % 1020,9 hPa 0,0 mm 4,0 km/h (1 Bft) S-SW 201 ° 0 min 0,000 mm 1,1 UV-I 128 W/m² 9,5 °C 13,4 °C 4,8 km/h (1 Bft)
15.07.2017 12:35 13,3 °C 13,4 °C 76 % 1020,9 hPa 0,0 mm 3,4 km/h (1 Bft) S-SW 201 ° 0 min 0,000 mm 1,3 UV-I 128 W/m² 9,2 °C 13,3 °C 4,8 km/h (1 Bft)
15.07.2017 12:36 13,3 °C 13,3 °C 78 % 1020,9 hPa 0,0 mm 2,0 km/h (1 Bft) S-SW 201 ° 0 min 0,000 mm 1,4 UV-I 158 W/m² 9,5 °C 13,3 °C 4,8 km/h (1 Bft)
15.07.2017 12:37 13,3 °C 13,3 °C 78 % 1020,8 hPa 0,0 mm 1,5 km/h (1 Bft) S-SW 201 ° 0 min 0,000 mm 1,2 UV-I 144 W/m² 9,5 °C 13,3 °C 3,2 km/h (1 Bft)
15.07.2017 12:38 13,3 °C 13,3 °C 81 % 1020,8 hPa 0,0 mm 1,3 km/h (1 Bft) S-SW 202 ° 0 min 0,000 mm 1,2 UV-I 130 W/m² 10,1 °C 13,3 °C 3,2 km/h (1 Bft)
15.07.2017 12:39 13,4 °C 13,4 °C 79 % 1020,8 hPa 0,0 mm 0,6 km/h (0 Bft) S-SW 202 ° 0 min 0,000 mm 1,0 UV-I 120 W/m² 9,8 °C 13,4 °C 1,6 km/h (1 Bft)
15.07.2017 12:40 13,4 °C 13,4 °C 79 % 1020,8 hPa 0,0 mm 0,2 km/h (0 Bft) S-SW 202 ° 0 min 0,000 mm 0,9 UV-I 114 W/m² 9,8 °C 13,4 °C 1,6 km/h (1 Bft)
15.07.2017 12:41 13,3 °C 13,4 °C 79 % 1020,9 hPa 0,0 mm 0,1 km/h (0 Bft) S-SW 202 ° 0 min 0,000 mm 1,0 UV-I 123 W/m² 9,7 °C 13,3 °C 1,6 km/h (1 Bft)
15.07.2017 12:42 13,3 °C 13,3 °C 81 % 1020,9 hPa 0,0 mm 2,0 km/h (1 Bft) S-SW 202 ° 0 min 0,000 mm 1,2 UV-I 155 W/m² 10,1 °C 13,3 °C 3,2 km/h (1 Bft)
15.07.2017 12:43 13,3 °C 13,3 °C 81 % 1020,9 hPa 0,0 mm 1,8 km/h (1 Bft) S-SW 202 ° 0 min 0,000 mm 1,4 UV-I 165 W/m² 10,1 °C 13,3 °C 3,2 km/h (1 Bft)
15.07.2017 12:44 13,4 °C 13,4 °C 83 % 1020,8 hPa 0,0 mm 0,4 km/h (0 Bft) S-SW 205 ° 0 min 0,000 mm 1,5 UV-I 174 W/m² 10,6 °C 13,4 °C 1,6 km/h (1 Bft)
15.07.2017 12:45 13,4 °C 13,4 °C 82 % 1020,9 hPa 0,0 mm 2,9 km/h (1 Bft) W-SW 244 ° 0 min 0,000 mm 1,9 UV-I 209 W/m² 10,4 °C 13,4 °C 4,8 km/h (1 Bft)
15.07.2017 12:46 13,5 °C 13,5 °C 82 % 1020,9 hPa 0,0 mm 1,9 km/h (1 Bft) W-SW 244 ° 0 min 0,000 mm 2,7 UV-I 281 W/m² 10,5 °C 13,5 °C 4,8 km/h (1 Bft)
15.07.2017 12:47 13,5 °C 13,5 °C 80 % 1020,9 hPa 0,0 mm 3,9 km/h (1 Bft) W-NW 286 ° 1 min 0,000 mm 3,4 UV-I 371 W/m² 10,1 °C 13,5 °C 6,4 km/h (2 Bft)
15.07.2017 12:48 13,6 °C 13,6 °C 82 % 1020,8 hPa 0,0 mm 3,2 km/h (1 Bft) SW 229 ° 1 min 0,000 mm 3,8 UV-I 417 W/m² 10,6 °C 13,6 °C 4,8 km/h (1 Bft)
15.07.2017 12:49 13,8 °C 13,8 °C 81 % 1020,8 hPa 0,0 mm 1,4 km/h (1 Bft) SW 230 ° 1 min 0,000 mm 7,1 UV-I 417 W/m² 10,6 °C 13,8 °C 1,6 km/h (1 Bft)
15.07.2017 12:50 14,0 °C 14,0 °C 83 % 1020,8 hPa 0,0 mm 4,7 km/h (1 Bft) W-SW 254 ° 1 min 0,000 mm 4,0 UV-I 417 W/m² 11,2 °C 14,0 °C 6,4 km/h (2 Bft)
15.07.2017 12:51 14,2 °C 14,2 °C 79 % 1020,8 hPa 0,0 mm 1,1 km/h (1 Bft) W-NW 287 ° 1 min 0,000 mm 4,0 UV-I 424 W/m² 10,6 °C 14,2 °C 4,8 km/h (1 Bft)
15.07.2017 12:52 14,3 °C 14,3 °C 80 % 1020,8 hPa 0,0 mm 5,0 km/h (1 Bft) W 265 ° 1 min 0,000 mm 4,3 UV-I 457 W/m² 10,9 °C 14,3 °C 8,0 km/h (2 Bft)
15.07.2017 12:53 14,3 °C 14,3 °C 79 % 1020,8 hPa 0,0 mm 5,2 km/h (1 Bft) W 264 ° 1 min 0,000 mm 5,9 UV-I 457 W/m² 10,7 °C 14,3 °C 9,7 km/h (2 Bft)
15.07.2017 12:54 14,4 °C 14,4 °C 79 % 1020,8 hPa 0,0 mm 2,3 km/h (1 Bft) W-SW 249 ° 1 min 0,000 mm 4,5 UV-I 490 W/m² 10,8 °C 14,4 °C 3,2 km/h (1 Bft)
15.07.2017 12:55 14,3 °C 14,4 °C 76 % 1020,9 hPa 0,0 mm 0,8 km/h (0 Bft) W-NW 300 ° 1 min 0,000 mm 4,0 UV-I 483 W/m² 10,1 °C 14,3 °C 3,2 km/h (1 Bft)
15.07.2017 12:56 14,3 °C 14,3 °C 76 % 1020,8 hPa 0,0 mm 1,9 km/h (1 Bft) W-NW 298 ° 1 min 0,000 mm 4,0 UV-I 425 W/m² 10,1 °C 14,3 °C 3,2 km/h (1 Bft)
15.07.2017 12:57 14,3 °C 14,3 °C 79 % 1020,8 hPa 0,0 mm 3,2 km/h (1 Bft) W-SW 257 ° 1 min 0,000 mm 3,5 UV-I 399 W/m² 10,7 °C 14,3 °C 11,3 km/h (2 Bft)
15.07.2017 12:58 14,3 °C 14,3 °C 79 % 1020,8 hPa 0,0 mm 7,2 km/h (2 Bft) W-NW 288 ° 1 min 0,000 mm 3,3 UV-I 371 W/m² 10,7 °C 14,3 °C 12,9 km/h (3 Bft)
15.07.2017 12:59 14,3 °C 14,4 °C 77 % 1020,8 hPa 0,0 mm 4,3 km/h (1 Bft) W-NW 296 ° 1 min 0,000 mm 3,1 UV-I 359 W/m² 10,3 °C 14,3 °C 6,4 km/h (2 Bft)
15.07.2017 13:00 14,3 °C 14,3 °C 77 % 1020,8 hPa 0,0 mm 3,2 km/h (1 Bft) W 279 ° 1 min 0,000 mm 3,1 UV-I 309 W/m² 10,3 °C 14,3 °C 4,8 km/h (1 Bft)
15.07.2017 13:01 14,3 °C 14,3 °C 78 % 1020,9 hPa 0,0 mm 4,1 km/h (1 Bft) W 269 ° 0 min 0,178 mm 2,3 UV-I 272 W/m² 10,5 °C 14,3 °C 6,4 km/h (2 Bft)
15.07.2017 13:02 14,3 °C 14,3 °C 77 % 1020,9 hPa 0,0 mm 5,2 km/h (1 Bft) W 262 ° 0 min 0,000 mm 2,1 UV-I 241 W/m² 10,3 °C 14,3 °C 9,7 km/h (2 Bft)
15.07.2017 13:03 14,3 °C 14,3 °C 78 % 1020,9 hPa 0,0 mm 6,7 km/h (2 Bft) W 260 ° 0 min 0,000 mm 2,2 UV-I 246 W/m² 10,5 °C 14,3 °C 9,7 km/h (2 Bft)
15.07.2017 13:04 14,2 °C 14,3 °C 77 % 1020,9 hPa 0,0 mm 4,9 km/h (1 Bft) W 263 ° 1 min 0,000 mm 2,8 UV-I 309 W/m² 10,2 °C 14,2 °C 6,4 km/h (2 Bft)
15.07.2017 13:05 14,2 °C 14,2 °C 76 % 1020,9 hPa 0,0 mm 2,0 km/h (1 Bft) W 263 ° 1 min 0,000 mm 4,1 UV-I 309 W/m² 10,0 °C 14,2 °C 4,8 km/h (1 Bft)
15.07.2017 13:06 14,2 °C 14,2 °C 74 % 1020,9 hPa 0,0 mm 2,3 km/h (1 Bft) NW 310 ° 1 min 0,000 mm 3,6 UV-I 415 W/m² 9,6 °C 14,2 °C 4,8 km/h (1 Bft)
15.07.2017 13:07 14,3 °C 14,3 °C 78 % 1020,9 hPa 0,0 mm 4,3 km/h (1 Bft) W-NW 301 ° 1 min 0,000 mm 3,2 UV-I 390 W/m² 10,5 °C 14,3 °C 4,8 km/h (1 Bft)
15.07.2017 13:08 14,4 °C 14,4 °C 78 % 1020,9 hPa 0,0 mm 4,5 km/h (1 Bft) W-NW 292 ° 1 min 0,000 mm 2,9 UV-I 348 W/m² 10,6 °C 14,4 °C 6,4 km/h (2 Bft)
15.07.2017 13:09 14,3 °C 14,4 °C 73 % 1021,0 hPa 0,0 mm 5,0 km/h (1 Bft) W 281 ° 1 min 0,000 mm 2,9 UV-I 350 W/m² 9,5 °C 14,3 °C 6,4 km/h (2 Bft)
15.07.2017 13:10 14,3 °C 14,3 °C 75 % 1020,9 hPa 0,0 mm 0,6 km/h (0 Bft) W 281 ° 1 min 0,000 mm 3,1 UV-I 338 W/m² 9,9 °C 14,3 °C 3,2 km/h (1 Bft)
15.07.2017 13:11 14,3 °C 14,3 °C 76 % 1020,9 hPa 0,0 mm 5,3 km/h (1 Bft) W-SW 258 ° 1 min 0,000 mm 5,5 UV-I 338 W/m² 10,1 °C 14,3 °C 11,3 km/h (2 Bft)
15.07.2017 13:12 14,4 °C 14,4 °C 78 % 1020,9 hPa 0,0 mm 2,7 km/h (1 Bft) W-SW 256 ° 1 min 0,000 mm 5,8 UV-I 338 W/m² 10,6 °C 14,4 °C 8,0 km/h (2 Bft)
15.07.2017 13:13 14,6 °C 14,6 °C 76 % 1020,9 hPa 0,0 mm 2,2 km/h (1 Bft) W-SW 243 ° 1 min 0,000 mm 4,7 UV-I 338 W/m² 10,4 °C 14,6 °C 4,8 km/h (1 Bft)
15.07.2017 13:14 14,6 °C 14,6 °C 76 % 1020,9 hPa 0,0 mm 0,3 km/h (0 Bft) W-SW 247 ° 1 min 0,000 mm 4,7 UV-I 338 W/m² 10,4 °C 14,6 °C 1,6 km/h (1 Bft)
15.07.2017 13:15 14,6 °C 14,7 °C 74 % 1020,9 hPa 0,0 mm 0,1 km/h (0 Bft) W-SW 247 ° 1 min 0,000 mm 6,5 UV-I 338 W/m² 10,0 °C 14,6 °C 1,6 km/h (1 Bft)
15.07.2017 13:16 14,8 °C 14,8 °C 79 % 1020,9 hPa 0,0 mm 0,6 km/h (0 Bft) NW 319 ° 1 min 0,000 mm 5,8 UV-I 719 W/m² 11,2 °C 14,8 °C 3,2 km/h (1 Bft)
15.07.2017 13:17 14,9 °C 14,9 °C 74 % 1020,9 hPa 0,0 mm 4,8 km/h (1 Bft) NW 321 ° 1 min 0,000 mm 4,8 UV-I 483 W/m² 10,3 °C 14,9 °C 8,0 km/h (2 Bft)
15.07.2017 13:18 15,0 °C 15,0 °C 74 % 1020,8 hPa 0,0 mm 3,2 km/h (1 Bft) NW 317 ° 1 min 0,000 mm 5,1 UV-I 483 W/m² 10,4 °C 15,0 °C 6,4 km/h (2 Bft)
15.07.2017 13:19 15,0 °C 15,0 °C 73 % 1020,8 hPa 0,0 mm 4,3 km/h (1 Bft) N 355 ° 1 min 0,000 mm 7,3 UV-I 483 W/m² 10,2 °C 15,0 °C 8,0 km/h (2 Bft)
15.07.2017 13:20 15,1 °C 15,1 °C 74 % 1020,8 hPa 0,0 mm 5,8 km/h (2 Bft) N-NW 342 ° 1 min 0,000 mm 5,4 UV-I 522 W/m² 10,5 °C 15,1 °C 8,0 km/h (2 Bft)
15.07.2017 13:21 15,3 °C 15,3 °C 75 % 1020,8 hPa 0,0 mm 5,4 km/h (1 Bft) NW 312 ° 1 min 0,000 mm 5,4 UV-I 522 W/m² 10,9 °C 15,3 °C 8,0 km/h (2 Bft)
15.07.2017 13:22 15,5 °C 15,5 °C 75 % 1020,8 hPa 0,0 mm 4,3 km/h (1 Bft) W-NW 290 ° 1 min 0,000 mm 5,2 UV-I 522 W/m² 11,1 °C 15,5 °C 8,0 km/h (2 Bft)
15.07.2017 13:23 15,6 °C 15,6 °C 72 % 1020,8 hPa 0,0 mm 6,5 km/h (2 Bft) W-SW 258 ° 1 min 0,000 mm 4,5 UV-I 585 W/m² 10,6 °C 15,6 °C 9,7 km/h (2 Bft)
15.07.2017 13:24 15,3 °C 15,6 °C 71 % 1020,9 hPa 0,0 mm 5,5 km/h (1 Bft) W-NW 290 ° 1 min 0,000 mm 4,6 UV-I 436 W/m² 10,1 °C 15,3 °C 8,0 km/h (2 Bft)
15.07.2017 13:25 15,2 °C 15,3 °C 71 % 1020,9 hPa 0,0 mm 1,6 km/h (1 Bft) W-NW 290 ° 1 min 0,000 mm 3,7 UV-I 374 W/m² 10,0 °C 15,2 °C 4,8 km/h (1 Bft)
15.07.2017 13:26 15,1 °C 15,2 °C 71 % 1021,0 hPa 0,0 mm 0,0 km/h (0 Bft) W-NW 290 ° 1 min 0,000 mm 3,1 UV-I 334 W/m² 9,9 °C 15,1 °C 0,0 km/h (0 Bft)
15.07.2017 13:27 15,1 °C 15,1 °C 75 % 1020,9 hPa 0,0 mm 0,1 km/h (0 Bft) W-NW 290 ° 1 min 0,000 mm 2,7 UV-I 299 W/m² 10,7 °C 15,1 °C 1,6 km/h (1 Bft)
15.07.2017 13:28 15,1 °C 15,1 °C 75 % 1021,0 hPa 0,0 mm 2,7 km/h (1 Bft) SW 231 ° 0 min 0,000 mm 2,5 UV-I 272 W/m² 10,7 °C 15,1 °C 4,8 km/h (1 Bft)
15.07.2017 13:29 14,9 °C 15,1 °C 72 % 1020,9 hPa 0,0 mm 1,9 km/h (1 Bft) S-SW 195 ° 0 min 0,000 mm 2,5 UV-I 241 W/m² 9,9 °C 14,9 °C 4,8 km/h (1 Bft)
15.07.2017 13:30 14,8 °C 14,9 °C 72 % 1020,9 hPa 0,0 mm 4,8 km/h (1 Bft) W 269 ° 0 min 0,000 mm 1,9 UV-I 216 W/m² 9,8 °C 14,8 °C 6,4 km/h (2 Bft)
15.07.2017 13:31 14,7 °C 14,8 °C 75 % 1021,0 hPa 0,0 mm 4,6 km/h (1 Bft) W 269 ° 0 min 0,000 mm 1,6 UV-I 193 W/m² 10,3 °C 14,7 °C 4,8 km/h (1 Bft)
15.07.2017 13:32 14,6 °C 14,7 °C 75 % 1021,0 hPa 0,0 mm 1,9 km/h (1 Bft) W 269 ° 0 min 0,000 mm 1,6 UV-I 169 W/m² 10,2 °C 14,6 °C 3,2 km/h (1 Bft)
15.07.2017 13:33 14,6 °C 14,6 °C 74 % 1020,9 hPa 0,0 mm 1,0 km/h (0 Bft) W 269 ° 0 min 0,000 mm 1,3 UV-I 149 W/m² 10,0 °C 14,6 °C 3,2 km/h (1 Bft)
15.07.2017 13:34 14,6 °C 14,6 °C 74 % 1021,0 hPa 0,0 mm 1,6 km/h (1 Bft) W 269 ° 0 min 0,000 mm 1,2 UV-I 139 W/m² 10,0 °C 14,6 °C 3,2 km/h (1 Bft)
15.07.2017 13:35 14,6 °C 14,6 °C 74 % 1021,0 hPa 0,0 mm 3,2 km/h (1 Bft) SW 227 ° 0 min 0,000 mm 1,3 UV-I 165 W/m² 10,0 °C 14,6 °C 6,4 km/h (2 Bft)
15.07.2017 13:36 14,6 °C 14,6 °C 75 % 1021,0 hPa 0,0 mm 4,2 km/h (1 Bft) W-SW 255 ° 0 min 0,000 mm 1,9 UV-I 195 W/m² 10,2 °C 14,6 °C 6,4 km/h (2 Bft)
15.07.2017 13:37 14,6 °C 14,6 °C 75 % 1021,0 hPa 0,0 mm 9,4 km/h (2 Bft) W 267 ° 0 min 0,000 mm 2,4 UV-I 234 W/m² 10,2 °C 14,6 °C 11,3 km/h (2 Bft)
15.07.2017 13:38 14,5 °C 14,6 °C 76 % 1021,0 hPa 0,0 mm 5,4 km/h (1 Bft) W 265 ° 1 min 0,000 mm 3,0 UV-I 309 W/m² 10,3 °C 14,5 °C 6,4 km/h (2 Bft)
15.07.2017 13:39 14,6 °C 14,6 °C 76 % 1021,0 hPa 0,0 mm 5,1 km/h (1 Bft) W-NW 285 ° 0 min 0,000 mm 3,4 UV-I 248 W/m² 10,4 °C 14,6 °C 9,7 km/h (2 Bft)
15.07.2017 13:40 14,6 °C 14,6 °C 75 % 1021,0 hPa 0,0 mm 8,3 km/h (2 Bft) W-NW 289 ° 0 min 0,000 mm 3,9 UV-I 248 W/m² 10,2 °C 14,6 °C 12,9 km/h (3 Bft)
15.07.2017 13:41 14,8 °C 14,8 °C 74 % 1021,0 hPa 0,0 mm 3,7 km/h (1 Bft) W-NW 301 ° 0 min 0,000 mm 7,0 UV-I 248 W/m² 10,2 °C 14,8 °C 4,8 km/h (1 Bft)
15.07.2017 13:42 14,8 °C 14,8 °C 73 % 1021,0 hPa 0,0 mm 6,5 km/h (2 Bft) NW 321 ° 0 min 0,000 mm 2,8 UV-I 248 W/m² 10,0 °C 14,8 °C 12,9 km/h (3 Bft)
15.07.2017 13:43 15,0 °C 15,0 °C 76 % 1021,0 hPa 0,0 mm 6,1 km/h (2 Bft) W-NW 287 ° 0 min 0,000 mm 2,5 UV-I 260 W/m² 10,8 °C 15,0 °C 9,7 km/h (2 Bft)
15.07.2017 13:44 15,1 °C 15,1 °C 75 % 1021,0 hPa 0,0 mm 8,2 km/h (2 Bft) NW 317 ° 0 min 0,000 mm 2,3 UV-I 234 W/m² 10,7 °C 15,1 °C 12,9 km/h (3 Bft)
15.07.2017 13:45 15,2 °C 15,2 °C 72 % 1021,0 hPa 0,0 mm 4,6 km/h (1 Bft) NW 309 ° 0 min 0,000 mm 2,1 UV-I 211 W/m² 10,2 °C 15,2 °C 8,0 km/h (2 Bft)
15.07.2017 13:46 15,1 °C 15,2 °C 72 % 1021,0 hPa 0,0 mm 3,3 km/h (1 Bft) N 355 ° 0 min 0,000 mm 1,9 UV-I 190 W/m² 10,1 °C 15,1 °C 4,8 km/h (1 Bft)
15.07.2017 13:47 15,0 °C 15,1 °C 73 % 1021,0 hPa 0,0 mm 4,1 km/h (1 Bft) N-NO 21 ° 0 min 0,000 mm 1,5 UV-I 151 W/m² 10,2 °C 15,0 °C 8,0 km/h (2 Bft)
15.07.2017 13:48 14,9 °C 15,0 °C 71 % 1021,0 hPa 0,0 mm 5,6 km/h (1 Bft) N 360 ° 0 min 0,000 mm 1,3 UV-I 139 W/m² 9,7 °C 14,9 °C 11,3 km/h (2 Bft)
15.07.2017 13:49 14,8 °C 14,9 °C 71 % 1021,0 hPa 0,0 mm 4,6 km/h (1 Bft) NW 322 ° 0 min 0,000 mm 1,2 UV-I 128 W/m² 9,6 °C 14,8 °C 6,4 km/h (2 Bft)
15.07.2017 13:50 14,7 °C 14,8 °C 72 % 1021,0 hPa 0,0 mm 3,0 km/h (1 Bft) N-NW 340 ° 0 min 0,000 mm 1,2 UV-I 120 W/m² 9,7 °C 14,7 °C 6,4 km/h (2 Bft)
15.07.2017 13:51 14,7 °C 14,7 °C 74 % 1021,0 hPa 0,0 mm 3,1 km/h (1 Bft) N-NO 14 ° 0 min 0,000 mm 1,0 UV-I 116 W/m² 10,1 °C 14,7 °C 6,4 km/h (2 Bft)
15.07.2017 13:52 14,6 °C 14,7 °C 72 % 1021,0 hPa 0,0 mm 8,5 km/h (2 Bft) NO 38 ° 0 min 0,000 mm 1,0 UV-I 130 W/m² 9,6 °C 14,6 °C 11,3 km/h (2 Bft)
15.07.2017 13:53 14,5 °C 14,6 °C 72 % 1021,0 hPa 0,0 mm 4,4 km/h (1 Bft) NO 53 ° 0 min 0,000 mm 1,4 UV-I 146 W/m² 9,5 °C 14,5 °C 9,7 km/h (2 Bft)
15.07.2017 13:54 14,4 °C 14,6 °C 73 % 1021,0 hPa 0,0 mm 0,4 km/h (0 Bft) NO 53 ° 0 min 0,000 mm 1,7 UV-I 169 W/m² 9,6 °C 14,4 °C 1,6 km/h (1 Bft)
15.07.2017 13:55 14,4 °C 14,4 °C 72 % 1021,0 hPa 0,0 mm 2,5 km/h (1 Bft) N-NO 26 ° 0 min 0,000 mm 2,2 UV-I 211 W/m² 9,4 °C 14,4 °C 4,8 km/h (1 Bft)
15.07.2017 13:56 14,4 °C 14,4 °C 73 % 1021,0 hPa 0,0 mm 7,9 km/h (2 Bft) N 11 ° 0 min 0,000 mm 2,7 UV-I 276 W/m² 9,6 °C 14,4 °C 11,3 km/h (2 Bft)
15.07.2017 13:57 14,3 °C 14,4 °C 71 % 1021,0 hPa 0,0 mm 5,9 km/h (2 Bft) N-NO 19 ° 0 min 0,000 mm 3,3 UV-I 276 W/m² 9,1 °C 14,3 °C 8,0 km/h (2 Bft)
15.07.2017 13:58 14,4 °C 14,4 °C 71 % 1021,0 hPa 0,0 mm 5,7 km/h (1 Bft) N 10 ° 1 min 0,000 mm 2,8 UV-I 343 W/m² 9,2 °C 14,4 °C 8,0 km/h (2 Bft)
15.07.2017 13:59 14,4 °C 14,4 °C 71 % 1021,0 hPa 0,0 mm 3,3 km/h (1 Bft) N-NW 327 ° 1 min 0,000 mm 3,1 UV-I 306 W/m² 9,2 °C 14,4 °C 4,8 km/h (1 Bft)
15.07.2017 14:00 14,4 °C 14,4 °C 72 % 1021,0 hPa 0,0 mm 5,1 km/h (1 Bft) N-NW 332 ° 1 min 0,000 mm 2,9 UV-I 309 W/m² 9,4 °C 14,4 °C 6,4 km/h (2 Bft)
15.07.2017 14:01 14,4 °C 14,4 °C 73 % 1021,0 hPa 0,0 mm 1,6 km/h (1 Bft) N-NW 332 ° 1 min 0,203 mm 2,9 UV-I 309 W/m² 9,6 °C 14,4 °C 3,2 km/h (1 Bft)
15.07.2017 14:02 14,5 °C 14,5 °C 72 % 1021,0 hPa 0,0 mm 2,0 km/h (1 Bft) N-NW 332 ° 1 min 0,000 mm 2,8 UV-I 297 W/m² 9,5 °C 14,5 °C 3,2 km/h (1 Bft)
15.07.2017 14:03 14,5 °C 14,5 °C 72 % 1021,0 hPa 0,0 mm 0,1 km/h (0 Bft) N-NW 332 ° 0 min 0,000 mm 2,6 UV-I 274 W/m² 9,5 °C 14,5 °C 1,6 km/h (1 Bft)
15.07.2017 14:04 14,6 °C 14,6 °C 74 % 1021,0 hPa 0,0 mm 0,0 km/h (0 Bft) N-NW 332 ° 0 min 0,000 mm 2,4 UV-I 255 W/m² 10,0 °C 14,6 °C 0,0 km/h (0 Bft)
15.07.2017 14:05 14,6 °C 14,6 °C 75 % 1021,0 hPa 0,0 mm 0,3 km/h (0 Bft) N-NW 337 ° 0 min 0,000 mm 2,4 UV-I 248 W/m² 10,2 °C 14,6 °C 3,2 km/h (1 Bft)
15.07.2017 14:06 14,7 °C 14,7 °C 75 % 1021,0 hPa 0,0 mm 1,8 km/h (1 Bft) N-NW 337 ° 0 min 0,000 mm 2,3 UV-I 241 W/m² 10,3 °C 14,7 °C 4,8 km/h (1 Bft)
15.07.2017 14:07 14,8 °C 14,8 °C 77 % 1021,0 hPa 0,0 mm 1,9 km/h (1 Bft) N-NW 337 ° 0 min 0,000 mm 2,2 UV-I 225 W/m² 10,8 °C 14,8 °C 4,8 km/h (1 Bft)
15.07.2017 14:08 14,8 °C 14,8 °C 74 % 1021,0 hPa 0,0 mm 1,2 km/h (1 Bft) N-NW 337 ° 0 min 0,000 mm 2,2 UV-I 209 W/m² 10,2 °C 14,8 °C 3,2 km/h (1 Bft)
15.07.2017 14:09 14,9 °C 14,9 °C 73 % 1021,0 hPa 0,0 mm 1,2 km/h (1 Bft) N-NW 337 ° 0 min 0,000 mm 2,2 UV-I 197 W/m² 10,1 °C 14,9 °C 1,6 km/h (1 Bft)
15.07.2017 14:10 14,9 °C 14,9 °C 76 % 1021,0 hPa 0,0 mm 0,6 km/h (0 Bft) N-NW 336 ° 0 min 0,000 mm 1,8 UV-I 185 W/m² 10,7 °C 14,9 °C 1,6 km/h (1 Bft)
15.07.2017 14:11 14,8 °C 14,9 °C 73 % 1021,0 hPa 0,0 mm 0,0 km/h (0 Bft) N-NW 336 ° 0 min 0,000 mm 1,9 UV-I 185 W/m² 10,0 °C 14,8 °C 0,0 km/h (0 Bft)
15.07.2017 14:12 14,8 °C 14,8 °C 72 % 1021,0 hPa 0,0 mm 0,1 km/h (0 Bft) N-NW 336 ° 0 min 0,000 mm 2,0 UV-I 193 W/m² 9,8 °C 14,8 °C 1,6 km/h (1 Bft)
15.07.2017 14:13 14,8 °C 14,8 °C 74 % 1021,0 hPa 0,0 mm 3,2 km/h (1 Bft) S-SW 213 ° 0 min 0,000 mm 2,1 UV-I 204 W/m² 10,2 °C 14,8 °C 6,4 km/h (2 Bft)
15.07.2017 14:14 14,8 °C 14,8 °C 71 % 1021,0 hPa 0,0 mm 3,2 km/h (1 Bft) N-NW 333 ° 0 min 0,000 mm 2,3 UV-I 213 W/m² 9,6 °C 14,8 °C 4,8 km/h (1 Bft)
15.07.2017 14:15 14,7 °C 14,8 °C 71 % 1021,0 hPa 0,0 mm 1,0 km/h (0 Bft) N-NW 333 ° 0 min 0,000 mm 2,5 UV-I 227 W/m² 9,5 °C 14,7 °C 3,2 km/h (1 Bft)
15.07.2017 14:16 14,7 °C 14,7 °C 73 % 1021,0 hPa 0,0 mm 2,2 km/h (1 Bft) NW 316 ° 1 min 0,000 mm 2,7 UV-I 302 W/m² 9,9 °C 14,7 °C 3,2 km/h (1 Bft)
15.07.2017 14:17 14,8 °C 14,8 °C 74 % 1021,0 hPa 0,0 mm 0,1 km/h (0 Bft) NW 316 ° 1 min 0,000 mm 3,9 UV-I 329 W/m² 10,2 °C 14,8 °C 1,6 km/h (1 Bft)
15.07.2017 14:18 14,8 °C 14,8 °C 71 % 1021,0 hPa 0,0 mm 0,0 km/h (0 Bft) NW 316 ° 1 min 0,000 mm 4,8 UV-I 329 W/m² 9,6 °C 14,8 °C 0,0 km/h (0 Bft)
15.07.2017 14:19 14,9 °C 14,9 °C 74 % 1021,0 hPa 0,0 mm 2,2 km/h (1 Bft) NW 307 ° 1 min 0,000 mm 6,9 UV-I 962 W/m² 10,3 °C 14,9 °C 4,8 km/h (1 Bft)
15.07.2017 14:20 15,1 °C 15,1 °C 71 % 1021,0 hPa 0,0 mm 3,2 km/h (1 Bft) NW 318 ° 1 min 0,000 mm 7,1 UV-I 1032 W/m² 9,9 °C 15,1 °C 6,4 km/h (2 Bft)
15.07.2017 14:21 15,3 °C 15,3 °C 73 % 1021,0 hPa 0,0 mm 2,5 km/h (1 Bft) W-NW 289 ° 1 min 0,000 mm 7,2 UV-I 1018 W/m² 10,5 °C 15,3 °C 6,4 km/h (2 Bft)
15.07.2017 14:22 15,6 °C 15,6 °C 74 % 1021,0 hPa 0,0 mm 8,0 km/h (2 Bft) W 273 ° 1 min 0,000 mm 7,1 UV-I 1018 W/m² 11,0 °C 15,6 °C 11,3 km/h (2 Bft)
15.07.2017 14:23 15,9 °C 15,9 °C 73 % 1021,0 hPa 0,0 mm 5,9 km/h (2 Bft) W-SW 243 ° 1 min 0,000 mm 6,9 UV-I 1023 W/m² 11,1 °C 15,9 °C 8,0 km/h (2 Bft)
15.07.2017 14:24 16,1 °C 16,1 °C 73 % 1021,0 hPa 0,0 mm 3,3 km/h (1 Bft) SW 235 ° 1 min 0,000 mm 3,3 UV-I 1023 W/m² 11,3 °C 16,1 °C 8,0 km/h (2 Bft)
15.07.2017 14:25 16,1 °C 16,1 °C 69 % 1021,0 hPa 0,0 mm 1,4 km/h (1 Bft) SW 235 ° 0 min 0,000 mm 3,3 UV-I 236 W/m² 10,4 °C 16,1 °C 3,2 km/h (1 Bft)
15.07.2017 14:26 15,9 °C 16,1 °C 70 % 1021,0 hPa 0,0 mm 0,8 km/h (0 Bft) W-SW 238 ° 0 min 0,000 mm 3,3 UV-I 267 W/m² 10,4 °C 15,9 °C 1,6 km/h (1 Bft)
15.07.2017 14:27 15,8 °C 15,9 °C 70 % 1021,0 hPa 0,0 mm 3,1 km/h (1 Bft) NW 326 ° 1 min 0,000 mm 6,6 UV-I 357 W/m² 10,3 °C 15,8 °C 4,8 km/h (1 Bft)
15.07.2017 14:28 15,9 °C 15,9 °C 75 % 1021,0 hPa 0,0 mm 5,2 km/h (1 Bft) N 9 ° 1 min 0,000 mm 7,1 UV-I 1116 W/m² 11,5 °C 15,9 °C 6,4 km/h (2 Bft)
15.07.2017 14:29 16,1 °C 16,1 °C 71 % 1021,0 hPa 0,0 mm 5,7 km/h (1 Bft) O-NO 65 ° 1 min 0,000 mm 7,1 UV-I 1111 W/m² 10,8 °C 16,1 °C 8,0 km/h (2 Bft)
15.07.2017 14:30 16,0 °C 16,1 °C 71 % 1020,9 hPa 0,0 mm 5,6 km/h (1 Bft) O-NO 65 ° 1 min 0,000 mm 5,4 UV-I 1111 W/m² 10,7 °C 16,0 °C 6,4 km/h (2 Bft)
15.07.2017 14:31 15,8 °C 16,0 °C 68 % 1020,9 hPa 0,0 mm 4,7 km/h (1 Bft) N-NO 19 ° 1 min 0,000 mm 3,5 UV-I 1111 W/m² 9,9 °C 15,8 °C 8,0 km/h (2 Bft)
15.07.2017 14:32 15,8 °C 15,8 °C 70 % 1020,9 hPa 0,0 mm 4,8 km/h (1 Bft) N-NO 32 ° 1 min 0,000 mm 2,5 UV-I 1111 W/m² 10,3 °C 15,8 °C 8,0 km/h (2 Bft)
15.07.2017 14:33 15,7 °C 15,8 °C 69 % 1020,9 hPa 0,0 mm 7,3 km/h (2 Bft) NO 42 ° 0 min 0,000 mm 1,8 UV-I 128 W/m² 10,0 °C 15,7 °C 9,7 km/h (2 Bft)
15.07.2017 14:34 15,6 °C 15,7 °C 67 % 1021,0 hPa 0,0 mm 2,3 km/h (1 Bft) N-NO 15 ° 0 min 0,000 mm 1,1 UV-I 109 W/m² 9,5 °C 15,6 °C 4,8 km/h (1 Bft)
15.07.2017 14:35 15,5 °C 15,6 °C 69 % 1021,0 hPa 0,0 mm 3,8 km/h (1 Bft) N 350 ° 0 min 0,000 mm 0,9 UV-I 97 W/m² 9,8 °C 15,5 °C 4,8 km/h (1 Bft)
15.07.2017 14:36 15,4 °C 15,5 °C 72 % 1021,0 hPa 0,0 mm 5,9 km/h (2 Bft) O 97 ° 0 min 0,000 mm 0,8 UV-I 86 W/m² 10,4 °C 15,4 °C 9,7 km/h (2 Bft)
15.07.2017 14:37 15,3 °C 15,4 °C 72 % 1021,0 hPa 0,0 mm 4,9 km/h (1 Bft) NO 51 ° 0 min 0,000 mm 0,8 UV-I 83 W/m² 10,3 °C 15,3 °C 8,0 km/h (2 Bft)
15.07.2017 14:38 15,2 °C 15,3 °C 72 % 1021,0 hPa 0,0 mm 5,0 km/h (1 Bft) O-NO 67 ° 0 min 0,000 mm 0,8 UV-I 84 W/m² 10,2 °C 15,2 °C 8,0 km/h (2 Bft)
15.07.2017 14:39 14,9 °C 15,2 °C 74 % 1021,0 hPa 0,0 mm 6,3 km/h (2 Bft) NO 44 ° 0 min 0,000 mm 0,8 UV-I 84 W/m² 10,3 °C 14,9 °C 8,0 km/h (2 Bft)
15.07.2017 14:40 14,8 °C 14,9 °C 74 % 1021,0 hPa 0,0 mm 5,8 km/h (2 Bft) O-NO 73 ° 0 min 0,000 mm 0,7 UV-I 84 W/m² 10,2 °C 14,8 °C 11,3 km/h (2 Bft)
15.07.2017 14:41 14,8 °C 14,8 °C 74 % 1021,0 hPa 0,0 mm 3,3 km/h (1 Bft) O-NO 67 ° 0 min 0,000 mm 0,7 UV-I 88 W/m² 10,2 °C 14,8 °C 4,8 km/h (1 Bft)
15.07.2017 14:42 14,6 °C 14,8 °C 75 % 1021,0 hPa 0,0 mm 2,1 km/h (1 Bft) NO 39 ° 0 min 0,000 mm 0,8 UV-I 93 W/m² 10,2 °C 14,6 °C 8,0 km/h (2 Bft)
15.07.2017 14:43 14,6 °C 14,6 °C 76 % 1021,1 hPa 0,0 mm 5,2 km/h (1 Bft) N 10 ° 0 min 0,000 mm 0,9 UV-I 100 W/m² 10,4 °C 14,6 °C 8,0 km/h (2 Bft)
15.07.2017 14:44 14,6 °C 14,6 °C 75 % 1021,1 hPa 0,0 mm 4,7 km/h (1 Bft) N-NO 13 ° 0 min 0,000 mm 0,9 UV-I 109 W/m² 10,2 °C 14,6 °C 8,0 km/h (2 Bft)
15.07.2017 14:45 14,6 °C 14,7 °C 76 % 1021,1 hPa 0,0 mm 2,9 km/h (1 Bft) N-NO 12 ° 0 min 0,000 mm 1,1 UV-I 134 W/m² 10,4 °C 14,6 °C 4,8 km/h (1 Bft)
15.07.2017 14:46 14,7 °C 14,7 °C 77 % 1021,1 hPa 0,0 mm 3,0 km/h (1 Bft) NO 53 ° 0 min 0,000 mm 1,2 UV-I 142 W/m² 10,7 °C 14,7 °C 4,8 km/h (1 Bft)
15.07.2017 14:47 14,6 °C 14,7 °C 75 % 1021,1 hPa 0,0 mm 0,9 km/h (0 Bft) NO 54 ° 0 min 0,000 mm 1,3 UV-I 151 W/m² 10,2 °C 14,6 °C 3,2 km/h (1 Bft)
15.07.2017 14:48 14,7 °C 14,7 °C 75 % 1021,1 hPa 0,0 mm 0,6 km/h (0 Bft) NO 53 ° 0 min 0,000 mm 1,4 UV-I 162 W/m² 10,3 °C 14,7 °C 1,6 km/h (1 Bft)
15.07.2017 14:49 14,6 °C 14,7 °C 78 % 1021,1 hPa 0,0 mm 0,3 km/h (0 Bft) NO 53 ° 0 min 0,000 mm 2,9 UV-I 162 W/m² 10,8 °C 14,6 °C 1,6 km/h (1 Bft)
15.07.2017 14:50 14,6 °C 14,6 °C 75 % 1021,1 hPa 0,0 mm 1,2 km/h (1 Bft) NO 53 ° 0 min 0,000 mm 1,7 UV-I 162 W/m² 10,2 °C 14,6 °C 3,2 km/h (1 Bft)
15.07.2017 14:51 14,6 °C 14,6 °C 74 % 1021,1 hPa 0,0 mm 0,7 km/h (0 Bft) NO 53 ° 0 min 0,000 mm 1,6 UV-I 169 W/m² 10,0 °C 14,6 °C 3,2 km/h (1 Bft)
15.07.2017 14:52 14,5 °C 14,6 °C 75 % 1021,2 hPa 0,0 mm 0,0 km/h (0 Bft) NO 54 ° 0 min 0,000 mm 1,4 UV-I 163 W/m² 10,1 °C 14,5 °C 0,0 km/h (0 Bft)
15.07.2017 14:53 14,5 °C 14,6 °C 77 % 1021,2 hPa 0,0 mm 1,1 km/h (1 Bft) NO 53 ° 0 min 0,000 mm 1,3 UV-I 153 W/m² 10,5 °C 14,5 °C 3,2 km/h (1 Bft)
15.07.2017 14:54 14,4 °C 14,5 °C 76 % 1021,1 hPa 0,0 mm 5,0 km/h (1 Bft) O-NO 63 ° 0 min 0,000 mm 1,3 UV-I 148 W/m² 10,2 °C 14,4 °C 6,4 km/h (2 Bft)
15.07.2017 14:55 14,4 °C 14,4 °C 79 % 1021,2 hPa 0,0 mm 2,6 km/h (1 Bft) O-NO 66 ° 0 min 0,000 mm 1,2 UV-I 141 W/m² 10,8 °C 14,4 °C 4,8 km/h (1 Bft)
15.07.2017 14:56 14,4 °C 14,4 °C 76 % 1021,2 hPa 0,0 mm 1,9 km/h (1 Bft) O-NO 66 ° 0 min 0,000 mm 1,2 UV-I 139 W/m² 10,2 °C 14,4 °C 3,2 km/h (1 Bft)
15.07.2017 14:57 14,3 °C 14,4 °C 76 % 1021,2 hPa 0,0 mm 3,3 km/h (1 Bft) O-NO 66 ° 0 min 0,000 mm 1,1 UV-I 128 W/m² 10,1 °C 14,3 °C 4,8 km/h (1 Bft)
15.07.2017 14:58 14,3 °C 14,3 °C 75 % 1021,2 hPa 0,0 mm 1,9 km/h (1 Bft) O-NO 66 ° 0 min 0,000 mm 1,0 UV-I 128 W/m² 9,9 °C 14,3 °C 3,2 km/h (1 Bft)
15.07.2017 14:59 14,2 °C 14,3 °C 76 % 1021,2 hPa 0,0 mm 2,0 km/h (1 Bft) O-NO 66 ° 0 min 0,000 mm 1,0 UV-I 118 W/m² 10,0 °C 14,2 °C 3,2 km/h (1 Bft)
15.07.2017 15:00 14,2 °C 14,2 °C 77 % 1021,2 hPa 0,0 mm 1,6 km/h (1 Bft) O-NO 66 ° 0 min 0,178 mm 1,0 UV-I 120 W/m² 10,2 °C 14,2 °C 3,2 km/h (1 Bft)
15.07.2017 15:01 14,2 °C 14,2 °C 78 % 1021,2 hPa 0,0 mm 2,9 km/h (1 Bft) O-NO 66 ° 0 min 0,000 mm 1,0 UV-I 125 W/m² 10,4 °C 14,2 °C 4,8 km/h (1 Bft)
15.07.2017 15:02 14,2 °C 14,2 °C 80 % 1021,1 hPa 0,0 mm 1,1 km/h (1 Bft) O-NO 66 ° 0 min 0,000 mm 1,0 UV-I 144 W/m² 10,8 °C 14,2 °C 3,2 km/h (1 Bft)
15.07.2017 15:03 14,1 °C 14,2 °C 80 % 1021,1 hPa 0,0 mm 0,0 km/h (0 Bft) O-NO 66 ° 0 min 0,000 mm 1,2 UV-I 160 W/m² 10,7 °C 14,1 °C 0,0 km/h (0 Bft)
15.07.2017 15:04 14,1 °C 14,1 °C 79 % 1021,2 hPa 0,0 mm 0,7 km/h (0 Bft) O-NO 66 ° 0 min 0,000 mm 1,4 UV-I 183 W/m² 10,5 °C 14,1 °C 3,2 km/h (1 Bft)
15.07.2017 15:05 14,1 °C 14,1 °C 79 % 1021,2 hPa 0,0 mm 3,0 km/h (1 Bft) O-NO 65 ° 0 min 0,000 mm 1,5 UV-I 185 W/m² 10,5 °C 14,1 °C 4,8 km/h (1 Bft)
15.07.2017 15:06 14,2 °C 14,2 °C 80 % 1021,2 hPa 0,0 mm 2,5 km/h (1 Bft) O-NO 65 ° 0 min 0,000 mm 1,6 UV-I 195 W/m² 10,8 °C 14,2 °C 4,8 km/h (1 Bft)
15.07.2017 15:07 14,2 °C 14,2 °C 80 % 1021,2 hPa 0,0 mm 1,1 km/h (1 Bft) O-NO 65 ° 0 min 0,000 mm 1,9 UV-I 218 W/m² 10,8 °C 14,2 °C 1,6 km/h (1 Bft)
15.07.2017 15:08 14,3 °C 14,3 °C 79 % 1021,2 hPa 0,0 mm 1,8 km/h (1 Bft) O-NO 65 ° 0 min 0,000 mm 2,3 UV-I 255 W/m² 10,7 °C 14,3 °C 3,2 km/h (1 Bft)
15.07.2017 15:09 14,3 °C 14,3 °C 79 % 1021,2 hPa 0,0 mm 0,1 km/h (0 Bft) O-NO 65 ° 1 min 0,000 mm 3,2 UV-I 381 W/m² 10,7 °C 14,3 °C 1,6 km/h (1 Bft)
15.07.2017 15:10 14,4 °C 14,4 °C 79 % 1021,2 hPa 0,0 mm 0,0 km/h (0 Bft) O-NO 65 ° 1 min 0,000 mm 3,8 UV-I 410 W/m² 10,8 °C 14,4 °C 0,0 km/h (0 Bft)
15.07.2017 15:11 14,5 °C 14,5 °C 78 % 1021,2 hPa 0,0 mm 0,1 km/h (0 Bft) O-NO 65 ° 1 min 0,000 mm 4,7 UV-I 489 W/m² 10,7 °C 14,5 °C 1,6 km/h (1 Bft)
15.07.2017 15:12 14,7 °C 14,7 °C 81 % 1021,2 hPa 0,0 mm 1,3 km/h (1 Bft) O-NO 65 ° 1 min 0,000 mm 3,3 UV-I 489 W/m² 11,5 °C 14,7 °C 3,2 km/h (1 Bft)
15.07.2017 15:13 14,7 °C 14,7 °C 76 % 1021,2 hPa 0,0 mm 2,3 km/h (1 Bft) O-NO 65 ° 0 min 0,000 mm 3,0 UV-I 281 W/m² 10,5 °C 14,7 °C 4,8 km/h (1 Bft)
15.07.2017 15:14 14,8 °C 14,8 °C 75 % 1021,2 hPa 0,0 mm 2,1 km/h (1 Bft) O-NO 65 ° 0 min 0,000 mm 2,7 UV-I 192 W/m² 10,4 °C 14,8 °C 3,2 km/h (1 Bft)
15.07.2017 15:15 14,8 °C 14,8 °C 75 % 1021,2 hPa 0,0 mm 2,0 km/h (1 Bft) O-NO 66 ° 0 min 0,000 mm 2,3 UV-I 171 W/m² 10,4 °C 14,8 °C 6,4 km/h (2 Bft)
15.07.2017 15:16 14,8 °C 14,8 °C 75 % 1021,2 hPa 0,0 mm 5,3 km/h (1 Bft) N-NO 15 ° 0 min 0,000 mm 2,2 UV-I 171 W/m² 10,4 °C 14,8 °C 8,0 km/h (2 Bft)
15.07.2017 15:17 14,8 °C 14,8 °C 75 % 1021,2 hPa 0,0 mm 2,2 km/h (1 Bft) O-NO 70 ° 0 min 0,000 mm 2,2 UV-I 163 W/m² 10,4 °C 14,8 °C 4,8 km/h (1 Bft)
15.07.2017 15:18 14,7 °C 14,8 °C 77 % 1021,2 hPa 0,0 mm 6,2 km/h (2 Bft) O-NO 64 ° 0 min 0,000 mm 2,3 UV-I 172 W/m² 10,7 °C 14,7 °C 8,0 km/h (2 Bft)
15.07.2017 15:19 14,7 °C 14,8 °C 78 % 1021,2 hPa 0,0 mm 4,2 km/h (1 Bft) O-NO 67 ° 0 min 0,000 mm 2,4 UV-I 188 W/m² 10,9 °C 14,7 °C 6,4 km/h (2 Bft)
15.07.2017 15:20 14,7 °C 14,7 °C 75 % 1021,2 hPa 0,0 mm 4,3 km/h (1 Bft) O 82 ° 0 min 0,000 mm 2,4 UV-I 229 W/m² 10,3 °C 14,7 °C 6,4 km/h (2 Bft)
15.07.2017 15:21 14,6 °C 14,7 °C 77 % 1021,2 hPa 0,0 mm 3,7 km/h (1 Bft) NO 51 ° 0 min 0,000 mm 3,2 UV-I 248 W/m² 10,6 °C 14,6 °C 4,8 km/h (1 Bft)
15.07.2017 15:22 14,6 °C 14,6 °C 77 % 1021,2 hPa 0,0 mm 2,6 km/h (1 Bft) O-NO 71 ° 0 min 0,000 mm 5,7 UV-I 248 W/m² 10,6 °C 14,6 °C 4,8 km/h (1 Bft)
15.07.2017 15:23 14,6 °C 14,6 °C 76 % 1021,2 hPa 0,0 mm 3,0 km/h (1 Bft) O-SO 117 ° 1 min 0,000 mm 5,8 UV-I 900 W/m² 10,4 °C 14,6 °C 4,8 km/h (1 Bft)
15.07.2017 15:24 14,7 °C 14,7 °C 76 % 1021,2 hPa 0,0 mm 2,6 km/h (1 Bft) O-NO 59 ° 1 min 0,000 mm 5,6 UV-I 854 W/m² 10,5 °C 14,7 °C 4,8 km/h (1 Bft)
15.07.2017 15:25 14,9 °C 14,9 °C 76 % 1021,2 hPa 0,0 mm 3,9 km/h (1 Bft) O-NO 62 ° 1 min 0,000 mm 5,7 UV-I 835 W/m² 10,7 °C 14,9 °C 6,4 km/h (2 Bft)
15.07.2017 15:26 15,0 °C 15,0 °C 74 % 1021,2 hPa 0,0 mm 3,5 km/h (1 Bft) O-NO 63 ° 1 min 0,000 mm 5,7 UV-I 823 W/m² 10,4 °C 15,0 °C 4,8 km/h (1 Bft)
15.07.2017 15:27 15,1 °C 15,1 °C 78 % 1021,2 hPa 0,0 mm 2,7 km/h (1 Bft) O-NO 73 ° 1 min 0,000 mm 5,7 UV-I 821 W/m² 11,3 °C 15,1 °C 4,8 km/h (1 Bft)
15.07.2017 15:28 15,2 °C 15,2 °C 74 % 1021,2 hPa 0,0 mm 3,4 km/h (1 Bft) O-NO 73 ° 1 min 0,000 mm 5,6 UV-I 807 W/m² 10,6 °C 15,2 °C 4,8 km/h (1 Bft)
15.07.2017 15:29 15,3 °C 15,3 °C 74 % 1021,1 hPa 0,0 mm 3,5 km/h (1 Bft) O-NO 64 ° 1 min 0,000 mm 5,7 UV-I 824 W/m² 10,7 °C 15,3 °C 8,0 km/h (2 Bft)
15.07.2017 15:30 15,3 °C 15,3 °C 74 % 1021,1 hPa 0,0 mm 2,7 km/h (1 Bft) NO 42 ° 1 min 0,000 mm 5,7 UV-I 833 W/m² 10,7 °C 15,3 °C 6,4 km/h (2 Bft)
15.07.2017 15:31 15,4 °C 15,4 °C 74 % 1021,1 hPa 0,0 mm 2,4 km/h (1 Bft) N-NW 333 ° 1 min 0,000 mm 5,8 UV-I 853 W/m² 10,8 °C 15,4 °C 4,8 km/h (1 Bft)
15.07.2017 15:32 15,4 °C 15,4 °C 72 % 1021,1 hPa 0,0 mm 1,3 km/h (1 Bft) N-NW 333 ° 1 min 0,000 mm 5,8 UV-I 882 W/m² 10,4 °C 15,4 °C 3,2 km/h (1 Bft)
15.07.2017 15:33 15,6 °C 15,6 °C 75 % 1021,1 hPa 0,0 mm 1,1 km/h (1 Bft) N-NW 332 ° 1 min 0,000 mm 5,9 UV-I 898 W/m² 11,2 °C 15,6 °C 3,2 km/h (1 Bft)
15.07.2017 15:34 15,7 °C 15,7 °C 72 % 1021,1 hPa 0,0 mm 3,8 km/h (1 Bft) S-SW 193 ° 1 min 0,000 mm 5,8 UV-I 898 W/m² 10,7 °C 15,7 °C 6,4 km/h (2 Bft)
15.07.2017 15:35 15,8 °C 15,8 °C 71 % 1021,1 hPa 0,0 mm 2,0 km/h (1 Bft) SO 132 ° 1 min 0,000 mm 5,8 UV-I 902 W/m² 10,6 °C 15,8 °C 3,2 km/h (1 Bft)
15.07.2017 15:36 15,8 °C 15,8 °C 73 % 1021,1 hPa 0,0 mm 1,3 km/h (1 Bft) O-NO 67 ° 1 min 0,000 mm 5,9 UV-I 912 W/m² 11,0 °C 15,8 °C 4,8 km/h (1 Bft)
15.07.2017 15:37 16,1 °C 16,1 °C 78 % 1021,0 hPa 0,0 mm 1,4 km/h (1 Bft) O-NO 67 ° 1 min 0,000 mm 5,8 UV-I 916 W/m² 12,3 °C 16,1 °C 3,2 km/h (1 Bft)
15.07.2017 15:38 16,3 °C 16,3 °C 75 % 1021,0 hPa 0,0 mm 0,7 km/h (0 Bft) O-NO 67 ° 1 min 0,000 mm 5,8 UV-I 916 W/m² 11,9 °C 16,3 °C 1,6 km/h (1 Bft)
15.07.2017 15:39 16,4 °C 16,4 °C 73 % 1021,0 hPa 0,0 mm 3,3 km/h (1 Bft) O-NO 67 ° 1 min 0,000 mm 3,7 UV-I 306 W/m² 11,5 °C 16,4 °C 6,4 km/h (2 Bft)
15.07.2017 15:40 16,4 °C 16,4 °C 73 % 1021,0 hPa 0,0 mm 4,9 km/h (1 Bft) O-NO 78 ° 0 min 0,000 mm 2,9 UV-I 227 W/m² 11,5 °C 16,4 °C 6,4 km/h (2 Bft)
15.07.2017 15:41 16,4 °C 16,5 °C 74 % 1021,0 hPa 0,0 mm 3,0 km/h (1 Bft) O-NO 61 ° 0 min 0,000 mm 2,8 UV-I 278 W/m² 11,8 °C 16,4 °C 4,8 km/h (1 Bft)
15.07.2017 15:42 16,3 °C 16,4 °C 68 % 1021,0 hPa 0,0 mm 1,1 km/h (1 Bft) O-NO 61 ° 0 min 0,000 mm 2,7 UV-I 229 W/m² 10,4 °C 16,3 °C 3,2 km/h (1 Bft)
15.07.2017 15:43 16,0 °C 16,3 °C 68 % 1021,0 hPa 0,0 mm 0,9 km/h (0 Bft) O-NO 61 ° 0 min 0,000 mm 2,6 UV-I 227 W/m² 10,1 °C 16,0 °C 1,6 km/h (1 Bft)
15.07.2017 15:44 15,8 °C 16,0 °C 69 % 1021,0 hPa 0,0 mm 3,8 km/h (1 Bft) N-NW 338 ° 0 min 0,000 mm 2,4 UV-I 204 W/m² 10,1 °C 15,8 °C 6,4 km/h (2 Bft)
15.07.2017 15:45 15,7 °C 15,8 °C 69 % 1021,0 hPa 0,0 mm 3,1 km/h (1 Bft) N-NW 348 ° 0 min 0,000 mm 2,2 UV-I 200 W/m² 10,0 °C 15,7 °C 6,4 km/h (2 Bft)
15.07.2017 15:46 15,7 °C 15,7 °C 69 % 1021,0 hPa 0,0 mm 1,7 km/h (1 Bft) N-NW 348 ° 0 min 0,000 mm 2,1 UV-I 186 W/m² 10,0 °C 15,7 °C 3,2 km/h (1 Bft)
15.07.2017 15:47 15,7 °C 15,7 °C 68 % 1021,0 hPa 0,0 mm 0,6 km/h (0 Bft) N-NW 348 ° 0 min 0,000 mm 1,9 UV-I 186 W/m² 9,8 °C 15,7 °C 1,6 km/h (1 Bft)
15.07.2017 15:48 15,6 °C 15,7 °C 68 % 1021,0 hPa 0,0 mm 0,7 km/h (0 Bft) N-NW 348 ° 0 min 0,000 mm 1,7 UV-I 151 W/m² 9,7 °C 15,6 °C 1,6 km/h (1 Bft)
15.07.2017 15:49 15,6 °C 15,6 °C 70 % 1021,0 hPa 0,0 mm 2,3 km/h (1 Bft) N-NW 344 ° 0 min 0,000 mm 1,7 UV-I 162 W/m² 10,1 °C 15,6 °C 4,8 km/h (1 Bft)
15.07.2017 15:50 15,5 °C 15,6 °C 71 % 1021,1 hPa 0,0 mm 2,6 km/h (1 Bft) N-NW 344 ° 0 min 0,000 mm 1,8 UV-I 156 W/m² 10,3 °C 15,5 °C 4,8 km/h (1 Bft)
15.07.2017 15:51 15,5 °C 15,5 °C 72 % 1021,1 hPa 0,0 mm 2,7 km/h (1 Bft) N 11 ° 0 min 0,000 mm 1,9 UV-I 160 W/m² 10,5 °C 15,5 °C 8,0 km/h (2 Bft)
15.07.2017 15:52 15,5 °C 15,5 °C 70 % 1021,1 hPa 0,0 mm 7,7 km/h (2 Bft) N-NO 15 ° 0 min 0,000 mm 1,9 UV-I 160 W/m² 10,1 °C 15,5 °C 11,3 km/h (2 Bft)
15.07.2017 15:53 15,5 °C 15,6 °C 68 % 1021,1 hPa 0,0 mm 6,4 km/h (2 Bft) N-NO 23 ° 0 min 0,000 mm 2,0 UV-I 183 W/m² 9,6 °C 15,5 °C 8,0 km/h (2 Bft)
15.07.2017 15:54 15,5 °C 15,5 °C 69 % 1021,1 hPa 0,0 mm 5,0 km/h (1 Bft) N-NW 347 ° 0 min 0,000 mm 2,1 UV-I 207 W/m² 9,8 °C 15,5 °C 8,0 km/h (2 Bft)
15.07.2017 15:55 15,5 °C 15,5 °C 71 % 1021,0 hPa 0,0 mm 4,2 km/h (1 Bft) N-NO 26 ° 0 min 0,000 mm 2,2 UV-I 218 W/m² 10,3 °C 15,5 °C 6,4 km/h (2 Bft)
15.07.2017 15:56 15,5 °C 15,5 °C 71 % 1021,1 hPa 0,0 mm 4,0 km/h (1 Bft) O-NO 67 ° 0 min 0,000 mm 4,2 UV-I 218 W/m² 10,3 °C 15,5 °C 6,4 km/h (2 Bft)
15.07.2017 15:57 15,5 °C 15,5 °C 72 % 1021,1 hPa 0,0 mm 1,1 km/h (1 Bft) O-NO 66 ° 0 min 0,000 mm 2,6 UV-I 218 W/m² 10,5 °C 15,5 °C 4,8 km/h (1 Bft)
15.07.2017 15:58 15,6 °C 15,6 °C 74 % 1021,0 hPa 0,0 mm 4,0 km/h (1 Bft) NO 39 ° 0 min 0,000 mm 2,4 UV-I 218 W/m² 11,0 °C 15,6 °C 6,4 km/h (2 Bft)
15.07.2017 15:59 15,6 °C 15,6 °C 70 % 1021,0 hPa 0,0 mm 1,3 km/h (1 Bft) N-NO 32 ° 0 min 0,000 mm 2,2 UV-I 243 W/m² 10,1 °C 15,6 °C 3,2 km/h (1 Bft)
15.07.2017 16:00 15,6 °C 15,6 °C 68 % 1021,0 hPa 0,0 mm 0,0 km/h (0 Bft) N-NO 32 ° 0 min 0,000 mm 2,0 UV-I 206 W/m² 9,7 °C 15,6 °C 0,0 km/h (0 Bft)
15.07.2017 16:01 15,5 °C 15,6 °C 70 % 1021,0 hPa 0,0 mm 0,5 km/h (0 Bft) N-NO 32 ° 0 min 0,228 mm 1,8 UV-I 176 W/m² 10,1 °C 15,5 °C 3,2 km/h (1 Bft)
15.07.2017 16:02 15,4 °C 15,5 °C 71 % 1021,1 hPa 0,0 mm 0,6 km/h (0 Bft) N-NO 32 ° 0 min 0,000 mm 1,7 UV-I 169 W/m² 10,2 °C 15,4 °C 1,6 km/h (1 Bft)
15.07.2017 16:03 15,5 °C 15,5 °C 72 % 1021,1 hPa 0,0 mm 1,1 km/h (1 Bft) N-NO 32 ° 0 min 0,000 mm 1,5 UV-I 160 W/m² 10,5 °C 15,5 °C 3,2 km/h (1 Bft)
15.07.2017 16:04 15,6 °C 15,6 °C 72 % 1021,1 hPa 0,0 mm 4,5 km/h (1 Bft) N-NO 13 ° 0 min 0,000 mm 1,4 UV-I 148 W/m² 10,6 °C 15,6 °C 8,0 km/h (2 Bft)
15.07.2017 16:05 15,6 °C 15,6 °C 71 % 1021,1 hPa 0,0 mm 2,7 km/h (1 Bft) N-NO 14 ° 0 min 0,000 mm 1,3 UV-I 142 W/m² 10,4 °C 15,6 °C 4,8 km/h (1 Bft)
15.07.2017 16:06 15,7 °C 15,7 °C 70 % 1021,0 hPa 0,0 mm 3,4 km/h (1 Bft) N 360 ° 0 min 0,000 mm 1,4 UV-I 146 W/m² 10,2 °C 15,7 °C 8,0 km/h (2 Bft)
15.07.2017 16:07 15,7 °C 15,7 °C 69 % 1021,1 hPa 0,0 mm 5,8 km/h (2 Bft) NO 55 ° 0 min 0,000 mm 1,5 UV-I 160 W/m² 10,0 °C 15,7 °C 11,3 km/h (2 Bft)
15.07.2017 16:08 15,7 °C 15,7 °C 67 % 1021,1 hPa 0,0 mm 3,1 km/h (1 Bft) N-NO 18 ° 0 min 0,000 mm 1,5 UV-I 160 W/m² 9,6 °C 15,7 °C 4,8 km/h (1 Bft)
15.07.2017 16:09 15,6 °C 15,7 °C 67 % 1021,1 hPa 0,0 mm 3,8 km/h (1 Bft) N 355 ° 0 min 0,000 mm 1,6 UV-I 156 W/m² 9,5 °C 15,6 °C 4,8 km/h (1 Bft)
15.07.2017 16:10 15,6 °C 15,6 °C 69 % 1021,1 hPa 0,0 mm 3,0 km/h (1 Bft) N 360 ° 0 min 0,000 mm 1,6 UV-I 156 W/m² 9,9 °C 15,6 °C 4,8 km/h (1 Bft)
15.07.2017 16:11 15,6 °C 15,6 °C 68 % 1021,1 hPa 0,0 mm 1,5 km/h (1 Bft) N-NO 19 ° 0 min 0,000 mm 1,6 UV-I 162 W/m² 9,7 °C 15,6 °C 3,2 km/h (1 Bft)
15.07.2017 16:12 15,5 °C 15,6 °C 68 % 1021,1 hPa 0,0 mm 0,0 km/h (0 Bft) N-NO 19 ° 0 min 0,000 mm 1,6 UV-I 165 W/m² 9,6 °C 15,5 °C 0,0 km/h (0 Bft)
15.07.2017 16:13 15,4 °C 15,5 °C 67 % 1021,1 hPa 0,0 mm 0,5 km/h (0 Bft) N-NO 17 ° 0 min 0,000 mm 1,7 UV-I 188 W/m² 9,3 °C 15,4 °C 3,2 km/h (1 Bft)
15.07.2017 16:14 15,6 °C 15,6 °C 70 % 1021,1 hPa 0,0 mm 2,7 km/h (1 Bft) N 355 ° 0 min 0,000 mm 1,9 UV-I 225 W/m² 10,1 °C 15,6 °C 6,4 km/h (2 Bft)
15.07.2017 16:15 15,6 °C 15,6 °C 69 % 1021,0 hPa 0,0 mm 6,3 km/h (2 Bft) NW 313 ° 0 min 0,000 mm 2,0 UV-I 250 W/m² 9,9 °C 15,6 °C 8,0 km/h (2 Bft)
15.07.2017 16:16 15,6 °C 15,6 °C 70 % 1021,1 hPa 0,0 mm 5,8 km/h (2 Bft) N-NW 346 ° 0 min 0,000 mm 1,8 UV-I 229 W/m² 10,1 °C 15,6 °C 11,3 km/h (2 Bft)
15.07.2017 16:17 15,7 °C 15,7 °C 68 % 1021,1 hPa 0,0 mm 2,3 km/h (1 Bft) N 10 ° 0 min 0,000 mm 1,7 UV-I 206 W/m² 9,8 °C 15,7 °C 4,8 km/h (1 Bft)
15.07.2017 16:18 15,7 °C 15,7 °C 67 % 1021,1 hPa 0,0 mm 5,5 km/h (1 Bft) N-NO 19 ° 0 min 0,000 mm 1,6 UV-I 197 W/m² 9,6 °C 15,7 °C 6,4 km/h (2 Bft)
15.07.2017 16:19 15,7 °C 15,7 °C 66 % 1021,1 hPa 0,0 mm 3,0 km/h (1 Bft) N 9 ° 0 min 0,000 mm 1,5 UV-I 183 W/m² 9,4 °C 15,7 °C 6,4 km/h (2 Bft)
15.07.2017 16:20 15,6 °C 15,7 °C 67 % 1021,1 hPa 0,0 mm 1,4 km/h (1 Bft) N 9 ° 0 min 0,000 mm 1,4 UV-I 179 W/m² 9,5 °C 15,6 °C 1,6 km/h (1 Bft)
15.07.2017 16:21 15,6 °C 15,7 °C 67 % 1021,1 hPa 0,0 mm 5,8 km/h (2 Bft) W-NW 296 ° 0 min 0,000 mm 1,3 UV-I 176 W/m² 9,5 °C 15,6 °C 8,0 km/h (2 Bft)
15.07.2017 16:22 15,7 °C 15,7 °C 68 % 1021,1 hPa 0,0 mm 3,8 km/h (1 Bft) N-NW 341 ° 0 min 0,000 mm 1,3 UV-I 174 W/m² 9,8 °C 15,7 °C 6,4 km/h (2 Bft)
15.07.2017 16:23 15,7 °C 15,7 °C 69 % 1021,1 hPa 0,0 mm 4,2 km/h (1 Bft) N-NW 346 ° 0 min 0,000 mm 1,3 UV-I 172 W/m² 10,0 °C 15,7 °C 6,4 km/h (2 Bft)
15.07.2017 16:24 15,7 °C 15,7 °C 71 % 1021,1 hPa 0,0 mm 3,8 km/h (1 Bft) N 9 ° 0 min 0,000 mm 1,4 UV-I 172 W/m² 10,5 °C 15,7 °C 6,4 km/h (2 Bft)
15.07.2017 16:25 15,7 °C 15,7 °C 70 % 1021,2 hPa 0,0 mm 7,1 km/h (2 Bft) O-NO 71 ° 0 min 0,000 mm 1,4 UV-I 167 W/m² 10,2 °C 15,7 °C 11,3 km/h (2 Bft)
15.07.2017 16:26 15,7 °C 15,7 °C 70 % 1021,1 hPa 0,0 mm 3,6 km/h (1 Bft) N-NO 32 ° 0 min 0,000 mm 1,4 UV-I 156 W/m² 10,2 °C 15,7 °C 4,8 km/h (1 Bft)
15.07.2017 16:27 15,7 °C 15,8 °C 70 % 1021,1 hPa 0,0 mm 5,0 km/h (1 Bft) NO 34 ° 0 min 0,000 mm 1,3 UV-I 148 W/m² 10,2 °C 15,7 °C 8,0 km/h (2 Bft)
15.07.2017 16:28 15,8 °C 15,8 °C 68 % 1021,2 hPa 0,0 mm 6,8 km/h (2 Bft) N-NO 26 ° 0 min 0,000 mm 1,3 UV-I 148 W/m² 9,9 °C 15,8 °C 12,9 km/h (3 Bft)
15.07.2017 16:29 15,8 °C 15,8 °C 69 % 1021,2 hPa 0,0 mm 5,4 km/h (1 Bft) N-NW 344 ° 0 min 0,000 mm 1,2 UV-I 134 W/m² 10,1 °C 15,8 °C 12,9 km/h (3 Bft)
15.07.2017 16:30 15,8 °C 15,8 °C 70 % 1021,2 hPa 0,0 mm 4,3 km/h (1 Bft) N-NW 348 ° 0 min 0,000 mm 1,2 UV-I 135 W/m² 10,3 °C 15,8 °C 8,0 km/h (2 Bft)
15.07.2017 16:31 15,7 °C 15,8 °C 71 % 1021,1 hPa 0,0 mm 2,7 km/h (1 Bft) N 350 ° 0 min 0,000 mm 1,2 UV-I 137 W/m² 10,5 °C 15,7 °C 4,8 km/h (1 Bft)
15.07.2017 16:32 15,7 °C 15,7 °C 70 % 1021,1 hPa 0,0 mm 4,9 km/h (1 Bft) N-NO 26 ° 0 min 0,000 mm 1,2 UV-I 134 W/m² 10,2 °C 15,7 °C 8,0 km/h (2 Bft)
15.07.2017 16:33 15,7 °C 15,7 °C 69 % 1021,2 hPa 0,0 mm 4,0 km/h (1 Bft) NW 311 ° 0 min 0,000 mm 1,2 UV-I 134 W/m² 10,0 °C 15,7 °C 6,4 km/h (2 Bft)
15.07.2017 16:34 15,7 °C 15,7 °C 68 % 1021,2 hPa 0,0 mm 5,9 km/h (2 Bft) N-NO 26 ° 0 min 0,000 mm 1,2 UV-I 137 W/m² 9,8 °C 15,7 °C 12,9 km/h (3 Bft)
15.07.2017 16:35 15,7 °C 15,7 °C 67 % 1021,2 hPa 0,0 mm 4,0 km/h (1 Bft) N-NW 328 ° 0 min 0,000 mm 1,3 UV-I 148 W/m² 9,6 °C 15,7 °C 6,4 km/h (2 Bft)
15.07.2017 16:36 15,6 °C 15,7 °C 66 % 1021,1 hPa 0,0 mm 2,3 km/h (1 Bft) N-NW 328 ° 0 min 0,000 mm 1,4 UV-I 176 W/m² 9,3 °C 15,6 °C 4,8 km/h (1 Bft)
15.07.2017 16:37 15,6 °C 15,6 °C 66 % 1021,1 hPa 0,0 mm 2,3 km/h (1 Bft) N 355 ° 0 min 0,000 mm 1,5 UV-I 186 W/m² 9,3 °C 15,6 °C 4,8 km/h (1 Bft)
15.07.2017 16:38 15,6 °C 15,6 °C 68 % 1021,2 hPa 0,0 mm 4,4 km/h (1 Bft) NW 321 ° 0 min 0,000 mm 1,6 UV-I 192 W/m² 9,7 °C 15,6 °C 6,4 km/h (2 Bft)
15.07.2017 16:39 15,5 °C 15,6 °C 68 % 1021,2 hPa 0,0 mm 5,0 km/h (1 Bft) N-NO 26 ° 0 min 0,000 mm 1,5 UV-I 193 W/m² 9,6 °C 15,5 °C 8,0 km/h (2 Bft)
15.07.2017 16:40 15,6 °C 15,6 °C 71 % 1021,2 hPa 0,0 mm 6,6 km/h (2 Bft) W-NW 289 ° 0 min 0,000 mm 1,5 UV-I 192 W/m² 10,4 °C 15,6 °C 9,7 km/h (2 Bft)
15.07.2017 16:41 15,6 °C 15,6 °C 68 % 1021,3 hPa 0,0 mm 5,0 km/h (1 Bft) N-NW 328 ° 0 min 0,000 mm 1,4 UV-I 185 W/m² 9,7 °C 15,6 °C 8,0 km/h (2 Bft)
15.07.2017 16:42 15,6 °C 15,6 °C 69 % 1021,3 hPa 0,0 mm 4,0 km/h (1 Bft) N-NW 329 ° 0 min 0,000 mm 1,4 UV-I 162 W/m² 9,9 °C 15,6 °C 8,0 km/h (2 Bft)
15.07.2017 16:43 15,5 °C 15,6 °C 68 % 1021,3 hPa 0,0 mm 5,6 km/h (1 Bft) NW 314 ° 0 min 0,000 mm 1,3 UV-I 155 W/m² 9,6 °C 15,5 °C 8,0 km/h (2 Bft)
15.07.2017 16:44 15,5 °C 15,5 °C 69 % 1021,3 hPa 0,0 mm 2,4 km/h (1 Bft) NW 312 ° 0 min 0,000 mm 1,3 UV-I 155 W/m² 9,8 °C 15,5 °C 6,4 km/h (2 Bft)
15.07.2017 16:45 15,5 °C 15,6 °C 71 % 1021,3 hPa 0,0 mm 5,3 km/h (1 Bft) N-NW 333 ° 0 min 0,000 mm 1,3 UV-I 151 W/m² 10,3 °C 15,5 °C 8,0 km/h (2 Bft)
15.07.2017 16:46 15,5 °C 15,5 °C 70 % 1021,3 hPa 0,0 mm 4,7 km/h (1 Bft) NW 315 ° 0 min 0,000 mm 1,3 UV-I 151 W/m² 10,1 °C 15,5 °C 8,0 km/h (2 Bft)
15.07.2017 16:47 15,4 °C 15,5 °C 69 % 1021,3 hPa 0,0 mm 7,0 km/h (2 Bft) NW 321 ° 0 min 0,000 mm 1,2 UV-I 142 W/m² 9,7 °C 15,4 °C 9,7 km/h (2 Bft)
15.07.2017 16:48 15,4 °C 15,4 °C 70 % 1021,3 hPa 0,0 mm 5,2 km/h (1 Bft) NW 326 ° 0 min 0,000 mm 1,2 UV-I 135 W/m² 10,0 °C 15,4 °C 6,4 km/h (2 Bft)
15.07.2017 16:49 15,4 °C 15,4 °C 69 % 1021,3 hPa 0,0 mm 7,6 km/h (2 Bft) N 351 ° 0 min 0,000 mm 1,2 UV-I 135 W/m² 9,7 °C 15,4 °C 12,9 km/h (3 Bft)
15.07.2017 16:50 15,4 °C 15,4 °C 69 % 1021,4 hPa 0,0 mm 4,8 km/h (1 Bft) N-NO 13 ° 0 min 0,000 mm 1,1 UV-I 139 W/m² 9,7 °C 15,4 °C 6,4 km/h (2 Bft)
15.07.2017 16:51 15,4 °C 15,4 °C 69 % 1021,4 hPa 0,0 mm 2,9 km/h (1 Bft) N-NO 13 ° 0 min 0,000 mm 1,1 UV-I 142 W/m² 9,7 °C 15,4 °C 4,8 km/h (1 Bft)
15.07.2017 16:52 15,4 °C 15,4 °C 69 % 1021,4 hPa 0,0 mm 5,9 km/h (2 Bft) N 355 ° 0 min 0,000 mm 1,2 UV-I 148 W/m² 9,7 °C 15,4 °C 8,0 km/h (2 Bft)
15.07.2017 16:53 15,4 °C 15,4 °C 68 % 1021,3 hPa 0,0 mm 3,5 km/h (1 Bft) N 355 ° 0 min 0,000 mm 1,2 UV-I 153 W/m² 9,5 °C 15,4 °C 6,4 km/h (2 Bft)
15.07.2017 16:54 15,4 °C 15,4 °C 68 % 1021,4 hPa 0,0 mm 0,3 km/h (0 Bft) N 355 ° 0 min 0,000 mm 1,3 UV-I 163 W/m² 9,5 °C 15,4 °C 1,6 km/h (1 Bft)
15.07.2017 16:55 15,4 °C 15,4 °C 69 % 1021,3 hPa 0,0 mm 3,4 km/h (1 Bft) NO 35 ° 0 min 0,000 mm 1,3 UV-I 167 W/m² 9,7 °C 15,4 °C 4,8 km/h (1 Bft)
15.07.2017 16:56 15,4 °C 15,4 °C 69 % 1021,3 hPa 0,0 mm 4,4 km/h (1 Bft) NO 40 ° 0 min 0,000 mm 1,4 UV-I 176 W/m² 9,7 °C 15,4 °C 6,4 km/h (2 Bft)
15.07.2017 16:57 15,5 °C 15,5 °C 67 % 1021,3 hPa 0,0 mm 2,1 km/h (1 Bft) NO 40 ° 0 min 0,000 mm 1,5 UV-I 179 W/m² 9,4 °C 15,5 °C 3,2 km/h (1 Bft)
15.07.2017 16:58 15,5 °C 15,5 °C 69 % 1021,3 hPa 0,0 mm 3,8 km/h (1 Bft) NO 52 ° 0 min 0,000 mm 1,5 UV-I 179 W/m² 9,8 °C 15,5 °C 6,4 km/h (2 Bft)
15.07.2017 16:59 15,4 °C 15,5 °C 68 % 1021,3 hPa 0,0 mm 1,5 km/h (1 Bft) NO 52 ° 0 min 0,000 mm 1,5 UV-I 179 W/m² 9,5 °C 15,4 °C 3,2 km/h (1 Bft)
15.07.2017 17:00 15,4 °C 15,4 °C 68 % 1021,3 hPa 0,0 mm 0,7 km/h (0 Bft) NO 52 ° 0 min 0,000 mm 1,5 UV-I 179 W/m² 9,5 °C 15,4 °C 3,2 km/h (1 Bft)
15.07.2017 17:01 15,4 °C 15,4 °C 69 % 1021,3 hPa 0,0 mm 1,1 km/h (1 Bft) NO 55 ° 0 min 0,102 mm 1,4 UV-I 174 W/m² 9,7 °C 15,4 °C 3,2 km/h (1 Bft)
15.07.2017 17:02 15,3 °C 15,4 °C 70 % 1021,3 hPa 0,0 mm 1,2 km/h (1 Bft) NO 55 ° 0 min 0,000 mm 1,4 UV-I 172 W/m² 9,9 °C 15,3 °C 1,6 km/h (1 Bft)
15.07.2017 17:03 15,3 °C 15,4 °C 68 % 1021,4 hPa 0,0 mm 2,4 km/h (1 Bft) NO 55 ° 0 min 0,000 mm 1,3 UV-I 169 W/m² 9,4 °C 15,3 °C 4,8 km/h (1 Bft)
15.07.2017 17:04 15,3 °C 15,3 °C 69 % 1021,3 hPa 0,0 mm 1,6 km/h (1 Bft) NO 55 ° 0 min 0,000 mm 1,3 UV-I 169 W/m² 9,6 °C 15,3 °C 3,2 km/h (1 Bft)
15.07.2017 17:05 15,3 °C 15,3 °C 68 % 1021,3 hPa 0,0 mm 0,8 km/h (0 Bft) NO 55 ° 0 min 0,000 mm 1,2 UV-I 160 W/m² 9,4 °C 15,3 °C 3,2 km/h (1 Bft)
15.07.2017 17:06 15,4 °C 15,4 °C 68 % 1021,3 hPa 0,0 mm 2,9 km/h (1 Bft) NO 55 ° 0 min 0,000 mm 1,2 UV-I 167 W/m² 9,5 °C 15,4 °C 4,8 km/h (1 Bft)
15.07.2017 17:07 15,4 °C 15,4 °C 67 % 1021,3 hPa 0,0 mm 1,2 km/h (1 Bft) NO 55 ° 0 min 0,000 mm 1,2 UV-I 181 W/m² 9,3 °C 15,4 °C 4,8 km/h (1 Bft)
15.07.2017 17:08 15,4 °C 15,4 °C 75 % 1021,3 hPa 0,0 mm 0,0 km/h (0 Bft) NO 55 ° 0 min 0,000 mm 1,3 UV-I 192 W/m² 11,0 °C 15,4 °C 0,0 km/h (0 Bft)
15.07.2017 17:09 15,4 °C 15,4 °C 73 % 1021,3 hPa 0,0 mm 2,5 km/h (1 Bft) NO 34 ° 0 min 0,000 mm 1,2 UV-I 183 W/m² 10,6 °C 15,4 °C 4,8 km/h (1 Bft)
15.07.2017 17:10 15,4 °C 15,4 °C 73 % 1021,3 hPa 0,0 mm 3,9 km/h (1 Bft) SO 133 ° 0 min 0,000 mm 1,1 UV-I 163 W/m² 10,6 °C 15,4 °C 8,0 km/h (2 Bft)
15.07.2017 17:11 15,3 °C 15,4 °C 73 % 1021,4 hPa 0,0 mm 5,0 km/h (1 Bft) SO 134 ° 0 min 0,000 mm 1,0 UV-I 121 W/m² 10,5 °C 15,3 °C 6,4 km/h (2 Bft)
15.07.2017 17:12 15,2 °C 15,3 °C 73 % 1021,4 hPa 0,0 mm 3,7 km/h (1 Bft) SO 135 ° 0 min 0,000 mm 0,8 UV-I 109 W/m² 10,4 °C 15,2 °C 4,8 km/h (1 Bft)
15.07.2017 17:13 15,1 °C 15,2 °C 72 % 1021,3 hPa 0,0 mm 0,9 km/h (0 Bft) SO 135 ° 0 min 0,000 mm 0,7 UV-I 97 W/m² 10,1 °C 15,1 °C 1,6 km/h (1 Bft)
15.07.2017 17:14 15,1 °C 15,1 °C 72 % 1021,3 hPa 0,0 mm 0,4 km/h (0 Bft) SO 135 ° 0 min 0,000 mm 0,7 UV-I 88 W/m² 10,1 °C 15,1 °C 3,2 km/h (1 Bft)
15.07.2017 17:15 15,0 °C 15,1 °C 73 % 1021,3 hPa 0,0 mm 0,7 km/h (0 Bft) O 101 ° 0 min 0,000 mm 0,6 UV-I 83 W/m² 10,2 °C 15,0 °C 3,2 km/h (1 Bft)
15.07.2017 17:16 14,9 °C 15,0 °C 74 % 1021,3 hPa 0,0 mm 1,2 km/h (1 Bft) O 88 ° 0 min 0,000 mm 0,6 UV-I 81 W/m² 10,3 °C 14,9 °C 3,2 km/h (1 Bft)
15.07.2017 17:17 14,9 °C 14,9 °C 75 % 1021,3 hPa 0,0 mm 1,5 km/h (1 Bft) O 88 ° 0 min 0,000 mm 0,6 UV-I 81 W/m² 10,5 °C 14,9 °C 3,2 km/h (1 Bft)
15.07.2017 17:18 14,9 °C 14,9 °C 74 % 1021,3 hPa 0,0 mm 2,5 km/h (1 Bft) O 89 ° 0 min 0,000 mm 0,6 UV-I 81 W/m² 10,3 °C 14,9 °C 3,2 km/h (1 Bft)
15.07.2017 17:19 14,9 °C 14,9 °C 77 % 1021,3 hPa 0,0 mm 2,9 km/h (1 Bft) O 89 ° 0 min 0,000 mm 0,6 UV-I 83 W/m² 10,9 °C 14,9 °C 4,8 km/h (1 Bft)
15.07.2017 17:20 14,8 °C 14,9 °C 78 % 1021,3 hPa 0,0 mm 2,7 km/h (1 Bft) O 89 ° 0 min 0,000 mm 0,6 UV-I 84 W/m² 11,0 °C 14,8 °C 4,8 km/h (1 Bft)
15.07.2017 17:21 14,8 °C 14,8 °C 80 % 1021,3 hPa 0,0 mm 2,3 km/h (1 Bft) O 89 ° 0 min 0,000 mm 0,6 UV-I 84 W/m² 11,4 °C 14,8 °C 3,2 km/h (1 Bft)
15.07.2017 17:22 14,7 °C 14,8 °C 77 % 1021,3 hPa 0,0 mm 0,8 km/h (0 Bft) O 89 ° 0 min 0,000 mm 0,6 UV-I 84 W/m² 10,7 °C 14,7 °C 1,6 km/h (1 Bft)
15.07.2017 17:23 14,7 °C 14,7 °C 79 % 1021,2 hPa 0,0 mm 0,0 km/h (0 Bft) O 89 ° 0 min 0,000 mm 0,6 UV-I 100 W/m² 11,1 °C 14,7 °C 0,0 km/h (0 Bft)
15.07.2017 17:24 14,7 °C 14,7 °C 76 % 1021,2 hPa 0,0 mm 0,0 km/h (0 Bft) O 89 ° 0 min 0,000 mm 0,7 UV-I 105 W/m² 10,5 °C 14,7 °C 0,0 km/h (0 Bft)
15.07.2017 17:25 14,7 °C 14,7 °C 76 % 1021,2 hPa 0,0 mm 0,0 km/h (0 Bft) O 89 ° 0 min 0,000 mm 0,7 UV-I 111 W/m² 10,5 °C 14,7 °C 0,0 km/h (0 Bft)
15.07.2017 17:26 14,8 °C 14,8 °C 76 % 1021,3 hPa 0,0 mm 0,0 km/h (0 Bft) O 89 ° 0 min 0,000 mm 0,8 UV-I 114 W/m² 10,6 °C 14,8 °C 0,0 km/h (0 Bft)
15.07.2017 17:27 14,8 °C 14,8 °C 76 % 1021,3 hPa 0,0 mm 0,0 km/h (0 Bft) O 89 ° 0 min 0,000 mm 0,8 UV-I 114 W/m² 10,6 °C 14,8 °C 0,0 km/h (0 Bft)
15.07.2017 17:28 14,9 °C 14,9 °C 77 % 1021,2 hPa 0,0 mm 0,0 km/h (0 Bft) O 89 ° 0 min 0,000 mm 0,8 UV-I 121 W/m² 10,9 °C 14,9 °C 0,0 km/h (0 Bft)
15.07.2017 17:29 14,9 °C 14,9 °C 77 % 1021,2 hPa 0,0 mm 0,7 km/h (0 Bft) O 89 ° 0 min 0,000 mm 0,8 UV-I 113 W/m² 10,9 °C 14,9 °C 1,6 km/h (1 Bft)
15.07.2017 17:30 14,9 °C 14,9 °C 76 % 1021,2 hPa 0,0 mm 0,7 km/h (0 Bft) O 89 ° 0 min 0,000 mm 0,7 UV-I 105 W/m² 10,7 °C 14,9 °C 3,2 km/h (1 Bft)
15.07.2017 17:31 14,9 °C 14,9 °C 76 % 1021,2 hPa 0,0 mm 0,0 km/h (0 Bft) O 89 ° 0 min 0,000 mm 0,7 UV-I 104 W/m² 10,7 °C 14,9 °C 0,0 km/h (0 Bft)
15.07.2017 17:32 14,9 °C 14,9 °C 77 % 1021,3 hPa 0,0 mm 1,8 km/h (1 Bft) O-NO 63 ° 0 min 0,000 mm 0,6 UV-I 104 W/m² 10,9 °C 14,9 °C 4,8 km/h (1 Bft)
15.07.2017 17:33 15,0 °C 15,0 °C 76 % 1021,3 hPa 0,0 mm 2,9 km/h (1 Bft) NO 35 ° 0 min 0,000 mm 0,6 UV-I 104 W/m² 10,8 °C 15,0 °C 4,8 km/h (1 Bft)
15.07.2017 17:34 15,1 °C 15,1 °C 76 % 1021,3 hPa 0,0 mm 3,1 km/h (1 Bft) N-NO 15 ° 0 min 0,000 mm 0,6 UV-I 107 W/m² 10,9 °C 15,1 °C 4,8 km/h (1 Bft)
15.07.2017 17:35 15,2 °C 15,2 °C 76 % 1021,2 hPa 0,0 mm 2,5 km/h (1 Bft) N-NO 33 ° 0 min 0,000 mm 0,6 UV-I 118 W/m² 11,0 °C 15,2 °C 4,8 km/h (1 Bft)
15.07.2017 17:36 15,2 °C 15,2 °C 76 % 1021,2 hPa 0,0 mm 1,8 km/h (1 Bft) N-NO 33 ° 0 min 0,000 mm 0,7 UV-I 127 W/m² 11,0 °C 15,2 °C 3,2 km/h (1 Bft)
15.07.2017 17:37 15,2 °C 15,2 °C 77 % 1021,2 hPa 0,0 mm 3,7 km/h (1 Bft) O-NO 65 ° 0 min 0,000 mm 0,8 UV-I 137 W/m² 11,2 °C 15,2 °C 4,8 km/h (1 Bft)
15.07.2017 17:38 15,2 °C 15,2 °C 76 % 1021,2 hPa 0,0 mm 1,8 km/h (1 Bft) O-NO 65 ° 0 min 0,000 mm 0,8 UV-I 149 W/m² 11,0 °C 15,2 °C 3,2 km/h (1 Bft)
15.07.2017 17:39 15,2 °C 15,2 °C 76 % 1021,2 hPa 0,0 mm 0,6 km/h (0 Bft) O-NO 65 ° 0 min 0,000 mm 0,9 UV-I 162 W/m² 11,0 °C 15,2 °C 3,2 km/h (1 Bft)
15.07.2017 17:40 15,1 °C 15,2 °C 77 % 1021,3 hPa 0,0 mm 3,5 km/h (1 Bft) O-NO 77 ° 0 min 0,000 mm 1,0 UV-I 162 W/m² 11,1 °C 15,1 °C 4,8 km/h (1 Bft)
15.07.2017 17:41 15,2 °C 15,2 °C 80 % 1021,2 hPa 0,0 mm 2,6 km/h (1 Bft) O-NO 77 ° 0 min 0,000 mm 1,1 UV-I 193 W/m² 11,8 °C 15,2 °C 3,2 km/h (1 Bft)
15.07.2017 17:42 15,1 °C 15,2 °C 76 % 1021,3 hPa 0,0 mm 2,6 km/h (1 Bft) O-NO 78 ° 0 min 0,000 mm 1,3 UV-I 218 W/m² 10,9 °C 15,1 °C 3,2 km/h (1 Bft)
15.07.2017 17:43 15,1 °C 15,1 °C 75 % 1021,2 hPa 0,0 mm 2,0 km/h (1 Bft) O-NO 78 ° 0 min 0,000 mm 1,3 UV-I 230 W/m² 10,7 °C 15,1 °C 3,2 km/h (1 Bft)
15.07.2017 17:44 15,1 °C 15,2 °C 75 % 1021,2 hPa 0,0 mm 1,1 km/h (1 Bft) O-NO 78 ° 0 min 0,000 mm 1,5 UV-I 243 W/m² 10,7 °C 15,1 °C 3,2 km/h (1 Bft)
15.07.2017 17:45 15,2 °C 15,2 °C 74 % 1021,2 hPa 0,0 mm 0,5 km/h (0 Bft) O-NO 78 ° 0 min 0,000 mm 1,5 UV-I 237 W/m² 10,6 °C 15,2 °C 3,2 km/h (1 Bft)
15.07.2017 17:46 15,2 °C 15,2 °C 76 % 1021,2 hPa 0,0 mm 1,1 km/h (1 Bft) O-NO 78 ° 0 min 0,000 mm 1,5 UV-I 225 W/m² 11,0 °C 15,2 °C 1,6 km/h (1 Bft)
15.07.2017 17:47 15,2 °C 15,2 °C 75 % 1021,2 hPa 0,0 mm 0,7 km/h (0 Bft) O-NO 78 ° 0 min 0,000 mm 1,5 UV-I 186 W/m² 10,8 °C 15,2 °C 3,2 km/h (1 Bft)
15.07.2017 17:48 15,2 °C 15,2 °C 77 % 1021,2 hPa 0,0 mm 0,0 km/h (0 Bft) O-NO 78 ° 0 min 0,000 mm 1,4 UV-I 172 W/m² 11,2 °C 15,2 °C 0,0 km/h (0 Bft)
15.07.2017 17:49 15,3 °C 15,3 °C 76 % 1021,2 hPa 0,0 mm 0,0 km/h (0 Bft) O-NO 78 ° 0 min 0,000 mm 1,3 UV-I 155 W/m² 11,1 °C 15,3 °C 0,0 km/h (0 Bft)
15.07.2017 17:50 15,3 °C 15,3 °C 76 % 1021,1 hPa 0,0 mm 0,5 km/h (0 Bft) O-NO 78 ° 0 min 0,000 mm 1,3 UV-I 139 W/m² 11,1 °C 15,3 °C 1,6 km/h (1 Bft)
15.07.2017 17:51 15,3 °C 15,4 °C 80 % 1021,1 hPa 0,0 mm 1,7 km/h (1 Bft) O-NO 78 ° 0 min 0,000 mm 1,2 UV-I 130 W/m² 11,9 °C 15,3 °C 3,2 km/h (1 Bft)
15.07.2017 17:52 15,3 °C 15,3 °C 76 % 1021,2 hPa 0,0 mm 1,2 km/h (1 Bft) O 79 ° 0 min 0,000 mm 1,2 UV-I 125 W/m² 11,1 °C 15,3 °C 4,8 km/h (1 Bft)
15.07.2017 17:53 15,2 °C 15,3 °C 76 % 1021,2 hPa 0,0 mm 0,6 km/h (0 Bft) O 79 ° 0 min 0,000 mm 1,2 UV-I 127 W/m² 11,0 °C 15,2 °C 3,2 km/h (1 Bft)
15.07.2017 17:54 15,2 °C 15,2 °C 76 % 1021,1 hPa 0,0 mm 3,0 km/h (1 Bft) O 79 ° 0 min 0,000 mm 1,1 UV-I 123 W/m² 11,0 °C 15,2 °C 3,2 km/h (1 Bft)
15.07.2017 17:55 15,2 °C 15,2 °C 77 % 1021,1 hPa 0,0 mm 2,5 km/h (1 Bft) O 79 ° 0 min 0,000 mm 1,1 UV-I 120 W/m² 11,2 °C 15,2 °C 3,2 km/h (1 Bft)
15.07.2017 17:56 15,1 °C 15,2 °C 80 % 1021,1 hPa 0,0 mm 1,1 km/h (1 Bft) O 79 ° 0 min 0,000 mm 1,1 UV-I 121 W/m² 11,7 °C 15,1 °C 3,2 km/h (1 Bft)
15.07.2017 17:57 15,1 °C 15,1 °C 77 % 1021,1 hPa 0,0 mm 0,1 km/h (0 Bft) O 79 ° 0 min 0,000 mm 1,1 UV-I 128 W/m² 11,1 °C 15,1 °C 1,6 km/h (1 Bft)
15.07.2017 17:58 15,1 °C 15,1 °C 76 % 1021,1 hPa 0,0 mm 1,3 km/h (1 Bft) O 79 ° 0 min 0,000 mm 1,1 UV-I 139 W/m² 10,9 °C 15,1 °C 3,2 km/h (1 Bft)
15.07.2017 17:59 15,1 °C 15,1 °C 76 % 1021,1 hPa 0,0 mm 2,8 km/h (1 Bft) O 79 ° 0 min 0,000 mm 1,1 UV-I 142 W/m² 10,9 °C 15,1 °C 3,2 km/h (1 Bft)
15.07.2017 18:00 15,1 °C 15,1 °C 80 % 1021,1 hPa 0,0 mm 2,3 km/h (1 Bft) O 79 ° 0 min 0,000 mm 1,0 UV-I 141 W/m² 11,7 °C 15,1 °C 3,2 km/h (1 Bft)
15.07.2017 18:01 15,1 °C 15,1 °C 78 % 1021,1 hPa 0,0 mm 2,5 km/h (1 Bft) O 80 ° 0 min 0,076 mm 1,0 UV-I 134 W/m² 11,3 °C 15,1 °C 4,8 km/h (1 Bft)
15.07.2017 18:02 15,1 °C 15,1 °C 80 % 1021,1 hPa 0,0 mm 1,0 km/h (0 Bft) O 79 ° 0 min 0,000 mm 0,9 UV-I 128 W/m² 11,7 °C 15,1 °C 3,2 km/h (1 Bft)
15.07.2017 18:03 15,1 °C 15,1 °C 79 % 1021,1 hPa 0,0 mm 2,3 km/h (1 Bft) O 80 ° 0 min 0,000 mm 0,9 UV-I 121 W/m² 11,5 °C 15,1 °C 3,2 km/h (1 Bft)
15.07.2017 18:04 15,0 °C 15,1 °C 77 % 1021,1 hPa 0,0 mm 0,3 km/h (0 Bft) O 80 ° 0 min 0,000 mm 0,9 UV-I 114 W/m² 11,0 °C 15,0 °C 1,6 km/h (1 Bft)
15.07.2017 18:05 15,0 °C 15,0 °C 76 % 1021,1 hPa 0,0 mm 0,4 km/h (0 Bft) O 80 ° 0 min 0,000 mm 0,8 UV-I 118 W/m² 10,8 °C 15,0 °C 1,6 km/h (1 Bft)
15.07.2017 18:06 14,9 °C 15,0 °C 77 % 1021,1 hPa 0,0 mm 0,0 km/h (0 Bft) O 80 ° 0 min 0,000 mm 0,9 UV-I 127 W/m² 10,9 °C 14,9 °C 0,0 km/h (0 Bft)
15.07.2017 18:07 15,0 °C 15,0 °C 77 % 1021,2 hPa 0,0 mm 1,1 km/h (1 Bft) O 80 ° 0 min 0,000 mm 1,0 UV-I 139 W/m² 11,0 °C 15,0 °C 3,2 km/h (1 Bft)
15.07.2017 18:08 15,0 °C 15,0 °C 77 % 1021,1 hPa 0,0 mm 3,3 km/h (1 Bft) O 80 ° 0 min 0,000 mm 1,0 UV-I 156 W/m² 11,0 °C 15,0 °C 4,8 km/h (1 Bft)
15.07.2017 18:09 14,9 °C 15,0 °C 76 % 1021,1 hPa 0,0 mm 0,9 km/h (0 Bft) O 92 ° 0 min 0,000 mm 1,1 UV-I 174 W/m² 10,7 °C 14,9 °C 3,2 km/h (1 Bft)
15.07.2017 18:10 15,0 °C 15,0 °C 75 % 1021,1 hPa 0,0 mm 1,8 km/h (1 Bft) O-SO 105 ° 0 min 0,000 mm 1,2 UV-I 186 W/m² 10,6 °C 15,0 °C 3,2 km/h (1 Bft)
15.07.2017 18:11 15,0 °C 15,0 °C 75 % 1021,1 hPa 0,0 mm 2,7 km/h (1 Bft) O-SO 103 ° 0 min 0,000 mm 1,1 UV-I 171 W/m² 10,6 °C 15,0 °C 3,2 km/h (1 Bft)
15.07.2017 18:12 15,1 °C 15,1 °C 75 % 1021,2 hPa 0,0 mm 2,9 km/h (1 Bft) O-SO 104 ° 0 min 0,000 mm 1,1 UV-I 151 W/m² 10,7 °C 15,1 °C 3,2 km/h (1 Bft)
15.07.2017 18:13 15,1 °C 15,1 °C 76 % 1021,1 hPa 0,0 mm 1,5 km/h (1 Bft) O-SO 104 ° 0 min 0,000 mm 1,0 UV-I 139 W/m² 10,9 °C 15,1 °C 3,2 km/h (1 Bft)
15.07.2017 18:14 15,1 °C 15,1 °C 76 % 1021,2 hPa 0,0 mm 2,2 km/h (1 Bft) O-NO 67 ° 0 min 0,000 mm 1,0 UV-I 128 W/m² 10,9 °C 15,1 °C 4,8 km/h (1 Bft)
15.07.2017 18:15 15,1 °C 15,1 °C 77 % 1021,1 hPa 0,0 mm 1,1 km/h (1 Bft) O-NO 67 ° 0 min 0,000 mm 1,0 UV-I 121 W/m² 11,1 °C 15,1 °C 3,2 km/h (1 Bft)
15.07.2017 18:16 15,1 °C 15,1 °C 79 % 1021,2 hPa 0,0 mm 0,3 km/h (0 Bft) O-NO 67 ° 0 min 0,000 mm 0,9 UV-I 105 W/m² 11,5 °C 15,1 °C 1,6 km/h (1 Bft)
15.07.2017 18:17 15,1 °C 15,1 °C 77 % 1021,1 hPa 0,0 mm 0,7 km/h (0 Bft) O-NO 67 ° 0 min 0,000 mm 0,8 UV-I 98 W/m² 11,1 °C 15,1 °C 1,6 km/h (1 Bft)
15.07.2017 18:18 15,1 °C 15,1 °C 76 % 1021,2 hPa 0,0 mm 0,0 km/h (0 Bft) O-NO 67 ° 0 min 0,000 mm 0,7 UV-I 91 W/m² 10,9 °C 15,1 °C 0,0 km/h (0 Bft)
15.07.2017 18:19 15,1 °C 15,1 °C 75 % 1021,2 hPa 0,0 mm 3,0 km/h (1 Bft) SO 126 ° 0 min 0,000 mm 0,7 UV-I 84 W/m² 10,7 °C 15,1 °C 4,8 km/h (1 Bft)
15.07.2017 18:20 15,1 °C 15,1 °C 74 % 1021,3 hPa 0,0 mm 4,0 km/h (1 Bft) SO 127 ° 0 min 0,000 mm 0,7 UV-I 81 W/m² 10,5 °C 15,1 °C 4,8 km/h (1 Bft)
15.07.2017 18:21 15,0 °C 15,1 °C 73 % 1021,2 hPa 0,0 mm 2,6 km/h (1 Bft) SO 127 ° 0 min 0,000 mm 0,7 UV-I 74 W/m² 10,2 °C 15,0 °C 4,8 km/h (1 Bft)
15.07.2017 18:22 15,0 °C 15,1 °C 73 % 1021,2 hPa 0,0 mm 0,6 km/h (0 Bft) SO 127 ° 0 min 0,000 mm 0,6 UV-I 63 W/m² 10,2 °C 15,0 °C 3,2 km/h (1 Bft)
15.07.2017 18:23 14,9 °C 15,0 °C 74 % 1021,2 hPa 0,0 mm 3,0 km/h (1 Bft) SO 129 ° 0 min 0,000 mm 0,6 UV-I 60 W/m² 10,3 °C 14,9 °C 6,4 km/h (2 Bft)
15.07.2017 18:24 14,9 °C 15,0 °C 75 % 1021,2 hPa 0,0 mm 0,5 km/h (0 Bft) SO 129 ° 0 min 0,000 mm 0,5 UV-I 58 W/m² 10,5 °C 14,9 °C 1,6 km/h (1 Bft)
15.07.2017 18:25 14,9 °C 14,9 °C 75 % 1021,2 hPa 0,0 mm 0,4 km/h (0 Bft) SO 129 ° 0 min 0,000 mm 0,5 UV-I 56 W/m² 10,5 °C 14,9 °C 3,2 km/h (1 Bft)
15.07.2017 18:26 14,9 °C 14,9 °C 75 % 1021,2 hPa 0,0 mm 1,8 km/h (1 Bft) SO 129 ° 0 min 0,000 mm 0,0 UV-I 54 W/m² 10,5 °C 14,9 °C 3,2 km/h (1 Bft)
15.07.2017 18:27 14,8 °C 14,9 °C 80 % 1021,2 hPa 0,0 mm 1,7 km/h (1 Bft) SO 129 ° 0 min 0,000 mm 0,0 UV-I 53 W/m² 11,4 °C 14,8 °C 3,2 km/h (1 Bft)
15.07.2017 18:28 14,8 °C 14,8 °C 76 % 1021,2 hPa 0,0 mm 0,1 km/h (0 Bft) SO 129 ° 0 min 0,000 mm 0,0 UV-I 47 W/m² 10,6 °C 14,8 °C 1,6 km/h (1 Bft)
15.07.2017 18:29 14,7 °C 14,8 °C 77 % 1021,2 hPa 0,0 mm 0,0 km/h (0 Bft) SO 129 ° 0 min 0,000 mm 0,0 UV-I 44 W/m² 10,7 °C 14,7 °C 0,0 km/h (0 Bft)
15.07.2017 18:30 14,7 °C 14,7 °C 77 % 1021,2 hPa 0,0 mm 0,0 km/h (0 Bft) SO 129 ° 0 min 0,000 mm 0,0 UV-I 39 W/m² 10,7 °C 14,7 °C 0,0 km/h (0 Bft)
15.07.2017 18:31 14,6 °C 14,7 °C 78 % 1021,2 hPa 0,0 mm 0,0 km/h (0 Bft) SO 129 ° 0 min 0,000 mm 0,0 UV-I 35 W/m² 10,8 °C 14,6 °C 0,0 km/h (0 Bft)
15.07.2017 18:32 14,5 °C 14,6 °C 81 % 1021,3 hPa 0,0 mm 0,0 km/h (0 Bft) SO 129 ° 0 min 0,000 mm 0,0 UV-I 33 W/m² 11,3 °C 14,5 °C 0,0 km/h (0 Bft)
15.07.2017 18:33 14,4 °C 14,5 °C 82 % 1021,3 hPa 0,0 mm 0,0 km/h (0 Bft) SO 129 ° 0 min 0,000 mm 0,0 UV-I 32 W/m² 11,4 °C 14,4 °C 0,0 km/h (0 Bft)
15.07.2017 18:34 14,3 °C 14,4 °C 82 % 1021,3 hPa 0,0 mm 0,0 km/h (0 Bft) SO 129 ° 0 min 0,000 mm 0,0 UV-I 32 W/m² 11,3 °C 14,3 °C 0,0 km/h (0 Bft)
15.07.2017 18:35 14,2 °C 14,3 °C 82 % 1021,3 hPa 0,0 mm 0,0 km/h (0 Bft) SO 129 ° 0 min 0,000 mm 0,0 UV-I 32 W/m² 11,2 °C 14,2 °C 0,0 km/h (0 Bft)
15.07.2017 18:36 14,2 °C 14,2 °C 84 % 1021,3 hPa 0,0 mm 0,0 km/h (0 Bft) SO 129 ° 0 min 0,000 mm 0,0 UV-I 33 W/m² 11,5 °C 14,2 °C 0,0 km/h (0 Bft)
15.07.2017 18:37 14,2 °C 14,2 °C 86 % 1021,3 hPa 0,0 mm 0,0 km/h (0 Bft) SO 129 ° 0 min 0,000 mm 0,0 UV-I 35 W/m² 11,9 °C 14,2 °C 0,0 km/h (0 Bft)
15.07.2017 18:38 14,2 °C 14,2 °C 86 % 1021,3 hPa 0,0 mm 0,0 km/h (0 Bft) SO 129 ° 0 min 0,000 mm 0,0 UV-I 37 W/m² 11,9 °C 14,2 °C 0,0 km/h (0 Bft)
15.07.2017 18:39 14,1 °C 14,2 °C 85 % 1021,3 hPa 0,0 mm 0,0 km/h (0 Bft) SO 129 ° 0 min 0,000 mm 0,0 UV-I 40 W/m² 11,6 °C 14,1 °C 0,0 km/h (0 Bft)
15.07.2017 18:40 14,1 °C 14,1 °C 85 % 1021,3 hPa 0,0 mm 0,0 km/h (0 Bft) SO 129 ° 0 min 0,000 mm 0,0 UV-I 44 W/m² 11,6 °C 14,1 °C 0,0 km/h (0 Bft)
15.07.2017 18:41 14,1 °C 14,1 °C 85 % 1021,4 hPa 0,0 mm 0,0 km/h (0 Bft) SO 129 ° 0 min 0,000 mm 0,0 UV-I 46 W/m² 11,6 °C 14,1 °C 0,0 km/h (0 Bft)
15.07.2017 18:42 14,0 °C 14,1 °C 84 % 1021,4 hPa 0,0 mm 0,0 km/h (0 Bft) SO 129 ° 0 min 0,000 mm 0,0 UV-I 47 W/m² 11,3 °C 14,0 °C 0,0 km/h (0 Bft)
15.07.2017 18:43 14,0 °C 14,0 °C 84 % 1021,4 hPa 0,0 mm 0,0 km/h (0 Bft) SO 129 ° 0 min 0,000 mm 0,0 UV-I 49 W/m² 11,3 °C 14,0 °C 0,0 km/h (0 Bft)
15.07.2017 18:44 13,9 °C 14,0 °C 83 % 1021,3 hPa 0,0 mm 0,0 km/h (0 Bft) SO 129 ° 0 min 0,000 mm 0,0 UV-I 51 W/m² 11,1 °C 13,9 °C 0,0 km/h (0 Bft)
15.07.2017 18:45 13,9 °C 13,9 °C 84 % 1021,4 hPa 0,0 mm 0,0 km/h (0 Bft) SO 129 ° 0 min 0,000 mm 0,0 UV-I 54 W/m² 11,2 °C 13,9 °C 0,0 km/h (0 Bft)
15.07.2017 18:46 13,9 °C 13,9 °C 84 % 1021,4 hPa 0,0 mm 0,0 km/h (0 Bft) SO 129 ° 0 min 0,000 mm 0,0 UV-I 56 W/m² 11,2 °C 13,9 °C 0,0 km/h (0 Bft)
15.07.2017 18:47 13,9 °C 13,9 °C 83 % 1021,4 hPa 0,0 mm 0,0 km/h (0 Bft) SO 129 ° 0 min 0,000 mm 0,0 UV-I 58 W/m² 11,1 °C 13,9 °C 0,0 km/h (0 Bft)
15.07.2017 18:48 13,9 °C 13,9 °C 84 % 1021,4 hPa 0,0 mm 0,0 km/h (0 Bft) SO 129 ° 0 min 0,000 mm 0,0 UV-I 58 W/m² 11,2 °C 13,9 °C 0,0 km/h (0 Bft)
15.07.2017 18:49 14,0 °C 14,0 °C 84 % 1021,4 hPa 0,0 mm 0,0 km/h (0 Bft) SO 129 ° 0 min 0,000 mm 0,0 UV-I 56 W/m² 11,3 °C 14,0 °C 0,0 km/h (0 Bft)
15.07.2017 18:50 14,0 °C 14,0 °C 85 % 1021,4 hPa 0,0 mm 0,0 km/h (0 Bft) SO 129 ° 0 min 0,000 mm 0,0 UV-I 53 W/m² 11,5 °C 14,0 °C 0,0 km/h (0 Bft)
15.07.2017 18:51 13,9 °C 14,0 °C 85 % 1021,4 hPa 0,0 mm 0,0 km/h (0 Bft) SO 129 ° 0 min 0,000 mm 0,0 UV-I 49 W/m² 11,4 °C 13,9 °C 0,0 km/h (0 Bft)
15.07.2017 18:52 13,9 °C 13,9 °C 85 % 1021,4 hPa 0,0 mm 0,0 km/h (0 Bft) SO 129 ° 0 min 0,000 mm 0,0 UV-I 46 W/m² 11,4 °C 13,9 °C 0,0 km/h (0 Bft)
15.07.2017 18:53 13,9 °C 13,9 °C 85 % 1021,4 hPa 0,0 mm 0,0 km/h (0 Bft) SO 129 ° 0 min 0,000 mm 0,0 UV-I 46 W/m² 11,4 °C 13,9 °C 0,0 km/h (0 Bft)
15.07.2017 18:54 13,9 °C 13,9 °C 85 % 1021,4 hPa 0,0 mm 0,0 km/h (0 Bft) SO 129 ° 0 min 0,000 mm 0,0 UV-I 44 W/m² 11,4 °C 13,9 °C 0,0 km/h (0 Bft)
15.07.2017 18:55 13,8 °C 13,9 °C 84 % 1021,4 hPa 0,0 mm 0,0 km/h (0 Bft) SO 129 ° 0 min 0,000 mm 0,0 UV-I 42 W/m² 11,1 °C 13,8 °C 0,0 km/h (0 Bft)
15.07.2017 18:56 13,8 °C 13,9 °C 85 % 1021,4 hPa 0,0 mm 0,0 km/h (0 Bft) SO 129 ° 0 min 0,000 mm 0,0 UV-I 40 W/m² 11,3 °C 13,8 °C 0,0 km/h (0 Bft)
15.07.2017 18:57 13,8 °C 13,9 °C 85 % 1021,5 hPa 0,0 mm 0,0 km/h (0 Bft) SO 129 ° 0 min 0,000 mm 0,0 UV-I 40 W/m² 11,3 °C 13,8 °C 0,0 km/h (0 Bft)
15.07.2017 18:58 13,8 °C 13,8 °C 85 % 1021,4 hPa 0,0 mm 0,0 km/h (0 Bft) SO 129 ° 0 min 0,000 mm 0,0 UV-I 40 W/m² 11,3 °C 13,8 °C 0,0 km/h (0 Bft)
15.07.2017 18:59 13,8 °C 13,8 °C 85 % 1021,4 hPa 0,0 mm 0,0 km/h (0 Bft) SO 129 ° 0 min 0,000 mm 0,0 UV-I 42 W/m² 11,3 °C 13,8 °C 0,0 km/h (0 Bft)
15.07.2017 19:00 13,8 °C 13,8 °C 86 % 1021,5 hPa 0,0 mm 0,0 km/h (0 Bft) SO 129 ° 0 min 0,051 mm 0,0 UV-I 44 W/m² 11,5 °C 13,8 °C 0,0 km/h (0 Bft)
15.07.2017 19:01 13,8 °C 13,8 °C 85 % 1021,5 hPa 0,0 mm 0,0 km/h (0 Bft) SO 129 ° 0 min 0,000 mm 0,0 UV-I 47 W/m² 11,3 °C 13,8 °C 0,0 km/h (0 Bft)
15.07.2017 19:02 13,9 °C 13,9 °C 85 % 1021,5 hPa 0,0 mm 0,0 km/h (0 Bft) SO 129 ° 0 min 0,000 mm 0,0 UV-I 51 W/m² 11,4 °C 13,9 °C 0,0 km/h (0 Bft)
15.07.2017 19:03 13,9 °C 13,9 °C 85 % 1021,6 hPa 0,0 mm 0,0 km/h (0 Bft) SO 129 ° 0 min 0,000 mm 0,0 UV-I 62 W/m² 11,4 °C 13,9 °C 0,0 km/h (0 Bft)
15.07.2017 19:04 14,1 °C 14,1 °C 84 % 1021,6 hPa 0,0 mm 0,0 km/h (0 Bft) SO 129 ° 0 min 0,000 mm 0,0 UV-I 77 W/m² 11,4 °C 14,1 °C 0,0 km/h (0 Bft)
15.07.2017 19:05 14,1 °C 14,1 °C 83 % 1021,6 hPa 0,0 mm 0,0 km/h (0 Bft) SO 129 ° 0 min 0,000 mm 0,0 UV-I 93 W/m² 11,3 °C 14,1 °C 0,0 km/h (0 Bft)
15.07.2017 19:06 14,2 °C 14,2 °C 84 % 1021,6 hPa 0,0 mm 0,4 km/h (0 Bft) SO 130 ° 0 min 0,000 mm 0,0 UV-I 102 W/m² 11,5 °C 14,2 °C 1,6 km/h (1 Bft)
15.07.2017 19:07 14,3 °C 14,3 °C 85 % 1021,6 hPa 0,0 mm 0,0 km/h (0 Bft) SO 130 ° 0 min 0,000 mm 0,0 UV-I 104 W/m² 11,8 °C 14,3 °C 0,0 km/h (0 Bft)
15.07.2017 19:08 14,3 °C 14,3 °C 82 % 1021,6 hPa 0,0 mm 0,0 km/h (0 Bft) SO 130 ° 0 min 0,000 mm 0,5 UV-I 102 W/m² 11,3 °C 14,3 °C 0,0 km/h (0 Bft)
15.07.2017 19:09 14,3 °C 14,3 °C 83 % 1021,6 hPa 0,0 mm 0,0 km/h (0 Bft) SO 130 ° 0 min 0,000 mm 0,5 UV-I 97 W/m² 11,5 °C 14,3 °C 0,0 km/h (0 Bft)
15.07.2017 19:10 14,2 °C 14,3 °C 83 % 1021,6 hPa 0,0 mm 0,0 km/h (0 Bft) SO 130 ° 0 min 0,000 mm 0,5 UV-I 84 W/m² 11,4 °C 14,2 °C 0,0 km/h (0 Bft)
15.07.2017 19:11 14,2 °C 14,2 °C 84 % 1021,6 hPa 0,0 mm 0,0 km/h (0 Bft) SO 130 ° 0 min 0,000 mm 0,5 UV-I 79 W/m² 11,5 °C 14,2 °C 0,0 km/h (0 Bft)
15.07.2017 19:12 14,2 °C 14,2 °C 83 % 1021,6 hPa 0,0 mm 0,1 km/h (0 Bft) SO 130 ° 0 min 0,000 mm 0,5 UV-I 74 W/m² 11,4 °C 14,2 °C 1,6 km/h (1 Bft)
15.07.2017 19:13 14,1 °C 14,2 °C 83 % 1021,6 hPa 0,0 mm 1,2 km/h (1 Bft) SO 130 ° 0 min 0,000 mm 0,5 UV-I 69 W/m² 11,3 °C 14,1 °C 1,6 km/h (1 Bft)
15.07.2017 19:14 14,1 °C 14,1 °C 83 % 1021,6 hPa 0,0 mm 1,3 km/h (1 Bft) SO 130 ° 0 min 0,000 mm 0,5 UV-I 62 W/m² 11,3 °C 14,1 °C 1,6 km/h (1 Bft)
15.07.2017 19:15 14,0 °C 14,1 °C 84 % 1021,6 hPa 0,0 mm 0,7 km/h (0 Bft) SO 130 ° 0 min 0,000 mm 0,5 UV-I 62 W/m² 11,3 °C 14,0 °C 1,6 km/h (1 Bft)
15.07.2017 19:16 14,0 °C 14,1 °C 84 % 1021,6 hPa 0,0 mm 0,0 km/h (0 Bft) SO 130 ° 0 min 0,000 mm 0,0 UV-I 60 W/m² 11,3 °C 14,0 °C 0,0 km/h (0 Bft)
15.07.2017 19:17 14,0 °C 14,0 °C 84 % 1021,6 hPa 0,0 mm 0,0 km/h (0 Bft) SO 130 ° 0 min 0,000 mm 0,0 UV-I 56 W/m² 11,3 °C 14,0 °C 0,0 km/h (0 Bft)
15.07.2017 19:18 14,0 °C 14,0 °C 86 % 1021,6 hPa 0,0 mm 0,0 km/h (0 Bft) SO 130 ° 0 min 0,000 mm 0,0 UV-I 54 W/m² 11,7 °C 14,0 °C 0,0 km/h (0 Bft)
15.07.2017 19:19 13,9 °C 14,0 °C 86 % 1021,7 hPa 0,0 mm 0,0 km/h (0 Bft) SO 130 ° 0 min 0,000 mm 0,0 UV-I 51 W/m² 11,6 °C 13,9 °C 0,0 km/h (0 Bft)
15.07.2017 19:20 13,9 °C 14,0 °C 85 % 1021,7 hPa 0,0 mm 0,0 km/h (0 Bft) SO 130 ° 0 min 0,000 mm 0,0 UV-I 47 W/m² 11,4 °C 13,9 °C 0,0 km/h (0 Bft)
15.07.2017 19:21 13,9 °C 13,9 °C 86 % 1021,7 hPa 0,0 mm 0,0 km/h (0 Bft) SO 130 ° 0 min 0,000 mm 0,0 UV-I 46 W/m² 11,6 °C 13,9 °C 0,0 km/h (0 Bft)
15.07.2017 19:22 14,0 °C 14,0 °C 86 % 1021,7 hPa 0,0 mm 0,0 km/h (0 Bft) SO 130 ° 0 min 0,000 mm 0,0 UV-I 46 W/m² 11,7 °C 14,0 °C 0,0 km/h (0 Bft)
15.07.2017 19:23 14,0 °C 14,0 °C 86 % 1021,7 hPa 0,0 mm 0,0 km/h (0 Bft) SO 130 ° 0 min 0,000 mm 0,0 UV-I 47 W/m² 11,7 °C 14,0 °C 0,0 km/h (0 Bft)
15.07.2017 19:24 14,1 °C 14,1 °C 85 % 1021,7 hPa 0,0 mm 0,0 km/h (0 Bft) SO 130 ° 0 min 0,000 mm 0,0 UV-I 47 W/m² 11,6 °C 14,1 °C 0,0 km/h (0 Bft)
15.07.2017 19:25 14,1 °C 14,1 °C 84 % 1021,7 hPa 0,0 mm 0,0 km/h (0 Bft) SO 130 ° 0 min 0,000 mm 0,0 UV-I 58 W/m² 11,4 °C 14,1 °C 0,0 km/h (0 Bft)
15.07.2017 19:26 14,1 °C 14,1 °C 84 % 1021,8 hPa 0,0 mm 0,0 km/h (0 Bft) SO 130 ° 0 min 0,000 mm 0,0 UV-I 72 W/m² 11,4 °C 14,1 °C 0,0 km/h (0 Bft)
15.07.2017 19:27 14,2 °C 14,2 °C 85 % 1021,7 hPa 0,0 mm 0,0 km/h (0 Bft) SO 130 ° 0 min 0,000 mm 0,0 UV-I 72 W/m² 11,7 °C 14,2 °C 0,0 km/h (0 Bft)
15.07.2017 19:28 14,1 °C 14,2 °C 86 % 1021,7 hPa 0,0 mm 0,0 km/h (0 Bft) SO 130 ° 0 min 0,000 mm 0,0 UV-I 86 W/m² 11,8 °C 14,1 °C 0,0 km/h (0 Bft)
15.07.2017 19:29 14,1 °C 14,1 °C 85 % 1021,7 hPa 0,0 mm 0,0 km/h (0 Bft) SO 130 ° 0 min 0,000 mm 0,0 UV-I 91 W/m² 11,6 °C 14,1 °C 0,0 km/h (0 Bft)
15.07.2017 19:30 14,1 °C 14,1 °C 87 % 1021,8 hPa 0,0 mm 0,0 km/h (0 Bft) SO 130 ° 0 min 0,000 mm 0,0 UV-I 97 W/m² 12,0 °C 14,1 °C 0,0 km/h (0 Bft)
15.07.2017 19:31 14,1 °C 14,1 °C 86 % 1021,8 hPa 0,0 mm 0,0 km/h (0 Bft) SO 130 ° 0 min 0,000 mm 0,0 UV-I 100 W/m² 11,8 °C 14,1 °C 0,0 km/h (0 Bft)
15.07.2017 19:32 14,1 °C 14,1 °C 86 % 1021,8 hPa 0,0 mm 0,0 km/h (0 Bft) SO 130 ° 0 min 0,000 mm 0,5 UV-I 98 W/m² 11,8 °C 14,1 °C 0,0 km/h (0 Bft)
15.07.2017 19:33 14,1 °C 14,1 °C 86 % 1021,7 hPa 0,0 mm 0,0 km/h (0 Bft) SO 130 ° 0 min 0,000 mm 0,5 UV-I 95 W/m² 11,8 °C 14,1 °C 0,0 km/h (0 Bft)
15.07.2017 19:34 14,1 °C 14,1 °C 86 % 1021,8 hPa 0,0 mm 0,0 km/h (0 Bft) SO 130 ° 0 min 0,000 mm 0,5 UV-I 91 W/m² 11,8 °C 14,1 °C 0,0 km/h (0 Bft)
15.07.2017 19:35 14,1 °C 14,1 °C 86 % 1021,8 hPa 0,0 mm 0,0 km/h (0 Bft) SO 130 ° 0 min 0,000 mm 0,5 UV-I 88 W/m² 11,8 °C 14,1 °C 0,0 km/h (0 Bft)
15.07.2017 19:36 14,1 °C 14,1 °C 87 % 1021,8 hPa 0,0 mm 0,0 km/h (0 Bft) SO 130 ° 0 min 0,000 mm 0,5 UV-I 84 W/m² 12,0 °C 14,1 °C 0,0 km/h (0 Bft)
15.07.2017 19:37 14,1 °C 14,2 °C 86 % 1021,8 hPa 0,0 mm 0,0 km/h (0 Bft) SO 130 ° 0 min 0,000 mm 0,5 UV-I 83 W/m² 11,8 °C 14,1 °C 0,0 km/h (0 Bft)
15.07.2017 19:38 14,2 °C 14,2 °C 83 % 1021,8 hPa 0,0 mm 0,0 km/h (0 Bft) SO 130 ° 0 min 0,000 mm 0,5 UV-I 77 W/m² 11,4 °C 14,2 °C 0,0 km/h (0 Bft)
15.07.2017 19:39 14,2 °C 14,2 °C 84 % 1021,8 hPa 0,0 mm 0,0 km/h (0 Bft) SO 130 ° 0 min 0,000 mm 0,0 UV-I 72 W/m² 11,5 °C 14,2 °C 0,0 km/h (0 Bft)
15.07.2017 19:40 14,3 °C 14,3 °C 84 % 1021,8 hPa 0,0 mm 0,0 km/h (0 Bft) SO 130 ° 0 min 0,000 mm 0,0 UV-I 67 W/m² 11,6 °C 14,3 °C 0,0 km/h (0 Bft)
15.07.2017 19:41 14,2 °C 14,3 °C 84 % 1021,8 hPa 0,0 mm 0,0 km/h (0 Bft) SO 130 ° 0 min 0,000 mm 0,0 UV-I 65 W/m² 11,5 °C 14,2 °C 0,0 km/h (0 Bft)
15.07.2017 19:42 14,2 °C 14,3 °C 85 % 1021,9 hPa 0,0 mm 0,0 km/h (0 Bft) SO 130 ° 0 min 0,000 mm 0,0 UV-I 62 W/m² 11,7 °C 14,2 °C 0,0 km/h (0 Bft)
15.07.2017 19:43 14,2 °C 14,2 °C 84 % 1021,8 hPa 0,0 mm 0,0 km/h (0 Bft) SO 130 ° 0 min 0,000 mm 0,0 UV-I 56 W/m² 11,5 °C 14,2 °C 0,0 km/h (0 Bft)
15.07.2017 19:44 14,1 °C 14,2 °C 83 % 1021,8 hPa 0,0 mm 0,0 km/h (0 Bft) SO 130 ° 0 min 0,000 mm 0,0 UV-I 54 W/m² 11,3 °C 14,1 °C 0,0 km/h (0 Bft)
15.07.2017 19:45 14,1 °C 14,1 °C 84 % 1021,8 hPa 0,0 mm 0,0 km/h (0 Bft) SO 130 ° 0 min 0,000 mm 0,0 UV-I 54 W/m² 11,4 °C 14,1 °C 0,0 km/h (0 Bft)
15.07.2017 19:46 14,0 °C 14,1 °C 84 % 1021,8 hPa 0,0 mm 0,0 km/h (0 Bft) SO 130 ° 0 min 0,000 mm 0,0 UV-I 46 W/m² 11,3 °C 14,0 °C 0,0 km/h (0 Bft)
15.07.2017 19:47 13,9 °C 14,1 °C 83 % 1021,8 hPa 0,0 mm 0,0 km/h (0 Bft) SO 130 ° 0 min 0,000 mm 0,0 UV-I 42 W/m² 11,1 °C 13,9 °C 0,0 km/h (0 Bft)
15.07.2017 19:48 13,9 °C 14,0 °C 85 % 1021,8 hPa 0,0 mm 0,0 km/h (0 Bft) SO 130 ° 0 min 0,000 mm 0,0 UV-I 39 W/m² 11,4 °C 13,9 °C 0,0 km/h (0 Bft)
15.07.2017 19:49 13,9 °C 13,9 °C 85 % 1021,8 hPa 0,0 mm 0,0 km/h (0 Bft) SO 130 ° 0 min 0,000 mm 0,0 UV-I 39 W/m² 11,4 °C 13,9 °C 0,0 km/h (0 Bft)
15.07.2017 19:50 13,9 °C 13,9 °C 85 % 1021,7 hPa 0,0 mm 0,0 km/h (0 Bft) SO 130 ° 0 min 0,000 mm 0,0 UV-I 39 W/m² 11,4 °C 13,9 °C 0,0 km/h (0 Bft)
15.07.2017 19:51 13,9 °C 13,9 °C 85 % 1021,8 hPa 0,0 mm 0,0 km/h (0 Bft) SO 130 ° 0 min 0,000 mm 0,0 UV-I 37 W/m² 11,4 °C 13,9 °C 0,0 km/h (0 Bft)
15.07.2017 19:52 13,9 °C 13,9 °C 85 % 1021,8 hPa 0,0 mm 0,0 km/h (0 Bft) SO 130 ° 0 min 0,000 mm 0,0 UV-I 37 W/m² 11,4 °C 13,9 °C 0,0 km/h (0 Bft)
15.07.2017 19:53 13,9 °C 13,9 °C 85 % 1021,8 hPa 0,0 mm 0,0 km/h (0 Bft) SO 130 ° 0 min 0,000 mm 0,0 UV-I 35 W/m² 11,4 °C 13,9 °C 0,0 km/h (0 Bft)
15.07.2017 19:54 13,9 °C 13,9 °C 87 % 1021,9 hPa 0,0 mm 0,0 km/h (0 Bft) SO 130 ° 0 min 0,000 mm 0,0 UV-I 35 W/m² 11,8 °C 13,9 °C 0,0 km/h (0 Bft)
15.07.2017 19:55 13,8 °C 13,9 °C 87 % 1021,8 hPa 0,0 mm 0,0 km/h (0 Bft) SO 130 ° 0 min 0,000 mm 0,0 UV-I 35 W/m² 11,7 °C 13,8 °C 0,0 km/h (0 Bft)
15.07.2017 19:56 13,8 °C 13,8 °C 86 % 1021,9 hPa 0,0 mm 0,0 km/h (0 Bft) SO 130 ° 0 min 0,000 mm 0,0 UV-I 39 W/m² 11,5 °C 13,8 °C 0,0 km/h (0 Bft)
15.07.2017 19:57 13,8 °C 13,8 °C 87 % 1021,8 hPa 0,0 mm 0,0 km/h (0 Bft) SO 130 ° 0 min 0,000 mm 0,0 UV-I 40 W/m² 11,7 °C 13,8 °C 0,0 km/h (0 Bft)
15.07.2017 19:58 13,8 °C 13,8 °C 87 % 1021,9 hPa 0,0 mm 0,0 km/h (0 Bft) SO 130 ° 0 min 0,000 mm 0,0 UV-I 37 W/m² 11,7 °C 13,8 °C 0,0 km/h (0 Bft)
15.07.2017 19:59 13,8 °C 13,8 °C 84 % 1021,9 hPa 0,0 mm 0,0 km/h (0 Bft) SO 130 ° 0 min 0,000 mm 0,0 UV-I 32 W/m² 11,1 °C 13,8 °C 0,0 km/h (0 Bft)
15.07.2017 20:00 13,7 °C 13,8 °C 84 % 1021,9 hPa 0,0 mm 0,0 km/h (0 Bft) SO 130 ° 0 min 0,000 mm 0,0 UV-I 30 W/m² 11,0 °C 13,7 °C 0,0 km/h (0 Bft)
15.07.2017 20:01 13,7 °C 13,7 °C 84 % 1021,9 hPa 0,0 mm 0,0 km/h (0 Bft) SO 130 ° 0 min 0,025 mm 0,0 UV-I 26 W/m² 11,0 °C 13,7 °C 0,0 km/h (0 Bft)
15.07.2017 20:02 13,7 °C 13,7 °C 84 % 1021,9 hPa 0,0 mm 0,0 km/h (0 Bft) SO 130 ° 0 min 0,000 mm 0,0 UV-I 21 W/m² 11,0 °C 13,7 °C 0,0 km/h (0 Bft)
15.07.2017 20:03 13,6 °C 13,7 °C 85 % 1021,9 hPa 0,0 mm 0,0 km/h (0 Bft) SO 130 ° 0 min 0,000 mm 0,0 UV-I 21 W/m² 11,1 °C 13,6 °C 0,0 km/h (0 Bft)
15.07.2017 20:04 13,6 °C 13,6 °C 84 % 1021,9 hPa 0,0 mm 0,0 km/h (0 Bft) SO 130 ° 0 min 0,000 mm 0,0 UV-I 25 W/m² 10,9 °C 13,6 °C 0,0 km/h (0 Bft)
15.07.2017 20:05 13,6 °C 13,6 °C 86 % 1021,9 hPa 0,0 mm 0,0 km/h (0 Bft) SO 130 ° 0 min 0,000 mm 0,0 UV-I 21 W/m² 11,3 °C 13,6 °C 0,0 km/h (0 Bft)
15.07.2017 20:06 13,5 °C 13,6 °C 87 % 1021,9 hPa 0,0 mm 0,0 km/h (0 Bft) SO 130 ° 0 min 0,000 mm 0,0 UV-I 18 W/m² 11,4 °C 13,5 °C 0,0 km/h (0 Bft)
15.07.2017 20:07 13,5 °C 13,5 °C 87 % 1021,9 hPa 0,0 mm 0,0 km/h (0 Bft) SO 130 ° 0 min 0,000 mm 0,0 UV-I 12 W/m² 11,4 °C 13,5 °C 0,0 km/h (0 Bft)
15.07.2017 20:08 13,5 °C 13,5 °C 88 % 1021,9 hPa 0,0 mm 0,0 km/h (0 Bft) SO 130 ° 0 min 0,000 mm 0,0 UV-I 12 W/m² 11,6 °C 13,5 °C 0,0 km/h (0 Bft)
15.07.2017 20:09 13,5 °C 13,5 °C 87 % 1021,9 hPa 0,0 mm 0,0 km/h (0 Bft) SO 130 ° 0 min 0,000 mm 0,0 UV-I 12 W/m² 11,4 °C 13,5 °C 0,0 km/h (0 Bft)
15.07.2017 20:10 13,5 °C 13,5 °C 87 % 1021,9 hPa 0,0 mm 0,0 km/h (0 Bft) SO 130 ° 0 min 0,000 mm 0,0 UV-I 11 W/m² 11,4 °C 13,5 °C 0,0 km/h (0 Bft)
15.07.2017 20:11 13,5 °C 13,5 °C 88 % 1021,9 hPa 0,0 mm 0,0 km/h (0 Bft) SO 130 ° 0 min 0,000 mm 0,0 UV-I 9 W/m² 11,6 °C 13,5 °C 0,0 km/h (0 Bft)
15.07.2017 20:12 13,5 °C 13,5 °C 87 % 1021,9 hPa 0,0 mm 0,0 km/h (0 Bft) SO 130 ° 0 min 0,000 mm 0,0 UV-I 9 W/m² 11,4 °C 13,5 °C 0,0 km/h (0 Bft)
15.07.2017 20:13 13,5 °C 13,5 °C 88 % 1021,9 hPa 0,0 mm 0,0 km/h (0 Bft) SO 130 ° 0 min 0,000 mm 0,0 UV-I 9 W/m² 11,6 °C 13,5 °C 0,0 km/h (0 Bft)
15.07.2017 20:14 13,5 °C 13,5 °C 88 % 1021,9 hPa 0,0 mm 0,0 km/h (0 Bft) SO 130 ° 0 min 0,000 mm 0,0 UV-I 9 W/m² 11,6 °C 13,5 °C 0,0 km/h (0 Bft)
15.07.2017 20:15 13,4 °C 13,5 °C 89 % 1022,0 hPa 0,0 mm 0,0 km/h (0 Bft) SO 130 ° 0 min 0,000 mm 0,0 UV-I 9 W/m² 11,6 °C 13,4 °C 0,0 km/h (0 Bft)
15.07.2017 20:16 13,4 °C 13,4 °C 88 % 1021,9 hPa 0,0 mm 0,0 km/h (0 Bft) SO 130 ° 0 min 0,000 mm 0,0 UV-I 9 W/m² 11,5 °C 13,4 °C 0,0 km/h (0 Bft)
15.07.2017 20:17 13,4 °C 13,4 °C 87 % 1021,9 hPa 0,0 mm 0,0 km/h (0 Bft) SO 130 ° 0 min 0,000 mm 0,0 UV-I 7 W/m² 11,3 °C 13,4 °C 0,0 km/h (0 Bft)
15.07.2017 20:18 13,4 °C 13,4 °C 87 % 1022,0 hPa 0,0 mm 0,0 km/h (0 Bft) SO 130 ° 0 min 0,000 mm 0,0 UV-I 7 W/m² 11,3 °C 13,4 °C 0,0 km/h (0 Bft)
15.07.2017 20:19 13,4 °C 13,4 °C 88 % 1022,0 hPa 0,0 mm 0,0 km/h (0 Bft) SO 130 ° 0 min 0,000 mm 0,0 UV-I 7 W/m² 11,5 °C 13,4 °C 0,0 km/h (0 Bft)
15.07.2017 20:20 13,4 °C 13,4 °C 88 % 1021,9 hPa 0,0 mm 0,3 km/h (0 Bft) SO 130 ° 0 min 0,000 mm 0,0 UV-I 7 W/m² 11,5 °C 13,4 °C 1,6 km/h (1 Bft)
15.07.2017 20:21 13,4 °C 13,4 °C 88 % 1021,9 hPa 0,0 mm 1,5 km/h (1 Bft) SO 130 ° 0 min 0,000 mm 0,0 UV-I 7 W/m² 11,5 °C 13,4 °C 3,2 km/h (1 Bft)
15.07.2017 20:22 13,4 °C 13,4 °C 87 % 1021,9 hPa 0,0 mm 1,9 km/h (1 Bft) SO 130 ° 0 min 0,000 mm 0,0 UV-I 5 W/m² 11,3 °C 13,4 °C 3,2 km/h (1 Bft)
15.07.2017 20:23 13,4 °C 13,4 °C 87 % 1021,9 hPa 0,0 mm 1,1 km/h (1 Bft) SO 130 ° 0 min 0,000 mm 0,0 UV-I 5 W/m² 11,3 °C 13,4 °C 3,2 km/h (1 Bft)
15.07.2017 20:24 13,4 °C 13,4 °C 87 % 1022,0 hPa 0,0 mm 2,1 km/h (1 Bft) SO 130 ° 0 min 0,000 mm 0,0 UV-I 5 W/m² 11,3 °C 13,4 °C 3,2 km/h (1 Bft)
15.07.2017 20:25 13,5 °C 13,5 °C 87 % 1022,0 hPa 0,0 mm 1,5 km/h (1 Bft) SO 130 ° 0 min 0,000 mm 0,0 UV-I 5 W/m² 11,4 °C 13,5 °C 3,2 km/h (1 Bft)
15.07.2017 20:26 13,5 °C 13,5 °C 88 % 1022,0 hPa 0,0 mm 2,1 km/h (1 Bft) SO 130 ° 0 min 0,000 mm 0,0 UV-I 5 W/m² 11,6 °C 13,5 °C 3,2 km/h (1 Bft)
15.07.2017 20:27 13,6 °C 13,6 °C 88 % 1022,0 hPa 0,0 mm 0,5 km/h (0 Bft) SO 130 ° 0 min 0,000 mm 0,0 UV-I 5 W/m² 11,6 °C 13,6 °C 1,6 km/h (1 Bft)
15.07.2017 20:28 13,5 °C 13,6 °C 88 % 1022,0 hPa 0,0 mm 0,8 km/h (0 Bft) SO 130 ° 0 min 0,000 mm 0,0 UV-I 5 W/m² 11,6 °C 13,5 °C 3,2 km/h (1 Bft)
15.07.2017 20:29 13,5 °C 13,5 °C 88 % 1022,0 hPa 0,0 mm 0,0 km/h (0 Bft) SO 130 ° 0 min 0,000 mm 0,0 UV-I 7 W/m² 11,6 °C 13,5 °C 0,0 km/h (0 Bft)
15.07.2017 20:30 13,4 °C 13,5 °C 87 % 1022,0 hPa 0,0 mm 0,0 km/h (0 Bft) SO 130 ° 0 min 0,000 mm 0,0 UV-I 7 W/m² 11,3 °C 13,4 °C 0,0 km/h (0 Bft)
15.07.2017 20:31 13,4 °C 13,4 °C 87 % 1022,0 hPa 0,0 mm 0,0 km/h (0 Bft) SO 130 ° 0 min 0,000 mm 0,0 UV-I 7 W/m² 11,3 °C 13,4 °C 0,0 km/h (0 Bft)
15.07.2017 20:32 13,4 °C 13,4 °C 88 % 1022,0 hPa 0,0 mm 0,0 km/h (0 Bft) SO 130 ° 0 min 0,000 mm 0,0 UV-I 7 W/m² 11,5 °C 13,4 °C 0,0 km/h (0 Bft)
15.07.2017 20:33 13,4 °C 13,4 °C 88 % 1022,0 hPa 0,0 mm 0,0 km/h (0 Bft) SO 130 ° 0 min 0,000 mm 0,0 UV-I 7 W/m² 11,5 °C 13,4 °C 0,0 km/h (0 Bft)
15.07.2017 20:34 13,3 °C 13,4 °C 88 % 1022,0 hPa 0,0 mm 0,0 km/h (0 Bft) SO 130 ° 0 min 0,000 mm 0,0 UV-I 7 W/m² 11,4 °C 13,3 °C 0,0 km/h (0 Bft)
15.07.2017 20:35 13,3 °C 13,4 °C 87 % 1022,0 hPa 0,0 mm 0,0 km/h (0 Bft) SO 130 ° 0 min 0,000 mm 0,0 UV-I 7 W/m² 11,2 °C 13,3 °C 0,0 km/h (0 Bft)
15.07.2017 20:36 13,3 °C 13,3 °C 87 % 1022,0 hPa 0,0 mm 0,1 km/h (0 Bft) SO 130 ° 0 min 0,000 mm 0,0 UV-I 7 W/m² 11,2 °C 13,3 °C 1,6 km/h (1 Bft)
15.07.2017 20:37 13,3 °C 13,3 °C 87 % 1022,0 hPa 0,0 mm 0,0 km/h (0 Bft) SO 130 ° 0 min 0,000 mm 0,0 UV-I 7 W/m² 11,2 °C 13,3 °C 0,0 km/h (0 Bft)
15.07.2017 20:38 13,3 °C 13,3 °C 87 % 1022,0 hPa 0,0 mm 0,0 km/h (0 Bft) SO 130 ° 0 min 0,000 mm 0,0 UV-I 7 W/m² 11,2 °C 13,3 °C 0,0 km/h (0 Bft)
15.07.2017 20:39 13,3 °C 13,3 °C 87 % 1022,0 hPa 0,0 mm 0,0 km/h (0 Bft) SO 130 ° 0 min 0,000 mm 0,0 UV-I 7 W/m² 11,2 °C 13,3 °C 0,0 km/h (0 Bft)
15.07.2017 20:40 13,3 °C 13,3 °C 87 % 1022,0 hPa 0,0 mm 0,0 km/h (0 Bft) SO 130 ° 0 min 0,000 mm 0,0 UV-I 7 W/m² 11,2 °C 13,3 °C 0,0 km/h (0 Bft)
15.07.2017 20:41 13,3 °C 13,3 °C 87 % 1022,0 hPa 0,0 mm 0,0 km/h (0 Bft) SO 130 ° 0 min 0,000 mm 0,0 UV-I 7 W/m² 11,2 °C 13,3 °C 0,0 km/h (0 Bft)
15.07.2017 20:42 13,3 °C 13,3 °C 87 % 1022,0 hPa 0,0 mm 0,0 km/h (0 Bft) SO 130 ° 0 min 0,000 mm 0,0 UV-I 7 W/m² 11,2 °C 13,3 °C 0,0 km/h (0 Bft)
15.07.2017 20:43 13,3 °C 13,3 °C 87 % 1022,0 hPa 0,0 mm 0,0 km/h (0 Bft) SO 130 ° 0 min 0,000 mm 0,0 UV-I 7 W/m² 11,2 °C 13,3 °C 0,0 km/h (0 Bft)
15.07.2017 20:44 13,3 °C 13,3 °C 88 % 1022,1 hPa 0,0 mm 0,0 km/h (0 Bft) SO 130 ° 0 min 0,000 mm 0,0 UV-I 7 W/m² 11,4 °C 13,3 °C 0,0 km/h (0 Bft)
15.07.2017 20:45 13,3 °C 13,3 °C 88 % 1022,1 hPa 0,0 mm 0,0 km/h (0 Bft) SO 130 ° 0 min 0,000 mm 0,0 UV-I 7 W/m² 11,4 °C 13,3 °C 0,0 km/h (0 Bft)
15.07.2017 20:46 13,3 °C 13,3 °C 89 % 1022,1 hPa 0,0 mm 0,0 km/h (0 Bft) SO 130 ° 0 min 0,000 mm 0,0 UV-I 7 W/m² 11,5 °C 13,3 °C 0,0 km/h (0 Bft)
15.07.2017 20:47 13,3 °C 13,3 °C 89 % 1022,1 hPa 0,0 mm 0,1 km/h (0 Bft) SO 130 ° 0 min 0,000 mm 0,0 UV-I 7 W/m² 11,5 °C 13,3 °C 1,6 km/h (1 Bft)
15.07.2017 20:48 13,2 °C 13,3 °C 89 % 1022,1 hPa 0,0 mm 0,4 km/h (0 Bft) SO 130 ° 0 min 0,000 mm 0,0 UV-I 7 W/m² 11,4 °C 13,2 °C 1,6 km/h (1 Bft)
15.07.2017 20:49 13,2 °C 13,2 °C 89 % 1022,1 hPa 0,0 mm 0,0 km/h (0 Bft) SO 130 ° 0 min 0,000 mm 0,0 UV-I 7 W/m² 11,4 °C 13,2 °C 0,0 km/h (0 Bft)
15.07.2017 20:50 13,2 °C 13,2 °C 89 % 1022,1 hPa 0,0 mm 0,0 km/h (0 Bft) SO 130 ° 0 min 0,000 mm 0,0 UV-I 5 W/m² 11,4 °C 13,2 °C 0,0 km/h (0 Bft)
15.07.2017 20:51 13,2 °C 13,2 °C 89 % 1022,1 hPa 0,0 mm 0,0 km/h (0 Bft) SO 130 ° 0 min 0,000 mm 0,0 UV-I 5 W/m² 11,4 °C 13,2 °C 0,0 km/h (0 Bft)
15.07.2017 20:52 13,2 °C 13,2 °C 89 % 1022,0 hPa 0,0 mm 0,0 km/h (0 Bft) SO 130 ° 0 min 0,000 mm 0,0 UV-I 5 W/m² 11,4 °C 13,2 °C 0,0 km/h (0 Bft)
15.07.2017 20:53 13,2 °C 13,2 °C 89 % 1022,0 hPa 0,0 mm 0,0 km/h (0 Bft) SO 130 ° 0 min 0,000 mm 0,0 UV-I 5 W/m² 11,4 °C 13,2 °C 0,0 km/h (0 Bft)
15.07.2017 20:54 13,1 °C 13,2 °C 89 % 1022,0 hPa 0,0 mm 0,0 km/h (0 Bft) SO 130 ° 0 min 0,000 mm 0,0 UV-I 5 W/m² 11,3 °C 13,1 °C 0,0 km/h (0 Bft)
15.07.2017 20:55 13,1 °C 13,1 °C 89 % 1022,0 hPa 0,0 mm 0,9 km/h (0 Bft) SO 130 ° 0 min 0,000 mm 0,0 UV-I 5 W/m² 11,3 °C 13,1 °C 1,6 km/h (1 Bft)
15.07.2017 20:56 13,1 °C 13,1 °C 89 % 1022,0 hPa 0,0 mm 1,4 km/h (1 Bft) SO 130 ° 0 min 0,000 mm 0,0 UV-I 5 W/m² 11,3 °C 13,1 °C 3,2 km/h (1 Bft)
15.07.2017 20:57 13,1 °C 13,1 °C 89 % 1022,0 hPa 0,0 mm 1,9 km/h (1 Bft) SO 130 ° 0 min 0,000 mm 0,0 UV-I 5 W/m² 11,3 °C 13,1 °C 3,2 km/h (1 Bft)
15.07.2017 20:58 13,1 °C 13,1 °C 89 % 1022,0 hPa 0,0 mm 2,8 km/h (1 Bft) SO 130 ° 0 min 0,000 mm 0,0 UV-I 0 W/m² 11,3 °C 13,1 °C 4,8 km/h (1 Bft)
15.07.2017 20:59 13,0 °C 13,1 °C 89 % 1022,0 hPa 0,0 mm 2,2 km/h (1 Bft) SO 130 ° 0 min 0,000 mm 0,0 UV-I 0 W/m² 11,2 °C 13,0 °C 3,2 km/h (1 Bft)
15.07.2017 21:00 13,0 °C 13,1 °C 89 % 1022,1 hPa 0,0 mm 2,7 km/h (1 Bft) SO 130 ° 0 min 0,000 mm 0,0 UV-I 0 W/m² 11,2 °C 13,0 °C 4,8 km/h (1 Bft)
15.07.2017 21:01 13,0 °C 13,0 °C 89 % 1022,1 hPa 0,0 mm 1,7 km/h (1 Bft) SO 130 ° 0 min 0,000 mm 0,0 UV-I 0 W/m² 11,2 °C 13,0 °C 3,2 km/h (1 Bft)
15.07.2017 21:03 12,9 °C 13,0 °C 89 % 1022,2 hPa 0,0 mm 1,5 km/h (1 Bft) SO 130 ° 0 min 0,000 mm 0,0 UV-I 0 W/m² 11,1 °C 12,9 °C 3,2 km/h (1 Bft)
15.07.2017 21:04 12,9 °C 12,9 °C 89 % 1022,2 hPa 0,0 mm 1,0 km/h (0 Bft) SO 130 ° 0 min 0,000 mm 0,0 UV-I 0 W/m² 11,1 °C 12,9 °C 1,6 km/h (1 Bft)
15.07.2017 21:05 12,9 °C 12,9 °C 89 % 1022,2 hPa 0,0 mm 0,1 km/h (0 Bft) SO 130 ° 0 min 0,000 mm 0,0 UV-I 0 W/m² 11,1 °C 12,9 °C 1,6 km/h (1 Bft)
15.07.2017 21:06 12,9 °C 12,9 °C 89 % 1022,2 hPa 0,0 mm 0,1 km/h (0 Bft) SO 130 ° 0 min 0,000 mm 0,0 UV-I 0 W/m² 11,1 °C 12,9 °C 1,6 km/h (1 Bft)
15.07.2017 21:07 12,9 °C 12,9 °C 89 % 1022,1 hPa 0,0 mm 0,0 km/h (0 Bft) SO 130 ° 0 min 0,000 mm 0,0 UV-I 0 W/m² 11,1 °C 12,9 °C 0,0 km/h (0 Bft)
15.07.2017 21:08 12,8 °C 12,9 °C 90 % 1022,1 hPa 0,0 mm 0,2 km/h (0 Bft) SO 130 ° 0 min 0,000 mm 0,0 UV-I 0 W/m² 11,2 °C 12,8 °C 1,6 km/h (1 Bft)
15.07.2017 21:09 12,9 °C 12,9 °C 90 % 1022,2 hPa 0,0 mm 2,4 km/h (1 Bft) SO 130 ° 0 min 0,000 mm 0,0 UV-I 0 W/m² 11,3 °C 12,9 °C 3,2 km/h (1 Bft)
15.07.2017 21:10 12,9 °C 12,9 °C 90 % 1022,1 hPa 0,0 mm 1,3 km/h (1 Bft) SO 130 ° 0 min 0,000 mm 0,0 UV-I 0 W/m² 11,3 °C 12,9 °C 1,6 km/h (1 Bft)
15.07.2017 21:11 12,8 °C 12,9 °C 90 % 1022,2 hPa 0,0 mm 0,7 km/h (0 Bft) SO 130 ° 0 min 0,000 mm 0,0 UV-I 0 W/m² 11,2 °C 12,8 °C 1,6 km/h (1 Bft)
15.07.2017 21:12 12,9 °C 12,9 °C 90 % 1022,1 hPa 0,0 mm 0,4 km/h (0 Bft) SO 130 ° 0 min 0,000 mm 0,0 UV-I 0 W/m² 11,3 °C 12,9 °C 1,6 km/h (1 Bft)
15.07.2017 21:13 12,8 °C 12,9 °C 90 % 1022,2 hPa 0,0 mm 0,0 km/h (0 Bft) SO 130 ° 0 min 0,000 mm 0,0 UV-I 0 W/m² 11,2 °C 12,8 °C 0,0 km/h (0 Bft)
15.07.2017 21:14 12,8 °C 12,8 °C 90 % 1022,2 hPa 0,0 mm 0,0 km/h (0 Bft) SO 130 ° 0 min 0,000 mm 0,0 UV-I 0 W/m² 11,2 °C 12,8 °C 0,0 km/h (0 Bft)
15.07.2017 21:15 12,8 °C 12,8 °C 90 % 1022,2 hPa 0,0 mm 0,0 km/h (0 Bft) SO 130 ° 0 min 0,000 mm 0,0 UV-I 0 W/m² 11,2 °C 12,8 °C 0,0 km/h (0 Bft)
15.07.2017 21:16 12,8 °C 12,8 °C 90 % 1022,2 hPa 0,0 mm 0,0 km/h (0 Bft) SO 130 ° 0 min 0,000 mm 0,0 UV-I 0 W/m² 11,2 °C 12,8 °C 0,0 km/h (0 Bft)
15.07.2017 21:17 12,7 °C 12,8 °C 90 % 1022,3 hPa 0,0 mm 0,0 km/h (0 Bft) SO 130 ° 0 min 0,000 mm 0,0 UV-I 0 W/m² 11,1 °C 12,7 °C 0,0 km/h (0 Bft)
15.07.2017 21:18 12,7 °C 12,7 °C 90 % 1022,4 hPa 0,0 mm 0,0 km/h (0 Bft) SO 130 ° 0 min 0,000 mm 0,0 UV-I 0 W/m² 11,1 °C 12,7 °C 0,0 km/h (0 Bft)
15.07.2017 21:19 12,7 °C 12,7 °C 90 % 1022,4 hPa 0,0 mm 0,0 km/h (0 Bft) SO 130 ° 0 min 0,000 mm 0,0 UV-I 0 W/m² 11,1 °C 12,7 °C 0,0 km/h (0 Bft)
15.07.2017 21:20 12,7 °C 12,7 °C 90 % 1022,4 hPa 0,0 mm 0,0 km/h (0 Bft) SO 130 ° 0 min 0,000 mm 0,0 UV-I 0 W/m² 11,1 °C 12,7 °C 0,0 km/h (0 Bft)
15.07.2017 21:21 12,7 °C 12,7 °C 90 % 1022,4 hPa 0,0 mm 1,1 km/h (1 Bft) SO 130 ° 0 min 0,000 mm 0,0 UV-I 0 W/m² 11,1 °C 12,7 °C 3,2 km/h (1 Bft)
15.07.2017 21:22 12,7 °C 12,7 °C 90 % 1022,4 hPa 0,0 mm 1,7 km/h (1 Bft) SO 130 ° 0 min 0,000 mm 0,0 UV-I 0 W/m² 11,1 °C 12,7 °C 3,2 km/h (1 Bft)
15.07.2017 21:23 12,7 °C 12,7 °C 90 % 1022,4 hPa 0,0 mm 0,3 km/h (0 Bft) SO 130 ° 0 min 0,000 mm 0,0 UV-I 0 W/m² 11,1 °C 12,7 °C 1,6 km/h (1 Bft)
15.07.2017 21:24 12,7 °C 12,7 °C 90 % 1022,4 hPa 0,0 mm 0,0 km/h (0 Bft) SO 130 ° 0 min 0,000 mm 0,0 UV-I 0 W/m² 11,1 °C 12,7 °C 0,0 km/h (0 Bft)
15.07.2017 21:25 12,6 °C 12,7 °C 90 % 1022,4 hPa 0,0 mm 0,0 km/h (0 Bft) SO 130 ° 0 min 0,000 mm 0,0 UV-I 0 W/m² 11,0 °C 12,6 °C 0,0 km/h (0 Bft)
15.07.2017 21:26 12,7 °C 12,7 °C 90 % 1022,4 hPa 0,0 mm 0,3 km/h (0 Bft) SO 130 ° 0 min 0,000 mm 0,0 UV-I 0 W/m² 11,1 °C 12,7 °C 1,6 km/h (1 Bft)
15.07.2017 21:27 12,7 °C 12,7 °C 90 % 1022,4 hPa 0,0 mm 1,9 km/h (1 Bft) SO 130 ° 0 min 0,000 mm 0,0 UV-I 0 W/m² 11,1 °C 12,7 °C 3,2 km/h (1 Bft)
15.07.2017 21:28 12,6 °C 12,7 °C 90 % 1022,4 hPa 0,0 mm 2,0 km/h (1 Bft) SO 130 ° 0 min 0,000 mm 0,0 UV-I 0 W/m² 11,0 °C 12,6 °C 3,2 km/h (1 Bft)
15.07.2017 21:29 12,6 °C 12,6 °C 91 % 1022,4 hPa 0,0 mm 0,9 km/h (0 Bft) SO 130 ° 0 min 0,000 mm 0,0 UV-I 0 W/m² 11,2 °C 12,6 °C 1,6 km/h (1 Bft)
15.07.2017 21:30 12,6 °C 12,6 °C 90 % 1022,4 hPa 0,0 mm 1,4 km/h (1 Bft) SO 130 ° 0 min 0,000 mm 0,0 UV-I 0 W/m² 11,0 °C 12,6 °C 3,2 km/h (1 Bft)
15.07.2017 21:31 12,6 °C 12,6 °C 90 % 1022,4 hPa 0,0 mm 1,6 km/h (1 Bft) SO 130 ° 0 min 0,000 mm 0,0 UV-I 0 W/m² 11,0 °C 12,6 °C 1,6 km/h (1 Bft)
15.07.2017 21:32 12,5 °C 12,6 °C 90 % 1022,4 hPa 0,0 mm 1,1 km/h (1 Bft) SO 130 ° 0 min 0,000 mm 0,0 UV-I 0 W/m² 10,9 °C 12,5 °C 1,6 km/h (1 Bft)
15.07.2017 21:33 12,5 °C 12,6 °C 90 % 1022,4 hPa 0,0 mm 1,7 km/h (1 Bft) SO 130 ° 0 min 0,000 mm 0,0 UV-I 0 W/m² 10,9 °C 12,5 °C 3,2 km/h (1 Bft)
15.07.2017 21:34 12,6 °C 12,6 °C 90 % 1022,5 hPa 0,0 mm 0,2 km/h (0 Bft) SO 130 ° 0 min 0,000 mm 0,0 UV-I 0 W/m² 11,0 °C 12,6 °C 1,6 km/h (1 Bft)
15.07.2017 21:35 12,5 °C 12,6 °C 90 % 1022,5 hPa 0,0 mm 1,0 km/h (0 Bft) SO 130 ° 0 min 0,000 mm 0,0 UV-I 0 W/m² 10,9 °C 12,5 °C 3,2 km/h (1 Bft)
15.07.2017 21:36 12,5 °C 12,5 °C 90 % 1022,5 hPa 0,0 mm 1,0 km/h (0 Bft) SO 130 ° 0 min 0,000 mm 0,0 UV-I 0 W/m² 10,9 °C 12,5 °C 3,2 km/h (1 Bft)
15.07.2017 21:37 12,5 °C 12,5 °C 90 % 1022,5 hPa 0,0 mm 0,0 km/h (0 Bft) SO 130 ° 0 min 0,000 mm 0,0 UV-I 0 W/m² 10,9 °C 12,5 °C 0,0 km/h (0 Bft)
15.07.2017 21:38 12,5 °C 12,5 °C 90 % 1022,5 hPa 0,0 mm 0,0 km/h (0 Bft) SO 130 ° 0 min 0,000 mm 0,0 UV-I 0 W/m² 10,9 °C 12,5 °C 0,0 km/h (0 Bft)
15.07.2017 21:39 12,4 °C 12,5 °C 90 % 1022,5 hPa 0,0 mm 0,1 km/h (0 Bft) SO 130 ° 0 min 0,000 mm 0,0 UV-I 0 W/m² 10,8 °C 12,4 °C 1,6 km/h (1 Bft)
15.07.2017 21:40 12,4 °C 12,4 °C 90 % 1022,5 hPa 0,0 mm 0,0 km/h (0 Bft) SO 130 ° 0 min 0,000 mm 0,0 UV-I 0 W/m² 10,8 °C 12,4 °C 0,0 km/h (0 Bft)
15.07.2017 21:41 12,4 °C 12,4 °C 90 % 1022,5 hPa 0,0 mm 0,2 km/h (0 Bft) SO 130 ° 0 min 0,000 mm 0,0 UV-I 0 W/m² 10,8 °C 12,4 °C 1,6 km/h (1 Bft)
15.07.2017 21:42 12,3 °C 12,4 °C 90 % 1022,6 hPa 0,0 mm 0,0 km/h (0 Bft) SO 130 ° 0 min 0,000 mm 0,0 UV-I 0 W/m² 10,7 °C 12,3 °C 0,0 km/h (0 Bft)
15.07.2017 21:43 12,3 °C 12,3 °C 90 % 1022,6 hPa 0,0 mm 0,0 km/h (0 Bft) SO 130 ° 0 min 0,000 mm 0,0 UV-I 0 W/m² 10,7 °C 12,3 °C 0,0 km/h (0 Bft)
15.07.2017 21:44 12,3 °C 12,3 °C 90 % 1022,7 hPa 0,0 mm 0,0 km/h (0 Bft) SO 130 ° 0 min 0,000 mm 0,0 UV-I 0 W/m² 10,7 °C 12,3 °C 0,0 km/h (0 Bft)
15.07.2017 21:45 12,2 °C 12,3 °C 90 % 1022,7 hPa 0,0 mm 0,0 km/h (0 Bft) SO 130 ° 0 min 0,000 mm 0,0 UV-I 0 W/m² 10,6 °C 12,2 °C 0,0 km/h (0 Bft)
15.07.2017 21:46 12,2 °C 12,3 °C 90 % 1022,7 hPa 0,0 mm 0,0 km/h (0 Bft) SO 130 ° 0 min 0,000 mm 0,0 UV-I 0 W/m² 10,6 °C 12,2 °C 0,0 km/h (0 Bft)
15.07.2017 21:47 12,2 °C 12,2 °C 90 % 1022,7 hPa 0,0 mm 0,0 km/h (0 Bft) SO 130 ° 0 min 0,000 mm 0,0 UV-I 0 W/m² 10,6 °C 12,2 °C 0,0 km/h (0 Bft)
15.07.2017 21:48 12,2 °C 12,2 °C 90 % 1022,7 hPa 0,0 mm 0,0 km/h (0 Bft) SO 130 ° 0 min 0,000 mm 0,0 UV-I 0 W/m² 10,6 °C 12,2 °C 0,0 km/h (0 Bft)
15.07.2017 21:49 12,1 °C 12,2 °C 90 % 1022,7 hPa 0,0 mm 0,0 km/h (0 Bft) SO 130 ° 0 min 0,000 mm 0,0 UV-I 0 W/m² 10,5 °C 12,1 °C 0,0 km/h (0 Bft)
15.07.2017 21:50 12,1 °C 12,2 °C 90 % 1022,7 hPa 0,0 mm 0,0 km/h (0 Bft) SO 130 ° 0 min 0,000 mm 0,0 UV-I 0 W/m² 10,5 °C 12,1 °C 0,0 km/h (0 Bft)
15.07.2017 21:51 12,1 °C 12,1 °C 91 % 1022,7 hPa 0,0 mm 0,0 km/h (0 Bft) SO 130 ° 0 min 0,000 mm 0,0 UV-I 0 W/m² 10,7 °C 12,1 °C 0,0 km/h (0 Bft)
15.07.2017 21:52 12,1 °C 12,1 °C 91 % 1022,7 hPa 0,0 mm 0,0 km/h (0 Bft) SO 130 ° 0 min 0,000 mm 0,0 UV-I 0 W/m² 10,7 °C 12,1 °C 0,0 km/h (0 Bft)
15.07.2017 21:53 12,1 °C 12,1 °C 91 % 1022,7 hPa 0,0 mm 0,0 km/h (0 Bft) SO 130 ° 0 min 0,000 mm 0,0 UV-I 0 W/m² 10,7 °C 12,1 °C 0,0 km/h (0 Bft)
15.07.2017 21:54 12,1 °C 12,1 °C 91 % 1022,8 hPa 0,0 mm 0,0 km/h (0 Bft) SO 130 ° 0 min 0,000 mm 0,0 UV-I 0 W/m² 10,7 °C 12,1 °C 0,0 km/h (0 Bft)
15.07.2017 21:55 12,1 °C 12,1 °C 91 % 1022,8 hPa 0,0 mm 0,0 km/h (0 Bft) SO 130 ° 0 min 0,000 mm 0,0 UV-I 0 W/m² 10,7 °C 12,1 °C 0,0 km/h (0 Bft)
15.07.2017 21:56 12,1 °C 12,1 °C 91 % 1022,8 hPa 0,0 mm 0,1 km/h (0 Bft) SO 130 ° 0 min 0,000 mm 0,0 UV-I 0 W/m² 10,7 °C 12,1 °C 1,6 km/h (1 Bft)
15.07.2017 21:57 12,1 °C 12,1 °C 91 % 1022,8 hPa 0,0 mm 0,3 km/h (0 Bft) SO 130 ° 0 min 0,000 mm 0,0 UV-I 0 W/m² 10,7 °C 12,1 °C 1,6 km/h (1 Bft)
15.07.2017 21:58 12,1 °C 12,1 °C 91 % 1022,8 hPa 0,0 mm 0,1 km/h (0 Bft) SO 130 ° 0 min 0,000 mm 0,0 UV-I 0 W/m² 10,7 °C 12,1 °C 1,6 km/h (1 Bft)
15.07.2017 21:59 12,1 °C 12,1 °C 91 % 1022,8 hPa 0,0 mm 0,0 km/h (0 Bft) SO 130 ° 0 min 0,000 mm 0,0 UV-I 0 W/m² 10,7 °C 12,1 °C 0,0 km/h (0 Bft)
15.07.2017 22:00 12,1 °C 12,1 °C 91 % 1022,9 hPa 0,0 mm 0,0 km/h (0 Bft) SO 130 ° 0 min 0,000 mm 0,0 UV-I 0 W/m² 10,7 °C 12,1 °C 0,0 km/h (0 Bft)
15.07.2017 22:01 12,1 °C 12,1 °C 91 % 1022,9 hPa 0,0 mm 0,0 km/h (0 Bft) SO 130 ° 0 min 0,000 mm 0,0 UV-I 0 W/m² 10,7 °C 12,1 °C 0,0 km/h (0 Bft)
15.07.2017 22:02 12,1 °C 12,1 °C 91 % 1022,9 hPa 0,0 mm 0,0 km/h (0 Bft) SO 130 ° 0 min 0,000 mm 0,0 UV-I 0 W/m² 10,7 °C 12,1 °C 0,0 km/h (0 Bft)
15.07.2017 22:03 12,1 °C 12,1 °C 91 % 1022,9 hPa 0,0 mm 0,0 km/h (0 Bft) SO 130 ° 0 min 0,000 mm 0,0 UV-I 0 W/m² 10,7 °C 12,1 °C 0,0 km/h (0 Bft)
15.07.2017 22:04 12,1 °C 12,1 °C 91 % 1022,9 hPa 0,0 mm 0,0 km/h (0 Bft) SO 130 ° 0 min 0,000 mm 0,0 UV-I 0 W/m² 10,7 °C 12,1 °C 0,0 km/h (0 Bft)
15.07.2017 22:05 12,1 °C 12,1 °C 91 % 1022,9 hPa 0,0 mm 0,0 km/h (0 Bft) SO 130 ° 0 min 0,000 mm 0,0 UV-I 0 W/m² 10,7 °C 12,1 °C 0,0 km/h (0 Bft)
15.07.2017 22:06 12,1 °C 12,1 °C 91 % 1022,9 hPa 0,0 mm 0,0 km/h (0 Bft) SO 130 ° 0 min 0,000 mm 0,0 UV-I 0 W/m² 10,7 °C 12,1 °C 0,0 km/h (0 Bft)
15.07.2017 22:07 12,1 °C 12,1 °C 91 % 1022,9 hPa 0,0 mm 0,0 km/h (0 Bft) SO 130 ° 0 min 0,000 mm 0,0 UV-I 0 W/m² 10,7 °C 12,1 °C 0,0 km/h (0 Bft)
15.07.2017 22:08 12,1 °C 12,1 °C 91 % 1022,9 hPa 0,0 mm 0,0 km/h (0 Bft) SO 130 ° 0 min 0,000 mm 0,0 UV-I 0 W/m² 10,7 °C 12,1 °C 0,0 km/h (0 Bft)
15.07.2017 22:09 12,1 °C 12,1 °C 91 % 1023,0 hPa 0,0 mm 0,0 km/h (0 Bft) SO 130 ° 0 min 0,000 mm 0,0 UV-I 0 W/m² 10,7 °C 12,1 °C 0,0 km/h (0 Bft)
15.07.2017 22:10 12,1 °C 12,1 °C 91 % 1022,9 hPa 0,0 mm 0,0 km/h (0 Bft) SO 130 ° 0 min 0,000 mm 0,0 UV-I 0 W/m² 10,7 °C 12,1 °C 0,0 km/h (0 Bft)
15.07.2017 22:11 12,1 °C 12,1 °C 91 % 1023,0 hPa 0,0 mm 0,0 km/h (0 Bft) SO 130 ° 0 min 0,000 mm 0,0 UV-I 0 W/m² 10,7 °C 12,1 °C 0,0 km/h (0 Bft)
15.07.2017 22:12 12,0 °C 12,1 °C 91 % 1023,0 hPa 0,0 mm 0,0 km/h (0 Bft) SO 130 ° 0 min 0,000 mm 0,0 UV-I 0 W/m² 10,6 °C 12,0 °C 0,0 km/h (0 Bft)
15.07.2017 22:13 11,9 °C 12,0 °C 91 % 1022,9 hPa 0,0 mm 0,0 km/h (0 Bft) SO 130 ° 0 min 0,000 mm 0,0 UV-I 0 W/m² 10,5 °C 11,9 °C 0,0 km/h (0 Bft)
15.07.2017 22:14 11,9 °C 11,9 °C 91 % 1023,0 hPa 0,0 mm 0,0 km/h (0 Bft) SO 130 ° 0 min 0,000 mm 0,0 UV-I 0 W/m² 10,5 °C 11,9 °C 0,0 km/h (0 Bft)
15.07.2017 22:15 11,9 °C 11,9 °C 91 % 1023,0 hPa 0,0 mm 0,0 km/h (0 Bft) SO 130 ° 0 min 0,000 mm 0,0 UV-I 0 W/m² 10,5 °C 11,9 °C 0,0 km/h (0 Bft)
15.07.2017 22:16 11,9 °C 11,9 °C 91 % 1023,0 hPa 0,0 mm 0,0 km/h (0 Bft) SO 130 ° 0 min 0,000 mm 0,0 UV-I 0 W/m² 10,5 °C 11,9 °C 0,0 km/h (0 Bft)
15.07.2017 22:17 11,9 °C 11,9 °C 91 % 1023,0 hPa 0,0 mm 0,0 km/h (0 Bft) SO 130 ° 0 min 0,000 mm 0,0 UV-I 0 W/m² 10,5 °C 11,9 °C 0,0 km/h (0 Bft)
15.07.2017 22:18 11,8 °C 11,9 °C 91 % 1023,0 hPa 0,0 mm 0,0 km/h (0 Bft) SO 130 ° 0 min 0,000 mm 0,0 UV-I 0 W/m² 10,4 °C 11,8 °C 0,0 km/h (0 Bft)
15.07.2017 22:19 11,9 °C 11,9 °C 91 % 1023,1 hPa 0,0 mm 0,0 km/h (0 Bft) SO 130 ° 0 min 0,000 mm 0,0 UV-I 0 W/m² 10,5 °C 11,9 °C 0,0 km/h (0 Bft)
15.07.2017 22:20 11,9 °C 11,9 °C 91 % 1023,1 hPa 0,0 mm 0,0 km/h (0 Bft) SO 130 ° 0 min 0,000 mm 0,0 UV-I 0 W/m² 10,5 °C 11,9 °C 0,0 km/h (0 Bft)
15.07.2017 22:21 11,9 °C 11,9 °C 91 % 1023,1 hPa 0,0 mm 0,0 km/h (0 Bft) SO 130 ° 0 min 0,000 mm 0,0 UV-I 0 W/m² 10,5 °C 11,9 °C 0,0 km/h (0 Bft)
15.07.2017 22:22 11,9 °C 11,9 °C 91 % 1023,1 hPa 0,0 mm 0,0 km/h (0 Bft) SO 130 ° 0 min 0,000 mm 0,0 UV-I 0 W/m² 10,5 °C 11,9 °C 0,0 km/h (0 Bft)
15.07.2017 22:23 11,9 °C 11,9 °C 91 % 1023,1 hPa 0,0 mm 0,0 km/h (0 Bft) SO 130 ° 0 min 0,000 mm 0,0 UV-I 0 W/m² 10,5 °C 11,9 °C 0,0 km/h (0 Bft)
15.07.2017 22:24 11,8 °C 11,9 °C 91 % 1023,1 hPa 0,0 mm 0,0 km/h (0 Bft) SO 130 ° 0 min 0,000 mm 0,0 UV-I 0 W/m² 10,4 °C 11,8 °C 0,0 km/h (0 Bft)
15.07.2017 22:25 11,8 °C 11,9 °C 91 % 1023,2 hPa 0,0 mm 0,0 km/h (0 Bft) SO 130 ° 0 min 0,000 mm 0,0 UV-I 0 W/m² 10,4 °C 11,8 °C 0,0 km/h (0 Bft)
15.07.2017 22:26 11,8 °C 11,9 °C 92 % 1023,2 hPa 0,0 mm 0,0 km/h (0 Bft) SO 130 ° 0 min 0,000 mm 0,0 UV-I 0 W/m² 10,5 °C 11,8 °C 0,0 km/h (0 Bft)
15.07.2017 22:27 11,8 °C 11,8 °C 91 % 1023,2 hPa 0,0 mm 0,0 km/h (0 Bft) SO 130 ° 0 min 0,000 mm 0,0 UV-I 0 W/m² 10,4 °C 11,8 °C 0,0 km/h (0 Bft)
15.07.2017 22:28 11,8 °C 11,8 °C 92 % 1023,3 hPa 0,0 mm 0,0 km/h (0 Bft) SO 130 ° 0 min 0,000 mm 0,0 UV-I 0 W/m² 10,5 °C 11,8 °C 0,0 km/h (0 Bft)
15.07.2017 22:29 11,8 °C 11,8 °C 92 % 1023,3 hPa 0,0 mm 0,0 km/h (0 Bft) SO 130 ° 0 min 0,000 mm 0,0 UV-I 0 W/m² 10,5 °C 11,8 °C 0,0 km/h (0 Bft)
15.07.2017 22:30 11,8 °C 11,8 °C 92 % 1023,2 hPa 0,0 mm 0,0 km/h (0 Bft) SO 130 ° 0 min 0,000 mm 0,0 UV-I 0 W/m² 10,5 °C 11,8 °C 0,0 km/h (0 Bft)
15.07.2017 22:31 11,8 °C 11,8 °C 92 % 1023,2 hPa 0,0 mm 0,0 km/h (0 Bft) SO 130 ° 0 min 0,000 mm 0,0 UV-I 0 W/m² 10,5 °C 11,8 °C 0,0 km/h (0 Bft)
15.07.2017 22:32 11,8 °C 11,8 °C 92 % 1023,3 hPa 0,0 mm 0,0 km/h (0 Bft) SO 130 ° 0 min 0,000 mm 0,0 UV-I 0 W/m² 10,5 °C 11,8 °C 0,0 km/h (0 Bft)
15.07.2017 22:33 11,8 °C 11,8 °C 92 % 1023,2 hPa 0,0 mm 0,0 km/h (0 Bft) SO 130 ° 0 min 0,000 mm 0,0 UV-I 0 W/m² 10,5 °C 11,8 °C 0,0 km/h (0 Bft)
15.07.2017 22:34 11,8 °C 11,8 °C 92 % 1023,3 hPa 0,0 mm 0,0 km/h (0 Bft) SO 130 ° 0 min 0,000 mm 0,0 UV-I 0 W/m² 10,5 °C 11,8 °C 0,0 km/h (0 Bft)
15.07.2017 22:35 11,8 °C 11,8 °C 92 % 1023,2 hPa 0,0 mm 0,0 km/h (0 Bft) SO 130 ° 0 min 0,000 mm 0,0 UV-I 0 W/m² 10,5 °C 11,8 °C 0,0 km/h (0 Bft)
15.07.2017 22:36 11,8 °C 11,8 °C 92 % 1023,3 hPa 0,0 mm 0,0 km/h (0 Bft) SO 130 ° 0 min 0,000 mm 0,0 UV-I 0 W/m² 10,5 °C 11,8 °C 0,0 km/h (0 Bft)
15.07.2017 22:37 11,8 °C 11,9 °C 92 % 1023,2 hPa 0,0 mm 0,0 km/h (0 Bft) SO 130 ° 0 min 0,000 mm 0,0 UV-I 0 W/m² 10,5 °C 11,8 °C 0,0 km/h (0 Bft)
15.07.2017 22:38 11,9 °C 11,9 °C 92 % 1023,3 hPa 0,0 mm 0,0 km/h (0 Bft) SO 130 ° 0 min 0,000 mm 0,0 UV-I 0 W/m² 10,6 °C 11,9 °C 0,0 km/h (0 Bft)
15.07.2017 22:39 11,9 °C 11,9 °C 92 % 1023,3 hPa 0,0 mm 0,0 km/h (0 Bft) SO 130 ° 0 min 0,000 mm 0,0 UV-I 0 W/m² 10,6 °C 11,9 °C 0,0 km/h (0 Bft)
15.07.2017 22:40 11,9 °C 11,9 °C 92 % 1023,3 hPa 0,0 mm 0,0 km/h (0 Bft) SO 130 ° 0 min 0,000 mm 0,0 UV-I 0 W/m² 10,6 °C 11,9 °C 0,0 km/h (0 Bft)
15.07.2017 22:41 11,9 °C 11,9 °C 92 % 1023,3 hPa 0,0 mm 0,0 km/h (0 Bft) SO 130 ° 0 min 0,000 mm 0,0 UV-I 0 W/m² 10,6 °C 11,9 °C 0,0 km/h (0 Bft)
15.07.2017 22:42 11,8 °C 11,9 °C 92 % 1023,3 hPa 0,0 mm 0,0 km/h (0 Bft) SO 130 ° 0 min 0,000 mm 0,0 UV-I 0 W/m² 10,5 °C 11,8 °C 0,0 km/h (0 Bft)
15.07.2017 22:43 11,8 °C 11,8 °C 92 % 1023,3 hPa 0,0 mm 0,0 km/h (0 Bft) SO 130 ° 0 min 0,000 mm 0,0 UV-I 0 W/m² 10,5 °C 11,8 °C 0,0 km/h (0 Bft)
15.07.2017 22:44 11,8 °C 11,8 °C 92 % 1023,3 hPa 0,0 mm 0,0 km/h (0 Bft) SO 130 ° 0 min 0,000 mm 0,0 UV-I 0 W/m² 10,5 °C 11,8 °C 0,0 km/h (0 Bft)
15.07.2017 22:45 11,8 °C 11,8 °C 92 % 1023,3 hPa 0,0 mm 0,0 km/h (0 Bft) SO 130 ° 0 min 0,000 mm 0,0 UV-I 0 W/m² 10,5 °C 11,8 °C 0,0 km/h (0 Bft)
15.07.2017 22:46 11,8 °C 11,8 °C 92 % 1023,4 hPa 0,0 mm 0,0 km/h (0 Bft) SO 130 ° 0 min 0,000 mm 0,0 UV-I 0 W/m² 10,5 °C 11,8 °C 0,0 km/h (0 Bft)
15.07.2017 22:47 11,7 °C 11,8 °C 92 % 1023,4 hPa 0,0 mm 0,0 km/h (0 Bft) SO 130 ° 0 min 0,000 mm 0,0 UV-I 0 W/m² 10,4 °C 11,7 °C 0,0 km/h (0 Bft)
15.07.2017 22:48 11,7 °C 11,8 °C 92 % 1023,3 hPa 0,0 mm 0,0 km/h (0 Bft) SO 130 ° 0 min 0,000 mm 0,0 UV-I 0 W/m² 10,4 °C 11,7 °C 0,0 km/h (0 Bft)
15.07.2017 22:49 11,7 °C 11,7 °C 92 % 1023,4 hPa 0,0 mm 0,0 km/h (0 Bft) SO 130 ° 0 min 0,000 mm 0,0 UV-I 0 W/m² 10,4 °C 11,7 °C 0,0 km/h (0 Bft)
15.07.2017 22:50 11,7 °C 11,7 °C 92 % 1023,4 hPa 0,0 mm 0,0 km/h (0 Bft) SO 130 ° 0 min 0,000 mm 0,0 UV-I 0 W/m² 10,4 °C 11,7 °C 0,0 km/h (0 Bft)
15.07.2017 22:51 11,6 °C 11,7 °C 92 % 1023,4 hPa 0,0 mm 0,0 km/h (0 Bft) SO 130 ° 0 min 0,000 mm 0,0 UV-I 0 W/m² 10,3 °C 11,6 °C 0,0 km/h (0 Bft)
15.07.2017 22:52 11,6 °C 11,6 °C 92 % 1023,3 hPa 0,0 mm 0,0 km/h (0 Bft) SO 130 ° 0 min 0,000 mm 0,0 UV-I 0 W/m² 10,3 °C 11,6 °C 0,0 km/h (0 Bft)
15.07.2017 22:53 11,6 °C 11,6 °C 92 % 1023,4 hPa 0,0 mm 0,0 km/h (0 Bft) SO 130 ° 0 min 0,000 mm 0,0 UV-I 0 W/m² 10,3 °C 11,6 °C 0,0 km/h (0 Bft)
15.07.2017 22:54 11,6 °C 11,6 °C 92 % 1023,4 hPa 0,0 mm 0,0 km/h (0 Bft) SO 130 ° 0 min 0,000 mm 0,0 UV-I 0 W/m² 10,3 °C 11,6 °C 0,0 km/h (0 Bft)
15.07.2017 22:55 11,6 °C 11,6 °C 92 % 1023,3 hPa 0,0 mm 0,0 km/h (0 Bft) SO 130 ° 0 min 0,000 mm 0,0 UV-I 0 W/m² 10,3 °C 11,6 °C 0,0 km/h (0 Bft)
15.07.2017 22:56 11,6 °C 11,6 °C 92 % 1023,4 hPa 0,0 mm 0,0 km/h (0 Bft) SO 130 ° 0 min 0,000 mm 0,0 UV-I 0 W/m² 10,3 °C 11,6 °C 0,0 km/h (0 Bft)
15.07.2017 22:57 11,6 °C 11,6 °C 92 % 1023,4 hPa 0,0 mm 0,0 km/h (0 Bft) SO 130 ° 0 min 0,000 mm 0,0 UV-I 0 W/m² 10,3 °C 11,6 °C 0,0 km/h (0 Bft)
15.07.2017 22:58 11,6 °C 11,6 °C 92 % 1023,4 hPa 0,0 mm 0,0 km/h (0 Bft) SO 130 ° 0 min 0,000 mm 0,0 UV-I 0 W/m² 10,3 °C 11,6 °C 0,0 km/h (0 Bft)
15.07.2017 22:59 11,6 °C 11,6 °C 92 % 1023,5 hPa 0,0 mm 0,1 km/h (0 Bft) SO 130 ° 0 min 0,000 mm 0,0 UV-I 0 W/m² 10,3 °C 11,6 °C 1,6 km/h (1 Bft)
15.07.2017 23:00 11,6 °C 11,6 °C 92 % 1023,4 hPa 0,0 mm 0,0 km/h (0 Bft) SO 130 ° 0 min 0,000 mm 0,0 UV-I 0 W/m² 10,3 °C 11,6 °C 0,0 km/h (0 Bft)
15.07.2017 23:01 11,6 °C 11,6 °C 92 % 1023,4 hPa 0,0 mm 0,0 km/h (0 Bft) SO 130 ° 0 min 0,000 mm 0,0 UV-I 0 W/m² 10,3 °C 11,6 °C 0,0 km/h (0 Bft)
15.07.2017 23:02 11,5 °C 11,6 °C 92 % 1023,4 hPa 0,0 mm 0,0 km/h (0 Bft) SO 130 ° 0 min 0,000 mm 0,0 UV-I 0 W/m² 10,2 °C 11,5 °C 0,0 km/h (0 Bft)
15.07.2017 23:03 11,5 °C 11,5 °C 92 % 1023,4 hPa 0,0 mm 0,0 km/h (0 Bft) SO 130 ° 0 min 0,000 mm 0,0 UV-I 0 W/m² 10,2 °C 11,5 °C 0,0 km/h (0 Bft)
15.07.2017 23:04 11,5 °C 11,6 °C 92 % 1023,4 hPa 0,0 mm 0,0 km/h (0 Bft) SO 130 ° 0 min 0,000 mm 0,0 UV-I 0 W/m² 10,2 °C 11,5 °C 0,0 km/h (0 Bft)
15.07.2017 23:05 11,5 °C 11,6 °C 92 % 1023,4 hPa 0,0 mm 1,1 km/h (1 Bft) SO 130 ° 0 min 0,000 mm 0,0 UV-I 0 W/m² 10,2 °C 11,5 °C 3,2 km/h (1 Bft)
15.07.2017 23:06 11,5 °C 11,6 °C 92 % 1023,4 hPa 0,0 mm 2,1 km/h (1 Bft) SO 130 ° 0 min 0,000 mm 0,0 UV-I 0 W/m² 10,2 °C 11,5 °C 3,2 km/h (1 Bft)
15.07.2017 23:07 11,6 °C 11,6 °C 92 % 1023,4 hPa 0,0 mm 0,5 km/h (0 Bft) SO 130 ° 0 min 0,000 mm 0,0 UV-I 0 W/m² 10,3 °C 11,6 °C 1,6 km/h (1 Bft)
15.07.2017 23:08 11,5 °C 11,6 °C 92 % 1023,4 hPa 0,0 mm 0,7 km/h (0 Bft) SO 130 ° 0 min 0,000 mm 0,0 UV-I 0 W/m² 10,2 °C 11,5 °C 1,6 km/h (1 Bft)
15.07.2017 23:09 11,6 °C 11,6 °C 92 % 1023,4 hPa 0,0 mm 0,9 km/h (0 Bft) SO 130 ° 0 min 0,000 mm 0,0 UV-I 0 W/m² 10,3 °C 11,6 °C 3,2 km/h (1 Bft)
15.07.2017 23:10 11,6 °C 11,6 °C 91 % 1023,4 hPa 0,0 mm 2,3 km/h (1 Bft) S-SO 153 ° 0 min 0,000 mm 0,0 UV-I 0 W/m² 10,2 °C 11,6 °C 3,2 km/h (1 Bft)
15.07.2017 23:11 11,6 °C 11,6 °C 91 % 1023,5 hPa 0,0 mm 1,0 km/h (0 Bft) S-SO 153 ° 0 min 0,000 mm 0,0 UV-I 0 W/m² 10,2 °C 11,6 °C 3,2 km/h (1 Bft)
15.07.2017 23:12 11,6 °C 11,6 °C 91 % 1023,5 hPa 0,0 mm 2,1 km/h (1 Bft) S-SO 155 ° 0 min 0,000 mm 0,0 UV-I 0 W/m² 10,2 °C 11,6 °C 4,8 km/h (1 Bft)
15.07.2017 23:13 11,6 °C 11,6 °C 91 % 1023,5 hPa 0,0 mm 0,9 km/h (0 Bft) S-SO 155 ° 0 min 0,000 mm 0,0 UV-I 0 W/m² 10,2 °C 11,6 °C 4,8 km/h (1 Bft)
15.07.2017 23:14 11,6 °C 11,6 °C 91 % 1023,5 hPa 0,0 mm 0,0 km/h (0 Bft) S-SO 155 ° 0 min 0,000 mm 0,0 UV-I 0 W/m² 10,2 °C 11,6 °C 0,0 km/h (0 Bft)
15.07.2017 23:15 11,6 °C 11,6 °C 90 % 1023,4 hPa 0,0 mm 0,0 km/h (0 Bft) S-SO 155 ° 0 min 0,000 mm 0,0 UV-I 0 W/m² 10,0 °C 11,6 °C 0,0 km/h (0 Bft)
15.07.2017 23:16 11,6 °C 11,6 °C 91 % 1023,5 hPa 0,0 mm 0,0 km/h (0 Bft) S-SO 155 ° 0 min 0,000 mm 0,0 UV-I 0 W/m² 10,2 °C 11,6 °C 0,0 km/h (0 Bft)
15.07.2017 23:17 11,6 °C 11,6 °C 90 % 1023,5 hPa 0,0 mm 0,0 km/h (0 Bft) S-SO 155 ° 0 min 0,000 mm 0,0 UV-I 0 W/m² 10,0 °C 11,6 °C 0,0 km/h (0 Bft)
15.07.2017 23:18 11,6 °C 11,6 °C 90 % 1023,5 hPa 0,0 mm 0,0 km/h (0 Bft) S-SO 155 ° 0 min 0,000 mm 0,0 UV-I 0 W/m² 10,0 °C 11,6 °C 0,0 km/h (0 Bft)
15.07.2017 23:19 11,6 °C 11,6 °C 90 % 1023,5 hPa 0,0 mm 0,0 km/h (0 Bft) S-SO 155 ° 0 min 0,000 mm 0,0 UV-I 0 W/m² 10,0 °C 11,6 °C 0,0 km/h (0 Bft)
15.07.2017 23:20 11,6 °C 11,6 °C 90 % 1023,5 hPa 0,0 mm 0,0 km/h (0 Bft) S-SO 155 ° 0 min 0,000 mm 0,0 UV-I 0 W/m² 10,0 °C 11,6 °C 0,0 km/h (0 Bft)
15.07.2017 23:21 11,6 °C 11,7 °C 90 % 1023,5 hPa 0,0 mm 0,3 km/h (0 Bft) S-SO 155 ° 0 min 0,000 mm 0,0 UV-I 0 W/m² 10,0 °C 11,6 °C 1,6 km/h (1 Bft)
15.07.2017 23:22 11,7 °C 11,7 °C 90 % 1023,5 hPa 0,0 mm 0,0 km/h (0 Bft) S-SO 155 ° 0 min 0,000 mm 0,0 UV-I 0 W/m² 10,1 °C 11,7 °C 0,0 km/h (0 Bft)
15.07.2017 23:23 11,6 °C 11,7 °C 90 % 1023,5 hPa 0,0 mm 0,0 km/h (0 Bft) S-SO 155 ° 0 min 0,000 mm 0,0 UV-I 0 W/m² 10,0 °C 11,6 °C 0,0 km/h (0 Bft)
15.07.2017 23:24 11,6 °C 11,7 °C 90 % 1023,6 hPa 0,0 mm 0,1 km/h (0 Bft) S-SO 155 ° 0 min 0,000 mm 0,0 UV-I 0 W/m² 10,0 °C 11,6 °C 1,6 km/h (1 Bft)
15.07.2017 23:25 11,6 °C 11,6 °C 90 % 1023,6 hPa 0,0 mm 0,2 km/h (0 Bft) S-SO 155 ° 0 min 0,000 mm 0,0 UV-I 0 W/m² 10,0 °C 11,6 °C 1,6 km/h (1 Bft)
15.07.2017 23:26 11,6 °C 11,6 °C 90 % 1023,6 hPa 0,0 mm 0,0 km/h (0 Bft) S-SO 155 ° 0 min 0,000 mm 0,0 UV-I 0 W/m² 10,0 °C 11,6 °C 0,0 km/h (0 Bft)
15.07.2017 23:27 11,6 °C 11,6 °C 90 % 1023,6 hPa 0,0 mm 0,2 km/h (0 Bft) S-SO 155 ° 0 min 0,000 mm 0,0 UV-I 0 W/m² 10,0 °C 11,6 °C 1,6 km/h (1 Bft)
15.07.2017 23:28 11,6 °C 11,6 °C 90 % 1023,6 hPa 0,0 mm 0,0 km/h (0 Bft) S-SO 155 ° 0 min 0,000 mm 0,0 UV-I 0 W/m² 10,0 °C 11,6 °C 0,0 km/h (0 Bft)
15.07.2017 23:29 11,6 °C 11,6 °C 90 % 1023,6 hPa 0,0 mm 1,5 km/h (1 Bft) S-SO 155 ° 0 min 0,000 mm 0,0 UV-I 0 W/m² 10,0 °C 11,6 °C 4,8 km/h (1 Bft)
15.07.2017 23:30 11,6 °C 11,6 °C 90 % 1023,6 hPa 0,0 mm 3,1 km/h (1 Bft) SO 140 ° 0 min 0,000 mm 0,0 UV-I 0 W/m² 10,0 °C 11,6 °C 4,8 km/h (1 Bft)
15.07.2017 23:31 11,5 °C 11,6 °C 90 % 1023,5 hPa 0,0 mm 3,8 km/h (1 Bft) SO 137 ° 0 min 0,000 mm 0,0 UV-I 0 W/m² 9,9 °C 11,5 °C 6,4 km/h (2 Bft)
15.07.2017 23:32 11,5 °C 11,5 °C 90 % 1023,5 hPa 0,0 mm 0,3 km/h (0 Bft) SO 137 ° 0 min 0,000 mm 0,0 UV-I 0 W/m² 9,9 °C 11,5 °C 1,6 km/h (1 Bft)
15.07.2017 23:33 11,5 °C 11,5 °C 90 % 1023,6 hPa 0,0 mm 0,0 km/h (0 Bft) SO 137 ° 0 min 0,000 mm 0,0 UV-I 0 W/m² 9,9 °C 11,5 °C 0,0 km/h (0 Bft)
15.07.2017 23:34 11,5 °C 11,5 °C 90 % 1023,5 hPa 0,0 mm 0,0 km/h (0 Bft) SO 137 ° 0 min 0,000 mm 0,0 UV-I 0 W/m² 9,9 °C 11,5 °C 0,0 km/h (0 Bft)
15.07.2017 23:35 11,5 °C 11,5 °C 90 % 1023,6 hPa 0,0 mm 0,0 km/h (0 Bft) SO 137 ° 0 min 0,000 mm 0,0 UV-I 0 W/m² 9,9 °C 11,5 °C 0,0 km/h (0 Bft)
15.07.2017 23:36 11,5 °C 11,5 °C 90 % 1023,6 hPa 0,0 mm 0,0 km/h (0 Bft) SO 137 ° 0 min 0,000 mm 0,0 UV-I 0 W/m² 9,9 °C 11,5 °C 0,0 km/h (0 Bft)
15.07.2017 23:37 11,5 °C 11,5 °C 89 % 1023,6 hPa 0,0 mm 0,0 km/h (0 Bft) SO 137 ° 0 min 0,000 mm 0,0 UV-I 0 W/m² 9,8 °C 11,5 °C 0,0 km/h (0 Bft)
15.07.2017 23:38 11,5 °C 11,5 °C 90 % 1023,6 hPa 0,0 mm 0,0 km/h (0 Bft) SO 137 ° 0 min 0,000 mm 0,0 UV-I 0 W/m² 9,9 °C 11,5 °C 0,0 km/h (0 Bft)
15.07.2017 23:39 11,5 °C 11,5 °C 89 % 1023,6 hPa 0,0 mm 0,0 km/h (0 Bft) SO 137 ° 0 min 0,000 mm 0,0 UV-I 0 W/m² 9,8 °C 11,5 °C 0,0 km/h (0 Bft)
15.07.2017 23:40 11,5 °C 11,5 °C 90 % 1023,6 hPa 0,0 mm 0,0 km/h (0 Bft) SO 137 ° 0 min 0,000 mm 0,0 UV-I 0 W/m² 9,9 °C 11,5 °C 0,0 km/h (0 Bft)
15.07.2017 23:41 11,5 °C 11,5 °C 90 % 1023,6 hPa 0,0 mm 0,0 km/h (0 Bft) SO 137 ° 0 min 0,000 mm 0,0 UV-I 0 W/m² 9,9 °C 11,5 °C 0,0 km/h (0 Bft)
15.07.2017 23:42 11,5 °C 11,5 °C 90 % 1023,6 hPa 0,0 mm 0,0 km/h (0 Bft) SO 137 ° 0 min 0,000 mm 0,0 UV-I 0 W/m² 9,9 °C 11,5 °C 0,0 km/h (0 Bft)
15.07.2017 23:43 11,4 °C 11,5 °C 90 % 1023,6 hPa 0,0 mm 0,0 km/h (0 Bft) SO 137 ° 0 min 0,000 mm 0,0 UV-I 0 W/m² 9,8 °C 11,4 °C 0,0 km/h (0 Bft)
15.07.2017 23:44 11,4 °C 11,4 °C 90 % 1023,5 hPa 0,0 mm 0,0 km/h (0 Bft) SO 137 ° 0 min 0,000 mm 0,0 UV-I 0 W/m² 9,8 °C 11,4 °C 0,0 km/h (0 Bft)
15.07.2017 23:45 11,4 °C 11,4 °C 90 % 1023,5 hPa 0,0 mm 0,0 km/h (0 Bft) SO 137 ° 0 min 0,000 mm 0,0 UV-I 0 W/m² 9,8 °C 11,4 °C 0,0 km/h (0 Bft)
15.07.2017 23:46 11,4 °C 11,4 °C 90 % 1023,5 hPa 0,0 mm 0,0 km/h (0 Bft) SO 137 ° 0 min 0,000 mm 0,0 UV-I 0 W/m² 9,8 °C 11,4 °C 0,0 km/h (0 Bft)
15.07.2017 23:47 11,3 °C 11,4 °C 90 % 1023,5 hPa 0,0 mm 1,1 km/h (1 Bft) SO 137 ° 0 min 0,000 mm 0,0 UV-I 0 W/m² 9,7 °C 11,3 °C 3,2 km/h (1 Bft)
15.07.2017 23:48 11,4 °C 11,4 °C 90 % 1023,6 hPa 0,0 mm 2,5 km/h (1 Bft) SO 137 ° 0 min 0,000 mm 0,0 UV-I 0 W/m² 9,8 °C 11,4 °C 4,8 km/h (1 Bft)
15.07.2017 23:49 11,4 °C 11,4 °C 90 % 1023,6 hPa 0,0 mm 0,7 km/h (0 Bft) SO 137 ° 0 min 0,000 mm 0,0 UV-I 0 W/m² 9,8 °C 11,4 °C 1,6 km/h (1 Bft)
15.07.2017 23:50 11,4 °C 11,4 °C 90 % 1023,6 hPa 0,0 mm 0,0 km/h (0 Bft) SO 137 ° 0 min 0,000 mm 0,0 UV-I 0 W/m² 9,8 °C 11,4 °C 0,0 km/h (0 Bft)
15.07.2017 23:51 11,4 °C 11,4 °C 90 % 1023,6 hPa 0,0 mm 0,0 km/h (0 Bft) SO 137 ° 0 min 0,000 mm 0,0 UV-I 0 W/m² 9,8 °C 11,4 °C 0,0 km/h (0 Bft)
15.07.2017 23:52 11,3 °C 11,4 °C 89 % 1023,5 hPa 0,0 mm 0,0 km/h (0 Bft) SO 137 ° 0 min 0,000 mm 0,0 UV-I 0 W/m² 9,6 °C 11,3 °C 0,0 km/h (0 Bft)
15.07.2017 23:53 11,3 °C 11,3 °C 90 % 1023,6 hPa 0,0 mm 0,0 km/h (0 Bft) SO 137 ° 0 min 0,000 mm 0,0 UV-I 0 W/m² 9,7 °C 11,3 °C 0,0 km/h (0 Bft)
15.07.2017 23:54 11,3 °C 11,3 °C 90 % 1023,6 hPa 0,0 mm 0,0 km/h (0 Bft) SO 137 ° 0 min 0,000 mm 0,0 UV-I 0 W/m² 9,7 °C 11,3 °C 0,0 km/h (0 Bft)
15.07.2017 23:55 11,3 °C 11,3 °C 90 % 1023,6 hPa 0,0 mm 0,0 km/h (0 Bft) SO 137 ° 0 min 0,000 mm 0,0 UV-I 0 W/m² 9,7 °C 11,3 °C 0,0 km/h (0 Bft)
15.07.2017 23:56 11,3 °C 11,3 °C 90 % 1023,5 hPa 0,0 mm 0,0 km/h (0 Bft) SO 137 ° 0 min 0,000 mm 0,0 UV-I 0 W/m² 9,7 °C 11,3 °C 0,0 km/h (0 Bft)
15.07.2017 23:57 11,3 °C 11,3 °C 90 % 1023,6 hPa 0,0 mm 0,0 km/h (0 Bft) SO 137 ° 0 min 0,000 mm 0,0 UV-I 0 W/m² 9,7 °C 11,3 °C 0,0 km/h (0 Bft)
15.07.2017 23:58 11,3 °C 11,3 °C 90 % 1023,5 hPa 0,0 mm 0,0 km/h (0 Bft) SO 137 ° 0 min 0,000 mm 0,0 UV-I 0 W/m² 9,7 °C 11,3 °C 0,0 km/h (0 Bft)
15.07.2017 23:59 11,3 °C 11,3 °C 90 % 1023,5 hPa 0,0 mm 0,0 km/h (0 Bft) SO 137 ° 0 min 0,000 mm 0,0 UV-I 0 W/m² 9,7 °C 11,3 °C 0,0 km/h (0 Bft)
_ Min-Zeit 07:47 07:47 16:37 00:25 - 23:59 - - - - - - 11:47 07:47 23:59
Minimum _ 10,4 °C 10,4 °C 66 % 1016,7 hPa - 0,0 km/h (0 Bft) - - - - - - 9,0 °C 10,4 °C 0,0 km/h (0 Bft)
_ Max-Zeit 15:41 15:41 08:32 23:57 07:32 00:48 - - 15:39 16:01 13:19 14:28 15:37 15:41 05:50
Maximum _ 16,5 °C 16,5 °C 93 % 1023,6 hPa 0,2 mm 14,2 km/h
S (3 Bft)
- - 1 min 0,228 mm 7,3 UV-I 1116 W/m² 12,3 °C 16,4 °C 19,3 km/h
NW (3 Bft)
Durchschnitt _ 13,0 °C 13,1 °C 84 % 1020,1 hPa #1,4 mm 2,5 km/h (1 Bft) W - #2:01 h #1,549 mm 1,9 UV-I 105 W/m² 10,4 °C 13,0 °C 4,5 km/h (1 Bft)